<?xml version="1.0" encoding="UTF-8" standalone="no" ?>
<gpx xmlns="http://www.topografix.com/GPX/1/1" xmlns:xsi="http://www.w3.org/2001/XMLSchema-instance" xsi:schemaLocation="http://www.topografix.com/GPX/1/1 http://www.topografix.com/GPX/1/1/gpx.xsd" version="1.1" creator="VisuGPX - https://www.visugpx.com">
  <metadata>
    <name>Sortie GR du 20 novembre 2011</name>
    <desc><![CDATA[Environ 17km de singles, de vallons et de monts]]></desc>
  </metadata>
  <trk>
    <name><![CDATA[2011-11-20T08:10:31Z]]></name>
    <trkseg>
      <trkpt lat="45.83781" lon="4.82519">
        <ele>193.9</ele>
        <time>2011-11-20T08:10:31Z</time>
      </trkpt>
      <trkpt lat="45.8378" lon="4.82527">
        <ele>210.8</ele>
        <time>2011-11-20T08:10:35Z</time>
      </trkpt>
      <trkpt lat="45.8378" lon="4.82543">
        <ele>210.6</ele>
        <time>2011-11-20T08:10:40Z</time>
      </trkpt>
      <trkpt lat="45.8378" lon="4.82546">
        <ele>210.6</ele>
        <time>2011-11-20T08:10:41Z</time>
      </trkpt>
      <trkpt lat="45.83775" lon="4.82555">
        <ele>210.4</ele>
        <time>2011-11-20T08:10:45Z</time>
      </trkpt>
      <trkpt lat="45.8377" lon="4.82562">
        <ele>210.2</ele>
        <time>2011-11-20T08:10:48Z</time>
      </trkpt>
      <trkpt lat="45.83768" lon="4.82566">
        <ele>210.2</ele>
        <time>2011-11-20T08:10:49Z</time>
      </trkpt>
      <trkpt lat="45.83763" lon="4.82578">
        <ele>209.8</ele>
        <time>2011-11-20T08:10:53Z</time>
      </trkpt>
      <trkpt lat="45.8376" lon="4.82587">
        <ele>209.6</ele>
        <time>2011-11-20T08:10:56Z</time>
      </trkpt>
      <trkpt lat="45.83759" lon="4.8259">
        <ele>209.6</ele>
        <time>2011-11-20T08:10:57Z</time>
      </trkpt>
      <trkpt lat="45.83761" lon="4.82607">
        <ele>209</ele>
        <time>2011-11-20T08:11:02Z</time>
      </trkpt>
      <trkpt lat="45.83761" lon="4.82614">
        <ele>208.8</ele>
        <time>2011-11-20T08:11:04Z</time>
      </trkpt>
      <trkpt lat="45.83763" lon="4.82624">
        <ele>208.4</ele>
        <time>2011-11-20T08:11:07Z</time>
      </trkpt>
      <trkpt lat="45.83767" lon="4.82638">
        <ele>207.6</ele>
        <time>2011-11-20T08:11:11Z</time>
      </trkpt>
      <trkpt lat="45.83768" lon="4.82641">
        <ele>207.4</ele>
        <time>2011-11-20T08:11:12Z</time>
      </trkpt>
      <trkpt lat="45.83769" lon="4.8266">
        <ele>206.6</ele>
        <time>2011-11-20T08:11:17Z</time>
      </trkpt>
      <trkpt lat="45.8377" lon="4.8267">
        <ele>206</ele>
        <time>2011-11-20T08:11:20Z</time>
      </trkpt>
      <trkpt lat="45.8377" lon="4.82683">
        <ele>205.2</ele>
        <time>2011-11-20T08:11:24Z</time>
      </trkpt>
      <trkpt lat="45.8377" lon="4.82697">
        <ele>204.4</ele>
        <time>2011-11-20T08:11:28Z</time>
      </trkpt>
      <trkpt lat="45.83769" lon="4.82699">
        <ele>204.2</ele>
        <time>2011-11-20T08:11:29Z</time>
      </trkpt>
      <trkpt lat="45.83769" lon="4.82712">
        <ele>203.2</ele>
        <time>2011-11-20T08:11:33Z</time>
      </trkpt>
      <trkpt lat="45.83769" lon="4.82716">
        <ele>203</ele>
        <time>2011-11-20T08:11:34Z</time>
      </trkpt>
      <trkpt lat="45.83769" lon="4.82723">
        <ele>202.6</ele>
        <time>2011-11-20T08:11:36Z</time>
      </trkpt>
      <trkpt lat="45.83769" lon="4.8273">
        <ele>202.2</ele>
        <time>2011-11-20T08:11:38Z</time>
      </trkpt>
      <trkpt lat="45.83769" lon="4.8275">
        <ele>201</ele>
        <time>2011-11-20T08:11:44Z</time>
      </trkpt>
      <trkpt lat="45.83772" lon="4.82774">
        <ele>199.4</ele>
        <time>2011-11-20T08:11:51Z</time>
      </trkpt>
      <trkpt lat="45.83772" lon="4.82777">
        <ele>199.2</ele>
        <time>2011-11-20T08:11:52Z</time>
      </trkpt>
      <trkpt lat="45.8377" lon="4.82792">
        <ele>198.4</ele>
        <time>2011-11-20T08:11:56Z</time>
      </trkpt>
      <trkpt lat="45.83768" lon="4.82805">
        <ele>197.4</ele>
        <time>2011-11-20T08:12:00Z</time>
      </trkpt>
      <trkpt lat="45.83767" lon="4.82809">
        <ele>197.2</ele>
        <time>2011-11-20T08:12:01Z</time>
      </trkpt>
      <trkpt lat="45.8376" lon="4.82817">
        <ele>196.4</ele>
        <time>2011-11-20T08:12:05Z</time>
      </trkpt>
      <trkpt lat="45.83752" lon="4.82822">
        <ele>195.8</ele>
        <time>2011-11-20T08:12:09Z</time>
      </trkpt>
      <trkpt lat="45.83748" lon="4.82825">
        <ele>195.4</ele>
        <time>2011-11-20T08:12:11Z</time>
      </trkpt>
      <trkpt lat="45.83739" lon="4.82834">
        <ele>194.4</ele>
        <time>2011-11-20T08:12:16Z</time>
      </trkpt>
      <trkpt lat="45.83737" lon="4.82838">
        <ele>194</ele>
        <time>2011-11-20T08:12:18Z</time>
      </trkpt>
      <trkpt lat="45.83736" lon="4.8284">
        <ele>193.8</ele>
        <time>2011-11-20T08:12:19Z</time>
      </trkpt>
      <trkpt lat="45.83735" lon="4.82846">
        <ele>193.4</ele>
        <time>2011-11-20T08:12:21Z</time>
      </trkpt>
      <trkpt lat="45.83737" lon="4.82862">
        <ele>192.4</ele>
        <time>2011-11-20T08:12:26Z</time>
      </trkpt>
      <trkpt lat="45.83737" lon="4.82865">
        <ele>192.2</ele>
        <time>2011-11-20T08:12:27Z</time>
      </trkpt>
      <trkpt lat="45.83733" lon="4.82875">
        <ele>191.6</ele>
        <time>2011-11-20T08:12:31Z</time>
      </trkpt>
      <trkpt lat="45.83731" lon="4.82887">
        <ele>190.8</ele>
        <time>2011-11-20T08:12:35Z</time>
      </trkpt>
      <trkpt lat="45.8373" lon="4.8289">
        <ele>190.6</ele>
        <time>2011-11-20T08:12:36Z</time>
      </trkpt>
      <trkpt lat="45.83729" lon="4.82898">
        <ele>190.4</ele>
        <time>2011-11-20T08:12:38Z</time>
      </trkpt>
      <trkpt lat="45.83727" lon="4.82907">
        <ele>190</ele>
        <time>2011-11-20T08:12:41Z</time>
      </trkpt>
      <trkpt lat="45.83724" lon="4.82916">
        <ele>189.4</ele>
        <time>2011-11-20T08:12:45Z</time>
      </trkpt>
      <trkpt lat="45.83722" lon="4.82919">
        <ele>189</ele>
        <time>2011-11-20T08:12:47Z</time>
      </trkpt>
      <trkpt lat="45.83723" lon="4.82929">
        <ele>188.6</ele>
        <time>2011-11-20T08:12:50Z</time>
      </trkpt>
      <trkpt lat="45.83723" lon="4.82935">
        <ele>188.4</ele>
        <time>2011-11-20T08:12:52Z</time>
      </trkpt>
      <trkpt lat="45.83723" lon="4.8294">
        <ele>188</ele>
        <time>2011-11-20T08:12:54Z</time>
      </trkpt>
      <trkpt lat="45.83721" lon="4.82944">
        <ele>187.8</ele>
        <time>2011-11-20T08:12:56Z</time>
      </trkpt>
      <trkpt lat="45.83711" lon="4.8295">
        <ele>187</ele>
        <time>2011-11-20T08:13:02Z</time>
      </trkpt>
      <trkpt lat="45.83707" lon="4.82953">
        <ele>186.6</ele>
        <time>2011-11-20T08:13:04Z</time>
      </trkpt>
      <trkpt lat="45.837" lon="4.8296">
        <ele>186.2</ele>
        <time>2011-11-20T08:13:08Z</time>
      </trkpt>
      <trkpt lat="45.83692" lon="4.82966">
        <ele>185.8</ele>
        <time>2011-11-20T08:13:12Z</time>
      </trkpt>
      <trkpt lat="45.8369" lon="4.82968">
        <ele>185.6</ele>
        <time>2011-11-20T08:13:13Z</time>
      </trkpt>
      <trkpt lat="45.83676" lon="4.82977">
        <ele>185.2</ele>
        <time>2011-11-20T08:13:20Z</time>
      </trkpt>
      <trkpt lat="45.83673" lon="4.82978">
        <ele>185.2</ele>
        <time>2011-11-20T08:13:21Z</time>
      </trkpt>
      <trkpt lat="45.83662" lon="4.82988">
        <ele>185</ele>
        <time>2011-11-20T08:13:27Z</time>
      </trkpt>
      <trkpt lat="45.83657" lon="4.82993">
        <ele>185</ele>
        <time>2011-11-20T08:13:30Z</time>
      </trkpt>
      <trkpt lat="45.83653" lon="4.82998">
        <ele>185.2</ele>
        <time>2011-11-20T08:13:33Z</time>
      </trkpt>
      <trkpt lat="45.83645" lon="4.83008">
        <ele>186</ele>
        <time>2011-11-20T08:13:38Z</time>
      </trkpt>
      <trkpt lat="45.83642" lon="4.83012">
        <ele>186</ele>
        <time>2011-11-20T08:13:40Z</time>
      </trkpt>
      <trkpt lat="45.83638" lon="4.83015">
        <ele>186</ele>
        <time>2011-11-20T08:13:42Z</time>
      </trkpt>
      <trkpt lat="45.83637" lon="4.83018">
        <ele>186</ele>
        <time>2011-11-20T08:13:43Z</time>
      </trkpt>
      <trkpt lat="45.83629" lon="4.83033">
        <ele>187.2</ele>
        <time>2011-11-20T08:13:48Z</time>
      </trkpt>
      <trkpt lat="45.8362" lon="4.83046">
        <ele>189.8</ele>
        <time>2011-11-20T08:13:54Z</time>
      </trkpt>
      <trkpt lat="45.83616" lon="4.83051">
        <ele>190</ele>
        <time>2011-11-20T08:13:56Z</time>
      </trkpt>
      <trkpt lat="45.83609" lon="4.8306">
        <ele>191.6</ele>
        <time>2011-11-20T08:14:00Z</time>
      </trkpt>
      <trkpt lat="45.83601" lon="4.83067">
        <ele>192.8</ele>
        <time>2011-11-20T08:14:04Z</time>
      </trkpt>
      <trkpt lat="45.83599" lon="4.83068">
        <ele>193.4</ele>
        <time>2011-11-20T08:14:05Z</time>
      </trkpt>
      <trkpt lat="45.83586" lon="4.83083">
        <ele>195.4</ele>
        <time>2011-11-20T08:14:12Z</time>
      </trkpt>
      <trkpt lat="45.83577" lon="4.83095">
        <ele>197</ele>
        <time>2011-11-20T08:14:18Z</time>
      </trkpt>
      <trkpt lat="45.83571" lon="4.83102">
        <ele>198</ele>
        <time>2011-11-20T08:14:22Z</time>
      </trkpt>
      <trkpt lat="45.83568" lon="4.83106">
        <ele>198.4</ele>
        <time>2011-11-20T08:14:24Z</time>
      </trkpt>
      <trkpt lat="45.83559" lon="4.83114">
        <ele>199.2</ele>
        <time>2011-11-20T08:14:29Z</time>
      </trkpt>
      <trkpt lat="45.83555" lon="4.83116">
        <ele>199.8</ele>
        <time>2011-11-20T08:14:31Z</time>
      </trkpt>
      <trkpt lat="45.83548" lon="4.83122">
        <ele>200.2</ele>
        <time>2011-11-20T08:14:36Z</time>
      </trkpt>
      <trkpt lat="45.83541" lon="4.83129">
        <ele>200.4</ele>
        <time>2011-11-20T08:14:41Z</time>
      </trkpt>
      <trkpt lat="45.83539" lon="4.8313">
        <ele>200.2</ele>
        <time>2011-11-20T08:14:43Z</time>
      </trkpt>
      <trkpt lat="45.83528" lon="4.8314">
        <ele>200.2</ele>
        <time>2011-11-20T08:14:50Z</time>
      </trkpt>
      <trkpt lat="45.83523" lon="4.83143">
        <ele>200.2</ele>
        <time>2011-11-20T08:14:54Z</time>
      </trkpt>
      <trkpt lat="45.83515" lon="4.83149">
        <ele>200.4</ele>
        <time>2011-11-20T08:15:00Z</time>
      </trkpt>
      <trkpt lat="45.83508" lon="4.83155">
        <ele>200.2</ele>
        <time>2011-11-20T08:15:05Z</time>
      </trkpt>
      <trkpt lat="45.83506" lon="4.83157">
        <ele>200.2</ele>
        <time>2011-11-20T08:15:06Z</time>
      </trkpt>
      <trkpt lat="45.83502" lon="4.83159">
        <ele>200.4</ele>
        <time>2011-11-20T08:15:09Z</time>
      </trkpt>
      <trkpt lat="45.83499" lon="4.8316">
        <ele>200.8</ele>
        <time>2011-11-20T08:15:11Z</time>
      </trkpt>
      <trkpt lat="45.83493" lon="4.83165">
        <ele>201</ele>
        <time>2011-11-20T08:15:15Z</time>
      </trkpt>
      <trkpt lat="45.83491" lon="4.83166">
        <ele>201.4</ele>
        <time>2011-11-20T08:15:17Z</time>
      </trkpt>
      <trkpt lat="45.83485" lon="4.8317">
        <ele>202</ele>
        <time>2011-11-20T08:15:21Z</time>
      </trkpt>
      <trkpt lat="45.83484" lon="4.83172">
        <ele>202.2</ele>
        <time>2011-11-20T08:15:22Z</time>
      </trkpt>
      <trkpt lat="45.83476" lon="4.83176">
        <ele>203</ele>
        <time>2011-11-20T08:15:28Z</time>
      </trkpt>
      <trkpt lat="45.83475" lon="4.83177">
        <ele>203.4</ele>
        <time>2011-11-20T08:15:29Z</time>
      </trkpt>
      <trkpt lat="45.83471" lon="4.83179">
        <ele>204.2</ele>
        <time>2011-11-20T08:15:32Z</time>
      </trkpt>
      <trkpt lat="45.83469" lon="4.8318">
        <ele>204.2</ele>
        <time>2011-11-20T08:15:34Z</time>
      </trkpt>
      <trkpt lat="45.83467" lon="4.83182">
        <ele>204.6</ele>
        <time>2011-11-20T08:15:36Z</time>
      </trkpt>
      <trkpt lat="45.83461" lon="4.83186">
        <ele>205</ele>
        <time>2011-11-20T08:15:41Z</time>
      </trkpt>
      <trkpt lat="45.83458" lon="4.83187">
        <ele>205.2</ele>
        <time>2011-11-20T08:15:43Z</time>
      </trkpt>
      <trkpt lat="45.83457" lon="4.83188">
        <ele>205.2</ele>
        <time>2011-11-20T08:15:46Z</time>
      </trkpt>
      <trkpt lat="45.83455" lon="4.83191">
        <ele>205.2</ele>
        <time>2011-11-20T08:15:48Z</time>
      </trkpt>
      <trkpt lat="45.83448" lon="4.83192">
        <ele>206.4</ele>
        <time>2011-11-20T08:15:56Z</time>
      </trkpt>
      <trkpt lat="45.83444" lon="4.83192">
        <ele>207.8</ele>
        <time>2011-11-20T08:16:00Z</time>
      </trkpt>
      <trkpt lat="45.83442" lon="4.83195">
        <ele>209</ele>
        <time>2011-11-20T08:16:03Z</time>
      </trkpt>
      <trkpt lat="45.83442" lon="4.83196">
        <ele>209.4</ele>
        <time>2011-11-20T08:16:04Z</time>
      </trkpt>
      <trkpt lat="45.83445" lon="4.83201">
        <ele>212.4</ele>
        <time>2011-11-20T08:16:09Z</time>
      </trkpt>
      <trkpt lat="45.83447" lon="4.83202">
        <ele>212.8</ele>
        <time>2011-11-20T08:16:10Z</time>
      </trkpt>
      <trkpt lat="45.83448" lon="4.83202">
        <ele>213</ele>
        <time>2011-11-20T08:16:11Z</time>
      </trkpt>
      <trkpt lat="45.83453" lon="4.83206">
        <ele>216</ele>
        <time>2011-11-20T08:16:16Z</time>
      </trkpt>
      <trkpt lat="45.83453" lon="4.83213">
        <ele>218.2</ele>
        <time>2011-11-20T08:16:21Z</time>
      </trkpt>
      <trkpt lat="45.83454" lon="4.83213">
        <ele>218.8</ele>
        <time>2011-11-20T08:16:22Z</time>
      </trkpt>
      <trkpt lat="45.83455" lon="4.83214">
        <ele>220</ele>
        <time>2011-11-20T08:16:24Z</time>
      </trkpt>
      <trkpt lat="45.83455" lon="4.83217">
        <ele>221</ele>
        <time>2011-11-20T08:16:26Z</time>
      </trkpt>
      <trkpt lat="45.83455" lon="4.83218">
        <ele>221.6</ele>
        <time>2011-11-20T08:16:27Z</time>
      </trkpt>
      <trkpt lat="45.83457" lon="4.83228">
        <ele>224.2</ele>
        <time>2011-11-20T08:16:34Z</time>
      </trkpt>
      <trkpt lat="45.83459" lon="4.83239">
        <ele>225.4</ele>
        <time>2011-11-20T08:16:40Z</time>
      </trkpt>
      <trkpt lat="45.83459" lon="4.83242">
        <ele>225.8</ele>
        <time>2011-11-20T08:16:42Z</time>
      </trkpt>
      <trkpt lat="45.8346" lon="4.83252">
        <ele>226.8</ele>
        <time>2011-11-20T08:16:49Z</time>
      </trkpt>
      <trkpt lat="45.83455" lon="4.83259">
        <ele>227.4</ele>
        <time>2011-11-20T08:16:55Z</time>
      </trkpt>
      <trkpt lat="45.83453" lon="4.83261">
        <ele>227.4</ele>
        <time>2011-11-20T08:16:57Z</time>
      </trkpt>
      <trkpt lat="45.83445" lon="4.83263">
        <ele>228</ele>
        <time>2011-11-20T08:17:03Z</time>
      </trkpt>
      <trkpt lat="45.83437" lon="4.83262">
        <ele>228.6</ele>
        <time>2011-11-20T08:17:08Z</time>
      </trkpt>
      <trkpt lat="45.83435" lon="4.83262">
        <ele>228.8</ele>
        <time>2011-11-20T08:17:09Z</time>
      </trkpt>
      <trkpt lat="45.83426" lon="4.83263">
        <ele>229.2</ele>
        <time>2011-11-20T08:17:13Z</time>
      </trkpt>
      <trkpt lat="45.83415" lon="4.83263">
        <ele>229.8</ele>
        <time>2011-11-20T08:17:18Z</time>
      </trkpt>
      <trkpt lat="45.83412" lon="4.83261">
        <ele>230.2</ele>
        <time>2011-11-20T08:17:20Z</time>
      </trkpt>
      <trkpt lat="45.83403" lon="4.83259">
        <ele>231</ele>
        <time>2011-11-20T08:17:24Z</time>
      </trkpt>
      <trkpt lat="45.83401" lon="4.83258">
        <ele>231.4</ele>
        <time>2011-11-20T08:17:25Z</time>
      </trkpt>
      <trkpt lat="45.83398" lon="4.83257">
        <ele>231.8</ele>
        <time>2011-11-20T08:17:27Z</time>
      </trkpt>
      <trkpt lat="45.83396" lon="4.83256">
        <ele>232</ele>
        <time>2011-11-20T08:17:28Z</time>
      </trkpt>
      <trkpt lat="45.8339" lon="4.83253">
        <ele>233.2</ele>
        <time>2011-11-20T08:17:31Z</time>
      </trkpt>
      <trkpt lat="45.83385" lon="4.8325">
        <ele>233.6</ele>
        <time>2011-11-20T08:17:33Z</time>
      </trkpt>
      <trkpt lat="45.83379" lon="4.83247">
        <ele>234.8</ele>
        <time>2011-11-20T08:17:36Z</time>
      </trkpt>
      <trkpt lat="45.83377" lon="4.83246">
        <ele>235.2</ele>
        <time>2011-11-20T08:17:37Z</time>
      </trkpt>
      <trkpt lat="45.83368" lon="4.83243">
        <ele>236.6</ele>
        <time>2011-11-20T08:17:41Z</time>
      </trkpt>
      <trkpt lat="45.83366" lon="4.83242">
        <ele>237.2</ele>
        <time>2011-11-20T08:17:42Z</time>
      </trkpt>
      <trkpt lat="45.83361" lon="4.83239">
        <ele>239</ele>
        <time>2011-11-20T08:17:45Z</time>
      </trkpt>
      <trkpt lat="45.83359" lon="4.83239">
        <ele>239.2</ele>
        <time>2011-11-20T08:17:46Z</time>
      </trkpt>
      <trkpt lat="45.83348" lon="4.83236">
        <ele>241.6</ele>
        <time>2011-11-20T08:17:51Z</time>
      </trkpt>
      <trkpt lat="45.83343" lon="4.83234">
        <ele>243</ele>
        <time>2011-11-20T08:17:54Z</time>
      </trkpt>
      <trkpt lat="45.83339" lon="4.83232">
        <ele>243.6</ele>
        <time>2011-11-20T08:17:56Z</time>
      </trkpt>
      <trkpt lat="45.83324" lon="4.83231">
        <ele>246.6</ele>
        <time>2011-11-20T08:18:02Z</time>
      </trkpt>
      <trkpt lat="45.8331" lon="4.83232">
        <ele>249.2</ele>
        <time>2011-11-20T08:18:08Z</time>
      </trkpt>
      <trkpt lat="45.83305" lon="4.83233">
        <ele>250.2</ele>
        <time>2011-11-20T08:18:11Z</time>
      </trkpt>
      <trkpt lat="45.83298" lon="4.83237">
        <ele>251.2</ele>
        <time>2011-11-20T08:18:15Z</time>
      </trkpt>
      <trkpt lat="45.83289" lon="4.83244">
        <ele>251.4</ele>
        <time>2011-11-20T08:18:19Z</time>
      </trkpt>
      <trkpt lat="45.83285" lon="4.83249">
        <ele>251.2</ele>
        <time>2011-11-20T08:18:21Z</time>
      </trkpt>
      <trkpt lat="45.83276" lon="4.83262">
        <ele>251</ele>
        <time>2011-11-20T08:18:26Z</time>
      </trkpt>
      <trkpt lat="45.83269" lon="4.83278">
        <ele>250.4</ele>
        <time>2011-11-20T08:18:31Z</time>
      </trkpt>
      <trkpt lat="45.83266" lon="4.83285">
        <ele>250.2</ele>
        <time>2011-11-20T08:18:33Z</time>
      </trkpt>
      <trkpt lat="45.83263" lon="4.83296">
        <ele>250</ele>
        <time>2011-11-20T08:18:36Z</time>
      </trkpt>
      <trkpt lat="45.83258" lon="4.83309">
        <ele>249.8</ele>
        <time>2011-11-20T08:18:40Z</time>
      </trkpt>
      <trkpt lat="45.83253" lon="4.83316">
        <ele>249.6</ele>
        <time>2011-11-20T08:18:43Z</time>
      </trkpt>
      <trkpt lat="45.83244" lon="4.83327">
        <ele>249.6</ele>
        <time>2011-11-20T08:18:48Z</time>
      </trkpt>
      <trkpt lat="45.83236" lon="4.83337">
        <ele>249.2</ele>
        <time>2011-11-20T08:18:53Z</time>
      </trkpt>
      <trkpt lat="45.83235" lon="4.83339">
        <ele>249.2</ele>
        <time>2011-11-20T08:18:54Z</time>
      </trkpt>
      <trkpt lat="45.83229" lon="4.83344">
        <ele>249.2</ele>
        <time>2011-11-20T08:18:57Z</time>
      </trkpt>
      <trkpt lat="45.83227" lon="4.83345">
        <ele>249</ele>
        <time>2011-11-20T08:18:58Z</time>
      </trkpt>
      <trkpt lat="45.83218" lon="4.83358">
        <ele>249</ele>
        <time>2011-11-20T08:19:04Z</time>
      </trkpt>
      <trkpt lat="45.83216" lon="4.83362">
        <ele>249</ele>
        <time>2011-11-20T08:19:06Z</time>
      </trkpt>
      <trkpt lat="45.83212" lon="4.83366">
        <ele>249</ele>
        <time>2011-11-20T08:19:09Z</time>
      </trkpt>
      <trkpt lat="45.8321" lon="4.83368">
        <ele>249</ele>
        <time>2011-11-20T08:19:10Z</time>
      </trkpt>
      <trkpt lat="45.83202" lon="4.83376">
        <ele>249</ele>
        <time>2011-11-20T08:19:14Z</time>
      </trkpt>
      <trkpt lat="45.832" lon="4.83378">
        <ele>249</ele>
        <time>2011-11-20T08:19:15Z</time>
      </trkpt>
      <trkpt lat="45.83199" lon="4.8338">
        <ele>249.2</ele>
        <time>2011-11-20T08:19:16Z</time>
      </trkpt>
      <trkpt lat="45.83189" lon="4.83387">
        <ele>249.8</ele>
        <time>2011-11-20T08:19:20Z</time>
      </trkpt>
      <trkpt lat="45.83186" lon="4.8339">
        <ele>250.2</ele>
        <time>2011-11-20T08:19:22Z</time>
      </trkpt>
      <trkpt lat="45.83182" lon="4.8339">
        <ele>250.6</ele>
        <time>2011-11-20T08:19:24Z</time>
      </trkpt>
      <trkpt lat="45.83178" lon="4.8339">
        <ele>251</ele>
        <time>2011-11-20T08:19:26Z</time>
      </trkpt>
      <trkpt lat="45.83172" lon="4.83393">
        <ele>251.6</ele>
        <time>2011-11-20T08:19:29Z</time>
      </trkpt>
      <trkpt lat="45.83163" lon="4.83395">
        <ele>252.2</ele>
        <time>2011-11-20T08:19:33Z</time>
      </trkpt>
      <trkpt lat="45.83154" lon="4.83396">
        <ele>253.2</ele>
        <time>2011-11-20T08:19:38Z</time>
      </trkpt>
      <trkpt lat="45.83144" lon="4.83394">
        <ele>253.4</ele>
        <time>2011-11-20T08:19:42Z</time>
      </trkpt>
      <trkpt lat="45.83141" lon="4.83392">
        <ele>254</ele>
        <time>2011-11-20T08:19:44Z</time>
      </trkpt>
      <trkpt lat="45.83129" lon="4.83388">
        <ele>254.2</ele>
        <time>2011-11-20T08:19:51Z</time>
      </trkpt>
      <trkpt lat="45.83126" lon="4.83387">
        <ele>254.2</ele>
        <time>2011-11-20T08:19:53Z</time>
      </trkpt>
      <trkpt lat="45.83125" lon="4.83386">
        <ele>254.4</ele>
        <time>2011-11-20T08:19:54Z</time>
      </trkpt>
      <trkpt lat="45.83124" lon="4.83385">
        <ele>254.8</ele>
        <time>2011-11-20T08:19:57Z</time>
      </trkpt>
      <trkpt lat="45.83122" lon="4.83386">
        <ele>256.2</ele>
        <time>2011-11-20T08:20:13Z</time>
      </trkpt>
      <trkpt lat="45.83118" lon="4.83385">
        <ele>261</ele>
        <time>2011-11-20T08:20:46Z</time>
      </trkpt>
      <trkpt lat="45.83117" lon="4.83388">
        <ele>266.8</ele>
        <time>2011-11-20T08:21:05Z</time>
      </trkpt>
      <trkpt lat="45.83113" lon="4.8339">
        <ele>269</ele>
        <time>2011-11-20T08:21:12Z</time>
      </trkpt>
      <trkpt lat="45.83111" lon="4.83393">
        <ele>269.2</ele>
        <time>2011-11-20T08:21:14Z</time>
      </trkpt>
      <trkpt lat="45.83106" lon="4.83396">
        <ele>269</ele>
        <time>2011-11-20T08:21:18Z</time>
      </trkpt>
      <trkpt lat="45.83096" lon="4.83403">
        <ele>268.8</ele>
        <time>2011-11-20T08:21:23Z</time>
      </trkpt>
      <trkpt lat="45.83094" lon="4.83404">
        <ele>268.8</ele>
        <time>2011-11-20T08:21:24Z</time>
      </trkpt>
      <trkpt lat="45.8308" lon="4.83412">
        <ele>268</ele>
        <time>2011-11-20T08:21:31Z</time>
      </trkpt>
      <trkpt lat="45.83078" lon="4.83413">
        <ele>268</ele>
        <time>2011-11-20T08:21:32Z</time>
      </trkpt>
      <trkpt lat="45.8307" lon="4.83418">
        <ele>267.4</ele>
        <time>2011-11-20T08:21:37Z</time>
      </trkpt>
      <trkpt lat="45.83061" lon="4.83422">
        <ele>266.8</ele>
        <time>2011-11-20T08:21:41Z</time>
      </trkpt>
      <trkpt lat="45.83057" lon="4.83423">
        <ele>266.6</ele>
        <time>2011-11-20T08:21:43Z</time>
      </trkpt>
      <trkpt lat="45.83045" lon="4.83431">
        <ele>265.8</ele>
        <time>2011-11-20T08:21:49Z</time>
      </trkpt>
      <trkpt lat="45.83043" lon="4.83433">
        <ele>265.8</ele>
        <time>2011-11-20T08:21:50Z</time>
      </trkpt>
      <trkpt lat="45.83032" lon="4.8344">
        <ele>265.2</ele>
        <time>2011-11-20T08:21:55Z</time>
      </trkpt>
      <trkpt lat="45.83026" lon="4.83444">
        <ele>264.8</ele>
        <time>2011-11-20T08:21:58Z</time>
      </trkpt>
      <trkpt lat="45.83022" lon="4.83446">
        <ele>264.6</ele>
        <time>2011-11-20T08:22:00Z</time>
      </trkpt>
      <trkpt lat="45.8302" lon="4.83446">
        <ele>264.6</ele>
        <time>2011-11-20T08:22:01Z</time>
      </trkpt>
      <trkpt lat="45.83011" lon="4.83453">
        <ele>264.2</ele>
        <time>2011-11-20T08:22:06Z</time>
      </trkpt>
      <trkpt lat="45.83009" lon="4.83454">
        <ele>264.2</ele>
        <time>2011-11-20T08:22:07Z</time>
      </trkpt>
      <trkpt lat="45.82999" lon="4.83458">
        <ele>264.6</ele>
        <time>2011-11-20T08:22:11Z</time>
      </trkpt>
      <trkpt lat="45.8299" lon="4.83464">
        <ele>266.2</ele>
        <time>2011-11-20T08:22:15Z</time>
      </trkpt>
      <trkpt lat="45.82987" lon="4.83466">
        <ele>266.4</ele>
        <time>2011-11-20T08:22:16Z</time>
      </trkpt>
      <trkpt lat="45.82975" lon="4.83471">
        <ele>267.6</ele>
        <time>2011-11-20T08:22:21Z</time>
      </trkpt>
      <trkpt lat="45.82973" lon="4.83473">
        <ele>267.8</ele>
        <time>2011-11-20T08:22:22Z</time>
      </trkpt>
      <trkpt lat="45.82965" lon="4.8348">
        <ele>269</ele>
        <time>2011-11-20T08:22:26Z</time>
      </trkpt>
      <trkpt lat="45.82957" lon="4.83486">
        <ele>269.6</ele>
        <time>2011-11-20T08:22:30Z</time>
      </trkpt>
      <trkpt lat="45.82953" lon="4.83488">
        <ele>269.6</ele>
        <time>2011-11-20T08:22:32Z</time>
      </trkpt>
      <trkpt lat="45.82941" lon="4.83496">
        <ele>269.6</ele>
        <time>2011-11-20T08:22:38Z</time>
      </trkpt>
      <trkpt lat="45.82939" lon="4.83498">
        <ele>269.6</ele>
        <time>2011-11-20T08:22:39Z</time>
      </trkpt>
      <trkpt lat="45.82928" lon="4.83508">
        <ele>269.4</ele>
        <time>2011-11-20T08:22:44Z</time>
      </trkpt>
      <trkpt lat="45.82922" lon="4.83512">
        <ele>269.4</ele>
        <time>2011-11-20T08:22:47Z</time>
      </trkpt>
      <trkpt lat="45.82915" lon="4.83514">
        <ele>269.4</ele>
        <time>2011-11-20T08:22:50Z</time>
      </trkpt>
      <trkpt lat="45.82904" lon="4.83517">
        <ele>269.2</ele>
        <time>2011-11-20T08:22:55Z</time>
      </trkpt>
      <trkpt lat="45.82893" lon="4.8352">
        <ele>268.8</ele>
        <time>2011-11-20T08:23:00Z</time>
      </trkpt>
      <trkpt lat="45.82885" lon="4.83522">
        <ele>268.8</ele>
        <time>2011-11-20T08:23:03Z</time>
      </trkpt>
      <trkpt lat="45.82878" lon="4.83523">
        <ele>268.6</ele>
        <time>2011-11-20T08:23:06Z</time>
      </trkpt>
      <trkpt lat="45.82865" lon="4.83524">
        <ele>268.2</ele>
        <time>2011-11-20T08:23:11Z</time>
      </trkpt>
      <trkpt lat="45.82862" lon="4.83524">
        <ele>268.2</ele>
        <time>2011-11-20T08:23:12Z</time>
      </trkpt>
      <trkpt lat="45.82853" lon="4.83523">
        <ele>268</ele>
        <time>2011-11-20T08:23:16Z</time>
      </trkpt>
      <trkpt lat="45.82846" lon="4.83519">
        <ele>267.6</ele>
        <time>2011-11-20T08:23:19Z</time>
      </trkpt>
      <trkpt lat="45.82839" lon="4.83517">
        <ele>267.4</ele>
        <time>2011-11-20T08:23:22Z</time>
      </trkpt>
      <trkpt lat="45.82829" lon="4.83508">
        <ele>266.8</ele>
        <time>2011-11-20T08:23:27Z</time>
      </trkpt>
      <trkpt lat="45.82827" lon="4.83506">
        <ele>266.8</ele>
        <time>2011-11-20T08:23:28Z</time>
      </trkpt>
      <trkpt lat="45.82822" lon="4.83494">
        <ele>266.2</ele>
        <time>2011-11-20T08:23:33Z</time>
      </trkpt>
      <trkpt lat="45.82823" lon="4.83484">
        <ele>265.8</ele>
        <time>2011-11-20T08:23:37Z</time>
      </trkpt>
      <trkpt lat="45.82823" lon="4.83475">
        <ele>265.4</ele>
        <time>2011-11-20T08:23:41Z</time>
      </trkpt>
      <trkpt lat="45.82825" lon="4.8346">
        <ele>264.6</ele>
        <time>2011-11-20T08:23:49Z</time>
      </trkpt>
      <trkpt lat="45.82825" lon="4.83456">
        <ele>264.4</ele>
        <time>2011-11-20T08:23:51Z</time>
      </trkpt>
      <trkpt lat="45.82825" lon="4.8344">
        <ele>263.8</ele>
        <time>2011-11-20T08:23:59Z</time>
      </trkpt>
      <trkpt lat="45.82825" lon="4.83429">
        <ele>263.6</ele>
        <time>2011-11-20T08:24:04Z</time>
      </trkpt>
      <trkpt lat="45.82824" lon="4.83425">
        <ele>263.6</ele>
        <time>2011-11-20T08:24:06Z</time>
      </trkpt>
      <trkpt lat="45.82824" lon="4.83406">
        <ele>263.6</ele>
        <time>2011-11-20T08:24:15Z</time>
      </trkpt>
      <trkpt lat="45.82825" lon="4.83402">
        <ele>263.6</ele>
        <time>2011-11-20T08:24:17Z</time>
      </trkpt>
      <trkpt lat="45.82825" lon="4.83389">
        <ele>263.8</ele>
        <time>2011-11-20T08:24:23Z</time>
      </trkpt>
      <trkpt lat="45.82824" lon="4.83376">
        <ele>264.4</ele>
        <time>2011-11-20T08:24:30Z</time>
      </trkpt>
      <trkpt lat="45.82824" lon="4.83374">
        <ele>264.4</ele>
        <time>2011-11-20T08:24:31Z</time>
      </trkpt>
      <trkpt lat="45.82825" lon="4.8336">
        <ele>264.8</ele>
        <time>2011-11-20T08:24:39Z</time>
      </trkpt>
      <trkpt lat="45.82826" lon="4.83348">
        <ele>265.6</ele>
        <time>2011-11-20T08:24:45Z</time>
      </trkpt>
      <trkpt lat="45.82826" lon="4.83343">
        <ele>265.8</ele>
        <time>2011-11-20T08:24:47Z</time>
      </trkpt>
      <trkpt lat="45.82827" lon="4.83321">
        <ele>267</ele>
        <time>2011-11-20T08:24:58Z</time>
      </trkpt>
      <trkpt lat="45.82827" lon="4.83304">
        <ele>267.6</ele>
        <time>2011-11-20T08:25:07Z</time>
      </trkpt>
      <trkpt lat="45.82826" lon="4.83294">
        <ele>267.8</ele>
        <time>2011-11-20T08:25:13Z</time>
      </trkpt>
      <trkpt lat="45.82825" lon="4.83286">
        <ele>268</ele>
        <time>2011-11-20T08:25:17Z</time>
      </trkpt>
      <trkpt lat="45.82821" lon="4.83278">
        <ele>268.4</ele>
        <time>2011-11-20T08:25:24Z</time>
      </trkpt>
      <trkpt lat="45.8282" lon="4.83276">
        <ele>268.6</ele>
        <time>2011-11-20T08:25:26Z</time>
      </trkpt>
      <trkpt lat="45.82817" lon="4.83275">
        <ele>268.8</ele>
        <time>2011-11-20T08:25:28Z</time>
      </trkpt>
      <trkpt lat="45.82815" lon="4.83274">
        <ele>268.8</ele>
        <time>2011-11-20T08:25:29Z</time>
      </trkpt>
      <trkpt lat="45.82811" lon="4.83272">
        <ele>269</ele>
        <time>2011-11-20T08:25:31Z</time>
      </trkpt>
      <trkpt lat="45.828" lon="4.83267">
        <ele>269.4</ele>
        <time>2011-11-20T08:25:36Z</time>
      </trkpt>
      <trkpt lat="45.82799" lon="4.83265">
        <ele>269.6</ele>
        <time>2011-11-20T08:25:37Z</time>
      </trkpt>
      <trkpt lat="45.82787" lon="4.83259">
        <ele>271</ele>
        <time>2011-11-20T08:25:43Z</time>
      </trkpt>
      <trkpt lat="45.82781" lon="4.83257">
        <ele>271.6</ele>
        <time>2011-11-20T08:25:46Z</time>
      </trkpt>
      <trkpt lat="45.82776" lon="4.83254">
        <ele>272.4</ele>
        <time>2011-11-20T08:25:49Z</time>
      </trkpt>
      <trkpt lat="45.82774" lon="4.83252">
        <ele>272.6</ele>
        <time>2011-11-20T08:25:50Z</time>
      </trkpt>
      <trkpt lat="45.82768" lon="4.83249">
        <ele>273.2</ele>
        <time>2011-11-20T08:25:53Z</time>
      </trkpt>
      <trkpt lat="45.82765" lon="4.83245">
        <ele>273.8</ele>
        <time>2011-11-20T08:25:55Z</time>
      </trkpt>
      <trkpt lat="45.82764" lon="4.83243">
        <ele>273.8</ele>
        <time>2011-11-20T08:25:56Z</time>
      </trkpt>
      <trkpt lat="45.82762" lon="4.83237">
        <ele>274</ele>
        <time>2011-11-20T08:25:58Z</time>
      </trkpt>
      <trkpt lat="45.82761" lon="4.83222">
        <ele>275</ele>
        <time>2011-11-20T08:26:03Z</time>
      </trkpt>
      <trkpt lat="45.82761" lon="4.83219">
        <ele>275.2</ele>
        <time>2011-11-20T08:26:04Z</time>
      </trkpt>
      <trkpt lat="45.82763" lon="4.83204">
        <ele>276.8</ele>
        <time>2011-11-20T08:26:10Z</time>
      </trkpt>
      <trkpt lat="45.82765" lon="4.83193">
        <ele>278.8</ele>
        <time>2011-11-20T08:26:16Z</time>
      </trkpt>
      <trkpt lat="45.82766" lon="4.83188">
        <ele>279.4</ele>
        <time>2011-11-20T08:26:18Z</time>
      </trkpt>
      <trkpt lat="45.82765" lon="4.83181">
        <ele>280.6</ele>
        <time>2011-11-20T08:26:21Z</time>
      </trkpt>
      <trkpt lat="45.82762" lon="4.83179">
        <ele>281.2</ele>
        <time>2011-11-20T08:26:23Z</time>
      </trkpt>
      <trkpt lat="45.82756" lon="4.83175">
        <ele>282.2</ele>
        <time>2011-11-20T08:26:27Z</time>
      </trkpt>
      <trkpt lat="45.82753" lon="4.83172">
        <ele>283</ele>
        <time>2011-11-20T08:26:29Z</time>
      </trkpt>
      <trkpt lat="45.82745" lon="4.83166">
        <ele>285</ele>
        <time>2011-11-20T08:26:35Z</time>
      </trkpt>
      <trkpt lat="45.82746" lon="4.8316">
        <ele>286.4</ele>
        <time>2011-11-20T08:26:39Z</time>
      </trkpt>
      <trkpt lat="45.82754" lon="4.8316">
        <ele>288</ele>
        <time>2011-11-20T08:26:44Z</time>
      </trkpt>
      <trkpt lat="45.82756" lon="4.83156">
        <ele>288.8</ele>
        <time>2011-11-20T08:26:46Z</time>
      </trkpt>
      <trkpt lat="45.8276" lon="4.83149">
        <ele>290.2</ele>
        <time>2011-11-20T08:26:50Z</time>
      </trkpt>
      <trkpt lat="45.82763" lon="4.83139">
        <ele>292</ele>
        <time>2011-11-20T08:26:55Z</time>
      </trkpt>
      <trkpt lat="45.82764" lon="4.83137">
        <ele>292.6</ele>
        <time>2011-11-20T08:26:56Z</time>
      </trkpt>
      <trkpt lat="45.82766" lon="4.83124">
        <ele>295.6</ele>
        <time>2011-11-20T08:27:02Z</time>
      </trkpt>
      <trkpt lat="45.82767" lon="4.8312">
        <ele>296.6</ele>
        <time>2011-11-20T08:27:04Z</time>
      </trkpt>
      <trkpt lat="45.8277" lon="4.83115">
        <ele>299</ele>
        <time>2011-11-20T08:27:08Z</time>
      </trkpt>
      <trkpt lat="45.8277" lon="4.83113">
        <ele>299.6</ele>
        <time>2011-11-20T08:27:09Z</time>
      </trkpt>
      <trkpt lat="45.82773" lon="4.8311">
        <ele>301.2</ele>
        <time>2011-11-20T08:27:12Z</time>
      </trkpt>
      <trkpt lat="45.82776" lon="4.83109">
        <ele>302</ele>
        <time>2011-11-20T08:27:14Z</time>
      </trkpt>
      <trkpt lat="45.8278" lon="4.83108">
        <ele>303.4</ele>
        <time>2011-11-20T08:27:17Z</time>
      </trkpt>
      <trkpt lat="45.82781" lon="4.83108">
        <ele>303.8</ele>
        <time>2011-11-20T08:27:18Z</time>
      </trkpt>
      <trkpt lat="45.82783" lon="4.83109">
        <ele>304.6</ele>
        <time>2011-11-20T08:27:20Z</time>
      </trkpt>
      <trkpt lat="45.82792" lon="4.8311">
        <ele>306.8</ele>
        <time>2011-11-20T08:27:25Z</time>
      </trkpt>
      <trkpt lat="45.82797" lon="4.83112">
        <ele>308.2</ele>
        <time>2011-11-20T08:27:28Z</time>
      </trkpt>
      <trkpt lat="45.82798" lon="4.83112">
        <ele>308.6</ele>
        <time>2011-11-20T08:27:29Z</time>
      </trkpt>
      <trkpt lat="45.82799" lon="4.83113">
        <ele>309</ele>
        <time>2011-11-20T08:27:30Z</time>
      </trkpt>
      <trkpt lat="45.82811" lon="4.83116">
        <ele>311.6</ele>
        <time>2011-11-20T08:27:36Z</time>
      </trkpt>
      <trkpt lat="45.82816" lon="4.83116">
        <ele>312.2</ele>
        <time>2011-11-20T08:27:38Z</time>
      </trkpt>
      <trkpt lat="45.82824" lon="4.83117">
        <ele>313.4</ele>
        <time>2011-11-20T08:27:42Z</time>
      </trkpt>
      <trkpt lat="45.82833" lon="4.83117">
        <ele>314.8</ele>
        <time>2011-11-20T08:27:46Z</time>
      </trkpt>
      <trkpt lat="45.82835" lon="4.83118">
        <ele>315</ele>
        <time>2011-11-20T08:27:47Z</time>
      </trkpt>
      <trkpt lat="45.82842" lon="4.83118">
        <ele>316</ele>
        <time>2011-11-20T08:27:50Z</time>
      </trkpt>
      <trkpt lat="45.82854" lon="4.8312">
        <ele>317.2</ele>
        <time>2011-11-20T08:27:56Z</time>
      </trkpt>
      <trkpt lat="45.82866" lon="4.83118">
        <ele>317.2</ele>
        <time>2011-11-20T08:28:01Z</time>
      </trkpt>
      <trkpt lat="45.82872" lon="4.83119">
        <ele>317</ele>
        <time>2011-11-20T08:28:04Z</time>
      </trkpt>
      <trkpt lat="45.82877" lon="4.83119">
        <ele>317</ele>
        <time>2011-11-20T08:28:06Z</time>
      </trkpt>
      <trkpt lat="45.82887" lon="4.83121">
        <ele>317</ele>
        <time>2011-11-20T08:28:11Z</time>
      </trkpt>
      <trkpt lat="45.82891" lon="4.83121">
        <ele>317</ele>
        <time>2011-11-20T08:28:13Z</time>
      </trkpt>
      <trkpt lat="45.82897" lon="4.83121">
        <ele>317</ele>
        <time>2011-11-20T08:28:16Z</time>
      </trkpt>
      <trkpt lat="45.82911" lon="4.83121">
        <ele>317</ele>
        <time>2011-11-20T08:28:21Z</time>
      </trkpt>
      <trkpt lat="45.82913" lon="4.83121">
        <ele>317.2</ele>
        <time>2011-11-20T08:28:22Z</time>
      </trkpt>
      <trkpt lat="45.82921" lon="4.83121">
        <ele>317</ele>
        <time>2011-11-20T08:28:26Z</time>
      </trkpt>
      <trkpt lat="45.82923" lon="4.83121">
        <ele>317.2</ele>
        <time>2011-11-20T08:28:27Z</time>
      </trkpt>
      <trkpt lat="45.82931" lon="4.8312">
        <ele>317.2</ele>
        <time>2011-11-20T08:28:30Z</time>
      </trkpt>
      <trkpt lat="45.82933" lon="4.83121">
        <ele>317</ele>
        <time>2011-11-20T08:28:31Z</time>
      </trkpt>
      <trkpt lat="45.82935" lon="4.83121">
        <ele>317</ele>
        <time>2011-11-20T08:28:32Z</time>
      </trkpt>
      <trkpt lat="45.82948" lon="4.8312">
        <ele>316.8</ele>
        <time>2011-11-20T08:28:37Z</time>
      </trkpt>
      <trkpt lat="45.82951" lon="4.83118">
        <ele>317</ele>
        <time>2011-11-20T08:28:38Z</time>
      </trkpt>
      <trkpt lat="45.82963" lon="4.83116">
        <ele>316.8</ele>
        <time>2011-11-20T08:28:43Z</time>
      </trkpt>
      <trkpt lat="45.82971" lon="4.83114">
        <ele>316.8</ele>
        <time>2011-11-20T08:28:47Z</time>
      </trkpt>
      <trkpt lat="45.82975" lon="4.83113">
        <ele>316.8</ele>
        <time>2011-11-20T08:28:49Z</time>
      </trkpt>
      <trkpt lat="45.8299" lon="4.83109">
        <ele>316.6</ele>
        <time>2011-11-20T08:28:55Z</time>
      </trkpt>
      <trkpt lat="45.83001" lon="4.83102">
        <ele>316.4</ele>
        <time>2011-11-20T08:29:00Z</time>
      </trkpt>
      <trkpt lat="45.83006" lon="4.83096">
        <ele>316.2</ele>
        <time>2011-11-20T08:29:03Z</time>
      </trkpt>
      <trkpt lat="45.83009" lon="4.83094">
        <ele>316.2</ele>
        <time>2011-11-20T08:29:05Z</time>
      </trkpt>
      <trkpt lat="45.83016" lon="4.83086">
        <ele>315.8</ele>
        <time>2011-11-20T08:29:11Z</time>
      </trkpt>
      <trkpt lat="45.83021" lon="4.83081">
        <ele>315.6</ele>
        <time>2011-11-20T08:29:15Z</time>
      </trkpt>
      <trkpt lat="45.83024" lon="4.83076">
        <ele>315.4</ele>
        <time>2011-11-20T08:29:17Z</time>
      </trkpt>
      <trkpt lat="45.8303" lon="4.83061">
        <ele>315.4</ele>
        <time>2011-11-20T08:29:22Z</time>
      </trkpt>
      <trkpt lat="45.83031" lon="4.83058">
        <ele>315.4</ele>
        <time>2011-11-20T08:29:23Z</time>
      </trkpt>
      <trkpt lat="45.83033" lon="4.83043">
        <ele>315.8</ele>
        <time>2011-11-20T08:29:27Z</time>
      </trkpt>
      <trkpt lat="45.83034" lon="4.8303">
        <ele>316.2</ele>
        <time>2011-11-20T08:29:31Z</time>
      </trkpt>
      <trkpt lat="45.83035" lon="4.83024">
        <ele>316.4</ele>
        <time>2011-11-20T08:29:33Z</time>
      </trkpt>
      <trkpt lat="45.83037" lon="4.83008">
        <ele>317</ele>
        <time>2011-11-20T08:29:38Z</time>
      </trkpt>
      <trkpt lat="45.83037" lon="4.83005">
        <ele>317</ele>
        <time>2011-11-20T08:29:39Z</time>
      </trkpt>
      <trkpt lat="45.83038" lon="4.8299">
        <ele>317.2</ele>
        <time>2011-11-20T08:29:44Z</time>
      </trkpt>
      <trkpt lat="45.8304" lon="4.82977">
        <ele>317.2</ele>
        <time>2011-11-20T08:29:48Z</time>
      </trkpt>
      <trkpt lat="45.8304" lon="4.82975">
        <ele>317.2</ele>
        <time>2011-11-20T08:29:49Z</time>
      </trkpt>
      <trkpt lat="45.83041" lon="4.82963">
        <ele>317</ele>
        <time>2011-11-20T08:29:54Z</time>
      </trkpt>
      <trkpt lat="45.83043" lon="4.82951">
        <ele>316.6</ele>
        <time>2011-11-20T08:29:58Z</time>
      </trkpt>
      <trkpt lat="45.83044" lon="4.82948">
        <ele>316.6</ele>
        <time>2011-11-20T08:29:59Z</time>
      </trkpt>
      <trkpt lat="45.83048" lon="4.82933">
        <ele>316</ele>
        <time>2011-11-20T08:30:04Z</time>
      </trkpt>
      <trkpt lat="45.83048" lon="4.82929">
        <ele>316</ele>
        <time>2011-11-20T08:30:05Z</time>
      </trkpt>
      <trkpt lat="45.83048" lon="4.82925">
        <ele>315.8</ele>
        <time>2011-11-20T08:30:06Z</time>
      </trkpt>
      <trkpt lat="45.83049" lon="4.82914">
        <ele>315.4</ele>
        <time>2011-11-20T08:30:09Z</time>
      </trkpt>
      <trkpt lat="45.8305" lon="4.82897">
        <ele>314.6</ele>
        <time>2011-11-20T08:30:14Z</time>
      </trkpt>
      <trkpt lat="45.83054" lon="4.82883">
        <ele>313.8</ele>
        <time>2011-11-20T08:30:19Z</time>
      </trkpt>
      <trkpt lat="45.83055" lon="4.82879">
        <ele>313.6</ele>
        <time>2011-11-20T08:30:20Z</time>
      </trkpt>
      <trkpt lat="45.83057" lon="4.82871">
        <ele>313</ele>
        <time>2011-11-20T08:30:23Z</time>
      </trkpt>
      <trkpt lat="45.83058" lon="4.82866">
        <ele>312.6</ele>
        <time>2011-11-20T08:30:25Z</time>
      </trkpt>
      <trkpt lat="45.83059" lon="4.82863">
        <ele>312.2</ele>
        <time>2011-11-20T08:30:27Z</time>
      </trkpt>
      <trkpt lat="45.83061" lon="4.82857">
        <ele>312</ele>
        <time>2011-11-20T08:30:31Z</time>
      </trkpt>
      <trkpt lat="45.8306" lon="4.82855">
        <ele>311.8</ele>
        <time>2011-11-20T08:30:32Z</time>
      </trkpt>
      <trkpt lat="45.83057" lon="4.8285">
        <ele>311.4</ele>
        <time>2011-11-20T08:30:39Z</time>
      </trkpt>
      <trkpt lat="45.83054" lon="4.82848">
        <ele>311.2</ele>
        <time>2011-11-20T08:30:42Z</time>
      </trkpt>
      <trkpt lat="45.83051" lon="4.82845">
        <ele>311.2</ele>
        <time>2011-11-20T08:30:47Z</time>
      </trkpt>
      <trkpt lat="45.8305" lon="4.82844">
        <ele>311.6</ele>
        <time>2011-11-20T08:30:50Z</time>
      </trkpt>
      <trkpt lat="45.83049" lon="4.82842">
        <ele>312</ele>
        <time>2011-11-20T08:30:52Z</time>
      </trkpt>
      <trkpt lat="45.83041" lon="4.8284">
        <ele>313</ele>
        <time>2011-11-20T08:31:00Z</time>
      </trkpt>
      <trkpt lat="45.83039" lon="4.82839">
        <ele>313</ele>
        <time>2011-11-20T08:31:02Z</time>
      </trkpt>
      <trkpt lat="45.83037" lon="4.82838">
        <ele>313.6</ele>
        <time>2011-11-20T08:31:04Z</time>
      </trkpt>
      <trkpt lat="45.83036" lon="4.82837">
        <ele>314</ele>
        <time>2011-11-20T08:31:05Z</time>
      </trkpt>
      <trkpt lat="45.83033" lon="4.82837">
        <ele>314</ele>
        <time>2011-11-20T08:31:07Z</time>
      </trkpt>
      <trkpt lat="45.83029" lon="4.82835">
        <ele>314.6</ele>
        <time>2011-11-20T08:31:11Z</time>
      </trkpt>
      <trkpt lat="45.83027" lon="4.82833">
        <ele>315.8</ele>
        <time>2011-11-20T08:31:15Z</time>
      </trkpt>
      <trkpt lat="45.83025" lon="4.82832">
        <ele>316</ele>
        <time>2011-11-20T08:31:17Z</time>
      </trkpt>
      <trkpt lat="45.83023" lon="4.82832">
        <ele>317.2</ele>
        <time>2011-11-20T08:31:20Z</time>
      </trkpt>
      <trkpt lat="45.8302" lon="4.82831">
        <ele>317.6</ele>
        <time>2011-11-20T08:31:22Z</time>
      </trkpt>
      <trkpt lat="45.83019" lon="4.82831">
        <ele>317.8</ele>
        <time>2011-11-20T08:31:23Z</time>
      </trkpt>
      <trkpt lat="45.83015" lon="4.82829">
        <ele>319.2</ele>
        <time>2011-11-20T08:31:29Z</time>
      </trkpt>
      <trkpt lat="45.83011" lon="4.82828">
        <ele>321.2</ele>
        <time>2011-11-20T08:31:34Z</time>
      </trkpt>
      <trkpt lat="45.83006" lon="4.82824">
        <ele>324.4</ele>
        <time>2011-11-20T08:31:41Z</time>
      </trkpt>
      <trkpt lat="45.83006" lon="4.82823">
        <ele>324.6</ele>
        <time>2011-11-20T08:31:42Z</time>
      </trkpt>
      <trkpt lat="45.83003" lon="4.82822">
        <ele>326.2</ele>
        <time>2011-11-20T08:31:46Z</time>
      </trkpt>
      <trkpt lat="45.83002" lon="4.82821">
        <ele>326.6</ele>
        <time>2011-11-20T08:31:48Z</time>
      </trkpt>
      <trkpt lat="45.83" lon="4.82818">
        <ele>327.4</ele>
        <time>2011-11-20T08:31:51Z</time>
      </trkpt>
      <trkpt lat="45.82996" lon="4.82816">
        <ele>328.8</ele>
        <time>2011-11-20T08:31:56Z</time>
      </trkpt>
      <trkpt lat="45.82993" lon="4.82816">
        <ele>329</ele>
        <time>2011-11-20T08:31:58Z</time>
      </trkpt>
      <trkpt lat="45.82989" lon="4.82815">
        <ele>329.4</ele>
        <time>2011-11-20T08:32:02Z</time>
      </trkpt>
      <trkpt lat="45.82988" lon="4.82814">
        <ele>329.8</ele>
        <time>2011-11-20T08:32:03Z</time>
      </trkpt>
      <trkpt lat="45.82986" lon="4.82812">
        <ele>330.8</ele>
        <time>2011-11-20T08:32:06Z</time>
      </trkpt>
      <trkpt lat="45.82984" lon="4.8281">
        <ele>331.6</ele>
        <time>2011-11-20T08:32:09Z</time>
      </trkpt>
      <trkpt lat="45.82984" lon="4.8281">
        <ele>332</ele>
        <time>2011-11-20T08:32:10Z</time>
      </trkpt>
      <trkpt lat="45.82981" lon="4.82808">
        <ele>333.2</ele>
        <time>2011-11-20T08:32:14Z</time>
      </trkpt>
      <trkpt lat="45.82978" lon="4.82807">
        <ele>333.4</ele>
        <time>2011-11-20T08:32:16Z</time>
      </trkpt>
      <trkpt lat="45.82978" lon="4.82805">
        <ele>335</ele>
        <time>2011-11-20T08:32:23Z</time>
      </trkpt>
      <trkpt lat="45.82974" lon="4.82807">
        <ele>344.6</ele>
        <time>2011-11-20T08:32:56Z</time>
      </trkpt>
      <trkpt lat="45.82976" lon="4.82817">
        <ele>352.2</ele>
        <time>2011-11-20T08:34:22Z</time>
      </trkpt>
      <trkpt lat="45.82974" lon="4.82819">
        <ele>352.2</ele>
        <time>2011-11-20T08:34:23Z</time>
      </trkpt>
      <trkpt lat="45.82968" lon="4.82826">
        <ele>352</ele>
        <time>2011-11-20T08:34:27Z</time>
      </trkpt>
      <trkpt lat="45.82967" lon="4.82828">
        <ele>352</ele>
        <time>2011-11-20T08:34:28Z</time>
      </trkpt>
      <trkpt lat="45.82959" lon="4.82833">
        <ele>351.8</ele>
        <time>2011-11-20T08:34:32Z</time>
      </trkpt>
      <trkpt lat="45.82957" lon="4.82834">
        <ele>351.6</ele>
        <time>2011-11-20T08:34:33Z</time>
      </trkpt>
      <trkpt lat="45.82948" lon="4.82842">
        <ele>351.4</ele>
        <time>2011-11-20T08:34:38Z</time>
      </trkpt>
      <trkpt lat="45.8294" lon="4.82847">
        <ele>351.2</ele>
        <time>2011-11-20T08:34:42Z</time>
      </trkpt>
      <trkpt lat="45.82937" lon="4.8285">
        <ele>351</ele>
        <time>2011-11-20T08:34:44Z</time>
      </trkpt>
      <trkpt lat="45.82925" lon="4.82857">
        <ele>350.8</ele>
        <time>2011-11-20T08:34:50Z</time>
      </trkpt>
      <trkpt lat="45.82923" lon="4.82859">
        <ele>350.6</ele>
        <time>2011-11-20T08:34:51Z</time>
      </trkpt>
      <trkpt lat="45.82911" lon="4.82867">
        <ele>350.6</ele>
        <time>2011-11-20T08:34:56Z</time>
      </trkpt>
      <trkpt lat="45.82907" lon="4.82869">
        <ele>350.4</ele>
        <time>2011-11-20T08:34:58Z</time>
      </trkpt>
      <trkpt lat="45.82895" lon="4.82874">
        <ele>350.4</ele>
        <time>2011-11-20T08:35:03Z</time>
      </trkpt>
      <trkpt lat="45.82888" lon="4.82878">
        <ele>350.2</ele>
        <time>2011-11-20T08:35:06Z</time>
      </trkpt>
      <trkpt lat="45.82881" lon="4.8288">
        <ele>350.2</ele>
        <time>2011-11-20T08:35:09Z</time>
      </trkpt>
      <trkpt lat="45.8287" lon="4.8288">
        <ele>350</ele>
        <time>2011-11-20T08:35:14Z</time>
      </trkpt>
      <trkpt lat="45.82868" lon="4.82879">
        <ele>350</ele>
        <time>2011-11-20T08:35:15Z</time>
      </trkpt>
      <trkpt lat="45.82854" lon="4.82878">
        <ele>349.8</ele>
        <time>2011-11-20T08:35:21Z</time>
      </trkpt>
      <trkpt lat="45.8285" lon="4.82879">
        <ele>349.8</ele>
        <time>2011-11-20T08:35:23Z</time>
      </trkpt>
      <trkpt lat="45.82841" lon="4.82878">
        <ele>349.6</ele>
        <time>2011-11-20T08:35:27Z</time>
      </trkpt>
      <trkpt lat="45.82832" lon="4.82881">
        <ele>349.6</ele>
        <time>2011-11-20T08:35:31Z</time>
      </trkpt>
      <trkpt lat="45.82827" lon="4.82882">
        <ele>349.6</ele>
        <time>2011-11-20T08:35:33Z</time>
      </trkpt>
      <trkpt lat="45.82815" lon="4.82886">
        <ele>349.6</ele>
        <time>2011-11-20T08:35:38Z</time>
      </trkpt>
      <trkpt lat="45.82813" lon="4.82887">
        <ele>349.8</ele>
        <time>2011-11-20T08:35:39Z</time>
      </trkpt>
      <trkpt lat="45.82799" lon="4.82889">
        <ele>350.4</ele>
        <time>2011-11-20T08:35:45Z</time>
      </trkpt>
      <trkpt lat="45.82794" lon="4.82887">
        <ele>350.6</ele>
        <time>2011-11-20T08:35:47Z</time>
      </trkpt>
      <trkpt lat="45.82784" lon="4.82887">
        <ele>351</ele>
        <time>2011-11-20T08:35:51Z</time>
      </trkpt>
      <trkpt lat="45.82776" lon="4.82888">
        <ele>351.6</ele>
        <time>2011-11-20T08:35:54Z</time>
      </trkpt>
      <trkpt lat="45.82768" lon="4.82886">
        <ele>351.8</ele>
        <time>2011-11-20T08:35:57Z</time>
      </trkpt>
      <trkpt lat="45.82758" lon="4.82884">
        <ele>352.2</ele>
        <time>2011-11-20T08:36:01Z</time>
      </trkpt>
      <trkpt lat="45.82756" lon="4.82883">
        <ele>352.2</ele>
        <time>2011-11-20T08:36:02Z</time>
      </trkpt>
      <trkpt lat="45.82741" lon="4.82878">
        <ele>352.2</ele>
        <time>2011-11-20T08:36:08Z</time>
      </trkpt>
      <trkpt lat="45.82738" lon="4.82878">
        <ele>352.4</ele>
        <time>2011-11-20T08:36:09Z</time>
      </trkpt>
      <trkpt lat="45.82725" lon="4.82873">
        <ele>352.4</ele>
        <time>2011-11-20T08:36:15Z</time>
      </trkpt>
      <trkpt lat="45.8272" lon="4.82871">
        <ele>352.4</ele>
        <time>2011-11-20T08:36:17Z</time>
      </trkpt>
      <trkpt lat="45.82714" lon="4.82865">
        <ele>352.6</ele>
        <time>2011-11-20T08:36:20Z</time>
      </trkpt>
      <trkpt lat="45.82705" lon="4.82854">
        <ele>352.8</ele>
        <time>2011-11-20T08:36:25Z</time>
      </trkpt>
      <trkpt lat="45.82703" lon="4.82852">
        <ele>352.8</ele>
        <time>2011-11-20T08:36:26Z</time>
      </trkpt>
      <trkpt lat="45.82692" lon="4.82838">
        <ele>353.4</ele>
        <time>2011-11-20T08:36:32Z</time>
      </trkpt>
      <trkpt lat="45.82691" lon="4.82835">
        <ele>353.6</ele>
        <time>2011-11-20T08:36:33Z</time>
      </trkpt>
      <trkpt lat="45.82683" lon="4.82818">
        <ele>354.2</ele>
        <time>2011-11-20T08:36:39Z</time>
      </trkpt>
      <trkpt lat="45.8268" lon="4.82812">
        <ele>354.2</ele>
        <time>2011-11-20T08:36:41Z</time>
      </trkpt>
      <trkpt lat="45.82676" lon="4.82802">
        <ele>354.4</ele>
        <time>2011-11-20T08:36:44Z</time>
      </trkpt>
      <trkpt lat="45.82671" lon="4.82792">
        <ele>354.8</ele>
        <time>2011-11-20T08:36:48Z</time>
      </trkpt>
      <trkpt lat="45.82671" lon="4.8279">
        <ele>355</ele>
        <time>2011-11-20T08:36:49Z</time>
      </trkpt>
      <trkpt lat="45.82672" lon="4.82789">
        <ele>355</ele>
        <time>2011-11-20T08:36:50Z</time>
      </trkpt>
      <trkpt lat="45.82675" lon="4.8279">
        <ele>355.2</ele>
        <time>2011-11-20T08:36:53Z</time>
      </trkpt>
      <trkpt lat="45.82677" lon="4.82791">
        <ele>355.2</ele>
        <time>2011-11-20T08:36:54Z</time>
      </trkpt>
      <trkpt lat="45.82682" lon="4.82795">
        <ele>355.6</ele>
        <time>2011-11-20T08:36:58Z</time>
      </trkpt>
      <trkpt lat="45.82684" lon="4.82796">
        <ele>356</ele>
        <time>2011-11-20T08:37:00Z</time>
      </trkpt>
      <trkpt lat="45.82688" lon="4.82799">
        <ele>356.4</ele>
        <time>2011-11-20T08:37:03Z</time>
      </trkpt>
      <trkpt lat="45.8269" lon="4.82802">
        <ele>356.6</ele>
        <time>2011-11-20T08:37:06Z</time>
      </trkpt>
      <trkpt lat="45.827" lon="4.828">
        <ele>357.6</ele>
        <time>2011-11-20T08:37:11Z</time>
      </trkpt>
      <trkpt lat="45.82703" lon="4.82797">
        <ele>358.2</ele>
        <time>2011-11-20T08:37:13Z</time>
      </trkpt>
      <trkpt lat="45.82704" lon="4.82795">
        <ele>358.4</ele>
        <time>2011-11-20T08:37:14Z</time>
      </trkpt>
      <trkpt lat="45.82706" lon="4.82794">
        <ele>358.4</ele>
        <time>2011-11-20T08:37:15Z</time>
      </trkpt>
      <trkpt lat="45.82709" lon="4.82792">
        <ele>358.8</ele>
        <time>2011-11-20T08:37:17Z</time>
      </trkpt>
      <trkpt lat="45.8271" lon="4.82793">
        <ele>358.8</ele>
        <time>2011-11-20T08:37:18Z</time>
      </trkpt>
      <trkpt lat="45.82713" lon="4.82794">
        <ele>359.4</ele>
        <time>2011-11-20T08:37:20Z</time>
      </trkpt>
      <trkpt lat="45.82715" lon="4.82794">
        <ele>359.4</ele>
        <time>2011-11-20T08:37:21Z</time>
      </trkpt>
      <trkpt lat="45.8272" lon="4.82792">
        <ele>359.6</ele>
        <time>2011-11-20T08:37:24Z</time>
      </trkpt>
      <trkpt lat="45.82722" lon="4.82793">
        <ele>359.8</ele>
        <time>2011-11-20T08:37:26Z</time>
      </trkpt>
      <trkpt lat="45.82723" lon="4.82795">
        <ele>360</ele>
        <time>2011-11-20T08:37:27Z</time>
      </trkpt>
      <trkpt lat="45.82729" lon="4.82797">
        <ele>360.2</ele>
        <time>2011-11-20T08:37:30Z</time>
      </trkpt>
      <trkpt lat="45.82731" lon="4.82798">
        <ele>360.6</ele>
        <time>2011-11-20T08:37:31Z</time>
      </trkpt>
      <trkpt lat="45.82738" lon="4.82802">
        <ele>361.8</ele>
        <time>2011-11-20T08:37:35Z</time>
      </trkpt>
      <trkpt lat="45.8274" lon="4.82804">
        <ele>362.2</ele>
        <time>2011-11-20T08:37:36Z</time>
      </trkpt>
      <trkpt lat="45.82746" lon="4.82801">
        <ele>363.6</ele>
        <time>2011-11-20T08:37:39Z</time>
      </trkpt>
      <trkpt lat="45.82748" lon="4.82801">
        <ele>364</ele>
        <time>2011-11-20T08:37:40Z</time>
      </trkpt>
      <trkpt lat="45.82756" lon="4.82806">
        <ele>367.4</ele>
        <time>2011-11-20T08:37:45Z</time>
      </trkpt>
      <trkpt lat="45.82757" lon="4.82807">
        <ele>368</ele>
        <time>2011-11-20T08:37:46Z</time>
      </trkpt>
      <trkpt lat="45.82758" lon="4.82808">
        <ele>368.6</ele>
        <time>2011-11-20T08:37:47Z</time>
      </trkpt>
      <trkpt lat="45.8276" lon="4.82812">
        <ele>369.4</ele>
        <time>2011-11-20T08:37:49Z</time>
      </trkpt>
      <trkpt lat="45.82764" lon="4.82821">
        <ele>370.6</ele>
        <time>2011-11-20T08:37:54Z</time>
      </trkpt>
      <trkpt lat="45.82765" lon="4.82822">
        <ele>370.8</ele>
        <time>2011-11-20T08:37:55Z</time>
      </trkpt>
      <trkpt lat="45.82766" lon="4.82826">
        <ele>370.8</ele>
        <time>2011-11-20T08:37:58Z</time>
      </trkpt>
      <trkpt lat="45.82767" lon="4.82827">
        <ele>370.6</ele>
        <time>2011-11-20T08:37:59Z</time>
      </trkpt>
      <trkpt lat="45.82766" lon="4.82827">
        <ele>370.6</ele>
        <time>2011-11-20T08:38:01Z</time>
      </trkpt>
      <trkpt lat="45.82767" lon="4.82828">
        <ele>370.6</ele>
        <time>2011-11-20T08:38:03Z</time>
      </trkpt>
      <trkpt lat="45.82766" lon="4.8283">
        <ele>370.6</ele>
        <time>2011-11-20T08:38:09Z</time>
      </trkpt>
      <trkpt lat="45.82766" lon="4.82834">
        <ele>370.4</ele>
        <time>2011-11-20T08:38:13Z</time>
      </trkpt>
      <trkpt lat="45.82774" lon="4.82834">
        <ele>370.2</ele>
        <time>2011-11-20T08:38:18Z</time>
      </trkpt>
      <trkpt lat="45.82776" lon="4.82834">
        <ele>370.2</ele>
        <time>2011-11-20T08:38:20Z</time>
      </trkpt>
      <trkpt lat="45.82777" lon="4.82833">
        <ele>370.2</ele>
        <time>2011-11-20T08:38:23Z</time>
      </trkpt>
      <trkpt lat="45.82778" lon="4.82832">
        <ele>370.2</ele>
        <time>2011-11-20T08:38:24Z</time>
      </trkpt>
      <trkpt lat="45.82781" lon="4.82828">
        <ele>370.4</ele>
        <time>2011-11-20T08:38:28Z</time>
      </trkpt>
      <trkpt lat="45.82782" lon="4.82826">
        <ele>370.4</ele>
        <time>2011-11-20T08:38:30Z</time>
      </trkpt>
      <trkpt lat="45.82786" lon="4.82826">
        <ele>370.2</ele>
        <time>2011-11-20T08:38:33Z</time>
      </trkpt>
      <trkpt lat="45.82789" lon="4.82826">
        <ele>370.2</ele>
        <time>2011-11-20T08:38:35Z</time>
      </trkpt>
      <trkpt lat="45.82795" lon="4.82824">
        <ele>371.2</ele>
        <time>2011-11-20T08:38:37Z</time>
      </trkpt>
      <trkpt lat="45.82799" lon="4.8282">
        <ele>371.4</ele>
        <time>2011-11-20T08:38:40Z</time>
      </trkpt>
      <trkpt lat="45.82801" lon="4.82818">
        <ele>371.6</ele>
        <time>2011-11-20T08:38:43Z</time>
      </trkpt>
      <trkpt lat="45.82805" lon="4.82814">
        <ele>372.4</ele>
        <time>2011-11-20T08:38:46Z</time>
      </trkpt>
      <trkpt lat="45.82806" lon="4.82813">
        <ele>372.8</ele>
        <time>2011-11-20T08:38:47Z</time>
      </trkpt>
      <trkpt lat="45.82807" lon="4.82807">
        <ele>373.8</ele>
        <time>2011-11-20T08:38:52Z</time>
      </trkpt>
      <trkpt lat="45.82804" lon="4.82807">
        <ele>374.4</ele>
        <time>2011-11-20T08:38:55Z</time>
      </trkpt>
      <trkpt lat="45.82804" lon="4.82804">
        <ele>374.6</ele>
        <time>2011-11-20T08:38:57Z</time>
      </trkpt>
      <trkpt lat="45.82804" lon="4.82802">
        <ele>375.6</ele>
        <time>2011-11-20T08:39:00Z</time>
      </trkpt>
      <trkpt lat="45.82804" lon="4.82795">
        <ele>376.8</ele>
        <time>2011-11-20T08:39:05Z</time>
      </trkpt>
      <trkpt lat="45.82804" lon="4.8279">
        <ele>378.4</ele>
        <time>2011-11-20T08:39:10Z</time>
      </trkpt>
      <trkpt lat="45.82802" lon="4.82786">
        <ele>379.2</ele>
        <time>2011-11-20T08:39:14Z</time>
      </trkpt>
      <trkpt lat="45.82803" lon="4.82781">
        <ele>381.4</ele>
        <time>2011-11-20T08:39:20Z</time>
      </trkpt>
      <trkpt lat="45.82802" lon="4.8278">
        <ele>381.6</ele>
        <time>2011-11-20T08:39:21Z</time>
      </trkpt>
      <trkpt lat="45.82801" lon="4.8278">
        <ele>381.6</ele>
        <time>2011-11-20T08:39:22Z</time>
      </trkpt>
      <trkpt lat="45.82801" lon="4.82778">
        <ele>382.2</ele>
        <time>2011-11-20T08:39:24Z</time>
      </trkpt>
      <trkpt lat="45.82799" lon="4.82777">
        <ele>383.4</ele>
        <time>2011-11-20T08:39:28Z</time>
      </trkpt>
      <trkpt lat="45.82799" lon="4.82774">
        <ele>384.8</ele>
        <time>2011-11-20T08:39:32Z</time>
      </trkpt>
      <trkpt lat="45.82799" lon="4.82767">
        <ele>386.2</ele>
        <time>2011-11-20T08:39:37Z</time>
      </trkpt>
      <trkpt lat="45.82797" lon="4.82764">
        <ele>387.4</ele>
        <time>2011-11-20T08:39:41Z</time>
      </trkpt>
      <trkpt lat="45.82796" lon="4.82762">
        <ele>387.6</ele>
        <time>2011-11-20T08:39:42Z</time>
      </trkpt>
      <trkpt lat="45.82793" lon="4.82759">
        <ele>389</ele>
        <time>2011-11-20T08:39:47Z</time>
      </trkpt>
      <trkpt lat="45.82793" lon="4.82757">
        <ele>389</ele>
        <time>2011-11-20T08:39:49Z</time>
      </trkpt>
      <trkpt lat="45.82793" lon="4.82756">
        <ele>389.2</ele>
        <time>2011-11-20T08:39:50Z</time>
      </trkpt>
      <trkpt lat="45.82793" lon="4.82755">
        <ele>389</ele>
        <time>2011-11-20T08:39:51Z</time>
      </trkpt>
      <trkpt lat="45.82792" lon="4.82751">
        <ele>389.4</ele>
        <time>2011-11-20T08:39:55Z</time>
      </trkpt>
      <trkpt lat="45.82791" lon="4.82739">
        <ele>390.8</ele>
        <time>2011-11-20T08:40:07Z</time>
      </trkpt>
      <trkpt lat="45.82791" lon="4.82737">
        <ele>391.2</ele>
        <time>2011-11-20T08:40:08Z</time>
      </trkpt>
      <trkpt lat="45.8279" lon="4.82734">
        <ele>391.8</ele>
        <time>2011-11-20T08:40:11Z</time>
      </trkpt>
      <trkpt lat="45.82789" lon="4.82733">
        <ele>392</ele>
        <time>2011-11-20T08:40:12Z</time>
      </trkpt>
      <trkpt lat="45.82788" lon="4.82732">
        <ele>392.4</ele>
        <time>2011-11-20T08:40:13Z</time>
      </trkpt>
      <trkpt lat="45.82787" lon="4.82731">
        <ele>392.6</ele>
        <time>2011-11-20T08:40:14Z</time>
      </trkpt>
      <trkpt lat="45.82785" lon="4.82725">
        <ele>394</ele>
        <time>2011-11-20T08:40:20Z</time>
      </trkpt>
      <trkpt lat="45.82789" lon="4.82721">
        <ele>395.2</ele>
        <time>2011-11-20T08:40:26Z</time>
      </trkpt>
      <trkpt lat="45.82789" lon="4.8272">
        <ele>395.4</ele>
        <time>2011-11-20T08:40:27Z</time>
      </trkpt>
      <trkpt lat="45.82794" lon="4.82715">
        <ele>396.6</ele>
        <time>2011-11-20T08:40:33Z</time>
      </trkpt>
      <trkpt lat="45.82795" lon="4.82713">
        <ele>397.2</ele>
        <time>2011-11-20T08:40:35Z</time>
      </trkpt>
      <trkpt lat="45.828" lon="4.82706">
        <ele>398.6</ele>
        <time>2011-11-20T08:40:41Z</time>
      </trkpt>
      <trkpt lat="45.82802" lon="4.82696">
        <ele>400.2</ele>
        <time>2011-11-20T08:40:48Z</time>
      </trkpt>
      <trkpt lat="45.82802" lon="4.82695">
        <ele>400.6</ele>
        <time>2011-11-20T08:40:49Z</time>
      </trkpt>
      <trkpt lat="45.82802" lon="4.82689">
        <ele>401.2</ele>
        <time>2011-11-20T08:40:52Z</time>
      </trkpt>
      <trkpt lat="45.82802" lon="4.82688">
        <ele>401.2</ele>
        <time>2011-11-20T08:40:53Z</time>
      </trkpt>
      <trkpt lat="45.82803" lon="4.8268">
        <ele>402.4</ele>
        <time>2011-11-20T08:40:57Z</time>
      </trkpt>
      <trkpt lat="45.82805" lon="4.82677">
        <ele>403</ele>
        <time>2011-11-20T08:40:59Z</time>
      </trkpt>
      <trkpt lat="45.82806" lon="4.82675">
        <ele>404</ele>
        <time>2011-11-20T08:41:04Z</time>
      </trkpt>
      <trkpt lat="45.82805" lon="4.82675">
        <ele>407.2</ele>
        <time>2011-11-20T08:41:21Z</time>
      </trkpt>
      <trkpt lat="45.8281" lon="4.82674">
        <ele>410.4</ele>
        <time>2011-11-20T08:41:45Z</time>
      </trkpt>
      <trkpt lat="45.82812" lon="4.82673">
        <ele>410.6</ele>
        <time>2011-11-20T08:41:47Z</time>
      </trkpt>
      <trkpt lat="45.82814" lon="4.82671">
        <ele>410.6</ele>
        <time>2011-11-20T08:41:49Z</time>
      </trkpt>
      <trkpt lat="45.82818" lon="4.82665">
        <ele>410.4</ele>
        <time>2011-11-20T08:41:52Z</time>
      </trkpt>
      <trkpt lat="45.82824" lon="4.82661">
        <ele>410.4</ele>
        <time>2011-11-20T08:41:55Z</time>
      </trkpt>
      <trkpt lat="45.8283" lon="4.82653">
        <ele>410.4</ele>
        <time>2011-11-20T08:41:59Z</time>
      </trkpt>
      <trkpt lat="45.8284" lon="4.82645">
        <ele>410.2</ele>
        <time>2011-11-20T08:42:06Z</time>
      </trkpt>
      <trkpt lat="45.82849" lon="4.82635">
        <ele>410.4</ele>
        <time>2011-11-20T08:42:12Z</time>
      </trkpt>
      <trkpt lat="45.82855" lon="4.82627">
        <ele>410.6</ele>
        <time>2011-11-20T08:42:17Z</time>
      </trkpt>
      <trkpt lat="45.82856" lon="4.82626">
        <ele>410.8</ele>
        <time>2011-11-20T08:42:18Z</time>
      </trkpt>
      <trkpt lat="45.82865" lon="4.82615">
        <ele>411.4</ele>
        <time>2011-11-20T08:42:24Z</time>
      </trkpt>
      <trkpt lat="45.82869" lon="4.8261">
        <ele>412</ele>
        <time>2011-11-20T08:42:27Z</time>
      </trkpt>
      <trkpt lat="45.82873" lon="4.82606">
        <ele>412.2</ele>
        <time>2011-11-20T08:42:30Z</time>
      </trkpt>
      <trkpt lat="45.8288" lon="4.82602">
        <ele>412.8</ele>
        <time>2011-11-20T08:42:35Z</time>
      </trkpt>
      <trkpt lat="45.82887" lon="4.826">
        <ele>413.4</ele>
        <time>2011-11-20T08:42:39Z</time>
      </trkpt>
      <trkpt lat="45.82891" lon="4.82599">
        <ele>413.6</ele>
        <time>2011-11-20T08:42:41Z</time>
      </trkpt>
      <trkpt lat="45.82898" lon="4.82597">
        <ele>414.2</ele>
        <time>2011-11-20T08:42:45Z</time>
      </trkpt>
      <trkpt lat="45.829" lon="4.82595">
        <ele>414.2</ele>
        <time>2011-11-20T08:42:46Z</time>
      </trkpt>
      <trkpt lat="45.82905" lon="4.8259">
        <ele>414.4</ele>
        <time>2011-11-20T08:42:49Z</time>
      </trkpt>
      <trkpt lat="45.82911" lon="4.82588">
        <ele>414.4</ele>
        <time>2011-11-20T08:42:52Z</time>
      </trkpt>
      <trkpt lat="45.8292" lon="4.82583">
        <ele>414.8</ele>
        <time>2011-11-20T08:42:57Z</time>
      </trkpt>
      <trkpt lat="45.82923" lon="4.8258">
        <ele>415</ele>
        <time>2011-11-20T08:42:59Z</time>
      </trkpt>
      <trkpt lat="45.82925" lon="4.82576">
        <ele>415.2</ele>
        <time>2011-11-20T08:43:01Z</time>
      </trkpt>
      <trkpt lat="45.82927" lon="4.82575">
        <ele>415.2</ele>
        <time>2011-11-20T08:43:02Z</time>
      </trkpt>
      <trkpt lat="45.82933" lon="4.82568">
        <ele>415.6</ele>
        <time>2011-11-20T08:43:06Z</time>
      </trkpt>
      <trkpt lat="45.82935" lon="4.82567">
        <ele>415.8</ele>
        <time>2011-11-20T08:43:07Z</time>
      </trkpt>
      <trkpt lat="45.82938" lon="4.82563">
        <ele>416</ele>
        <time>2011-11-20T08:43:09Z</time>
      </trkpt>
      <trkpt lat="45.82944" lon="4.82556">
        <ele>416.6</ele>
        <time>2011-11-20T08:43:13Z</time>
      </trkpt>
      <trkpt lat="45.82953" lon="4.82546">
        <ele>417</ele>
        <time>2011-11-20T08:43:18Z</time>
      </trkpt>
      <trkpt lat="45.82962" lon="4.82537">
        <ele>417</ele>
        <time>2011-11-20T08:43:23Z</time>
      </trkpt>
      <trkpt lat="45.82968" lon="4.82529">
        <ele>416.8</ele>
        <time>2011-11-20T08:43:27Z</time>
      </trkpt>
      <trkpt lat="45.82973" lon="4.82523">
        <ele>416.8</ele>
        <time>2011-11-20T08:43:30Z</time>
      </trkpt>
      <trkpt lat="45.8298" lon="4.8251">
        <ele>416.8</ele>
        <time>2011-11-20T08:43:35Z</time>
      </trkpt>
      <trkpt lat="45.8298" lon="4.82498">
        <ele>416.8</ele>
        <time>2011-11-20T08:43:39Z</time>
      </trkpt>
      <trkpt lat="45.82978" lon="4.82484">
        <ele>416.6</ele>
        <time>2011-11-20T08:43:45Z</time>
      </trkpt>
      <trkpt lat="45.82976" lon="4.82474">
        <ele>416.8</ele>
        <time>2011-11-20T08:43:49Z</time>
      </trkpt>
      <trkpt lat="45.82976" lon="4.82461">
        <ele>417</ele>
        <time>2011-11-20T08:43:54Z</time>
      </trkpt>
      <trkpt lat="45.82977" lon="4.82458">
        <ele>417.2</ele>
        <time>2011-11-20T08:43:55Z</time>
      </trkpt>
      <trkpt lat="45.82973" lon="4.82449">
        <ele>417.4</ele>
        <time>2011-11-20T08:43:58Z</time>
      </trkpt>
      <trkpt lat="45.82971" lon="4.82433">
        <ele>417.6</ele>
        <time>2011-11-20T08:44:03Z</time>
      </trkpt>
      <trkpt lat="45.8297" lon="4.82429">
        <ele>417.8</ele>
        <time>2011-11-20T08:44:04Z</time>
      </trkpt>
      <trkpt lat="45.82968" lon="4.82411">
        <ele>418.4</ele>
        <time>2011-11-20T08:44:09Z</time>
      </trkpt>
      <trkpt lat="45.82967" lon="4.82404">
        <ele>418.6</ele>
        <time>2011-11-20T08:44:11Z</time>
      </trkpt>
      <trkpt lat="45.82967" lon="4.82398">
        <ele>418.8</ele>
        <time>2011-11-20T08:44:13Z</time>
      </trkpt>
      <trkpt lat="45.82965" lon="4.8239">
        <ele>419</ele>
        <time>2011-11-20T08:44:16Z</time>
      </trkpt>
      <trkpt lat="45.82964" lon="4.82383">
        <ele>419</ele>
        <time>2011-11-20T08:44:18Z</time>
      </trkpt>
      <trkpt lat="45.82963" lon="4.82377">
        <ele>419.2</ele>
        <time>2011-11-20T08:44:20Z</time>
      </trkpt>
      <trkpt lat="45.82963" lon="4.82365">
        <ele>419.4</ele>
        <time>2011-11-20T08:44:23Z</time>
      </trkpt>
      <trkpt lat="45.82964" lon="4.82359">
        <ele>419.4</ele>
        <time>2011-11-20T08:44:25Z</time>
      </trkpt>
      <trkpt lat="45.82966" lon="4.82351">
        <ele>419.2</ele>
        <time>2011-11-20T08:44:28Z</time>
      </trkpt>
      <trkpt lat="45.82966" lon="4.82349">
        <ele>419.2</ele>
        <time>2011-11-20T08:44:29Z</time>
      </trkpt>
      <trkpt lat="45.82969" lon="4.82331">
        <ele>419.2</ele>
        <time>2011-11-20T08:44:34Z</time>
      </trkpt>
      <trkpt lat="45.82967" lon="4.82325">
        <ele>419.2</ele>
        <time>2011-11-20T08:44:36Z</time>
      </trkpt>
      <trkpt lat="45.82959" lon="4.82313">
        <ele>418.8</ele>
        <time>2011-11-20T08:44:41Z</time>
      </trkpt>
      <trkpt lat="45.82954" lon="4.82306">
        <ele>418.8</ele>
        <time>2011-11-20T08:44:44Z</time>
      </trkpt>
      <trkpt lat="45.82953" lon="4.82303">
        <ele>418.8</ele>
        <time>2011-11-20T08:44:45Z</time>
      </trkpt>
      <trkpt lat="45.8295" lon="4.82298">
        <ele>418.8</ele>
        <time>2011-11-20T08:44:47Z</time>
      </trkpt>
      <trkpt lat="45.82943" lon="4.82286">
        <ele>418.8</ele>
        <time>2011-11-20T08:44:52Z</time>
      </trkpt>
      <trkpt lat="45.82941" lon="4.82284">
        <ele>418.6</ele>
        <time>2011-11-20T08:44:53Z</time>
      </trkpt>
      <trkpt lat="45.82937" lon="4.82268">
        <ele>418.6</ele>
        <time>2011-11-20T08:44:58Z</time>
      </trkpt>
      <trkpt lat="45.82937" lon="4.82262">
        <ele>418.6</ele>
        <time>2011-11-20T08:45:00Z</time>
      </trkpt>
      <trkpt lat="45.82936" lon="4.82249">
        <ele>418.4</ele>
        <time>2011-11-20T08:45:04Z</time>
      </trkpt>
      <trkpt lat="45.82933" lon="4.82244">
        <ele>418.4</ele>
        <time>2011-11-20T08:45:06Z</time>
      </trkpt>
      <trkpt lat="45.8293" lon="4.82239">
        <ele>418.4</ele>
        <time>2011-11-20T08:45:08Z</time>
      </trkpt>
      <trkpt lat="45.82929" lon="4.82236">
        <ele>418.4</ele>
        <time>2011-11-20T08:45:09Z</time>
      </trkpt>
      <trkpt lat="45.82926" lon="4.82222">
        <ele>418.4</ele>
        <time>2011-11-20T08:45:13Z</time>
      </trkpt>
      <trkpt lat="45.82922" lon="4.82213">
        <ele>418.4</ele>
        <time>2011-11-20T08:45:16Z</time>
      </trkpt>
      <trkpt lat="45.82918" lon="4.82209">
        <ele>418.4</ele>
        <time>2011-11-20T08:45:18Z</time>
      </trkpt>
      <trkpt lat="45.82916" lon="4.82207">
        <ele>418.4</ele>
        <time>2011-11-20T08:45:19Z</time>
      </trkpt>
      <trkpt lat="45.82907" lon="4.82197">
        <ele>418.4</ele>
        <time>2011-11-20T08:45:24Z</time>
      </trkpt>
      <trkpt lat="45.82905" lon="4.82195">
        <ele>418.4</ele>
        <time>2011-11-20T08:45:25Z</time>
      </trkpt>
      <trkpt lat="45.82893" lon="4.82185">
        <ele>418.2</ele>
        <time>2011-11-20T08:45:32Z</time>
      </trkpt>
      <trkpt lat="45.8289" lon="4.82185">
        <ele>418</ele>
        <time>2011-11-20T08:45:33Z</time>
      </trkpt>
      <trkpt lat="45.82884" lon="4.8218">
        <ele>418</ele>
        <time>2011-11-20T08:45:37Z</time>
      </trkpt>
      <trkpt lat="45.82876" lon="4.82175">
        <ele>418</ele>
        <time>2011-11-20T08:45:42Z</time>
      </trkpt>
      <trkpt lat="45.82873" lon="4.82174">
        <ele>418</ele>
        <time>2011-11-20T08:45:44Z</time>
      </trkpt>
      <trkpt lat="45.82865" lon="4.82173">
        <ele>418.2</ele>
        <time>2011-11-20T08:45:49Z</time>
      </trkpt>
      <trkpt lat="45.82858" lon="4.82175">
        <ele>418.4</ele>
        <time>2011-11-20T08:45:56Z</time>
      </trkpt>
      <trkpt lat="45.82854" lon="4.82176">
        <ele>418.6</ele>
        <time>2011-11-20T08:45:59Z</time>
      </trkpt>
      <trkpt lat="45.82849" lon="4.82178">
        <ele>418.8</ele>
        <time>2011-11-20T08:46:03Z</time>
      </trkpt>
      <trkpt lat="45.82841" lon="4.82183">
        <ele>419</ele>
        <time>2011-11-20T08:46:12Z</time>
      </trkpt>
      <trkpt lat="45.82837" lon="4.82187">
        <ele>419.2</ele>
        <time>2011-11-20T08:46:17Z</time>
      </trkpt>
      <trkpt lat="45.82836" lon="4.82189">
        <ele>419.2</ele>
        <time>2011-11-20T08:46:19Z</time>
      </trkpt>
      <trkpt lat="45.82835" lon="4.82189">
        <ele>419.2</ele>
        <time>2011-11-20T08:46:20Z</time>
      </trkpt>
      <trkpt lat="45.8283" lon="4.82193">
        <ele>419.4</ele>
        <time>2011-11-20T08:46:25Z</time>
      </trkpt>
      <trkpt lat="45.82825" lon="4.82193">
        <ele>419.6</ele>
        <time>2011-11-20T08:46:31Z</time>
      </trkpt>
      <trkpt lat="45.82823" lon="4.82193">
        <ele>419.6</ele>
        <time>2011-11-20T08:46:33Z</time>
      </trkpt>
      <trkpt lat="45.8282" lon="4.82192">
        <ele>419.6</ele>
        <time>2011-11-20T08:46:36Z</time>
      </trkpt>
      <trkpt lat="45.82819" lon="4.82192">
        <ele>419.6</ele>
        <time>2011-11-20T08:46:37Z</time>
      </trkpt>
      <trkpt lat="45.82817" lon="4.82192">
        <ele>419.6</ele>
        <time>2011-11-20T08:46:40Z</time>
      </trkpt>
      <trkpt lat="45.82813" lon="4.82193">
        <ele>420</ele>
        <time>2011-11-20T08:46:46Z</time>
      </trkpt>
      <trkpt lat="45.82812" lon="4.82193">
        <ele>420.2</ele>
        <time>2011-11-20T08:46:47Z</time>
      </trkpt>
      <trkpt lat="45.82803" lon="4.82194">
        <ele>420.8</ele>
        <time>2011-11-20T08:46:54Z</time>
      </trkpt>
      <trkpt lat="45.82801" lon="4.82193">
        <ele>420.8</ele>
        <time>2011-11-20T08:46:56Z</time>
      </trkpt>
      <trkpt lat="45.82798" lon="4.82193">
        <ele>420.8</ele>
        <time>2011-11-20T08:46:58Z</time>
      </trkpt>
      <trkpt lat="45.82794" lon="4.82195">
        <ele>421</ele>
        <time>2011-11-20T08:47:01Z</time>
      </trkpt>
      <trkpt lat="45.82785" lon="4.82194">
        <ele>420.8</ele>
        <time>2011-11-20T08:47:08Z</time>
      </trkpt>
      <trkpt lat="45.82783" lon="4.82195">
        <ele>420.8</ele>
        <time>2011-11-20T08:47:10Z</time>
      </trkpt>
      <trkpt lat="45.82775" lon="4.82196">
        <ele>422</ele>
        <time>2011-11-20T08:47:16Z</time>
      </trkpt>
      <trkpt lat="45.82767" lon="4.82204">
        <ele>423.6</ele>
        <time>2011-11-20T08:47:24Z</time>
      </trkpt>
      <trkpt lat="45.82766" lon="4.82206">
        <ele>424.4</ele>
        <time>2011-11-20T08:47:26Z</time>
      </trkpt>
      <trkpt lat="45.82762" lon="4.82211">
        <ele>425.4</ele>
        <time>2011-11-20T08:47:30Z</time>
      </trkpt>
      <trkpt lat="45.82762" lon="4.82211">
        <ele>425.8</ele>
        <time>2011-11-20T08:47:31Z</time>
      </trkpt>
      <trkpt lat="45.82758" lon="4.82214">
        <ele>427</ele>
        <time>2011-11-20T08:47:35Z</time>
      </trkpt>
      <trkpt lat="45.82751" lon="4.82217">
        <ele>429.6</ele>
        <time>2011-11-20T08:47:41Z</time>
      </trkpt>
      <trkpt lat="45.8275" lon="4.82218">
        <ele>430</ele>
        <time>2011-11-20T08:47:42Z</time>
      </trkpt>
      <trkpt lat="45.82747" lon="4.82219">
        <ele>432.6</ele>
        <time>2011-11-20T08:47:49Z</time>
      </trkpt>
      <trkpt lat="45.82743" lon="4.82222">
        <ele>435</ele>
        <time>2011-11-20T08:47:57Z</time>
      </trkpt>
      <trkpt lat="45.82742" lon="4.82222">
        <ele>435.4</ele>
        <time>2011-11-20T08:47:58Z</time>
      </trkpt>
      <trkpt lat="45.82741" lon="4.82222">
        <ele>436.4</ele>
        <time>2011-11-20T08:48:02Z</time>
      </trkpt>
      <trkpt lat="45.82738" lon="4.82225">
        <ele>437.8</ele>
        <time>2011-11-20T08:48:08Z</time>
      </trkpt>
      <trkpt lat="45.82737" lon="4.82225">
        <ele>438</ele>
        <time>2011-11-20T08:48:09Z</time>
      </trkpt>
      <trkpt lat="45.82734" lon="4.82227">
        <ele>438.8</ele>
        <time>2011-11-20T08:48:11Z</time>
      </trkpt>
      <trkpt lat="45.82732" lon="4.82228">
        <ele>439.2</ele>
        <time>2011-11-20T08:48:13Z</time>
      </trkpt>
      <trkpt lat="45.82723" lon="4.82234">
        <ele>441.2</ele>
        <time>2011-11-20T08:48:22Z</time>
      </trkpt>
      <trkpt lat="45.82721" lon="4.82236">
        <ele>443.4</ele>
        <time>2011-11-20T08:48:31Z</time>
      </trkpt>
      <trkpt lat="45.82718" lon="4.8224">
        <ele>444.4</ele>
        <time>2011-11-20T08:48:36Z</time>
      </trkpt>
      <trkpt lat="45.82716" lon="4.82241">
        <ele>444.8</ele>
        <time>2011-11-20T08:48:38Z</time>
      </trkpt>
      <trkpt lat="45.82708" lon="4.82247">
        <ele>445.8</ele>
        <time>2011-11-20T08:48:46Z</time>
      </trkpt>
      <trkpt lat="45.82706" lon="4.82249">
        <ele>446</ele>
        <time>2011-11-20T08:48:49Z</time>
      </trkpt>
      <trkpt lat="45.82704" lon="4.82256">
        <ele>446.6</ele>
        <time>2011-11-20T08:48:54Z</time>
      </trkpt>
      <trkpt lat="45.82703" lon="4.82262">
        <ele>447.4</ele>
        <time>2011-11-20T08:48:59Z</time>
      </trkpt>
      <trkpt lat="45.82703" lon="4.82263">
        <ele>447.6</ele>
        <time>2011-11-20T08:49:00Z</time>
      </trkpt>
      <trkpt lat="45.82702" lon="4.82265">
        <ele>448.2</ele>
        <time>2011-11-20T08:49:03Z</time>
      </trkpt>
      <trkpt lat="45.82702" lon="4.82266">
        <ele>448.6</ele>
        <time>2011-11-20T08:49:05Z</time>
      </trkpt>
      <trkpt lat="45.82705" lon="4.82274">
        <ele>450.2</ele>
        <time>2011-11-20T08:49:21Z</time>
      </trkpt>
      <trkpt lat="45.82707" lon="4.8228">
        <ele>450.2</ele>
        <time>2011-11-20T08:49:23Z</time>
      </trkpt>
      <trkpt lat="45.8271" lon="4.82286">
        <ele>450.2</ele>
        <time>2011-11-20T08:49:25Z</time>
      </trkpt>
      <trkpt lat="45.82715" lon="4.82299">
        <ele>450.2</ele>
        <time>2011-11-20T08:49:29Z</time>
      </trkpt>
      <trkpt lat="45.82716" lon="4.82302">
        <ele>450.2</ele>
        <time>2011-11-20T08:49:30Z</time>
      </trkpt>
      <trkpt lat="45.8272" lon="4.82316">
        <ele>450</ele>
        <time>2011-11-20T08:49:34Z</time>
      </trkpt>
      <trkpt lat="45.82721" lon="4.82319">
        <ele>450</ele>
        <time>2011-11-20T08:49:37Z</time>
      </trkpt>
      <trkpt lat="45.82718" lon="4.82312">
        <ele>450</ele>
        <time>2011-11-20T08:49:42Z</time>
      </trkpt>
      <trkpt lat="45.82717" lon="4.82308">
        <ele>450</ele>
        <time>2011-11-20T08:49:44Z</time>
      </trkpt>
      <trkpt lat="45.82713" lon="4.82296">
        <ele>450</ele>
        <time>2011-11-20T08:49:51Z</time>
      </trkpt>
      <trkpt lat="45.82712" lon="4.82293">
        <ele>450</ele>
        <time>2011-11-20T08:49:53Z</time>
      </trkpt>
      <trkpt lat="45.8271" lon="4.82289">
        <ele>450.2</ele>
        <time>2011-11-20T08:49:55Z</time>
      </trkpt>
      <trkpt lat="45.82707" lon="4.82281">
        <ele>450.2</ele>
        <time>2011-11-20T08:49:58Z</time>
      </trkpt>
      <trkpt lat="45.82703" lon="4.82274">
        <ele>450.6</ele>
        <time>2011-11-20T08:50:01Z</time>
      </trkpt>
      <trkpt lat="45.82699" lon="4.82267">
        <ele>450.8</ele>
        <time>2011-11-20T08:50:04Z</time>
      </trkpt>
      <trkpt lat="45.82692" lon="4.82256">
        <ele>451.2</ele>
        <time>2011-11-20T08:50:09Z</time>
      </trkpt>
      <trkpt lat="45.82686" lon="4.82246">
        <ele>451.8</ele>
        <time>2011-11-20T08:50:13Z</time>
      </trkpt>
      <trkpt lat="45.82684" lon="4.82244">
        <ele>452</ele>
        <time>2011-11-20T08:50:14Z</time>
      </trkpt>
      <trkpt lat="45.82675" lon="4.82227">
        <ele>452.8</ele>
        <time>2011-11-20T08:50:21Z</time>
      </trkpt>
      <trkpt lat="45.82673" lon="4.82225">
        <ele>453</ele>
        <time>2011-11-20T08:50:22Z</time>
      </trkpt>
      <trkpt lat="45.82667" lon="4.82213">
        <ele>453.2</ele>
        <time>2011-11-20T08:50:27Z</time>
      </trkpt>
      <trkpt lat="45.82662" lon="4.82204">
        <ele>453.2</ele>
        <time>2011-11-20T08:50:31Z</time>
      </trkpt>
      <trkpt lat="45.82659" lon="4.82198">
        <ele>453.2</ele>
        <time>2011-11-20T08:50:33Z</time>
      </trkpt>
      <trkpt lat="45.82656" lon="4.82195">
        <ele>453.4</ele>
        <time>2011-11-20T08:50:35Z</time>
      </trkpt>
      <trkpt lat="45.82653" lon="4.82195">
        <ele>453.4</ele>
        <time>2011-11-20T08:50:37Z</time>
      </trkpt>
      <trkpt lat="45.82645" lon="4.82197">
        <ele>453.4</ele>
        <time>2011-11-20T08:50:42Z</time>
      </trkpt>
      <trkpt lat="45.82636" lon="4.822">
        <ele>453.4</ele>
        <time>2011-11-20T08:50:47Z</time>
      </trkpt>
      <trkpt lat="45.82627" lon="4.82203">
        <ele>453.6</ele>
        <time>2011-11-20T08:50:53Z</time>
      </trkpt>
      <trkpt lat="45.82625" lon="4.82204">
        <ele>453.6</ele>
        <time>2011-11-20T08:50:54Z</time>
      </trkpt>
      <trkpt lat="45.82615" lon="4.82206">
        <ele>453.8</ele>
        <time>2011-11-20T08:51:00Z</time>
      </trkpt>
      <trkpt lat="45.82608" lon="4.82208">
        <ele>454</ele>
        <time>2011-11-20T08:51:04Z</time>
      </trkpt>
      <trkpt lat="45.82604" lon="4.82209">
        <ele>454</ele>
        <time>2011-11-20T08:51:06Z</time>
      </trkpt>
      <trkpt lat="45.82596" lon="4.82209">
        <ele>454</ele>
        <time>2011-11-20T08:51:11Z</time>
      </trkpt>
      <trkpt lat="45.82591" lon="4.82215">
        <ele>454.2</ele>
        <time>2011-11-20T08:51:14Z</time>
      </trkpt>
      <trkpt lat="45.82585" lon="4.82223">
        <ele>454.6</ele>
        <time>2011-11-20T08:51:17Z</time>
      </trkpt>
      <trkpt lat="45.82575" lon="4.82222">
        <ele>455</ele>
        <time>2011-11-20T08:51:21Z</time>
      </trkpt>
      <trkpt lat="45.82573" lon="4.82222">
        <ele>455</ele>
        <time>2011-11-20T08:51:22Z</time>
      </trkpt>
      <trkpt lat="45.82563" lon="4.82222">
        <ele>455.2</ele>
        <time>2011-11-20T08:51:26Z</time>
      </trkpt>
      <trkpt lat="45.82553" lon="4.82222">
        <ele>455.6</ele>
        <time>2011-11-20T08:51:30Z</time>
      </trkpt>
      <trkpt lat="45.82546" lon="4.82221">
        <ele>455.8</ele>
        <time>2011-11-20T08:51:33Z</time>
      </trkpt>
      <trkpt lat="45.82535" lon="4.82221">
        <ele>456.6</ele>
        <time>2011-11-20T08:51:38Z</time>
      </trkpt>
      <trkpt lat="45.82528" lon="4.8222">
        <ele>456.8</ele>
        <time>2011-11-20T08:51:41Z</time>
      </trkpt>
      <trkpt lat="45.82517" lon="4.82215">
        <ele>458</ele>
        <time>2011-11-20T08:51:47Z</time>
      </trkpt>
      <trkpt lat="45.82516" lon="4.82213">
        <ele>458.2</ele>
        <time>2011-11-20T08:51:48Z</time>
      </trkpt>
      <trkpt lat="45.82517" lon="4.82206">
        <ele>458.6</ele>
        <time>2011-11-20T08:51:51Z</time>
      </trkpt>
      <trkpt lat="45.82517" lon="4.822">
        <ele>459</ele>
        <time>2011-11-20T08:51:54Z</time>
      </trkpt>
      <trkpt lat="45.82516" lon="4.82197">
        <ele>459.2</ele>
        <time>2011-11-20T08:51:56Z</time>
      </trkpt>
      <trkpt lat="45.82515" lon="4.82196">
        <ele>459.4</ele>
        <time>2011-11-20T08:51:58Z</time>
      </trkpt>
      <trkpt lat="45.82511" lon="4.82193">
        <ele>459.8</ele>
        <time>2011-11-20T08:52:01Z</time>
      </trkpt>
      <trkpt lat="45.82506" lon="4.82181">
        <ele>460.6</ele>
        <time>2011-11-20T08:52:07Z</time>
      </trkpt>
      <trkpt lat="45.82507" lon="4.82172">
        <ele>461.2</ele>
        <time>2011-11-20T08:52:11Z</time>
      </trkpt>
      <trkpt lat="45.82507" lon="4.82168">
        <ele>461.4</ele>
        <time>2011-11-20T08:52:13Z</time>
      </trkpt>
      <trkpt lat="45.82502" lon="4.82157">
        <ele>462.4</ele>
        <time>2011-11-20T08:52:18Z</time>
      </trkpt>
      <trkpt lat="45.82493" lon="4.82153">
        <ele>463</ele>
        <time>2011-11-20T08:52:23Z</time>
      </trkpt>
      <trkpt lat="45.82482" lon="4.8215">
        <ele>463.2</ele>
        <time>2011-11-20T08:52:28Z</time>
      </trkpt>
      <trkpt lat="45.82474" lon="4.82149">
        <ele>463.2</ele>
        <time>2011-11-20T08:52:32Z</time>
      </trkpt>
      <trkpt lat="45.82469" lon="4.82148">
        <ele>463.2</ele>
        <time>2011-11-20T08:52:34Z</time>
      </trkpt>
      <trkpt lat="45.82463" lon="4.82148">
        <ele>463</ele>
        <time>2011-11-20T08:52:37Z</time>
      </trkpt>
      <trkpt lat="45.82458" lon="4.82147">
        <ele>463</ele>
        <time>2011-11-20T08:52:39Z</time>
      </trkpt>
      <trkpt lat="45.82456" lon="4.82147">
        <ele>463</ele>
        <time>2011-11-20T08:52:40Z</time>
      </trkpt>
      <trkpt lat="45.82444" lon="4.82145">
        <ele>463</ele>
        <time>2011-11-20T08:52:45Z</time>
      </trkpt>
      <trkpt lat="45.82438" lon="4.82142">
        <ele>463</ele>
        <time>2011-11-20T08:52:48Z</time>
      </trkpt>
      <trkpt lat="45.82435" lon="4.82141">
        <ele>463</ele>
        <time>2011-11-20T08:52:49Z</time>
      </trkpt>
      <trkpt lat="45.82421" lon="4.82139">
        <ele>463</ele>
        <time>2011-11-20T08:52:54Z</time>
      </trkpt>
      <trkpt lat="45.82417" lon="4.82137">
        <ele>463</ele>
        <time>2011-11-20T08:52:56Z</time>
      </trkpt>
      <trkpt lat="45.82412" lon="4.82136">
        <ele>463</ele>
        <time>2011-11-20T08:52:58Z</time>
      </trkpt>
      <trkpt lat="45.82398" lon="4.82131">
        <ele>462.8</ele>
        <time>2011-11-20T08:53:03Z</time>
      </trkpt>
      <trkpt lat="45.82385" lon="4.82126">
        <ele>462.6</ele>
        <time>2011-11-20T08:53:08Z</time>
      </trkpt>
      <trkpt lat="45.8238" lon="4.82125">
        <ele>462.6</ele>
        <time>2011-11-20T08:53:10Z</time>
      </trkpt>
      <trkpt lat="45.82366" lon="4.82127">
        <ele>462.4</ele>
        <time>2011-11-20T08:53:15Z</time>
      </trkpt>
      <trkpt lat="45.8236" lon="4.82126">
        <ele>462.4</ele>
        <time>2011-11-20T08:53:17Z</time>
      </trkpt>
      <trkpt lat="45.82355" lon="4.82126">
        <ele>462.4</ele>
        <time>2011-11-20T08:53:19Z</time>
      </trkpt>
      <trkpt lat="45.82342" lon="4.82123">
        <ele>462.6</ele>
        <time>2011-11-20T08:53:24Z</time>
      </trkpt>
      <trkpt lat="45.82325" lon="4.82119">
        <ele>463</ele>
        <time>2011-11-20T08:53:30Z</time>
      </trkpt>
      <trkpt lat="45.82323" lon="4.82118">
        <ele>463</ele>
        <time>2011-11-20T08:53:31Z</time>
      </trkpt>
      <trkpt lat="45.82315" lon="4.82113">
        <ele>463.2</ele>
        <time>2011-11-20T08:53:35Z</time>
      </trkpt>
      <trkpt lat="45.82309" lon="4.82109">
        <ele>463.8</ele>
        <time>2011-11-20T08:53:39Z</time>
      </trkpt>
      <trkpt lat="45.82309" lon="4.8211">
        <ele>463.8</ele>
        <time>2011-11-20T08:53:40Z</time>
      </trkpt>
      <trkpt lat="45.8231" lon="4.82111">
        <ele>463.8</ele>
        <time>2011-11-20T08:53:41Z</time>
      </trkpt>
      <trkpt lat="45.82314" lon="4.82114">
        <ele>464.2</ele>
        <time>2011-11-20T08:53:44Z</time>
      </trkpt>
      <trkpt lat="45.82314" lon="4.82116">
        <ele>464.8</ele>
        <time>2011-11-20T08:53:50Z</time>
      </trkpt>
      <trkpt lat="45.8231" lon="4.82109">
        <ele>465</ele>
        <time>2011-11-20T08:53:54Z</time>
      </trkpt>
      <trkpt lat="45.82304" lon="4.82105">
        <ele>465.2</ele>
        <time>2011-11-20T08:53:56Z</time>
      </trkpt>
      <trkpt lat="45.82296" lon="4.82101">
        <ele>465.4</ele>
        <time>2011-11-20T08:53:59Z</time>
      </trkpt>
      <trkpt lat="45.82286" lon="4.82096">
        <ele>465.6</ele>
        <time>2011-11-20T08:54:03Z</time>
      </trkpt>
      <trkpt lat="45.82284" lon="4.82093">
        <ele>465.6</ele>
        <time>2011-11-20T08:54:04Z</time>
      </trkpt>
      <trkpt lat="45.8227" lon="4.82084">
        <ele>466</ele>
        <time>2011-11-20T08:54:09Z</time>
      </trkpt>
      <trkpt lat="45.82259" lon="4.82081">
        <ele>466.4</ele>
        <time>2011-11-20T08:54:13Z</time>
      </trkpt>
      <trkpt lat="45.82257" lon="4.82083">
        <ele>466.4</ele>
        <time>2011-11-20T08:54:14Z</time>
      </trkpt>
      <trkpt lat="45.82253" lon="4.82089">
        <ele>466.4</ele>
        <time>2011-11-20T08:54:16Z</time>
      </trkpt>
      <trkpt lat="45.82251" lon="4.82092">
        <ele>466.6</ele>
        <time>2011-11-20T08:54:17Z</time>
      </trkpt>
      <trkpt lat="45.8225" lon="4.82096">
        <ele>466.4</ele>
        <time>2011-11-20T08:54:18Z</time>
      </trkpt>
      <trkpt lat="45.82242" lon="4.82111">
        <ele>466.2</ele>
        <time>2011-11-20T08:54:23Z</time>
      </trkpt>
      <trkpt lat="45.82239" lon="4.82111">
        <ele>466.2</ele>
        <time>2011-11-20T08:54:24Z</time>
      </trkpt>
      <trkpt lat="45.82231" lon="4.82107">
        <ele>466</ele>
        <time>2011-11-20T08:54:27Z</time>
      </trkpt>
      <trkpt lat="45.82226" lon="4.82101">
        <ele>465.8</ele>
        <time>2011-11-20T08:54:29Z</time>
      </trkpt>
      <trkpt lat="45.82219" lon="4.82092">
        <ele>465.6</ele>
        <time>2011-11-20T08:54:32Z</time>
      </trkpt>
      <trkpt lat="45.82211" lon="4.8208">
        <ele>465.4</ele>
        <time>2011-11-20T08:54:36Z</time>
      </trkpt>
      <trkpt lat="45.82209" lon="4.82077">
        <ele>465.2</ele>
        <time>2011-11-20T08:54:37Z</time>
      </trkpt>
      <trkpt lat="45.82197" lon="4.82059">
        <ele>464.8</ele>
        <time>2011-11-20T08:54:43Z</time>
      </trkpt>
      <trkpt lat="45.82189" lon="4.82044">
        <ele>464.6</ele>
        <time>2011-11-20T08:54:48Z</time>
      </trkpt>
      <trkpt lat="45.82186" lon="4.82039">
        <ele>464.2</ele>
        <time>2011-11-20T08:54:52Z</time>
      </trkpt>
      <trkpt lat="45.82185" lon="4.82037">
        <ele>463.8</ele>
        <time>2011-11-20T08:54:57Z</time>
      </trkpt>
      <trkpt lat="45.82182" lon="4.82032">
        <ele>463.8</ele>
        <time>2011-11-20T08:54:59Z</time>
      </trkpt>
      <trkpt lat="45.82173" lon="4.82016">
        <ele>463.4</ele>
        <time>2011-11-20T08:55:04Z</time>
      </trkpt>
      <trkpt lat="45.8217" lon="4.81998">
        <ele>463</ele>
        <time>2011-11-20T08:55:10Z</time>
      </trkpt>
      <trkpt lat="45.8217" lon="4.81988">
        <ele>462.6</ele>
        <time>2011-11-20T08:55:15Z</time>
      </trkpt>
      <trkpt lat="45.8217" lon="4.81986">
        <ele>462.4</ele>
        <time>2011-11-20T08:55:18Z</time>
      </trkpt>
      <trkpt lat="45.82168" lon="4.8198">
        <ele>462.2</ele>
        <time>2011-11-20T08:55:22Z</time>
      </trkpt>
      <trkpt lat="45.82165" lon="4.8197">
        <ele>462</ele>
        <time>2011-11-20T08:55:29Z</time>
      </trkpt>
      <trkpt lat="45.82163" lon="4.81968">
        <ele>462</ele>
        <time>2011-11-20T08:55:32Z</time>
      </trkpt>
      <trkpt lat="45.82162" lon="4.81968">
        <ele>461.8</ele>
        <time>2011-11-20T08:55:35Z</time>
      </trkpt>
      <trkpt lat="45.82162" lon="4.81967">
        <ele>461.6</ele>
        <time>2011-11-20T08:55:52Z</time>
      </trkpt>
      <trkpt lat="45.82161" lon="4.81966">
        <ele>461.4</ele>
        <time>2011-11-20T08:56:23Z</time>
      </trkpt>
      <trkpt lat="45.82163" lon="4.81971">
        <ele>461.2</ele>
        <time>2011-11-20T08:56:33Z</time>
      </trkpt>
      <trkpt lat="45.82164" lon="4.8197">
        <ele>461</ele>
        <time>2011-11-20T08:56:40Z</time>
      </trkpt>
      <trkpt lat="45.82163" lon="4.81969">
        <ele>461</ele>
        <time>2011-11-20T08:56:45Z</time>
      </trkpt>
      <trkpt lat="45.82164" lon="4.81967">
        <ele>460.8</ele>
        <time>2011-11-20T08:56:51Z</time>
      </trkpt>
      <trkpt lat="45.82166" lon="4.8197">
        <ele>460.8</ele>
        <time>2011-11-20T08:56:56Z</time>
      </trkpt>
      <trkpt lat="45.82166" lon="4.8197">
        <ele>460.8</ele>
        <time>2011-11-20T08:56:57Z</time>
      </trkpt>
      <trkpt lat="45.82165" lon="4.81971">
        <ele>460.6</ele>
        <time>2011-11-20T08:57:00Z</time>
      </trkpt>
      <trkpt lat="45.82169" lon="4.81975">
        <ele>460</ele>
        <time>2011-11-20T08:57:33Z</time>
      </trkpt>
      <trkpt lat="45.8217" lon="4.81975">
        <ele>460</ele>
        <time>2011-11-20T08:57:34Z</time>
      </trkpt>
      <trkpt lat="45.82173" lon="4.81976">
        <ele>459.8</ele>
        <time>2011-11-20T08:57:38Z</time>
      </trkpt>
      <trkpt lat="45.82173" lon="4.81976">
        <ele>459.8</ele>
        <time>2011-11-20T08:57:39Z</time>
      </trkpt>
      <trkpt lat="45.82172" lon="4.81972">
        <ele>459.4</ele>
        <time>2011-11-20T08:57:50Z</time>
      </trkpt>
      <trkpt lat="45.82172" lon="4.81972">
        <ele>458.2</ele>
        <time>2011-11-20T08:58:38Z</time>
      </trkpt>
      <trkpt lat="45.82177" lon="4.81972">
        <ele>457.8</ele>
        <time>2011-11-20T08:58:44Z</time>
      </trkpt>
      <trkpt lat="45.82178" lon="4.81971">
        <ele>457.6</ele>
        <time>2011-11-20T08:58:51Z</time>
      </trkpt>
      <trkpt lat="45.82181" lon="4.81969">
        <ele>457.4</ele>
        <time>2011-11-20T08:58:58Z</time>
      </trkpt>
      <trkpt lat="45.82186" lon="4.81967">
        <ele>457.4</ele>
        <time>2011-11-20T08:59:03Z</time>
      </trkpt>
      <trkpt lat="45.82189" lon="4.81965">
        <ele>457.4</ele>
        <time>2011-11-20T08:59:05Z</time>
      </trkpt>
      <trkpt lat="45.82195" lon="4.81962">
        <ele>457.8</ele>
        <time>2011-11-20T08:59:08Z</time>
      </trkpt>
      <trkpt lat="45.82207" lon="4.81957">
        <ele>458.6</ele>
        <time>2011-11-20T08:59:14Z</time>
      </trkpt>
      <trkpt lat="45.82209" lon="4.81956">
        <ele>458.6</ele>
        <time>2011-11-20T08:59:15Z</time>
      </trkpt>
      <trkpt lat="45.82211" lon="4.81955">
        <ele>458.6</ele>
        <time>2011-11-20T08:59:16Z</time>
      </trkpt>
      <trkpt lat="45.82218" lon="4.81957">
        <ele>458.8</ele>
        <time>2011-11-20T08:59:19Z</time>
      </trkpt>
      <trkpt lat="45.82227" lon="4.81959">
        <ele>459</ele>
        <time>2011-11-20T08:59:23Z</time>
      </trkpt>
      <trkpt lat="45.82233" lon="4.81959">
        <ele>459.2</ele>
        <time>2011-11-20T08:59:26Z</time>
      </trkpt>
      <trkpt lat="45.8224" lon="4.81957">
        <ele>459.6</ele>
        <time>2011-11-20T08:59:29Z</time>
      </trkpt>
      <trkpt lat="45.82242" lon="4.81956">
        <ele>459.6</ele>
        <time>2011-11-20T08:59:30Z</time>
      </trkpt>
      <trkpt lat="45.82244" lon="4.81954">
        <ele>459.8</ele>
        <time>2011-11-20T08:59:31Z</time>
      </trkpt>
      <trkpt lat="45.82249" lon="4.81946">
        <ele>459.8</ele>
        <time>2011-11-20T08:59:35Z</time>
      </trkpt>
      <trkpt lat="45.82254" lon="4.81938">
        <ele>459.6</ele>
        <time>2011-11-20T08:59:39Z</time>
      </trkpt>
      <trkpt lat="45.82256" lon="4.81933">
        <ele>459.6</ele>
        <time>2011-11-20T08:59:41Z</time>
      </trkpt>
      <trkpt lat="45.82263" lon="4.81926">
        <ele>459.6</ele>
        <time>2011-11-20T08:59:46Z</time>
      </trkpt>
      <trkpt lat="45.82272" lon="4.81921">
        <ele>459.4</ele>
        <time>2011-11-20T08:59:51Z</time>
      </trkpt>
      <trkpt lat="45.82276" lon="4.81919">
        <ele>459.2</ele>
        <time>2011-11-20T08:59:53Z</time>
      </trkpt>
      <trkpt lat="45.8229" lon="4.81913">
        <ele>459</ele>
        <time>2011-11-20T08:59:59Z</time>
      </trkpt>
      <trkpt lat="45.82292" lon="4.81912">
        <ele>458.8</ele>
        <time>2011-11-20T09:00:00Z</time>
      </trkpt>
      <trkpt lat="45.82302" lon="4.81908">
        <ele>458.6</ele>
        <time>2011-11-20T09:00:05Z</time>
      </trkpt>
      <trkpt lat="45.82304" lon="4.81907">
        <ele>458.4</ele>
        <time>2011-11-20T09:00:06Z</time>
      </trkpt>
      <trkpt lat="45.82309" lon="4.81906">
        <ele>458.2</ele>
        <time>2011-11-20T09:00:09Z</time>
      </trkpt>
      <trkpt lat="45.82319" lon="4.81906">
        <ele>457.8</ele>
        <time>2011-11-20T09:00:13Z</time>
      </trkpt>
      <trkpt lat="45.82323" lon="4.81904">
        <ele>457.6</ele>
        <time>2011-11-20T09:00:15Z</time>
      </trkpt>
      <trkpt lat="45.82328" lon="4.81902">
        <ele>457.4</ele>
        <time>2011-11-20T09:00:17Z</time>
      </trkpt>
      <trkpt lat="45.82337" lon="4.81899">
        <ele>457</ele>
        <time>2011-11-20T09:00:21Z</time>
      </trkpt>
      <trkpt lat="45.82346" lon="4.81895">
        <ele>456.6</ele>
        <time>2011-11-20T09:00:25Z</time>
      </trkpt>
      <trkpt lat="45.82351" lon="4.81892">
        <ele>456.6</ele>
        <time>2011-11-20T09:00:27Z</time>
      </trkpt>
      <trkpt lat="45.82364" lon="4.81887">
        <ele>455.8</ele>
        <time>2011-11-20T09:00:33Z</time>
      </trkpt>
      <trkpt lat="45.82368" lon="4.81885">
        <ele>455.6</ele>
        <time>2011-11-20T09:00:35Z</time>
      </trkpt>
      <trkpt lat="45.8238" lon="4.81879">
        <ele>454.8</ele>
        <time>2011-11-20T09:00:41Z</time>
      </trkpt>
      <trkpt lat="45.82382" lon="4.81878">
        <ele>454.8</ele>
        <time>2011-11-20T09:00:42Z</time>
      </trkpt>
      <trkpt lat="45.82396" lon="4.81871">
        <ele>454</ele>
        <time>2011-11-20T09:00:48Z</time>
      </trkpt>
      <trkpt lat="45.824" lon="4.81867">
        <ele>453.8</ele>
        <time>2011-11-20T09:00:50Z</time>
      </trkpt>
      <trkpt lat="45.8241" lon="4.81857">
        <ele>453.6</ele>
        <time>2011-11-20T09:00:55Z</time>
      </trkpt>
      <trkpt lat="45.82417" lon="4.81854">
        <ele>453.4</ele>
        <time>2011-11-20T09:00:58Z</time>
      </trkpt>
      <trkpt lat="45.82426" lon="4.81849">
        <ele>453.2</ele>
        <time>2011-11-20T09:01:02Z</time>
      </trkpt>
      <trkpt lat="45.82434" lon="4.81844">
        <ele>452.6</ele>
        <time>2011-11-20T09:01:07Z</time>
      </trkpt>
      <trkpt lat="45.82432" lon="4.81843">
        <ele>452.6</ele>
        <time>2011-11-20T09:01:09Z</time>
      </trkpt>
      <trkpt lat="45.82428" lon="4.81838">
        <ele>452.2</ele>
        <time>2011-11-20T09:01:13Z</time>
      </trkpt>
      <trkpt lat="45.82424" lon="4.81831">
        <ele>451.8</ele>
        <time>2011-11-20T09:01:17Z</time>
      </trkpt>
      <trkpt lat="45.82423" lon="4.81826">
        <ele>451.6</ele>
        <time>2011-11-20T09:01:19Z</time>
      </trkpt>
      <trkpt lat="45.82423" lon="4.81824">
        <ele>451.4</ele>
        <time>2011-11-20T09:01:20Z</time>
      </trkpt>
      <trkpt lat="45.82422" lon="4.81813">
        <ele>451</ele>
        <time>2011-11-20T09:01:24Z</time>
      </trkpt>
      <trkpt lat="45.82421" lon="4.81811">
        <ele>450.8</ele>
        <time>2011-11-20T09:01:25Z</time>
      </trkpt>
      <trkpt lat="45.82421" lon="4.81797">
        <ele>450</ele>
        <time>2011-11-20T09:01:30Z</time>
      </trkpt>
      <trkpt lat="45.82421" lon="4.81794">
        <ele>450</ele>
        <time>2011-11-20T09:01:31Z</time>
      </trkpt>
      <trkpt lat="45.82419" lon="4.81775">
        <ele>448.6</ele>
        <time>2011-11-20T09:01:38Z</time>
      </trkpt>
      <trkpt lat="45.82418" lon="4.8177">
        <ele>448.2</ele>
        <time>2011-11-20T09:01:40Z</time>
      </trkpt>
      <trkpt lat="45.82416" lon="4.81763">
        <ele>447.6</ele>
        <time>2011-11-20T09:01:43Z</time>
      </trkpt>
      <trkpt lat="45.82414" lon="4.81757">
        <ele>447.2</ele>
        <time>2011-11-20T09:01:45Z</time>
      </trkpt>
      <trkpt lat="45.82414" lon="4.81749">
        <ele>446.6</ele>
        <time>2011-11-20T09:01:48Z</time>
      </trkpt>
      <trkpt lat="45.82415" lon="4.81744">
        <ele>446.2</ele>
        <time>2011-11-20T09:01:50Z</time>
      </trkpt>
      <trkpt lat="45.82415" lon="4.81741">
        <ele>446</ele>
        <time>2011-11-20T09:01:51Z</time>
      </trkpt>
      <trkpt lat="45.82415" lon="4.81738">
        <ele>445.6</ele>
        <time>2011-11-20T09:01:53Z</time>
      </trkpt>
      <trkpt lat="45.82416" lon="4.81726">
        <ele>445</ele>
        <time>2011-11-20T09:01:57Z</time>
      </trkpt>
      <trkpt lat="45.82417" lon="4.81719">
        <ele>444.2</ele>
        <time>2011-11-20T09:02:01Z</time>
      </trkpt>
      <trkpt lat="45.82418" lon="4.81717">
        <ele>444</ele>
        <time>2011-11-20T09:02:02Z</time>
      </trkpt>
      <trkpt lat="45.82418" lon="4.81716">
        <ele>443.8</ele>
        <time>2011-11-20T09:02:03Z</time>
      </trkpt>
      <trkpt lat="45.82419" lon="4.81715">
        <ele>443.6</ele>
        <time>2011-11-20T09:02:05Z</time>
      </trkpt>
      <trkpt lat="45.8242" lon="4.81712">
        <ele>442.8</ele>
        <time>2011-11-20T09:02:11Z</time>
      </trkpt>
      <trkpt lat="45.82426" lon="4.81715">
        <ele>442</ele>
        <time>2011-11-20T09:02:17Z</time>
      </trkpt>
      <trkpt lat="45.82434" lon="4.81718">
        <ele>441.2</ele>
        <time>2011-11-20T09:02:23Z</time>
      </trkpt>
      <trkpt lat="45.82441" lon="4.8172">
        <ele>440.4</ele>
        <time>2011-11-20T09:02:28Z</time>
      </trkpt>
      <trkpt lat="45.82441" lon="4.81719">
        <ele>440.2</ele>
        <time>2011-11-20T09:02:29Z</time>
      </trkpt>
      <trkpt lat="45.82442" lon="4.81718">
        <ele>440.2</ele>
        <time>2011-11-20T09:02:30Z</time>
      </trkpt>
      <trkpt lat="45.82444" lon="4.81711">
        <ele>439.8</ele>
        <time>2011-11-20T09:02:33Z</time>
      </trkpt>
      <trkpt lat="45.82446" lon="4.81708">
        <ele>439.4</ele>
        <time>2011-11-20T09:02:35Z</time>
      </trkpt>
      <trkpt lat="45.82446" lon="4.81706">
        <ele>439.2</ele>
        <time>2011-11-20T09:02:36Z</time>
      </trkpt>
      <trkpt lat="45.82447" lon="4.81701">
        <ele>439</ele>
        <time>2011-11-20T09:02:38Z</time>
      </trkpt>
      <trkpt lat="45.82451" lon="4.81688">
        <ele>437.6</ele>
        <time>2011-11-20T09:02:47Z</time>
      </trkpt>
      <trkpt lat="45.82451" lon="4.81687">
        <ele>437.4</ele>
        <time>2011-11-20T09:02:48Z</time>
      </trkpt>
      <trkpt lat="45.82453" lon="4.81681">
        <ele>436.6</ele>
        <time>2011-11-20T09:02:53Z</time>
      </trkpt>
      <trkpt lat="45.82453" lon="4.81675">
        <ele>436.4</ele>
        <time>2011-11-20T09:02:55Z</time>
      </trkpt>
      <trkpt lat="45.82457" lon="4.81665">
        <ele>435.8</ele>
        <time>2011-11-20T09:03:01Z</time>
      </trkpt>
      <trkpt lat="45.82458" lon="4.81666">
        <ele>435.6</ele>
        <time>2011-11-20T09:03:02Z</time>
      </trkpt>
      <trkpt lat="45.82465" lon="4.81666">
        <ele>435.2</ele>
        <time>2011-11-20T09:03:06Z</time>
      </trkpt>
      <trkpt lat="45.82469" lon="4.81664">
        <ele>435.2</ele>
        <time>2011-11-20T09:03:08Z</time>
      </trkpt>
      <trkpt lat="45.82475" lon="4.8166">
        <ele>434.8</ele>
        <time>2011-11-20T09:03:11Z</time>
      </trkpt>
      <trkpt lat="45.82483" lon="4.81656">
        <ele>434.6</ele>
        <time>2011-11-20T09:03:15Z</time>
      </trkpt>
      <trkpt lat="45.82488" lon="4.81653">
        <ele>434.6</ele>
        <time>2011-11-20T09:03:18Z</time>
      </trkpt>
      <trkpt lat="45.82502" lon="4.81646">
        <ele>434.4</ele>
        <time>2011-11-20T09:03:24Z</time>
      </trkpt>
      <trkpt lat="45.82504" lon="4.81645">
        <ele>434.4</ele>
        <time>2011-11-20T09:03:25Z</time>
      </trkpt>
      <trkpt lat="45.82514" lon="4.81641">
        <ele>434.4</ele>
        <time>2011-11-20T09:03:29Z</time>
      </trkpt>
      <trkpt lat="45.82519" lon="4.8164">
        <ele>434.4</ele>
        <time>2011-11-20T09:03:31Z</time>
      </trkpt>
      <trkpt lat="45.82523" lon="4.81637">
        <ele>434.4</ele>
        <time>2011-11-20T09:03:33Z</time>
      </trkpt>
      <trkpt lat="45.82533" lon="4.8163">
        <ele>434.8</ele>
        <time>2011-11-20T09:03:38Z</time>
      </trkpt>
      <trkpt lat="45.82536" lon="4.81629">
        <ele>435</ele>
        <time>2011-11-20T09:03:39Z</time>
      </trkpt>
      <trkpt lat="45.82545" lon="4.81626">
        <ele>435.4</ele>
        <time>2011-11-20T09:03:43Z</time>
      </trkpt>
      <trkpt lat="45.82547" lon="4.81625">
        <ele>435.6</ele>
        <time>2011-11-20T09:03:44Z</time>
      </trkpt>
      <trkpt lat="45.82552" lon="4.81621">
        <ele>435.6</ele>
        <time>2011-11-20T09:03:47Z</time>
      </trkpt>
      <trkpt lat="45.82554" lon="4.8162">
        <ele>435.6</ele>
        <time>2011-11-20T09:03:48Z</time>
      </trkpt>
      <trkpt lat="45.82563" lon="4.81614">
        <ele>435.8</ele>
        <time>2011-11-20T09:03:53Z</time>
      </trkpt>
      <trkpt lat="45.82571" lon="4.81612">
        <ele>435.8</ele>
        <time>2011-11-20T09:03:56Z</time>
      </trkpt>
      <trkpt lat="45.82579" lon="4.81607">
        <ele>435.8</ele>
        <time>2011-11-20T09:04:00Z</time>
      </trkpt>
      <trkpt lat="45.82589" lon="4.81601">
        <ele>436</ele>
        <time>2011-11-20T09:04:04Z</time>
      </trkpt>
      <trkpt lat="45.82604" lon="4.81593">
        <ele>436</ele>
        <time>2011-11-20T09:04:11Z</time>
      </trkpt>
      <trkpt lat="45.82607" lon="4.81592">
        <ele>436.2</ele>
        <time>2011-11-20T09:04:12Z</time>
      </trkpt>
      <trkpt lat="45.8262" lon="4.81583">
        <ele>436.2</ele>
        <time>2011-11-20T09:04:18Z</time>
      </trkpt>
      <trkpt lat="45.82625" lon="4.8158">
        <ele>436.2</ele>
        <time>2011-11-20T09:04:20Z</time>
      </trkpt>
      <trkpt lat="45.82635" lon="4.81574">
        <ele>436</ele>
        <time>2011-11-20T09:04:25Z</time>
      </trkpt>
      <trkpt lat="45.82642" lon="4.81571">
        <ele>436</ele>
        <time>2011-11-20T09:04:28Z</time>
      </trkpt>
      <trkpt lat="45.8265" lon="4.81567">
        <ele>435.8</ele>
        <time>2011-11-20T09:04:32Z</time>
      </trkpt>
      <trkpt lat="45.82661" lon="4.81563">
        <ele>435.6</ele>
        <time>2011-11-20T09:04:36Z</time>
      </trkpt>
      <trkpt lat="45.82666" lon="4.81561">
        <ele>435.4</ele>
        <time>2011-11-20T09:04:38Z</time>
      </trkpt>
      <trkpt lat="45.82675" lon="4.81556">
        <ele>435.2</ele>
        <time>2011-11-20T09:04:42Z</time>
      </trkpt>
      <trkpt lat="45.82679" lon="4.81554">
        <ele>435</ele>
        <time>2011-11-20T09:04:44Z</time>
      </trkpt>
      <trkpt lat="45.82686" lon="4.8155">
        <ele>434.8</ele>
        <time>2011-11-20T09:04:47Z</time>
      </trkpt>
      <trkpt lat="45.82697" lon="4.81547">
        <ele>434.4</ele>
        <time>2011-11-20T09:04:51Z</time>
      </trkpt>
      <trkpt lat="45.82706" lon="4.81544">
        <ele>434</ele>
        <time>2011-11-20T09:04:55Z</time>
      </trkpt>
      <trkpt lat="45.82716" lon="4.81538">
        <ele>433.8</ele>
        <time>2011-11-20T09:04:59Z</time>
      </trkpt>
      <trkpt lat="45.82721" lon="4.81534">
        <ele>433.6</ele>
        <time>2011-11-20T09:05:01Z</time>
      </trkpt>
      <trkpt lat="45.82725" lon="4.81532">
        <ele>433.4</ele>
        <time>2011-11-20T09:05:03Z</time>
      </trkpt>
      <trkpt lat="45.82735" lon="4.81528">
        <ele>433</ele>
        <time>2011-11-20T09:05:07Z</time>
      </trkpt>
      <trkpt lat="45.82745" lon="4.81521">
        <ele>432.4</ele>
        <time>2011-11-20T09:05:13Z</time>
      </trkpt>
      <trkpt lat="45.82748" lon="4.81517">
        <ele>432</ele>
        <time>2011-11-20T09:05:15Z</time>
      </trkpt>
      <trkpt lat="45.8275" lon="4.81512">
        <ele>431.8</ele>
        <time>2011-11-20T09:05:17Z</time>
      </trkpt>
      <trkpt lat="45.8275" lon="4.81509">
        <ele>431.6</ele>
        <time>2011-11-20T09:05:18Z</time>
      </trkpt>
      <trkpt lat="45.82754" lon="4.81495">
        <ele>430.4</ele>
        <time>2011-11-20T09:05:24Z</time>
      </trkpt>
      <trkpt lat="45.82755" lon="4.81493">
        <ele>430.2</ele>
        <time>2011-11-20T09:05:25Z</time>
      </trkpt>
      <trkpt lat="45.82757" lon="4.81488">
        <ele>429.8</ele>
        <time>2011-11-20T09:05:27Z</time>
      </trkpt>
      <trkpt lat="45.8276" lon="4.81484">
        <ele>429.2</ele>
        <time>2011-11-20T09:05:29Z</time>
      </trkpt>
      <trkpt lat="45.82766" lon="4.81472">
        <ele>427.8</ele>
        <time>2011-11-20T09:05:34Z</time>
      </trkpt>
      <trkpt lat="45.82769" lon="4.81465">
        <ele>426.8</ele>
        <time>2011-11-20T09:05:37Z</time>
      </trkpt>
      <trkpt lat="45.8277" lon="4.8146">
        <ele>426</ele>
        <time>2011-11-20T09:05:39Z</time>
      </trkpt>
      <trkpt lat="45.82775" lon="4.81444">
        <ele>423.6</ele>
        <time>2011-11-20T09:05:45Z</time>
      </trkpt>
      <trkpt lat="45.82776" lon="4.81441">
        <ele>423.2</ele>
        <time>2011-11-20T09:05:46Z</time>
      </trkpt>
      <trkpt lat="45.82778" lon="4.81424">
        <ele>421</ele>
        <time>2011-11-20T09:05:51Z</time>
      </trkpt>
      <trkpt lat="45.82781" lon="4.81414">
        <ele>419.6</ele>
        <time>2011-11-20T09:05:54Z</time>
      </trkpt>
      <trkpt lat="45.82782" lon="4.81411">
        <ele>419</ele>
        <time>2011-11-20T09:05:55Z</time>
      </trkpt>
      <trkpt lat="45.82787" lon="4.81391">
        <ele>416.4</ele>
        <time>2011-11-20T09:06:01Z</time>
      </trkpt>
      <trkpt lat="45.82787" lon="4.81387">
        <ele>415.8</ele>
        <time>2011-11-20T09:06:02Z</time>
      </trkpt>
      <trkpt lat="45.8279" lon="4.81368">
        <ele>413.6</ele>
        <time>2011-11-20T09:06:07Z</time>
      </trkpt>
      <trkpt lat="45.82792" lon="4.8136">
        <ele>412.6</ele>
        <time>2011-11-20T09:06:09Z</time>
      </trkpt>
      <trkpt lat="45.82793" lon="4.81349">
        <ele>411.4</ele>
        <time>2011-11-20T09:06:12Z</time>
      </trkpt>
      <trkpt lat="45.82793" lon="4.81335">
        <ele>410.2</ele>
        <time>2011-11-20T09:06:15Z</time>
      </trkpt>
      <trkpt lat="45.82791" lon="4.81326">
        <ele>409.4</ele>
        <time>2011-11-20T09:06:17Z</time>
      </trkpt>
      <trkpt lat="45.82784" lon="4.81308">
        <ele>408.2</ele>
        <time>2011-11-20T09:06:21Z</time>
      </trkpt>
      <trkpt lat="45.82781" lon="4.81304">
        <ele>408</ele>
        <time>2011-11-20T09:06:22Z</time>
      </trkpt>
      <trkpt lat="45.82765" lon="4.81291">
        <ele>407.4</ele>
        <time>2011-11-20T09:06:27Z</time>
      </trkpt>
      <trkpt lat="45.8275" lon="4.81285">
        <ele>407</ele>
        <time>2011-11-20T09:06:32Z</time>
      </trkpt>
      <trkpt lat="45.82745" lon="4.81284">
        <ele>406.8</ele>
        <time>2011-11-20T09:06:34Z</time>
      </trkpt>
      <trkpt lat="45.82738" lon="4.81284">
        <ele>406.6</ele>
        <time>2011-11-20T09:06:37Z</time>
      </trkpt>
      <trkpt lat="45.82725" lon="4.81281">
        <ele>406.4</ele>
        <time>2011-11-20T09:06:42Z</time>
      </trkpt>
      <trkpt lat="45.82715" lon="4.8127">
        <ele>406.2</ele>
        <time>2011-11-20T09:06:47Z</time>
      </trkpt>
      <trkpt lat="45.82709" lon="4.81264">
        <ele>406</ele>
        <time>2011-11-20T09:06:50Z</time>
      </trkpt>
      <trkpt lat="45.82701" lon="4.81256">
        <ele>406</ele>
        <time>2011-11-20T09:06:53Z</time>
      </trkpt>
      <trkpt lat="45.82695" lon="4.81247">
        <ele>405.8</ele>
        <time>2011-11-20T09:06:56Z</time>
      </trkpt>
      <trkpt lat="45.82689" lon="4.81235">
        <ele>405.4</ele>
        <time>2011-11-20T09:07:00Z</time>
      </trkpt>
      <trkpt lat="45.82683" lon="4.81224">
        <ele>405.2</ele>
        <time>2011-11-20T09:07:03Z</time>
      </trkpt>
      <trkpt lat="45.8268" lon="4.81217">
        <ele>405</ele>
        <time>2011-11-20T09:07:05Z</time>
      </trkpt>
      <trkpt lat="45.82677" lon="4.81212">
        <ele>404.8</ele>
        <time>2011-11-20T09:07:07Z</time>
      </trkpt>
      <trkpt lat="45.82674" lon="4.81207">
        <ele>404.6</ele>
        <time>2011-11-20T09:07:09Z</time>
      </trkpt>
      <trkpt lat="45.82672" lon="4.81204">
        <ele>404.4</ele>
        <time>2011-11-20T09:07:10Z</time>
      </trkpt>
      <trkpt lat="45.8267" lon="4.81202">
        <ele>404.4</ele>
        <time>2011-11-20T09:07:11Z</time>
      </trkpt>
      <trkpt lat="45.82661" lon="4.81194">
        <ele>404</ele>
        <time>2011-11-20T09:07:14Z</time>
      </trkpt>
      <trkpt lat="45.82654" lon="4.81189">
        <ele>403.6</ele>
        <time>2011-11-20T09:07:17Z</time>
      </trkpt>
      <trkpt lat="45.82651" lon="4.81188">
        <ele>403.4</ele>
        <time>2011-11-20T09:07:18Z</time>
      </trkpt>
      <trkpt lat="45.8264" lon="4.81177">
        <ele>402.8</ele>
        <time>2011-11-20T09:07:23Z</time>
      </trkpt>
      <trkpt lat="45.82637" lon="4.81175">
        <ele>402.6</ele>
        <time>2011-11-20T09:07:24Z</time>
      </trkpt>
      <trkpt lat="45.82631" lon="4.81165">
        <ele>402</ele>
        <time>2011-11-20T09:07:28Z</time>
      </trkpt>
      <trkpt lat="45.82624" lon="4.81157">
        <ele>401.2</ele>
        <time>2011-11-20T09:07:32Z</time>
      </trkpt>
      <trkpt lat="45.82622" lon="4.81154">
        <ele>401</ele>
        <time>2011-11-20T09:07:33Z</time>
      </trkpt>
      <trkpt lat="45.82617" lon="4.81135">
        <ele>400</ele>
        <time>2011-11-20T09:07:38Z</time>
      </trkpt>
      <trkpt lat="45.82616" lon="4.81132">
        <ele>399.6</ele>
        <time>2011-11-20T09:07:39Z</time>
      </trkpt>
      <trkpt lat="45.82614" lon="4.81119">
        <ele>398.6</ele>
        <time>2011-11-20T09:07:43Z</time>
      </trkpt>
      <trkpt lat="45.82613" lon="4.81105">
        <ele>397.4</ele>
        <time>2011-11-20T09:07:47Z</time>
      </trkpt>
      <trkpt lat="45.82612" lon="4.81102">
        <ele>397.2</ele>
        <time>2011-11-20T09:07:48Z</time>
      </trkpt>
      <trkpt lat="45.82609" lon="4.81085">
        <ele>395.4</ele>
        <time>2011-11-20T09:07:53Z</time>
      </trkpt>
      <trkpt lat="45.82608" lon="4.81079">
        <ele>395.2</ele>
        <time>2011-11-20T09:07:54Z</time>
      </trkpt>
      <trkpt lat="45.82607" lon="4.81061">
        <ele>394.2</ele>
        <time>2011-11-20T09:07:58Z</time>
      </trkpt>
      <trkpt lat="45.82607" lon="4.81058">
        <ele>394</ele>
        <time>2011-11-20T09:07:59Z</time>
      </trkpt>
      <trkpt lat="45.8261" lon="4.81051">
        <ele>393.6</ele>
        <time>2011-11-20T09:08:01Z</time>
      </trkpt>
      <trkpt lat="45.82618" lon="4.81042">
        <ele>392.6</ele>
        <time>2011-11-20T09:08:05Z</time>
      </trkpt>
      <trkpt lat="45.82624" lon="4.81033">
        <ele>391.6</ele>
        <time>2011-11-20T09:08:09Z</time>
      </trkpt>
      <trkpt lat="45.82629" lon="4.81028">
        <ele>391</ele>
        <time>2011-11-20T09:08:12Z</time>
      </trkpt>
      <trkpt lat="45.82634" lon="4.81023">
        <ele>389.6</ele>
        <time>2011-11-20T09:08:18Z</time>
      </trkpt>
      <trkpt lat="45.82635" lon="4.81016">
        <ele>389</ele>
        <time>2011-11-20T09:08:21Z</time>
      </trkpt>
      <trkpt lat="45.82634" lon="4.81012">
        <ele>388.6</ele>
        <time>2011-11-20T09:08:24Z</time>
      </trkpt>
      <trkpt lat="45.82634" lon="4.8101">
        <ele>388.4</ele>
        <time>2011-11-20T09:08:25Z</time>
      </trkpt>
      <trkpt lat="45.82632" lon="4.81006">
        <ele>387.8</ele>
        <time>2011-11-20T09:08:29Z</time>
      </trkpt>
      <trkpt lat="45.82631" lon="4.81005">
        <ele>387.6</ele>
        <time>2011-11-20T09:08:31Z</time>
      </trkpt>
      <trkpt lat="45.82624" lon="4.80996">
        <ele>386.2</ele>
        <time>2011-11-20T09:08:40Z</time>
      </trkpt>
      <trkpt lat="45.82622" lon="4.80994">
        <ele>385.8</ele>
        <time>2011-11-20T09:08:42Z</time>
      </trkpt>
      <trkpt lat="45.82615" lon="4.80987">
        <ele>385.2</ele>
        <time>2011-11-20T09:08:46Z</time>
      </trkpt>
      <trkpt lat="45.82607" lon="4.80984">
        <ele>384.8</ele>
        <time>2011-11-20T09:08:49Z</time>
      </trkpt>
      <trkpt lat="45.82602" lon="4.80982">
        <ele>384.6</ele>
        <time>2011-11-20T09:08:51Z</time>
      </trkpt>
      <trkpt lat="45.82588" lon="4.8098">
        <ele>384</ele>
        <time>2011-11-20T09:08:56Z</time>
      </trkpt>
      <trkpt lat="45.82586" lon="4.80979">
        <ele>383.8</ele>
        <time>2011-11-20T09:08:57Z</time>
      </trkpt>
      <trkpt lat="45.82573" lon="4.80976">
        <ele>383.2</ele>
        <time>2011-11-20T09:09:02Z</time>
      </trkpt>
      <trkpt lat="45.8257" lon="4.80975">
        <ele>383</ele>
        <time>2011-11-20T09:09:03Z</time>
      </trkpt>
      <trkpt lat="45.82558" lon="4.8097">
        <ele>382.4</ele>
        <time>2011-11-20T09:09:08Z</time>
      </trkpt>
      <trkpt lat="45.82551" lon="4.80968">
        <ele>382</ele>
        <time>2011-11-20T09:09:11Z</time>
      </trkpt>
      <trkpt lat="45.8254" lon="4.80964">
        <ele>381.4</ele>
        <time>2011-11-20T09:09:15Z</time>
      </trkpt>
      <trkpt lat="45.82531" lon="4.80963">
        <ele>381</ele>
        <time>2011-11-20T09:09:18Z</time>
      </trkpt>
      <trkpt lat="45.82523" lon="4.8096">
        <ele>380.6</ele>
        <time>2011-11-20T09:09:21Z</time>
      </trkpt>
      <trkpt lat="45.82513" lon="4.80957">
        <ele>380</ele>
        <time>2011-11-20T09:09:25Z</time>
      </trkpt>
      <trkpt lat="45.82508" lon="4.80955">
        <ele>379.6</ele>
        <time>2011-11-20T09:09:27Z</time>
      </trkpt>
      <trkpt lat="45.82494" lon="4.80952">
        <ele>378.8</ele>
        <time>2011-11-20T09:09:32Z</time>
      </trkpt>
      <trkpt lat="45.82492" lon="4.80951">
        <ele>378.8</ele>
        <time>2011-11-20T09:09:33Z</time>
      </trkpt>
      <trkpt lat="45.82476" lon="4.80946">
        <ele>377.8</ele>
        <time>2011-11-20T09:09:39Z</time>
      </trkpt>
      <trkpt lat="45.82459" lon="4.80935">
        <ele>376.6</ele>
        <time>2011-11-20T09:09:46Z</time>
      </trkpt>
      <trkpt lat="45.82445" lon="4.80924">
        <ele>376</ele>
        <time>2011-11-20T09:09:51Z</time>
      </trkpt>
      <trkpt lat="45.82442" lon="4.80922">
        <ele>375.8</ele>
        <time>2011-11-20T09:09:52Z</time>
      </trkpt>
      <trkpt lat="45.82432" lon="4.80915">
        <ele>375.4</ele>
        <time>2011-11-20T09:09:56Z</time>
      </trkpt>
      <trkpt lat="45.82425" lon="4.8091">
        <ele>375</ele>
        <time>2011-11-20T09:09:59Z</time>
      </trkpt>
      <trkpt lat="45.82418" lon="4.80904">
        <ele>374.6</ele>
        <time>2011-11-20T09:10:02Z</time>
      </trkpt>
      <trkpt lat="45.82409" lon="4.80895">
        <ele>374</ele>
        <time>2011-11-20T09:10:06Z</time>
      </trkpt>
      <trkpt lat="45.82405" lon="4.80891">
        <ele>373.8</ele>
        <time>2011-11-20T09:10:08Z</time>
      </trkpt>
      <trkpt lat="45.82393" lon="4.80878">
        <ele>373.2</ele>
        <time>2011-11-20T09:10:14Z</time>
      </trkpt>
      <trkpt lat="45.82382" lon="4.80864">
        <ele>372.6</ele>
        <time>2011-11-20T09:10:20Z</time>
      </trkpt>
      <trkpt lat="45.82378" lon="4.80861">
        <ele>372.4</ele>
        <time>2011-11-20T09:10:22Z</time>
      </trkpt>
      <trkpt lat="45.82372" lon="4.80855">
        <ele>372.2</ele>
        <time>2011-11-20T09:10:25Z</time>
      </trkpt>
      <trkpt lat="45.82368" lon="4.80842">
        <ele>371.6</ele>
        <time>2011-11-20T09:10:29Z</time>
      </trkpt>
      <trkpt lat="45.82368" lon="4.80838">
        <ele>371.6</ele>
        <time>2011-11-20T09:10:30Z</time>
      </trkpt>
      <trkpt lat="45.82368" lon="4.80831">
        <ele>371.2</ele>
        <time>2011-11-20T09:10:33Z</time>
      </trkpt>
      <trkpt lat="45.82368" lon="4.80828">
        <ele>371</ele>
        <time>2011-11-20T09:10:35Z</time>
      </trkpt>
      <trkpt lat="45.82368" lon="4.80827">
        <ele>370.8</ele>
        <time>2011-11-20T09:10:36Z</time>
      </trkpt>
      <trkpt lat="45.82367" lon="4.8082">
        <ele>370.2</ele>
        <time>2011-11-20T09:10:41Z</time>
      </trkpt>
      <trkpt lat="45.82366" lon="4.8081">
        <ele>369.6</ele>
        <time>2011-11-20T09:10:46Z</time>
      </trkpt>
      <trkpt lat="45.82366" lon="4.80806">
        <ele>369.4</ele>
        <time>2011-11-20T09:10:48Z</time>
      </trkpt>
      <trkpt lat="45.82363" lon="4.80793">
        <ele>368.8</ele>
        <time>2011-11-20T09:10:56Z</time>
      </trkpt>
      <trkpt lat="45.82363" lon="4.80792">
        <ele>368.6</ele>
        <time>2011-11-20T09:10:57Z</time>
      </trkpt>
      <trkpt lat="45.82364" lon="4.80785">
        <ele>368.4</ele>
        <time>2011-11-20T09:11:01Z</time>
      </trkpt>
      <trkpt lat="45.82364" lon="4.80782">
        <ele>368.4</ele>
        <time>2011-11-20T09:11:03Z</time>
      </trkpt>
      <trkpt lat="45.82364" lon="4.80777">
        <ele>368.4</ele>
        <time>2011-11-20T09:11:06Z</time>
      </trkpt>
      <trkpt lat="45.82366" lon="4.80766">
        <ele>368.4</ele>
        <time>2011-11-20T09:11:12Z</time>
      </trkpt>
      <trkpt lat="45.82368" lon="4.8076">
        <ele>368.4</ele>
        <time>2011-11-20T09:11:17Z</time>
      </trkpt>
      <trkpt lat="45.82369" lon="4.80756">
        <ele>368.2</ele>
        <time>2011-11-20T09:11:20Z</time>
      </trkpt>
      <trkpt lat="45.82375" lon="4.80748">
        <ele>368.2</ele>
        <time>2011-11-20T09:11:27Z</time>
      </trkpt>
      <trkpt lat="45.82376" lon="4.80737">
        <ele>368.8</ele>
        <time>2011-11-20T09:11:32Z</time>
      </trkpt>
      <trkpt lat="45.82377" lon="4.80734">
        <ele>368.8</ele>
        <time>2011-11-20T09:11:34Z</time>
      </trkpt>
      <trkpt lat="45.82374" lon="4.80719">
        <ele>369.8</ele>
        <time>2011-11-20T09:11:41Z</time>
      </trkpt>
      <trkpt lat="45.82373" lon="4.80711">
        <ele>370.2</ele>
        <time>2011-11-20T09:11:46Z</time>
      </trkpt>
      <trkpt lat="45.82372" lon="4.80707">
        <ele>370.6</ele>
        <time>2011-11-20T09:11:48Z</time>
      </trkpt>
      <trkpt lat="45.82365" lon="4.807">
        <ele>371.4</ele>
        <time>2011-11-20T09:11:52Z</time>
      </trkpt>
      <trkpt lat="45.82361" lon="4.80695">
        <ele>371.8</ele>
        <time>2011-11-20T09:11:54Z</time>
      </trkpt>
      <trkpt lat="45.82359" lon="4.80692">
        <ele>372.2</ele>
        <time>2011-11-20T09:11:55Z</time>
      </trkpt>
      <trkpt lat="45.82356" lon="4.8069">
        <ele>372.2</ele>
        <time>2011-11-20T09:11:56Z</time>
      </trkpt>
      <trkpt lat="45.82347" lon="4.80679">
        <ele>373.2</ele>
        <time>2011-11-20T09:12:00Z</time>
      </trkpt>
      <trkpt lat="45.82346" lon="4.80676">
        <ele>373.4</ele>
        <time>2011-11-20T09:12:01Z</time>
      </trkpt>
      <trkpt lat="45.82347" lon="4.80673">
        <ele>373.6</ele>
        <time>2011-11-20T09:12:02Z</time>
      </trkpt>
      <trkpt lat="45.82347" lon="4.80667">
        <ele>374.2</ele>
        <time>2011-11-20T09:12:04Z</time>
      </trkpt>
      <trkpt lat="45.82348" lon="4.80664">
        <ele>374.4</ele>
        <time>2011-11-20T09:12:05Z</time>
      </trkpt>
      <trkpt lat="45.8235" lon="4.80659">
        <ele>374.8</ele>
        <time>2011-11-20T09:12:07Z</time>
      </trkpt>
      <trkpt lat="45.82351" lon="4.80653">
        <ele>375.2</ele>
        <time>2011-11-20T09:12:10Z</time>
      </trkpt>
      <trkpt lat="45.82352" lon="4.80651">
        <ele>375.4</ele>
        <time>2011-11-20T09:12:12Z</time>
      </trkpt>
      <trkpt lat="45.82353" lon="4.80648">
        <ele>375.6</ele>
        <time>2011-11-20T09:12:13Z</time>
      </trkpt>
      <trkpt lat="45.82356" lon="4.80637">
        <ele>376.8</ele>
        <time>2011-11-20T09:12:20Z</time>
      </trkpt>
      <trkpt lat="45.82356" lon="4.80631">
        <ele>377.2</ele>
        <time>2011-11-20T09:12:23Z</time>
      </trkpt>
      <trkpt lat="45.82357" lon="4.80624">
        <ele>377.6</ele>
        <time>2011-11-20T09:12:27Z</time>
      </trkpt>
      <trkpt lat="45.82358" lon="4.80612">
        <ele>378.6</ele>
        <time>2011-11-20T09:12:33Z</time>
      </trkpt>
      <trkpt lat="45.82359" lon="4.80609">
        <ele>379</ele>
        <time>2011-11-20T09:12:35Z</time>
      </trkpt>
      <trkpt lat="45.82358" lon="4.80607">
        <ele>379.2</ele>
        <time>2011-11-20T09:12:36Z</time>
      </trkpt>
      <trkpt lat="45.82358" lon="4.80601">
        <ele>379.8</ele>
        <time>2011-11-20T09:12:39Z</time>
      </trkpt>
      <trkpt lat="45.82358" lon="4.80599">
        <ele>380</ele>
        <time>2011-11-20T09:12:40Z</time>
      </trkpt>
      <trkpt lat="45.82358" lon="4.80587">
        <ele>381.2</ele>
        <time>2011-11-20T09:12:48Z</time>
      </trkpt>
      <trkpt lat="45.8236" lon="4.80574">
        <ele>382.8</ele>
        <time>2011-11-20T09:12:55Z</time>
      </trkpt>
      <trkpt lat="45.82361" lon="4.80572">
        <ele>383</ele>
        <time>2011-11-20T09:12:56Z</time>
      </trkpt>
      <trkpt lat="45.82366" lon="4.80556">
        <ele>385.2</ele>
        <time>2011-11-20T09:13:05Z</time>
      </trkpt>
      <trkpt lat="45.82367" lon="4.80547">
        <ele>386.6</ele>
        <time>2011-11-20T09:13:10Z</time>
      </trkpt>
      <trkpt lat="45.82369" lon="4.80545">
        <ele>386.8</ele>
        <time>2011-11-20T09:13:12Z</time>
      </trkpt>
      <trkpt lat="45.82369" lon="4.80539">
        <ele>387</ele>
        <time>2011-11-20T09:13:15Z</time>
      </trkpt>
      <trkpt lat="45.82372" lon="4.80532">
        <ele>387.4</ele>
        <time>2011-11-20T09:13:20Z</time>
      </trkpt>
      <trkpt lat="45.82373" lon="4.8053">
        <ele>387.2</ele>
        <time>2011-11-20T09:13:22Z</time>
      </trkpt>
      <trkpt lat="45.82375" lon="4.80526">
        <ele>387.4</ele>
        <time>2011-11-20T09:13:26Z</time>
      </trkpt>
      <trkpt lat="45.82376" lon="4.80524">
        <ele>387.4</ele>
        <time>2011-11-20T09:13:27Z</time>
      </trkpt>
      <trkpt lat="45.82379" lon="4.80517">
        <ele>387.4</ele>
        <time>2011-11-20T09:13:32Z</time>
      </trkpt>
      <trkpt lat="45.82378" lon="4.80515">
        <ele>387.4</ele>
        <time>2011-11-20T09:13:33Z</time>
      </trkpt>
      <trkpt lat="45.82378" lon="4.80503">
        <ele>387.8</ele>
        <time>2011-11-20T09:13:38Z</time>
      </trkpt>
      <trkpt lat="45.8238" lon="4.80499">
        <ele>388</ele>
        <time>2011-11-20T09:13:40Z</time>
      </trkpt>
      <trkpt lat="45.8238" lon="4.80492">
        <ele>388.2</ele>
        <time>2011-11-20T09:13:44Z</time>
      </trkpt>
      <trkpt lat="45.8238" lon="4.8049">
        <ele>388.4</ele>
        <time>2011-11-20T09:13:45Z</time>
      </trkpt>
      <trkpt lat="45.8238" lon="4.80477">
        <ele>389.4</ele>
        <time>2011-11-20T09:13:51Z</time>
      </trkpt>
      <trkpt lat="45.82379" lon="4.80473">
        <ele>389.8</ele>
        <time>2011-11-20T09:13:53Z</time>
      </trkpt>
      <trkpt lat="45.82381" lon="4.80469">
        <ele>390.4</ele>
        <time>2011-11-20T09:13:56Z</time>
      </trkpt>
      <trkpt lat="45.82385" lon="4.8046">
        <ele>391.6</ele>
        <time>2011-11-20T09:14:02Z</time>
      </trkpt>
      <trkpt lat="45.82385" lon="4.80454">
        <ele>392.6</ele>
        <time>2011-11-20T09:14:05Z</time>
      </trkpt>
      <trkpt lat="45.82386" lon="4.80451">
        <ele>393.4</ele>
        <time>2011-11-20T09:14:08Z</time>
      </trkpt>
      <trkpt lat="45.82387" lon="4.80451">
        <ele>394</ele>
        <time>2011-11-20T09:14:10Z</time>
      </trkpt>
      <trkpt lat="45.82387" lon="4.80438">
        <ele>404.2</ele>
        <time>2011-11-20T09:15:07Z</time>
      </trkpt>
      <trkpt lat="45.8239" lon="4.80426">
        <ele>404.4</ele>
        <time>2011-11-20T09:15:12Z</time>
      </trkpt>
      <trkpt lat="45.82397" lon="4.80412">
        <ele>404.2</ele>
        <time>2011-11-20T09:15:18Z</time>
      </trkpt>
      <trkpt lat="45.82402" lon="4.80403">
        <ele>404.2</ele>
        <time>2011-11-20T09:15:22Z</time>
      </trkpt>
      <trkpt lat="45.82405" lon="4.804">
        <ele>404</ele>
        <time>2011-11-20T09:15:24Z</time>
      </trkpt>
      <trkpt lat="45.82413" lon="4.8039">
        <ele>403.8</ele>
        <time>2011-11-20T09:15:29Z</time>
      </trkpt>
      <trkpt lat="45.82417" lon="4.80387">
        <ele>403.6</ele>
        <time>2011-11-20T09:15:31Z</time>
      </trkpt>
      <trkpt lat="45.82423" lon="4.80378">
        <ele>403.2</ele>
        <time>2011-11-20T09:15:35Z</time>
      </trkpt>
      <trkpt lat="45.82432" lon="4.80368">
        <ele>402.6</ele>
        <time>2011-11-20T09:15:40Z</time>
      </trkpt>
      <trkpt lat="45.82435" lon="4.80364">
        <ele>402.2</ele>
        <time>2011-11-20T09:15:42Z</time>
      </trkpt>
      <trkpt lat="45.82447" lon="4.80354">
        <ele>401.4</ele>
        <time>2011-11-20T09:15:48Z</time>
      </trkpt>
      <trkpt lat="45.8246" lon="4.80346">
        <ele>400.4</ele>
        <time>2011-11-20T09:15:54Z</time>
      </trkpt>
      <trkpt lat="45.82464" lon="4.80343">
        <ele>400.2</ele>
        <time>2011-11-20T09:15:56Z</time>
      </trkpt>
      <trkpt lat="45.8247" lon="4.80337">
        <ele>400</ele>
        <time>2011-11-20T09:15:59Z</time>
      </trkpt>
      <trkpt lat="45.82481" lon="4.80328">
        <ele>399.4</ele>
        <time>2011-11-20T09:16:05Z</time>
      </trkpt>
      <trkpt lat="45.82492" lon="4.80321">
        <ele>399</ele>
        <time>2011-11-20T09:16:11Z</time>
      </trkpt>
      <trkpt lat="45.82497" lon="4.80316">
        <ele>399</ele>
        <time>2011-11-20T09:16:14Z</time>
      </trkpt>
      <trkpt lat="45.82503" lon="4.80313">
        <ele>398.8</ele>
        <time>2011-11-20T09:16:17Z</time>
      </trkpt>
      <trkpt lat="45.82513" lon="4.80305">
        <ele>398.8</ele>
        <time>2011-11-20T09:16:23Z</time>
      </trkpt>
      <trkpt lat="45.82514" lon="4.80304">
        <ele>398.8</ele>
        <time>2011-11-20T09:16:24Z</time>
      </trkpt>
      <trkpt lat="45.82522" lon="4.80297">
        <ele>399</ele>
        <time>2011-11-20T09:16:29Z</time>
      </trkpt>
      <trkpt lat="45.8253" lon="4.8029">
        <ele>399</ele>
        <time>2011-11-20T09:16:34Z</time>
      </trkpt>
      <trkpt lat="45.82537" lon="4.80285">
        <ele>399</ele>
        <time>2011-11-20T09:16:39Z</time>
      </trkpt>
      <trkpt lat="45.82545" lon="4.80279">
        <ele>398.8</ele>
        <time>2011-11-20T09:16:47Z</time>
      </trkpt>
      <trkpt lat="45.82549" lon="4.80276">
        <ele>398.8</ele>
        <time>2011-11-20T09:16:51Z</time>
      </trkpt>
      <trkpt lat="45.82552" lon="4.80274">
        <ele>398.6</ele>
        <time>2011-11-20T09:16:54Z</time>
      </trkpt>
      <trkpt lat="45.82559" lon="4.80269">
        <ele>398.6</ele>
        <time>2011-11-20T09:17:01Z</time>
      </trkpt>
      <trkpt lat="45.82567" lon="4.80264">
        <ele>398.6</ele>
        <time>2011-11-20T09:17:08Z</time>
      </trkpt>
      <trkpt lat="45.8257" lon="4.80263">
        <ele>398.6</ele>
        <time>2011-11-20T09:17:10Z</time>
      </trkpt>
      <trkpt lat="45.82577" lon="4.80259">
        <ele>398.6</ele>
        <time>2011-11-20T09:17:17Z</time>
      </trkpt>
      <trkpt lat="45.82585" lon="4.80253">
        <ele>398.6</ele>
        <time>2011-11-20T09:17:23Z</time>
      </trkpt>
      <trkpt lat="45.82596" lon="4.80243">
        <ele>398.4</ele>
        <time>2011-11-20T09:17:32Z</time>
      </trkpt>
      <trkpt lat="45.82598" lon="4.8024">
        <ele>398.4</ele>
        <time>2011-11-20T09:17:34Z</time>
      </trkpt>
      <trkpt lat="45.826" lon="4.80238">
        <ele>398.4</ele>
        <time>2011-11-20T09:17:36Z</time>
      </trkpt>
      <trkpt lat="45.82601" lon="4.80235">
        <ele>398.4</ele>
        <time>2011-11-20T09:17:38Z</time>
      </trkpt>
      <trkpt lat="45.82602" lon="4.80233">
        <ele>398.4</ele>
        <time>2011-11-20T09:17:39Z</time>
      </trkpt>
      <trkpt lat="45.82611" lon="4.80227">
        <ele>398.4</ele>
        <time>2011-11-20T09:17:46Z</time>
      </trkpt>
      <trkpt lat="45.82614" lon="4.80222">
        <ele>398.2</ele>
        <time>2011-11-20T09:17:50Z</time>
      </trkpt>
      <trkpt lat="45.82617" lon="4.80219">
        <ele>398.4</ele>
        <time>2011-11-20T09:17:53Z</time>
      </trkpt>
      <trkpt lat="45.82627" lon="4.80211">
        <ele>399</ele>
        <time>2011-11-20T09:18:01Z</time>
      </trkpt>
      <trkpt lat="45.8263" lon="4.80209">
        <ele>399.2</ele>
        <time>2011-11-20T09:18:04Z</time>
      </trkpt>
      <trkpt lat="45.82631" lon="4.80208">
        <ele>399.4</ele>
        <time>2011-11-20T09:18:06Z</time>
      </trkpt>
      <trkpt lat="45.82632" lon="4.80207">
        <ele>399.4</ele>
        <time>2011-11-20T09:18:07Z</time>
      </trkpt>
      <trkpt lat="45.82637" lon="4.80201">
        <ele>400</ele>
        <time>2011-11-20T09:18:12Z</time>
      </trkpt>
      <trkpt lat="45.82639" lon="4.80199">
        <ele>400.2</ele>
        <time>2011-11-20T09:18:14Z</time>
      </trkpt>
      <trkpt lat="45.82647" lon="4.8019">
        <ele>401</ele>
        <time>2011-11-20T09:18:22Z</time>
      </trkpt>
      <trkpt lat="45.82658" lon="4.80182">
        <ele>401.6</ele>
        <time>2011-11-20T09:18:31Z</time>
      </trkpt>
      <trkpt lat="45.82663" lon="4.80179">
        <ele>402</ele>
        <time>2011-11-20T09:18:35Z</time>
      </trkpt>
      <trkpt lat="45.82664" lon="4.80178">
        <ele>402.2</ele>
        <time>2011-11-20T09:18:36Z</time>
      </trkpt>
      <trkpt lat="45.82665" lon="4.80178">
        <ele>402.2</ele>
        <time>2011-11-20T09:18:37Z</time>
      </trkpt>
      <trkpt lat="45.82668" lon="4.80175">
        <ele>402.6</ele>
        <time>2011-11-20T09:18:40Z</time>
      </trkpt>
      <trkpt lat="45.82668" lon="4.80174">
        <ele>403</ele>
        <time>2011-11-20T09:18:41Z</time>
      </trkpt>
      <trkpt lat="45.82668" lon="4.80173">
        <ele>403.2</ele>
        <time>2011-11-20T09:18:42Z</time>
      </trkpt>
      <trkpt lat="45.82668" lon="4.80172">
        <ele>403.6</ele>
        <time>2011-11-20T09:18:43Z</time>
      </trkpt>
      <trkpt lat="45.82669" lon="4.8017">
        <ele>404.8</ele>
        <time>2011-11-20T09:18:46Z</time>
      </trkpt>
      <trkpt lat="45.8267" lon="4.80171">
        <ele>405</ele>
        <time>2011-11-20T09:18:47Z</time>
      </trkpt>
      <trkpt lat="45.82678" lon="4.80165">
        <ele>406.6</ele>
        <time>2011-11-20T09:18:54Z</time>
      </trkpt>
      <trkpt lat="45.82682" lon="4.80164">
        <ele>407.4</ele>
        <time>2011-11-20T09:18:58Z</time>
      </trkpt>
      <trkpt lat="45.82683" lon="4.80164">
        <ele>407.4</ele>
        <time>2011-11-20T09:18:59Z</time>
      </trkpt>
      <trkpt lat="45.82686" lon="4.80163">
        <ele>407.8</ele>
        <time>2011-11-20T09:19:01Z</time>
      </trkpt>
      <trkpt lat="45.8269" lon="4.80161">
        <ele>408.6</ele>
        <time>2011-11-20T09:19:04Z</time>
      </trkpt>
      <trkpt lat="45.82696" lon="4.80157">
        <ele>409.8</ele>
        <time>2011-11-20T09:19:10Z</time>
      </trkpt>
      <trkpt lat="45.82697" lon="4.80156">
        <ele>409.8</ele>
        <time>2011-11-20T09:19:11Z</time>
      </trkpt>
      <trkpt lat="45.827" lon="4.80154">
        <ele>410.4</ele>
        <time>2011-11-20T09:19:14Z</time>
      </trkpt>
      <trkpt lat="45.82702" lon="4.80153">
        <ele>410.6</ele>
        <time>2011-11-20T09:19:15Z</time>
      </trkpt>
      <trkpt lat="45.82703" lon="4.80152">
        <ele>410.6</ele>
        <time>2011-11-20T09:19:16Z</time>
      </trkpt>
      <trkpt lat="45.82705" lon="4.8015">
        <ele>410.8</ele>
        <time>2011-11-20T09:19:18Z</time>
      </trkpt>
      <trkpt lat="45.82713" lon="4.80145">
        <ele>411.4</ele>
        <time>2011-11-20T09:19:24Z</time>
      </trkpt>
      <trkpt lat="45.82716" lon="4.80143">
        <ele>411.4</ele>
        <time>2011-11-20T09:19:26Z</time>
      </trkpt>
      <trkpt lat="45.82719" lon="4.80139">
        <ele>411.4</ele>
        <time>2011-11-20T09:19:28Z</time>
      </trkpt>
      <trkpt lat="45.82722" lon="4.80137">
        <ele>411.6</ele>
        <time>2011-11-20T09:19:30Z</time>
      </trkpt>
      <trkpt lat="45.82726" lon="4.80132">
        <ele>412</ele>
        <time>2011-11-20T09:19:34Z</time>
      </trkpt>
      <trkpt lat="45.82729" lon="4.80132">
        <ele>411.8</ele>
        <time>2011-11-20T09:19:36Z</time>
      </trkpt>
      <trkpt lat="45.82732" lon="4.8013">
        <ele>412</ele>
        <time>2011-11-20T09:19:38Z</time>
      </trkpt>
      <trkpt lat="45.82734" lon="4.80129">
        <ele>412</ele>
        <time>2011-11-20T09:19:39Z</time>
      </trkpt>
      <trkpt lat="45.82737" lon="4.80123">
        <ele>412</ele>
        <time>2011-11-20T09:19:43Z</time>
      </trkpt>
      <trkpt lat="45.82742" lon="4.80117">
        <ele>412</ele>
        <time>2011-11-20T09:19:49Z</time>
      </trkpt>
      <trkpt lat="45.82743" lon="4.80116">
        <ele>412.2</ele>
        <time>2011-11-20T09:19:50Z</time>
      </trkpt>
      <trkpt lat="45.82746" lon="4.80112">
        <ele>412.2</ele>
        <time>2011-11-20T09:19:53Z</time>
      </trkpt>
      <trkpt lat="45.82751" lon="4.80108">
        <ele>412.2</ele>
        <time>2011-11-20T09:19:57Z</time>
      </trkpt>
      <trkpt lat="45.82755" lon="4.80105">
        <ele>412.2</ele>
        <time>2011-11-20T09:20:01Z</time>
      </trkpt>
      <trkpt lat="45.82758" lon="4.80101">
        <ele>412</ele>
        <time>2011-11-20T09:20:05Z</time>
      </trkpt>
      <trkpt lat="45.82763" lon="4.80095">
        <ele>412</ele>
        <time>2011-11-20T09:20:10Z</time>
      </trkpt>
      <trkpt lat="45.82766" lon="4.80091">
        <ele>412</ele>
        <time>2011-11-20T09:20:13Z</time>
      </trkpt>
      <trkpt lat="45.82767" lon="4.8009">
        <ele>411.8</ele>
        <time>2011-11-20T09:20:14Z</time>
      </trkpt>
      <trkpt lat="45.82772" lon="4.8008">
        <ele>411.6</ele>
        <time>2011-11-20T09:20:20Z</time>
      </trkpt>
      <trkpt lat="45.82775" lon="4.80075">
        <ele>411.4</ele>
        <time>2011-11-20T09:20:23Z</time>
      </trkpt>
      <trkpt lat="45.82776" lon="4.80074">
        <ele>411.4</ele>
        <time>2011-11-20T09:20:24Z</time>
      </trkpt>
      <trkpt lat="45.82778" lon="4.8007">
        <ele>411.2</ele>
        <time>2011-11-20T09:20:26Z</time>
      </trkpt>
      <trkpt lat="45.82786" lon="4.80065">
        <ele>411</ele>
        <time>2011-11-20T09:20:32Z</time>
      </trkpt>
      <trkpt lat="45.82791" lon="4.80061">
        <ele>410.8</ele>
        <time>2011-11-20T09:20:36Z</time>
      </trkpt>
      <trkpt lat="45.82795" lon="4.80059">
        <ele>410.8</ele>
        <time>2011-11-20T09:20:39Z</time>
      </trkpt>
      <trkpt lat="45.82802" lon="4.80055">
        <ele>410.8</ele>
        <time>2011-11-20T09:20:45Z</time>
      </trkpt>
      <trkpt lat="45.82811" lon="4.8005">
        <ele>411.2</ele>
        <time>2011-11-20T09:20:52Z</time>
      </trkpt>
      <trkpt lat="45.82812" lon="4.8005">
        <ele>411.2</ele>
        <time>2011-11-20T09:20:53Z</time>
      </trkpt>
      <trkpt lat="45.82818" lon="4.80043">
        <ele>412.2</ele>
        <time>2011-11-20T09:20:59Z</time>
      </trkpt>
      <trkpt lat="45.8282" lon="4.80041">
        <ele>412.4</ele>
        <time>2011-11-20T09:21:01Z</time>
      </trkpt>
      <trkpt lat="45.82824" lon="4.80035">
        <ele>413</ele>
        <time>2011-11-20T09:21:06Z</time>
      </trkpt>
      <trkpt lat="45.82827" lon="4.80033">
        <ele>413</ele>
        <time>2011-11-20T09:21:08Z</time>
      </trkpt>
      <trkpt lat="45.82829" lon="4.80032">
        <ele>413.2</ele>
        <time>2011-11-20T09:21:09Z</time>
      </trkpt>
      <trkpt lat="45.82833" lon="4.80026">
        <ele>413.6</ele>
        <time>2011-11-20T09:21:14Z</time>
      </trkpt>
      <trkpt lat="45.82839" lon="4.80022">
        <ele>414.6</ele>
        <time>2011-11-20T09:21:20Z</time>
      </trkpt>
      <trkpt lat="45.82842" lon="4.80014">
        <ele>416.2</ele>
        <time>2011-11-20T09:21:27Z</time>
      </trkpt>
      <trkpt lat="45.82844" lon="4.80007">
        <ele>420.4</ele>
        <time>2011-11-20T09:21:38Z</time>
      </trkpt>
      <trkpt lat="45.82848" lon="4.80003">
        <ele>424.8</ele>
        <time>2011-11-20T09:21:46Z</time>
      </trkpt>
      <trkpt lat="45.82853" lon="4.80003">
        <ele>428.8</ele>
        <time>2011-11-20T09:21:52Z</time>
      </trkpt>
      <trkpt lat="45.82855" lon="4.80003">
        <ele>435.2</ele>
        <time>2011-11-20T09:22:01Z</time>
      </trkpt>
      <trkpt lat="45.82862" lon="4.80004">
        <ele>438.8</ele>
        <time>2011-11-20T09:22:07Z</time>
      </trkpt>
      <trkpt lat="45.82864" lon="4.80004">
        <ele>440.4</ele>
        <time>2011-11-20T09:22:10Z</time>
      </trkpt>
      <trkpt lat="45.82865" lon="4.80003">
        <ele>441.6</ele>
        <time>2011-11-20T09:22:12Z</time>
      </trkpt>
      <trkpt lat="45.82868" lon="4.80001">
        <ele>445.2</ele>
        <time>2011-11-20T09:22:19Z</time>
      </trkpt>
      <trkpt lat="45.82876" lon="4.8">
        <ele>448.2</ele>
        <time>2011-11-20T09:22:25Z</time>
      </trkpt>
      <trkpt lat="45.82882" lon="4.79996">
        <ele>450.2</ele>
        <time>2011-11-20T09:22:30Z</time>
      </trkpt>
      <trkpt lat="45.82882" lon="4.79995">
        <ele>450.6</ele>
        <time>2011-11-20T09:22:31Z</time>
      </trkpt>
      <trkpt lat="45.82883" lon="4.79995">
        <ele>451</ele>
        <time>2011-11-20T09:22:32Z</time>
      </trkpt>
      <trkpt lat="45.82885" lon="4.79996">
        <ele>451.6</ele>
        <time>2011-11-20T09:22:34Z</time>
      </trkpt>
      <trkpt lat="45.82885" lon="4.79995">
        <ele>452</ele>
        <time>2011-11-20T09:22:35Z</time>
      </trkpt>
      <trkpt lat="45.82887" lon="4.79994">
        <ele>452.2</ele>
        <time>2011-11-20T09:22:36Z</time>
      </trkpt>
      <trkpt lat="45.82895" lon="4.79992">
        <ele>453</ele>
        <time>2011-11-20T09:22:40Z</time>
      </trkpt>
      <trkpt lat="45.82898" lon="4.79989">
        <ele>454.2</ele>
        <time>2011-11-20T09:22:45Z</time>
      </trkpt>
      <trkpt lat="45.829" lon="4.79987">
        <ele>454.8</ele>
        <time>2011-11-20T09:22:48Z</time>
      </trkpt>
      <trkpt lat="45.82902" lon="4.79983">
        <ele>455</ele>
        <time>2011-11-20T09:22:50Z</time>
      </trkpt>
      <trkpt lat="45.82906" lon="4.79977">
        <ele>455.4</ele>
        <time>2011-11-20T09:22:53Z</time>
      </trkpt>
      <trkpt lat="45.8291" lon="4.79976">
        <ele>455.6</ele>
        <time>2011-11-20T09:22:55Z</time>
      </trkpt>
      <trkpt lat="45.82915" lon="4.79976">
        <ele>456.2</ele>
        <time>2011-11-20T09:22:58Z</time>
      </trkpt>
      <trkpt lat="45.82917" lon="4.79976">
        <ele>456.4</ele>
        <time>2011-11-20T09:22:59Z</time>
      </trkpt>
      <trkpt lat="45.82918" lon="4.79976">
        <ele>456.4</ele>
        <time>2011-11-20T09:23:00Z</time>
      </trkpt>
      <trkpt lat="45.82922" lon="4.79975">
        <ele>457</ele>
        <time>2011-11-20T09:23:03Z</time>
      </trkpt>
      <trkpt lat="45.82923" lon="4.79973">
        <ele>457</ele>
        <time>2011-11-20T09:23:04Z</time>
      </trkpt>
      <trkpt lat="45.82931" lon="4.79966">
        <ele>458</ele>
        <time>2011-11-20T09:23:11Z</time>
      </trkpt>
      <trkpt lat="45.82933" lon="4.79965">
        <ele>458</ele>
        <time>2011-11-20T09:23:13Z</time>
      </trkpt>
      <trkpt lat="45.82938" lon="4.79962">
        <ele>459</ele>
        <time>2011-11-20T09:23:18Z</time>
      </trkpt>
      <trkpt lat="45.8294" lon="4.79961">
        <ele>459.2</ele>
        <time>2011-11-20T09:23:19Z</time>
      </trkpt>
      <trkpt lat="45.82948" lon="4.79958">
        <ele>460.4</ele>
        <time>2011-11-20T09:23:25Z</time>
      </trkpt>
      <trkpt lat="45.82952" lon="4.79956">
        <ele>461.4</ele>
        <time>2011-11-20T09:23:28Z</time>
      </trkpt>
      <trkpt lat="45.82956" lon="4.79958">
        <ele>461.8</ele>
        <time>2011-11-20T09:23:31Z</time>
      </trkpt>
      <trkpt lat="45.82961" lon="4.79957">
        <ele>462.6</ele>
        <time>2011-11-20T09:23:34Z</time>
      </trkpt>
      <trkpt lat="45.82963" lon="4.79954">
        <ele>463.2</ele>
        <time>2011-11-20T09:23:36Z</time>
      </trkpt>
      <trkpt lat="45.82968" lon="4.79948">
        <ele>464.8</ele>
        <time>2011-11-20T09:23:41Z</time>
      </trkpt>
      <trkpt lat="45.8297" lon="4.79947">
        <ele>465.4</ele>
        <time>2011-11-20T09:23:43Z</time>
      </trkpt>
      <trkpt lat="45.82977" lon="4.79942">
        <ele>467</ele>
        <time>2011-11-20T09:23:49Z</time>
      </trkpt>
      <trkpt lat="45.82978" lon="4.79941">
        <ele>467.4</ele>
        <time>2011-11-20T09:23:50Z</time>
      </trkpt>
      <trkpt lat="45.82979" lon="4.79939">
        <ele>467.6</ele>
        <time>2011-11-20T09:23:51Z</time>
      </trkpt>
      <trkpt lat="45.82984" lon="4.79934">
        <ele>468.8</ele>
        <time>2011-11-20T09:23:55Z</time>
      </trkpt>
      <trkpt lat="45.82989" lon="4.79933">
        <ele>469.6</ele>
        <time>2011-11-20T09:23:58Z</time>
      </trkpt>
      <trkpt lat="45.82997" lon="4.79931">
        <ele>471.2</ele>
        <time>2011-11-20T09:24:02Z</time>
      </trkpt>
      <trkpt lat="45.83003" lon="4.79927">
        <ele>472.6</ele>
        <time>2011-11-20T09:24:05Z</time>
      </trkpt>
      <trkpt lat="45.8301" lon="4.79925">
        <ele>473.6</ele>
        <time>2011-11-20T09:24:08Z</time>
      </trkpt>
      <trkpt lat="45.83015" lon="4.7992">
        <ele>474.6</ele>
        <time>2011-11-20T09:24:11Z</time>
      </trkpt>
      <trkpt lat="45.83017" lon="4.79919">
        <ele>475</ele>
        <time>2011-11-20T09:24:12Z</time>
      </trkpt>
      <trkpt lat="45.83021" lon="4.79919">
        <ele>475.8</ele>
        <time>2011-11-20T09:24:14Z</time>
      </trkpt>
      <trkpt lat="45.83029" lon="4.79915">
        <ele>476.8</ele>
        <time>2011-11-20T09:24:17Z</time>
      </trkpt>
      <trkpt lat="45.83037" lon="4.79905">
        <ele>478.2</ele>
        <time>2011-11-20T09:24:21Z</time>
      </trkpt>
      <trkpt lat="45.83042" lon="4.79904">
        <ele>478.6</ele>
        <time>2011-11-20T09:24:23Z</time>
      </trkpt>
      <trkpt lat="45.83052" lon="4.79904">
        <ele>480</ele>
        <time>2011-11-20T09:24:27Z</time>
      </trkpt>
      <trkpt lat="45.83055" lon="4.79903">
        <ele>480.2</ele>
        <time>2011-11-20T09:24:28Z</time>
      </trkpt>
      <trkpt lat="45.83057" lon="4.79902">
        <ele>480.6</ele>
        <time>2011-11-20T09:24:29Z</time>
      </trkpt>
      <trkpt lat="45.83061" lon="4.79901">
        <ele>481.4</ele>
        <time>2011-11-20T09:24:31Z</time>
      </trkpt>
      <trkpt lat="45.83072" lon="4.79901">
        <ele>483.2</ele>
        <time>2011-11-20T09:24:35Z</time>
      </trkpt>
      <trkpt lat="45.83073" lon="4.79902">
        <ele>483.6</ele>
        <time>2011-11-20T09:24:36Z</time>
      </trkpt>
      <trkpt lat="45.8308" lon="4.79903">
        <ele>484.6</ele>
        <time>2011-11-20T09:24:39Z</time>
      </trkpt>
      <trkpt lat="45.83082" lon="4.79903">
        <ele>485.2</ele>
        <time>2011-11-20T09:24:40Z</time>
      </trkpt>
      <trkpt lat="45.83091" lon="4.79903">
        <ele>486.4</ele>
        <time>2011-11-20T09:24:44Z</time>
      </trkpt>
      <trkpt lat="45.83101" lon="4.799">
        <ele>488</ele>
        <time>2011-11-20T09:24:50Z</time>
      </trkpt>
      <trkpt lat="45.83102" lon="4.79901">
        <ele>488.4</ele>
        <time>2011-11-20T09:24:51Z</time>
      </trkpt>
      <trkpt lat="45.83109" lon="4.79901">
        <ele>489.2</ele>
        <time>2011-11-20T09:24:54Z</time>
      </trkpt>
      <trkpt lat="45.8311" lon="4.79902">
        <ele>489.6</ele>
        <time>2011-11-20T09:24:55Z</time>
      </trkpt>
      <trkpt lat="45.83124" lon="4.79904">
        <ele>491.2</ele>
        <time>2011-11-20T09:25:02Z</time>
      </trkpt>
      <trkpt lat="45.8313" lon="4.79904">
        <ele>492.2</ele>
        <time>2011-11-20T09:25:05Z</time>
      </trkpt>
      <trkpt lat="45.83133" lon="4.79904">
        <ele>492.4</ele>
        <time>2011-11-20T09:25:07Z</time>
      </trkpt>
      <trkpt lat="45.83144" lon="4.79908">
        <ele>493.2</ele>
        <time>2011-11-20T09:25:12Z</time>
      </trkpt>
      <trkpt lat="45.83146" lon="4.7991">
        <ele>493.6</ele>
        <time>2011-11-20T09:25:13Z</time>
      </trkpt>
      <trkpt lat="45.83148" lon="4.79913">
        <ele>494.2</ele>
        <time>2011-11-20T09:25:15Z</time>
      </trkpt>
      <trkpt lat="45.83149" lon="4.79914">
        <ele>494.2</ele>
        <time>2011-11-20T09:25:16Z</time>
      </trkpt>
      <trkpt lat="45.83154" lon="4.79909">
        <ele>495.8</ele>
        <time>2011-11-20T09:25:21Z</time>
      </trkpt>
      <trkpt lat="45.83156" lon="4.7991">
        <ele>496.8</ele>
        <time>2011-11-20T09:25:23Z</time>
      </trkpt>
      <trkpt lat="45.83157" lon="4.79911">
        <ele>498</ele>
        <time>2011-11-20T09:25:25Z</time>
      </trkpt>
      <trkpt lat="45.83158" lon="4.79914">
        <ele>499</ele>
        <time>2011-11-20T09:25:27Z</time>
      </trkpt>
      <trkpt lat="45.8316" lon="4.79917">
        <ele>499.6</ele>
        <time>2011-11-20T09:25:29Z</time>
      </trkpt>
      <trkpt lat="45.83163" lon="4.79922">
        <ele>500.4</ele>
        <time>2011-11-20T09:25:31Z</time>
      </trkpt>
      <trkpt lat="45.83166" lon="4.79925">
        <ele>501.2</ele>
        <time>2011-11-20T09:25:33Z</time>
      </trkpt>
      <trkpt lat="45.83167" lon="4.79928">
        <ele>502</ele>
        <time>2011-11-20T09:25:35Z</time>
      </trkpt>
      <trkpt lat="45.83169" lon="4.79929">
        <ele>503</ele>
        <time>2011-11-20T09:25:38Z</time>
      </trkpt>
      <trkpt lat="45.8317" lon="4.79931">
        <ele>503.6</ele>
        <time>2011-11-20T09:25:40Z</time>
      </trkpt>
      <trkpt lat="45.83171" lon="4.79938">
        <ele>504.4</ele>
        <time>2011-11-20T09:25:44Z</time>
      </trkpt>
      <trkpt lat="45.83173" lon="4.79941">
        <ele>504.6</ele>
        <time>2011-11-20T09:25:46Z</time>
      </trkpt>
      <trkpt lat="45.83176" lon="4.79944">
        <ele>504.8</ele>
        <time>2011-11-20T09:25:48Z</time>
      </trkpt>
      <trkpt lat="45.8318" lon="4.79949">
        <ele>505</ele>
        <time>2011-11-20T09:25:51Z</time>
      </trkpt>
      <trkpt lat="45.83182" lon="4.79958">
        <ele>504.8</ele>
        <time>2011-11-20T09:25:54Z</time>
      </trkpt>
      <trkpt lat="45.83183" lon="4.79963">
        <ele>504.8</ele>
        <time>2011-11-20T09:25:56Z</time>
      </trkpt>
      <trkpt lat="45.83184" lon="4.79965">
        <ele>504.8</ele>
        <time>2011-11-20T09:25:57Z</time>
      </trkpt>
      <trkpt lat="45.83185" lon="4.79969">
        <ele>504.8</ele>
        <time>2011-11-20T09:26:00Z</time>
      </trkpt>
      <trkpt lat="45.83191" lon="4.79971">
        <ele>505.6</ele>
        <time>2011-11-20T09:26:11Z</time>
      </trkpt>
      <trkpt lat="45.83194" lon="4.79971">
        <ele>508.4</ele>
        <time>2011-11-20T09:26:19Z</time>
      </trkpt>
      <trkpt lat="45.83193" lon="4.79969">
        <ele>509.4</ele>
        <time>2011-11-20T09:26:21Z</time>
      </trkpt>
      <trkpt lat="45.83193" lon="4.79966">
        <ele>511.8</ele>
        <time>2011-11-20T09:26:27Z</time>
      </trkpt>
      <trkpt lat="45.83197" lon="4.79967">
        <ele>514.6</ele>
        <time>2011-11-20T09:26:40Z</time>
      </trkpt>
      <trkpt lat="45.83199" lon="4.79967">
        <ele>514.6</ele>
        <time>2011-11-20T09:26:41Z</time>
      </trkpt>
      <trkpt lat="45.83201" lon="4.79967">
        <ele>514.6</ele>
        <time>2011-11-20T09:26:42Z</time>
      </trkpt>
      <trkpt lat="45.83204" lon="4.79964">
        <ele>514.8</ele>
        <time>2011-11-20T09:26:44Z</time>
      </trkpt>
      <trkpt lat="45.83213" lon="4.79966">
        <ele>514.6</ele>
        <time>2011-11-20T09:26:48Z</time>
      </trkpt>
      <trkpt lat="45.8322" lon="4.79968">
        <ele>514.4</ele>
        <time>2011-11-20T09:26:52Z</time>
      </trkpt>
      <trkpt lat="45.83221" lon="4.7997">
        <ele>514.2</ele>
        <time>2011-11-20T09:26:53Z</time>
      </trkpt>
      <trkpt lat="45.83228" lon="4.79975">
        <ele>514</ele>
        <time>2011-11-20T09:26:56Z</time>
      </trkpt>
      <trkpt lat="45.83229" lon="4.79977">
        <ele>513.8</ele>
        <time>2011-11-20T09:26:57Z</time>
      </trkpt>
      <trkpt lat="45.83231" lon="4.7998">
        <ele>513.6</ele>
        <time>2011-11-20T09:26:58Z</time>
      </trkpt>
      <trkpt lat="45.83232" lon="4.79986">
        <ele>513.4</ele>
        <time>2011-11-20T09:27:00Z</time>
      </trkpt>
      <trkpt lat="45.83234" lon="4.7999">
        <ele>513</ele>
        <time>2011-11-20T09:27:02Z</time>
      </trkpt>
      <trkpt lat="45.83246" lon="4.79994">
        <ele>512.2</ele>
        <time>2011-11-20T09:27:07Z</time>
      </trkpt>
      <trkpt lat="45.83247" lon="4.79993">
        <ele>512.2</ele>
        <time>2011-11-20T09:27:08Z</time>
      </trkpt>
      <trkpt lat="45.8325" lon="4.7999">
        <ele>511.8</ele>
        <time>2011-11-20T09:27:10Z</time>
      </trkpt>
      <trkpt lat="45.83251" lon="4.79988">
        <ele>511.6</ele>
        <time>2011-11-20T09:27:11Z</time>
      </trkpt>
      <trkpt lat="45.83254" lon="4.79986">
        <ele>511.4</ele>
        <time>2011-11-20T09:27:13Z</time>
      </trkpt>
      <trkpt lat="45.8326" lon="4.79983">
        <ele>511</ele>
        <time>2011-11-20T09:27:16Z</time>
      </trkpt>
      <trkpt lat="45.83263" lon="4.7998">
        <ele>510.6</ele>
        <time>2011-11-20T09:27:18Z</time>
      </trkpt>
      <trkpt lat="45.83275" lon="4.79975">
        <ele>510</ele>
        <time>2011-11-20T09:27:23Z</time>
      </trkpt>
      <trkpt lat="45.83282" lon="4.79975">
        <ele>509.4</ele>
        <time>2011-11-20T09:27:27Z</time>
      </trkpt>
      <trkpt lat="45.83292" lon="4.7997">
        <ele>508.8</ele>
        <time>2011-11-20T09:27:32Z</time>
      </trkpt>
      <trkpt lat="45.833" lon="4.79969">
        <ele>508.4</ele>
        <time>2011-11-20T09:27:35Z</time>
      </trkpt>
      <trkpt lat="45.83303" lon="4.79971">
        <ele>508.2</ele>
        <time>2011-11-20T09:27:37Z</time>
      </trkpt>
      <trkpt lat="45.83313" lon="4.7997">
        <ele>507.8</ele>
        <time>2011-11-20T09:27:41Z</time>
      </trkpt>
      <trkpt lat="45.83317" lon="4.79969">
        <ele>507.8</ele>
        <time>2011-11-20T09:27:42Z</time>
      </trkpt>
      <trkpt lat="45.83332" lon="4.79965">
        <ele>507.2</ele>
        <time>2011-11-20T09:27:48Z</time>
      </trkpt>
      <trkpt lat="45.83336" lon="4.79964">
        <ele>507.2</ele>
        <time>2011-11-20T09:27:50Z</time>
      </trkpt>
      <trkpt lat="45.83348" lon="4.7996">
        <ele>506.8</ele>
        <time>2011-11-20T09:27:55Z</time>
      </trkpt>
      <trkpt lat="45.83355" lon="4.79958">
        <ele>506.6</ele>
        <time>2011-11-20T09:27:58Z</time>
      </trkpt>
      <trkpt lat="45.83362" lon="4.79955">
        <ele>506.4</ele>
        <time>2011-11-20T09:28:01Z</time>
      </trkpt>
      <trkpt lat="45.83373" lon="4.79951">
        <ele>506.2</ele>
        <time>2011-11-20T09:28:06Z</time>
      </trkpt>
      <trkpt lat="45.83376" lon="4.7995">
        <ele>506.2</ele>
        <time>2011-11-20T09:28:07Z</time>
      </trkpt>
      <trkpt lat="45.83387" lon="4.79943">
        <ele>506.2</ele>
        <time>2011-11-20T09:28:12Z</time>
      </trkpt>
      <trkpt lat="45.83392" lon="4.79941">
        <ele>506</ele>
        <time>2011-11-20T09:28:14Z</time>
      </trkpt>
      <trkpt lat="45.83406" lon="4.79936">
        <ele>506</ele>
        <time>2011-11-20T09:28:20Z</time>
      </trkpt>
      <trkpt lat="45.83411" lon="4.79935">
        <ele>506</ele>
        <time>2011-11-20T09:28:22Z</time>
      </trkpt>
      <trkpt lat="45.83422" lon="4.7993">
        <ele>505.8</ele>
        <time>2011-11-20T09:28:27Z</time>
      </trkpt>
      <trkpt lat="45.83429" lon="4.79928">
        <ele>505.8</ele>
        <time>2011-11-20T09:28:30Z</time>
      </trkpt>
      <trkpt lat="45.83438" lon="4.79925">
        <ele>505.6</ele>
        <time>2011-11-20T09:28:34Z</time>
      </trkpt>
      <trkpt lat="45.83447" lon="4.79922">
        <ele>505.6</ele>
        <time>2011-11-20T09:28:38Z</time>
      </trkpt>
      <trkpt lat="45.83453" lon="4.7992">
        <ele>505.6</ele>
        <time>2011-11-20T09:28:41Z</time>
      </trkpt>
      <trkpt lat="45.8346" lon="4.79916">
        <ele>505.4</ele>
        <time>2011-11-20T09:28:47Z</time>
      </trkpt>
      <trkpt lat="45.83462" lon="4.79915">
        <ele>505.4</ele>
        <time>2011-11-20T09:28:50Z</time>
      </trkpt>
      <trkpt lat="45.83463" lon="4.79915">
        <ele>505.4</ele>
        <time>2011-11-20T09:28:52Z</time>
      </trkpt>
      <trkpt lat="45.83464" lon="4.79911">
        <ele>505</ele>
        <time>2011-11-20T09:29:05Z</time>
      </trkpt>
      <trkpt lat="45.83464" lon="4.79907">
        <ele>504.8</ele>
        <time>2011-11-20T09:29:08Z</time>
      </trkpt>
      <trkpt lat="45.83465" lon="4.79895">
        <ele>504.6</ele>
        <time>2011-11-20T09:29:14Z</time>
      </trkpt>
      <trkpt lat="45.83467" lon="4.79886">
        <ele>504.2</ele>
        <time>2011-11-20T09:29:18Z</time>
      </trkpt>
      <trkpt lat="45.83467" lon="4.79874">
        <ele>504</ele>
        <time>2011-11-20T09:29:22Z</time>
      </trkpt>
      <trkpt lat="45.83468" lon="4.79859">
        <ele>503.6</ele>
        <time>2011-11-20T09:29:27Z</time>
      </trkpt>
      <trkpt lat="45.83468" lon="4.7985">
        <ele>503.2</ele>
        <time>2011-11-20T09:29:30Z</time>
      </trkpt>
      <trkpt lat="45.8347" lon="4.79832">
        <ele>502.6</ele>
        <time>2011-11-20T09:29:35Z</time>
      </trkpt>
      <trkpt lat="45.8347" lon="4.79828">
        <ele>502.4</ele>
        <time>2011-11-20T09:29:36Z</time>
      </trkpt>
      <trkpt lat="45.83474" lon="4.79806">
        <ele>501.4</ele>
        <time>2011-11-20T09:29:42Z</time>
      </trkpt>
      <trkpt lat="45.83483" lon="4.79791">
        <ele>500.6</ele>
        <time>2011-11-20T09:29:47Z</time>
      </trkpt>
      <trkpt lat="45.83487" lon="4.79785">
        <ele>500.2</ele>
        <time>2011-11-20T09:29:49Z</time>
      </trkpt>
      <trkpt lat="45.8349" lon="4.79772">
        <ele>499.4</ele>
        <time>2011-11-20T09:29:53Z</time>
      </trkpt>
      <trkpt lat="45.8349" lon="4.79761">
        <ele>498.8</ele>
        <time>2011-11-20T09:29:56Z</time>
      </trkpt>
      <trkpt lat="45.8349" lon="4.79756">
        <ele>498.6</ele>
        <time>2011-11-20T09:29:57Z</time>
      </trkpt>
      <trkpt lat="45.83485" lon="4.79737">
        <ele>497.4</ele>
        <time>2011-11-20T09:30:02Z</time>
      </trkpt>
      <trkpt lat="45.83484" lon="4.79733">
        <ele>497.2</ele>
        <time>2011-11-20T09:30:03Z</time>
      </trkpt>
      <trkpt lat="45.83479" lon="4.79713">
        <ele>496</ele>
        <time>2011-11-20T09:30:08Z</time>
      </trkpt>
      <trkpt lat="45.83479" lon="4.79705">
        <ele>495.6</ele>
        <time>2011-11-20T09:30:10Z</time>
      </trkpt>
      <trkpt lat="45.8348" lon="4.79696">
        <ele>495</ele>
        <time>2011-11-20T09:30:12Z</time>
      </trkpt>
      <trkpt lat="45.83481" lon="4.79676">
        <ele>494</ele>
        <time>2011-11-20T09:30:16Z</time>
      </trkpt>
      <trkpt lat="45.83481" lon="4.79672">
        <ele>493.8</ele>
        <time>2011-11-20T09:30:17Z</time>
      </trkpt>
      <trkpt lat="45.8348" lon="4.79648">
        <ele>492.2</ele>
        <time>2011-11-20T09:30:24Z</time>
      </trkpt>
      <trkpt lat="45.83479" lon="4.7962">
        <ele>491.2</ele>
        <time>2011-11-20T09:30:30Z</time>
      </trkpt>
      <trkpt lat="45.83479" lon="4.79616">
        <ele>491</ele>
        <time>2011-11-20T09:30:31Z</time>
      </trkpt>
      <trkpt lat="45.83474" lon="4.79608">
        <ele>490.4</ele>
        <time>2011-11-20T09:30:34Z</time>
      </trkpt>
      <trkpt lat="45.83464" lon="4.79607">
        <ele>489.6</ele>
        <time>2011-11-20T09:30:39Z</time>
      </trkpt>
      <trkpt lat="45.83455" lon="4.79606">
        <ele>488.8</ele>
        <time>2011-11-20T09:30:44Z</time>
      </trkpt>
      <trkpt lat="45.83445" lon="4.796">
        <ele>488.2</ele>
        <time>2011-11-20T09:30:47Z</time>
      </trkpt>
      <trkpt lat="45.83443" lon="4.79594">
        <ele>487.8</ele>
        <time>2011-11-20T09:30:49Z</time>
      </trkpt>
      <trkpt lat="45.83444" lon="4.7958">
        <ele>487.2</ele>
        <time>2011-11-20T09:30:53Z</time>
      </trkpt>
      <trkpt lat="45.83445" lon="4.79577">
        <ele>487</ele>
        <time>2011-11-20T09:30:54Z</time>
      </trkpt>
      <trkpt lat="45.83445" lon="4.79574">
        <ele>486.8</ele>
        <time>2011-11-20T09:30:55Z</time>
      </trkpt>
      <trkpt lat="45.83446" lon="4.79553">
        <ele>486</ele>
        <time>2011-11-20T09:31:01Z</time>
      </trkpt>
      <trkpt lat="45.83446" lon="4.79546">
        <ele>485.8</ele>
        <time>2011-11-20T09:31:03Z</time>
      </trkpt>
      <trkpt lat="45.83445" lon="4.79539">
        <ele>485.4</ele>
        <time>2011-11-20T09:31:05Z</time>
      </trkpt>
      <trkpt lat="45.83445" lon="4.79539">
        <ele>485.4</ele>
        <time>2011-11-20T09:31:06Z</time>
      </trkpt>
      <trkpt lat="45.8344" lon="4.79535">
        <ele>485.2</ele>
        <time>2011-11-20T09:31:07Z</time>
      </trkpt>
      <trkpt lat="45.83435" lon="4.79533">
        <ele>485</ele>
        <time>2011-11-20T09:31:09Z</time>
      </trkpt>
      <trkpt lat="45.83432" lon="4.79533">
        <ele>485</ele>
        <time>2011-11-20T09:31:10Z</time>
      </trkpt>
      <trkpt lat="45.83429" lon="4.79533">
        <ele>484.8</ele>
        <time>2011-11-20T09:31:11Z</time>
      </trkpt>
      <trkpt lat="45.83421" lon="4.79532">
        <ele>484.4</ele>
        <time>2011-11-20T09:31:14Z</time>
      </trkpt>
      <trkpt lat="45.83412" lon="4.79531">
        <ele>484</ele>
        <time>2011-11-20T09:31:18Z</time>
      </trkpt>
      <trkpt lat="45.83403" lon="4.7953">
        <ele>483.4</ele>
        <time>2011-11-20T09:31:22Z</time>
      </trkpt>
      <trkpt lat="45.83393" lon="4.79529">
        <ele>483</ele>
        <time>2011-11-20T09:31:26Z</time>
      </trkpt>
      <trkpt lat="45.83388" lon="4.79526">
        <ele>482.8</ele>
        <time>2011-11-20T09:31:28Z</time>
      </trkpt>
      <trkpt lat="45.8338" lon="4.79514">
        <ele>482.2</ele>
        <time>2011-11-20T09:31:34Z</time>
      </trkpt>
      <trkpt lat="45.8337" lon="4.795">
        <ele>481.6</ele>
        <time>2011-11-20T09:31:40Z</time>
      </trkpt>
      <trkpt lat="45.83366" lon="4.79493">
        <ele>481.4</ele>
        <time>2011-11-20T09:31:42Z</time>
      </trkpt>
      <trkpt lat="45.83365" lon="4.79484">
        <ele>481.2</ele>
        <time>2011-11-20T09:31:45Z</time>
      </trkpt>
      <trkpt lat="45.83366" lon="4.79465">
        <ele>480.8</ele>
        <time>2011-11-20T09:31:51Z</time>
      </trkpt>
      <trkpt lat="45.83361" lon="4.79446">
        <ele>480.4</ele>
        <time>2011-11-20T09:31:58Z</time>
      </trkpt>
      <trkpt lat="45.83358" lon="4.79441">
        <ele>480.2</ele>
        <time>2011-11-20T09:32:00Z</time>
      </trkpt>
      <trkpt lat="45.83347" lon="4.79428">
        <ele>480</ele>
        <time>2011-11-20T09:32:07Z</time>
      </trkpt>
      <trkpt lat="45.83344" lon="4.79425">
        <ele>480</ele>
        <time>2011-11-20T09:32:09Z</time>
      </trkpt>
      <trkpt lat="45.83339" lon="4.7942">
        <ele>480</ele>
        <time>2011-11-20T09:32:13Z</time>
      </trkpt>
      <trkpt lat="45.83327" lon="4.79411">
        <ele>480.2</ele>
        <time>2011-11-20T09:32:19Z</time>
      </trkpt>
      <trkpt lat="45.83325" lon="4.7941">
        <ele>480.2</ele>
        <time>2011-11-20T09:32:20Z</time>
      </trkpt>
      <trkpt lat="45.83311" lon="4.79402">
        <ele>480.8</ele>
        <time>2011-11-20T09:32:28Z</time>
      </trkpt>
      <trkpt lat="45.83309" lon="4.79401">
        <ele>481</ele>
        <time>2011-11-20T09:32:29Z</time>
      </trkpt>
      <trkpt lat="45.83299" lon="4.79398">
        <ele>481.2</ele>
        <time>2011-11-20T09:32:34Z</time>
      </trkpt>
      <trkpt lat="45.8329" lon="4.79395">
        <ele>481.6</ele>
        <time>2011-11-20T09:32:38Z</time>
      </trkpt>
      <trkpt lat="45.83284" lon="4.79392">
        <ele>481.6</ele>
        <time>2011-11-20T09:32:41Z</time>
      </trkpt>
      <trkpt lat="45.83275" lon="4.7938">
        <ele>482</ele>
        <time>2011-11-20T09:32:47Z</time>
      </trkpt>
      <trkpt lat="45.83274" lon="4.79364">
        <ele>482.2</ele>
        <time>2011-11-20T09:32:52Z</time>
      </trkpt>
      <trkpt lat="45.8327" lon="4.79353">
        <ele>482.4</ele>
        <time>2011-11-20T09:32:56Z</time>
      </trkpt>
      <trkpt lat="45.83269" lon="4.79351">
        <ele>482.6</ele>
        <time>2011-11-20T09:32:57Z</time>
      </trkpt>
      <trkpt lat="45.83259" lon="4.7934">
        <ele>482.8</ele>
        <time>2011-11-20T09:33:03Z</time>
      </trkpt>
      <trkpt lat="45.83256" lon="4.79335">
        <ele>482.8</ele>
        <time>2011-11-20T09:33:05Z</time>
      </trkpt>
      <trkpt lat="45.83251" lon="4.79324">
        <ele>483</ele>
        <time>2011-11-20T09:33:09Z</time>
      </trkpt>
      <trkpt lat="45.83243" lon="4.79315">
        <ele>483.4</ele>
        <time>2011-11-20T09:33:14Z</time>
      </trkpt>
      <trkpt lat="45.8323" lon="4.7931">
        <ele>483.4</ele>
        <time>2011-11-20T09:33:20Z</time>
      </trkpt>
      <trkpt lat="45.83224" lon="4.79308">
        <ele>483.4</ele>
        <time>2011-11-20T09:33:23Z</time>
      </trkpt>
      <trkpt lat="45.83216" lon="4.79305">
        <ele>483.4</ele>
        <time>2011-11-20T09:33:27Z</time>
      </trkpt>
      <trkpt lat="45.83207" lon="4.79302">
        <ele>483.4</ele>
        <time>2011-11-20T09:33:31Z</time>
      </trkpt>
      <trkpt lat="45.83202" lon="4.793">
        <ele>483.2</ele>
        <time>2011-11-20T09:33:33Z</time>
      </trkpt>
      <trkpt lat="45.83187" lon="4.79295">
        <ele>483.2</ele>
        <time>2011-11-20T09:33:40Z</time>
      </trkpt>
      <trkpt lat="45.83185" lon="4.79295">
        <ele>483.2</ele>
        <time>2011-11-20T09:33:41Z</time>
      </trkpt>
      <trkpt lat="45.83169" lon="4.79291">
        <ele>483</ele>
        <time>2011-11-20T09:33:48Z</time>
      </trkpt>
      <trkpt lat="45.83166" lon="4.79288">
        <ele>482.8</ele>
        <time>2011-11-20T09:33:50Z</time>
      </trkpt>
      <trkpt lat="45.83167" lon="4.79286">
        <ele>482.8</ele>
        <time>2011-11-20T09:33:52Z</time>
      </trkpt>
      <trkpt lat="45.83176" lon="4.79286">
        <ele>482.6</ele>
        <time>2011-11-20T09:33:58Z</time>
      </trkpt>
      <trkpt lat="45.83179" lon="4.79286">
        <ele>482.6</ele>
        <time>2011-11-20T09:34:00Z</time>
      </trkpt>
      <trkpt lat="45.83184" lon="4.79285">
        <ele>482.8</ele>
        <time>2011-11-20T09:34:05Z</time>
      </trkpt>
      <trkpt lat="45.83184" lon="4.79284">
        <ele>482.8</ele>
        <time>2011-11-20T09:34:06Z</time>
      </trkpt>
      <trkpt lat="45.83187" lon="4.79279">
        <ele>483.4</ele>
        <time>2011-11-20T09:34:11Z</time>
      </trkpt>
      <trkpt lat="45.83191" lon="4.79268">
        <ele>484</ele>
        <time>2011-11-20T09:34:19Z</time>
      </trkpt>
      <trkpt lat="45.83193" lon="4.79263">
        <ele>484</ele>
        <time>2011-11-20T09:34:22Z</time>
      </trkpt>
      <trkpt lat="45.83195" lon="4.79255">
        <ele>484.2</ele>
        <time>2011-11-20T09:34:27Z</time>
      </trkpt>
      <trkpt lat="45.83199" lon="4.79244">
        <ele>484.2</ele>
        <time>2011-11-20T09:34:34Z</time>
      </trkpt>
      <trkpt lat="45.83199" lon="4.79241">
        <ele>484.2</ele>
        <time>2011-11-20T09:34:35Z</time>
      </trkpt>
      <trkpt lat="45.83202" lon="4.7923">
        <ele>485</ele>
        <time>2011-11-20T09:34:41Z</time>
      </trkpt>
      <trkpt lat="45.83203" lon="4.79226">
        <ele>485.4</ele>
        <time>2011-11-20T09:34:43Z</time>
      </trkpt>
      <trkpt lat="45.83207" lon="4.79222">
        <ele>485.8</ele>
        <time>2011-11-20T09:34:46Z</time>
      </trkpt>
      <trkpt lat="45.83207" lon="4.79221">
        <ele>485.8</ele>
        <time>2011-11-20T09:34:47Z</time>
      </trkpt>
      <trkpt lat="45.83213" lon="4.79214">
        <ele>486.4</ele>
        <time>2011-11-20T09:34:53Z</time>
      </trkpt>
      <trkpt lat="45.83217" lon="4.792">
        <ele>486.8</ele>
        <time>2011-11-20T09:35:03Z</time>
      </trkpt>
      <trkpt lat="45.8322" lon="4.79187">
        <ele>487.4</ele>
        <time>2011-11-20T09:35:10Z</time>
      </trkpt>
      <trkpt lat="45.83222" lon="4.7918">
        <ele>487.6</ele>
        <time>2011-11-20T09:35:15Z</time>
      </trkpt>
      <trkpt lat="45.83223" lon="4.79177">
        <ele>487.8</ele>
        <time>2011-11-20T09:35:18Z</time>
      </trkpt>
      <trkpt lat="45.83226" lon="4.79169">
        <ele>488.2</ele>
        <time>2011-11-20T09:35:22Z</time>
      </trkpt>
      <trkpt lat="45.83233" lon="4.79158">
        <ele>488.4</ele>
        <time>2011-11-20T09:35:30Z</time>
      </trkpt>
      <trkpt lat="45.83235" lon="4.79154">
        <ele>488.6</ele>
        <time>2011-11-20T09:35:33Z</time>
      </trkpt>
      <trkpt lat="45.83238" lon="4.79146">
        <ele>489.4</ele>
        <time>2011-11-20T09:35:38Z</time>
      </trkpt>
      <trkpt lat="45.83242" lon="4.79129">
        <ele>491.2</ele>
        <time>2011-11-20T09:35:45Z</time>
      </trkpt>
      <trkpt lat="45.83247" lon="4.79118">
        <ele>492.8</ele>
        <time>2011-11-20T09:35:53Z</time>
      </trkpt>
      <trkpt lat="45.83249" lon="4.79106">
        <ele>494.6</ele>
        <time>2011-11-20T09:36:00Z</time>
      </trkpt>
      <trkpt lat="45.83255" lon="4.79085">
        <ele>498.2</ele>
        <time>2011-11-20T09:36:10Z</time>
      </trkpt>
      <trkpt lat="45.83257" lon="4.79081">
        <ele>499.4</ele>
        <time>2011-11-20T09:36:13Z</time>
      </trkpt>
      <trkpt lat="45.83261" lon="4.79072">
        <ele>501.4</ele>
        <time>2011-11-20T09:36:19Z</time>
      </trkpt>
      <trkpt lat="45.83263" lon="4.79068">
        <ele>502.6</ele>
        <time>2011-11-20T09:36:22Z</time>
      </trkpt>
      <trkpt lat="45.83266" lon="4.79068">
        <ele>503.6</ele>
        <time>2011-11-20T09:36:25Z</time>
      </trkpt>
      <trkpt lat="45.83271" lon="4.7907">
        <ele>505</ele>
        <time>2011-11-20T09:36:29Z</time>
      </trkpt>
      <trkpt lat="45.83278" lon="4.79072">
        <ele>506.2</ele>
        <time>2011-11-20T09:36:34Z</time>
      </trkpt>
      <trkpt lat="45.83288" lon="4.79075">
        <ele>507.2</ele>
        <time>2011-11-20T09:36:39Z</time>
      </trkpt>
      <trkpt lat="45.83291" lon="4.79075">
        <ele>507.4</ele>
        <time>2011-11-20T09:36:40Z</time>
      </trkpt>
      <trkpt lat="45.83299" lon="4.79076">
        <ele>508</ele>
        <time>2011-11-20T09:36:44Z</time>
      </trkpt>
      <trkpt lat="45.83309" lon="4.79074">
        <ele>508.6</ele>
        <time>2011-11-20T09:36:49Z</time>
      </trkpt>
      <trkpt lat="45.83312" lon="4.79074">
        <ele>508.8</ele>
        <time>2011-11-20T09:36:50Z</time>
      </trkpt>
      <trkpt lat="45.83318" lon="4.79067">
        <ele>509</ele>
        <time>2011-11-20T09:36:55Z</time>
      </trkpt>
      <trkpt lat="45.83319" lon="4.79064">
        <ele>509.2</ele>
        <time>2011-11-20T09:36:56Z</time>
      </trkpt>
      <trkpt lat="45.83319" lon="4.79056">
        <ele>509.4</ele>
        <time>2011-11-20T09:36:59Z</time>
      </trkpt>
      <trkpt lat="45.83319" lon="4.7905">
        <ele>509.6</ele>
        <time>2011-11-20T09:37:01Z</time>
      </trkpt>
      <trkpt lat="45.83322" lon="4.79046">
        <ele>509.8</ele>
        <time>2011-11-20T09:37:03Z</time>
      </trkpt>
      <trkpt lat="45.83326" lon="4.79043">
        <ele>510</ele>
        <time>2011-11-20T09:37:06Z</time>
      </trkpt>
      <trkpt lat="45.83332" lon="4.79041">
        <ele>510.2</ele>
        <time>2011-11-20T09:37:09Z</time>
      </trkpt>
      <trkpt lat="45.83336" lon="4.79038">
        <ele>510.6</ele>
        <time>2011-11-20T09:37:12Z</time>
      </trkpt>
      <trkpt lat="45.83337" lon="4.79036">
        <ele>510.6</ele>
        <time>2011-11-20T09:37:13Z</time>
      </trkpt>
      <trkpt lat="45.83337" lon="4.79025">
        <ele>511.4</ele>
        <time>2011-11-20T09:37:17Z</time>
      </trkpt>
      <trkpt lat="45.83337" lon="4.79019">
        <ele>511.6</ele>
        <time>2011-11-20T09:37:19Z</time>
      </trkpt>
      <trkpt lat="45.83337" lon="4.79006">
        <ele>512.6</ele>
        <time>2011-11-20T09:37:24Z</time>
      </trkpt>
      <trkpt lat="45.83337" lon="4.78991">
        <ele>513.8</ele>
        <time>2011-11-20T09:37:30Z</time>
      </trkpt>
      <trkpt lat="45.83337" lon="4.78988">
        <ele>514</ele>
        <time>2011-11-20T09:37:31Z</time>
      </trkpt>
      <trkpt lat="45.83337" lon="4.7898">
        <ele>514.8</ele>
        <time>2011-11-20T09:37:35Z</time>
      </trkpt>
      <trkpt lat="45.83336" lon="4.78979">
        <ele>515.2</ele>
        <time>2011-11-20T09:37:37Z</time>
      </trkpt>
      <trkpt lat="45.83334" lon="4.78975">
        <ele>516.4</ele>
        <time>2011-11-20T09:37:41Z</time>
      </trkpt>
      <trkpt lat="45.83334" lon="4.78972">
        <ele>516.6</ele>
        <time>2011-11-20T09:37:43Z</time>
      </trkpt>
      <trkpt lat="45.83336" lon="4.78963">
        <ele>517.2</ele>
        <time>2011-11-20T09:37:48Z</time>
      </trkpt>
      <trkpt lat="45.83337" lon="4.78962">
        <ele>517.2</ele>
        <time>2011-11-20T09:37:49Z</time>
      </trkpt>
      <trkpt lat="45.83338" lon="4.78957">
        <ele>517.6</ele>
        <time>2011-11-20T09:37:53Z</time>
      </trkpt>
      <trkpt lat="45.83339" lon="4.78957">
        <ele>517.6</ele>
        <time>2011-11-20T09:37:54Z</time>
      </trkpt>
      <trkpt lat="45.83339" lon="4.78957">
        <ele>518.6</ele>
        <time>2011-11-20T09:38:02Z</time>
      </trkpt>
      <trkpt lat="45.83336" lon="4.78953">
        <ele>519.8</ele>
        <time>2011-11-20T09:38:37Z</time>
      </trkpt>
      <trkpt lat="45.83335" lon="4.78951">
        <ele>519.6</ele>
        <time>2011-11-20T09:38:51Z</time>
      </trkpt>
      <trkpt lat="45.83336" lon="4.78947">
        <ele>519.4</ele>
        <time>2011-11-20T09:38:54Z</time>
      </trkpt>
      <trkpt lat="45.83337" lon="4.78942">
        <ele>519.4</ele>
        <time>2011-11-20T09:38:57Z</time>
      </trkpt>
      <trkpt lat="45.83338" lon="4.78941">
        <ele>519.4</ele>
        <time>2011-11-20T09:38:58Z</time>
      </trkpt>
      <trkpt lat="45.83338" lon="4.78935">
        <ele>519.4</ele>
        <time>2011-11-20T09:39:02Z</time>
      </trkpt>
      <trkpt lat="45.83337" lon="4.78935">
        <ele>519.4</ele>
        <time>2011-11-20T09:39:03Z</time>
      </trkpt>
      <trkpt lat="45.83338" lon="4.7893">
        <ele>519.6</ele>
        <time>2011-11-20T09:39:06Z</time>
      </trkpt>
      <trkpt lat="45.83337" lon="4.78928">
        <ele>519.8</ele>
        <time>2011-11-20T09:39:07Z</time>
      </trkpt>
      <trkpt lat="45.83336" lon="4.78926">
        <ele>520</ele>
        <time>2011-11-20T09:39:09Z</time>
      </trkpt>
      <trkpt lat="45.83337" lon="4.78915">
        <ele>520.4</ele>
        <time>2011-11-20T09:39:15Z</time>
      </trkpt>
      <trkpt lat="45.83336" lon="4.78913">
        <ele>520.6</ele>
        <time>2011-11-20T09:39:16Z</time>
      </trkpt>
      <trkpt lat="45.83336" lon="4.78912">
        <ele>521.2</ele>
        <time>2011-11-20T09:39:20Z</time>
      </trkpt>
      <trkpt lat="45.83335" lon="4.78907">
        <ele>521.8</ele>
        <time>2011-11-20T09:39:25Z</time>
      </trkpt>
      <trkpt lat="45.83335" lon="4.78889">
        <ele>522.6</ele>
        <time>2011-11-20T09:39:31Z</time>
      </trkpt>
      <trkpt lat="45.83336" lon="4.78875">
        <ele>523.6</ele>
        <time>2011-11-20T09:39:36Z</time>
      </trkpt>
      <trkpt lat="45.83336" lon="4.78863">
        <ele>524.2</ele>
        <time>2011-11-20T09:39:40Z</time>
      </trkpt>
      <trkpt lat="45.83336" lon="4.78861">
        <ele>524.4</ele>
        <time>2011-11-20T09:39:41Z</time>
      </trkpt>
      <trkpt lat="45.83336" lon="4.78842">
        <ele>525.8</ele>
        <time>2011-11-20T09:39:48Z</time>
      </trkpt>
      <trkpt lat="45.83336" lon="4.78837">
        <ele>526.2</ele>
        <time>2011-11-20T09:39:50Z</time>
      </trkpt>
      <trkpt lat="45.83337" lon="4.78829">
        <ele>526.8</ele>
        <time>2011-11-20T09:39:53Z</time>
      </trkpt>
      <trkpt lat="45.83338" lon="4.78824">
        <ele>527</ele>
        <time>2011-11-20T09:39:55Z</time>
      </trkpt>
      <trkpt lat="45.8334" lon="4.78821">
        <ele>527.4</ele>
        <time>2011-11-20T09:39:58Z</time>
      </trkpt>
      <trkpt lat="45.83338" lon="4.78816">
        <ele>529</ele>
        <time>2011-11-20T09:40:05Z</time>
      </trkpt>
      <trkpt lat="45.83338" lon="4.78816">
        <ele>529.4</ele>
        <time>2011-11-20T09:40:06Z</time>
      </trkpt>
      <trkpt lat="45.83336" lon="4.78812">
        <ele>530.4</ele>
        <time>2011-11-20T09:40:11Z</time>
      </trkpt>
      <trkpt lat="45.83336" lon="4.78805">
        <ele>531.2</ele>
        <time>2011-11-20T09:40:17Z</time>
      </trkpt>
      <trkpt lat="45.83336" lon="4.78803">
        <ele>531.2</ele>
        <time>2011-11-20T09:40:18Z</time>
      </trkpt>
      <trkpt lat="45.83336" lon="4.78802">
        <ele>531.4</ele>
        <time>2011-11-20T09:40:19Z</time>
      </trkpt>
      <trkpt lat="45.83338" lon="4.78799">
        <ele>531.8</ele>
        <time>2011-11-20T09:40:24Z</time>
      </trkpt>
      <trkpt lat="45.83338" lon="4.78801">
        <ele>538.6</ele>
        <time>2011-11-20T09:41:05Z</time>
      </trkpt>
      <trkpt lat="45.83337" lon="4.78797">
        <ele>541.2</ele>
        <time>2011-11-20T09:42:16Z</time>
      </trkpt>
      <trkpt lat="45.83338" lon="4.78798">
        <ele>541.2</ele>
        <time>2011-11-20T09:42:21Z</time>
      </trkpt>
      <trkpt lat="45.83337" lon="4.78798">
        <ele>541.2</ele>
        <time>2011-11-20T09:42:23Z</time>
      </trkpt>
      <trkpt lat="45.83335" lon="4.78797">
        <ele>544.4</ele>
        <time>2011-11-20T09:43:39Z</time>
      </trkpt>
      <trkpt lat="45.83343" lon="4.78793">
        <ele>544.4</ele>
        <time>2011-11-20T09:43:50Z</time>
      </trkpt>
      <trkpt lat="45.83347" lon="4.7879">
        <ele>544.4</ele>
        <time>2011-11-20T09:43:52Z</time>
      </trkpt>
      <trkpt lat="45.83355" lon="4.78786">
        <ele>544.2</ele>
        <time>2011-11-20T09:43:56Z</time>
      </trkpt>
      <trkpt lat="45.83365" lon="4.78781">
        <ele>544</ele>
        <time>2011-11-20T09:44:00Z</time>
      </trkpt>
      <trkpt lat="45.83372" lon="4.78779">
        <ele>543.6</ele>
        <time>2011-11-20T09:44:03Z</time>
      </trkpt>
      <trkpt lat="45.83385" lon="4.78775">
        <ele>543</ele>
        <time>2011-11-20T09:44:08Z</time>
      </trkpt>
      <trkpt lat="45.83392" lon="4.78764">
        <ele>543.2</ele>
        <time>2011-11-20T09:44:13Z</time>
      </trkpt>
      <trkpt lat="45.83402" lon="4.7876">
        <ele>543.6</ele>
        <time>2011-11-20T09:44:18Z</time>
      </trkpt>
      <trkpt lat="45.83416" lon="4.78756">
        <ele>543.8</ele>
        <time>2011-11-20T09:44:23Z</time>
      </trkpt>
      <trkpt lat="45.83421" lon="4.78755">
        <ele>543.8</ele>
        <time>2011-11-20T09:44:25Z</time>
      </trkpt>
      <trkpt lat="45.83427" lon="4.78752">
        <ele>544.4</ele>
        <time>2011-11-20T09:44:28Z</time>
      </trkpt>
      <trkpt lat="45.83435" lon="4.78748">
        <ele>545.2</ele>
        <time>2011-11-20T09:44:32Z</time>
      </trkpt>
      <trkpt lat="45.8344" lon="4.78745">
        <ele>546</ele>
        <time>2011-11-20T09:44:35Z</time>
      </trkpt>
      <trkpt lat="45.83442" lon="4.78744">
        <ele>546.2</ele>
        <time>2011-11-20T09:44:36Z</time>
      </trkpt>
      <trkpt lat="45.83444" lon="4.78743">
        <ele>546.4</ele>
        <time>2011-11-20T09:44:37Z</time>
      </trkpt>
      <trkpt lat="45.83452" lon="4.7874">
        <ele>547.6</ele>
        <time>2011-11-20T09:44:41Z</time>
      </trkpt>
      <trkpt lat="45.83458" lon="4.78738">
        <ele>548.2</ele>
        <time>2011-11-20T09:44:44Z</time>
      </trkpt>
      <trkpt lat="45.83466" lon="4.78736">
        <ele>549.2</ele>
        <time>2011-11-20T09:44:48Z</time>
      </trkpt>
      <trkpt lat="45.83473" lon="4.78731">
        <ele>550</ele>
        <time>2011-11-20T09:44:52Z</time>
      </trkpt>
      <trkpt lat="45.83476" lon="4.78729">
        <ele>550.2</ele>
        <time>2011-11-20T09:44:54Z</time>
      </trkpt>
      <trkpt lat="45.83484" lon="4.78725">
        <ele>551.2</ele>
        <time>2011-11-20T09:44:59Z</time>
      </trkpt>
      <trkpt lat="45.83488" lon="4.78724">
        <ele>551.6</ele>
        <time>2011-11-20T09:45:01Z</time>
      </trkpt>
      <trkpt lat="45.83495" lon="4.78722">
        <ele>552.2</ele>
        <time>2011-11-20T09:45:04Z</time>
      </trkpt>
      <trkpt lat="45.83496" lon="4.78722">
        <ele>552.6</ele>
        <time>2011-11-20T09:45:05Z</time>
      </trkpt>
      <trkpt lat="45.83506" lon="4.78718">
        <ele>553.6</ele>
        <time>2011-11-20T09:45:10Z</time>
      </trkpt>
      <trkpt lat="45.83512" lon="4.78718">
        <ele>554</ele>
        <time>2011-11-20T09:45:13Z</time>
      </trkpt>
      <trkpt lat="45.83518" lon="4.78716">
        <ele>554.6</ele>
        <time>2011-11-20T09:45:16Z</time>
      </trkpt>
      <trkpt lat="45.83528" lon="4.78711">
        <ele>555.8</ele>
        <time>2011-11-20T09:45:22Z</time>
      </trkpt>
      <trkpt lat="45.8353" lon="4.78711">
        <ele>555.8</ele>
        <time>2011-11-20T09:45:23Z</time>
      </trkpt>
      <trkpt lat="45.83536" lon="4.7871">
        <ele>556.4</ele>
        <time>2011-11-20T09:45:27Z</time>
      </trkpt>
      <trkpt lat="45.83547" lon="4.78702">
        <ele>557.6</ele>
        <time>2011-11-20T09:45:33Z</time>
      </trkpt>
      <trkpt lat="45.83549" lon="4.78701">
        <ele>557.8</ele>
        <time>2011-11-20T09:45:34Z</time>
      </trkpt>
      <trkpt lat="45.83558" lon="4.78695">
        <ele>558.8</ele>
        <time>2011-11-20T09:45:40Z</time>
      </trkpt>
      <trkpt lat="45.83566" lon="4.7869">
        <ele>559.6</ele>
        <time>2011-11-20T09:45:44Z</time>
      </trkpt>
      <trkpt lat="45.83567" lon="4.78689">
        <ele>559.8</ele>
        <time>2011-11-20T09:45:45Z</time>
      </trkpt>
      <trkpt lat="45.83577" lon="4.78682">
        <ele>561.4</ele>
        <time>2011-11-20T09:45:51Z</time>
      </trkpt>
      <trkpt lat="45.83583" lon="4.7868">
        <ele>562.2</ele>
        <time>2011-11-20T09:45:55Z</time>
      </trkpt>
      <trkpt lat="45.83585" lon="4.78679">
        <ele>562.6</ele>
        <time>2011-11-20T09:45:56Z</time>
      </trkpt>
      <trkpt lat="45.83596" lon="4.78676">
        <ele>564.2</ele>
        <time>2011-11-20T09:46:02Z</time>
      </trkpt>
      <trkpt lat="45.83602" lon="4.78675">
        <ele>564.8</ele>
        <time>2011-11-20T09:46:05Z</time>
      </trkpt>
      <trkpt lat="45.83612" lon="4.78671">
        <ele>566</ele>
        <time>2011-11-20T09:46:10Z</time>
      </trkpt>
      <trkpt lat="45.8362" lon="4.78668">
        <ele>566.8</ele>
        <time>2011-11-20T09:46:13Z</time>
      </trkpt>
      <trkpt lat="45.83628" lon="4.78666">
        <ele>567.4</ele>
        <time>2011-11-20T09:46:16Z</time>
      </trkpt>
      <trkpt lat="45.83638" lon="4.7866">
        <ele>568.4</ele>
        <time>2011-11-20T09:46:21Z</time>
      </trkpt>
      <trkpt lat="45.8364" lon="4.78659">
        <ele>568.4</ele>
        <time>2011-11-20T09:46:22Z</time>
      </trkpt>
      <trkpt lat="45.83654" lon="4.78654">
        <ele>569.2</ele>
        <time>2011-11-20T09:46:28Z</time>
      </trkpt>
      <trkpt lat="45.83656" lon="4.78653">
        <ele>569.4</ele>
        <time>2011-11-20T09:46:29Z</time>
      </trkpt>
      <trkpt lat="45.83664" lon="4.78647">
        <ele>570.2</ele>
        <time>2011-11-20T09:46:34Z</time>
      </trkpt>
      <trkpt lat="45.83667" lon="4.78644">
        <ele>571.4</ele>
        <time>2011-11-20T09:46:39Z</time>
      </trkpt>
      <trkpt lat="45.83668" lon="4.78644">
        <ele>572.4</ele>
        <time>2011-11-20T09:46:44Z</time>
      </trkpt>
      <trkpt lat="45.83669" lon="4.78647">
        <ele>574.4</ele>
        <time>2011-11-20T09:46:58Z</time>
      </trkpt>
      <trkpt lat="45.83671" lon="4.78648">
        <ele>574.6</ele>
        <time>2011-11-20T09:47:00Z</time>
      </trkpt>
      <trkpt lat="45.83673" lon="4.78646">
        <ele>575.4</ele>
        <time>2011-11-20T09:47:05Z</time>
      </trkpt>
      <trkpt lat="45.83669" lon="4.78644">
        <ele>575.6</ele>
        <time>2011-11-20T09:47:08Z</time>
      </trkpt>
      <trkpt lat="45.83667" lon="4.78645">
        <ele>575.8</ele>
        <time>2011-11-20T09:47:10Z</time>
      </trkpt>
      <trkpt lat="45.83664" lon="4.78644">
        <ele>576</ele>
        <time>2011-11-20T09:47:12Z</time>
      </trkpt>
      <trkpt lat="45.83658" lon="4.78648">
        <ele>576.4</ele>
        <time>2011-11-20T09:47:17Z</time>
      </trkpt>
      <trkpt lat="45.83657" lon="4.78649">
        <ele>576.2</ele>
        <time>2011-11-20T09:47:18Z</time>
      </trkpt>
      <trkpt lat="45.83647" lon="4.78656">
        <ele>576.2</ele>
        <time>2011-11-20T09:47:26Z</time>
      </trkpt>
      <trkpt lat="45.83641" lon="4.7866">
        <ele>576.2</ele>
        <time>2011-11-20T09:47:31Z</time>
      </trkpt>
      <trkpt lat="45.83638" lon="4.78661">
        <ele>576</ele>
        <time>2011-11-20T09:47:33Z</time>
      </trkpt>
      <trkpt lat="45.83633" lon="4.78665">
        <ele>576</ele>
        <time>2011-11-20T09:47:38Z</time>
      </trkpt>
      <trkpt lat="45.83631" lon="4.78665">
        <ele>575.8</ele>
        <time>2011-11-20T09:47:40Z</time>
      </trkpt>
      <trkpt lat="45.83629" lon="4.78666">
        <ele>575.8</ele>
        <time>2011-11-20T09:47:42Z</time>
      </trkpt>
      <trkpt lat="45.83628" lon="4.78667">
        <ele>575.8</ele>
        <time>2011-11-20T09:47:44Z</time>
      </trkpt>
      <trkpt lat="45.83628" lon="4.78668">
        <ele>575.8</ele>
        <time>2011-11-20T09:47:45Z</time>
      </trkpt>
      <trkpt lat="45.83627" lon="4.7867">
        <ele>575.8</ele>
        <time>2011-11-20T09:47:52Z</time>
      </trkpt>
      <trkpt lat="45.83628" lon="4.78669">
        <ele>575.8</ele>
        <time>2011-11-20T09:47:54Z</time>
      </trkpt>
      <trkpt lat="45.83632" lon="4.78666">
        <ele>575.6</ele>
        <time>2011-11-20T09:47:57Z</time>
      </trkpt>
      <trkpt lat="45.8364" lon="4.78659">
        <ele>575.6</ele>
        <time>2011-11-20T09:48:02Z</time>
      </trkpt>
      <trkpt lat="45.83644" lon="4.78656">
        <ele>575.6</ele>
        <time>2011-11-20T09:48:04Z</time>
      </trkpt>
      <trkpt lat="45.83655" lon="4.7865">
        <ele>575.4</ele>
        <time>2011-11-20T09:48:09Z</time>
      </trkpt>
      <trkpt lat="45.83662" lon="4.78648">
        <ele>575.4</ele>
        <time>2011-11-20T09:48:12Z</time>
      </trkpt>
      <trkpt lat="45.83668" lon="4.78644">
        <ele>575.4</ele>
        <time>2011-11-20T09:48:15Z</time>
      </trkpt>
      <trkpt lat="45.83671" lon="4.7864">
        <ele>575.6</ele>
        <time>2011-11-20T09:48:17Z</time>
      </trkpt>
      <trkpt lat="45.83675" lon="4.78634">
        <ele>575.8</ele>
        <time>2011-11-20T09:48:20Z</time>
      </trkpt>
      <trkpt lat="45.83677" lon="4.78631">
        <ele>575.8</ele>
        <time>2011-11-20T09:48:22Z</time>
      </trkpt>
      <trkpt lat="45.83676" lon="4.78626">
        <ele>575.6</ele>
        <time>2011-11-20T09:48:24Z</time>
      </trkpt>
      <trkpt lat="45.8367" lon="4.78613">
        <ele>575.6</ele>
        <time>2011-11-20T09:48:30Z</time>
      </trkpt>
      <trkpt lat="45.83667" lon="4.78606">
        <ele>575.4</ele>
        <time>2011-11-20T09:48:32Z</time>
      </trkpt>
      <trkpt lat="45.83666" lon="4.78595">
        <ele>575.2</ele>
        <time>2011-11-20T09:48:35Z</time>
      </trkpt>
      <trkpt lat="45.8367" lon="4.78581">
        <ele>575</ele>
        <time>2011-11-20T09:48:39Z</time>
      </trkpt>
      <trkpt lat="45.8367" lon="4.78578">
        <ele>574.8</ele>
        <time>2011-11-20T09:48:40Z</time>
      </trkpt>
      <trkpt lat="45.83674" lon="4.7857">
        <ele>574.6</ele>
        <time>2011-11-20T09:48:43Z</time>
      </trkpt>
      <trkpt lat="45.83676" lon="4.78569">
        <ele>574.6</ele>
        <time>2011-11-20T09:48:44Z</time>
      </trkpt>
      <trkpt lat="45.83681" lon="4.78563">
        <ele>574</ele>
        <time>2011-11-20T09:48:48Z</time>
      </trkpt>
      <trkpt lat="45.83682" lon="4.7856">
        <ele>573.8</ele>
        <time>2011-11-20T09:48:49Z</time>
      </trkpt>
      <trkpt lat="45.83689" lon="4.7855">
        <ele>573</ele>
        <time>2011-11-20T09:48:53Z</time>
      </trkpt>
      <trkpt lat="45.83698" lon="4.78547">
        <ele>572.2</ele>
        <time>2011-11-20T09:48:57Z</time>
      </trkpt>
      <trkpt lat="45.83712" lon="4.7855">
        <ele>571.2</ele>
        <time>2011-11-20T09:49:02Z</time>
      </trkpt>
      <trkpt lat="45.83716" lon="4.78549">
        <ele>570.8</ele>
        <time>2011-11-20T09:49:04Z</time>
      </trkpt>
      <trkpt lat="45.83723" lon="4.78549">
        <ele>570.2</ele>
        <time>2011-11-20T09:49:07Z</time>
      </trkpt>
      <trkpt lat="45.83733" lon="4.78543">
        <ele>570.2</ele>
        <time>2011-11-20T09:49:13Z</time>
      </trkpt>
      <trkpt lat="45.83737" lon="4.78542">
        <ele>570.2</ele>
        <time>2011-11-20T09:49:15Z</time>
      </trkpt>
      <trkpt lat="45.83745" lon="4.78541">
        <ele>570.4</ele>
        <time>2011-11-20T09:49:19Z</time>
      </trkpt>
      <trkpt lat="45.83755" lon="4.78539">
        <ele>570.6</ele>
        <time>2011-11-20T09:49:23Z</time>
      </trkpt>
      <trkpt lat="45.8376" lon="4.78539">
        <ele>570.8</ele>
        <time>2011-11-20T09:49:25Z</time>
      </trkpt>
      <trkpt lat="45.83774" lon="4.78541">
        <ele>571.4</ele>
        <time>2011-11-20T09:49:31Z</time>
      </trkpt>
      <trkpt lat="45.83777" lon="4.78541">
        <ele>571.4</ele>
        <time>2011-11-20T09:49:32Z</time>
      </trkpt>
      <trkpt lat="45.83791" lon="4.78539">
        <ele>571.8</ele>
        <time>2011-11-20T09:49:38Z</time>
      </trkpt>
      <trkpt lat="45.83793" lon="4.78539">
        <ele>571.8</ele>
        <time>2011-11-20T09:49:39Z</time>
      </trkpt>
      <trkpt lat="45.83802" lon="4.78539">
        <ele>571.8</ele>
        <time>2011-11-20T09:49:43Z</time>
      </trkpt>
      <trkpt lat="45.83811" lon="4.78541">
        <ele>572</ele>
        <time>2011-11-20T09:49:47Z</time>
      </trkpt>
      <trkpt lat="45.83821" lon="4.7854">
        <ele>572.2</ele>
        <time>2011-11-20T09:49:52Z</time>
      </trkpt>
      <trkpt lat="45.83832" lon="4.78541">
        <ele>572.2</ele>
        <time>2011-11-20T09:49:56Z</time>
      </trkpt>
      <trkpt lat="45.83839" lon="4.78542">
        <ele>572.2</ele>
        <time>2011-11-20T09:49:59Z</time>
      </trkpt>
      <trkpt lat="45.8385" lon="4.78539">
        <ele>572.4</ele>
        <time>2011-11-20T09:50:04Z</time>
      </trkpt>
      <trkpt lat="45.83852" lon="4.7854">
        <ele>572.4</ele>
        <time>2011-11-20T09:50:05Z</time>
      </trkpt>
      <trkpt lat="45.83866" lon="4.78534">
        <ele>573.4</ele>
        <time>2011-11-20T09:50:11Z</time>
      </trkpt>
      <trkpt lat="45.83868" lon="4.78534">
        <ele>573.4</ele>
        <time>2011-11-20T09:50:12Z</time>
      </trkpt>
      <trkpt lat="45.8388" lon="4.78528">
        <ele>573.8</ele>
        <time>2011-11-20T09:50:17Z</time>
      </trkpt>
      <trkpt lat="45.83887" lon="4.78523">
        <ele>573.8</ele>
        <time>2011-11-20T09:50:20Z</time>
      </trkpt>
      <trkpt lat="45.83892" lon="4.78514">
        <ele>573.8</ele>
        <time>2011-11-20T09:50:24Z</time>
      </trkpt>
      <trkpt lat="45.83902" lon="4.78506">
        <ele>574</ele>
        <time>2011-11-20T09:50:28Z</time>
      </trkpt>
      <trkpt lat="45.83909" lon="4.78498">
        <ele>574.6</ele>
        <time>2011-11-20T09:50:32Z</time>
      </trkpt>
      <trkpt lat="45.83909" lon="4.78496">
        <ele>574.6</ele>
        <time>2011-11-20T09:50:33Z</time>
      </trkpt>
      <trkpt lat="45.83909" lon="4.78493">
        <ele>574.6</ele>
        <time>2011-11-20T09:50:34Z</time>
      </trkpt>
      <trkpt lat="45.83915" lon="4.78487">
        <ele>575.4</ele>
        <time>2011-11-20T09:50:38Z</time>
      </trkpt>
      <trkpt lat="45.83916" lon="4.78487">
        <ele>575.6</ele>
        <time>2011-11-20T09:50:39Z</time>
      </trkpt>
      <trkpt lat="45.83917" lon="4.78488">
        <ele>575.8</ele>
        <time>2011-11-20T09:50:41Z</time>
      </trkpt>
      <trkpt lat="45.83917" lon="4.78488">
        <ele>576.6</ele>
        <time>2011-11-20T09:50:47Z</time>
      </trkpt>
      <trkpt lat="45.8392" lon="4.78487">
        <ele>576.4</ele>
        <time>2011-11-20T09:50:53Z</time>
      </trkpt>
      <trkpt lat="45.83925" lon="4.78483">
        <ele>576.4</ele>
        <time>2011-11-20T09:50:56Z</time>
      </trkpt>
      <trkpt lat="45.8393" lon="4.78485">
        <ele>576.4</ele>
        <time>2011-11-20T09:51:00Z</time>
      </trkpt>
      <trkpt lat="45.83935" lon="4.78485">
        <ele>576.2</ele>
        <time>2011-11-20T09:51:03Z</time>
      </trkpt>
      <trkpt lat="45.83937" lon="4.78485">
        <ele>576.2</ele>
        <time>2011-11-20T09:51:04Z</time>
      </trkpt>
      <trkpt lat="45.83943" lon="4.78487">
        <ele>576</ele>
        <time>2011-11-20T09:51:06Z</time>
      </trkpt>
      <trkpt lat="45.83953" lon="4.78489">
        <ele>575.8</ele>
        <time>2011-11-20T09:51:10Z</time>
      </trkpt>
      <trkpt lat="45.83956" lon="4.78489">
        <ele>575.8</ele>
        <time>2011-11-20T09:51:11Z</time>
      </trkpt>
      <trkpt lat="45.83966" lon="4.78487">
        <ele>575.4</ele>
        <time>2011-11-20T09:51:15Z</time>
      </trkpt>
      <trkpt lat="45.83973" lon="4.78489">
        <ele>575.2</ele>
        <time>2011-11-20T09:51:18Z</time>
      </trkpt>
      <trkpt lat="45.83976" lon="4.78489">
        <ele>575.2</ele>
        <time>2011-11-20T09:51:19Z</time>
      </trkpt>
      <trkpt lat="45.83982" lon="4.78489">
        <ele>575</ele>
        <time>2011-11-20T09:51:21Z</time>
      </trkpt>
      <trkpt lat="45.83989" lon="4.7849">
        <ele>574.8</ele>
        <time>2011-11-20T09:51:25Z</time>
      </trkpt>
      <trkpt lat="45.83989" lon="4.78491">
        <ele>574.8</ele>
        <time>2011-11-20T09:51:26Z</time>
      </trkpt>
      <trkpt lat="45.83991" lon="4.78493">
        <ele>575</ele>
        <time>2011-11-20T09:51:29Z</time>
      </trkpt>
      <trkpt lat="45.83992" lon="4.78493">
        <ele>575</ele>
        <time>2011-11-20T09:51:30Z</time>
      </trkpt>
      <trkpt lat="45.83998" lon="4.78493">
        <ele>575</ele>
        <time>2011-11-20T09:51:33Z</time>
      </trkpt>
      <trkpt lat="45.84" lon="4.78494">
        <ele>575</ele>
        <time>2011-11-20T09:51:34Z</time>
      </trkpt>
      <trkpt lat="45.84012" lon="4.78494">
        <ele>575</ele>
        <time>2011-11-20T09:51:38Z</time>
      </trkpt>
      <trkpt lat="45.84022" lon="4.78493">
        <ele>574.8</ele>
        <time>2011-11-20T09:51:42Z</time>
      </trkpt>
      <trkpt lat="45.84027" lon="4.78493">
        <ele>574.8</ele>
        <time>2011-11-20T09:51:44Z</time>
      </trkpt>
      <trkpt lat="45.84032" lon="4.78492">
        <ele>574.8</ele>
        <time>2011-11-20T09:51:46Z</time>
      </trkpt>
      <trkpt lat="45.84034" lon="4.78492">
        <ele>574.8</ele>
        <time>2011-11-20T09:51:47Z</time>
      </trkpt>
      <trkpt lat="45.84038" lon="4.78493">
        <ele>574.8</ele>
        <time>2011-11-20T09:51:48Z</time>
      </trkpt>
      <trkpt lat="45.84047" lon="4.78497">
        <ele>574.6</ele>
        <time>2011-11-20T09:51:52Z</time>
      </trkpt>
      <trkpt lat="45.84051" lon="4.78499">
        <ele>574.6</ele>
        <time>2011-11-20T09:51:54Z</time>
      </trkpt>
      <trkpt lat="45.84055" lon="4.7851">
        <ele>574.6</ele>
        <time>2011-11-20T09:51:57Z</time>
      </trkpt>
      <trkpt lat="45.84056" lon="4.78514">
        <ele>574.6</ele>
        <time>2011-11-20T09:51:58Z</time>
      </trkpt>
      <trkpt lat="45.84059" lon="4.78526">
        <ele>574.6</ele>
        <time>2011-11-20T09:52:02Z</time>
      </trkpt>
      <trkpt lat="45.8406" lon="4.78529">
        <ele>574.6</ele>
        <time>2011-11-20T09:52:03Z</time>
      </trkpt>
      <trkpt lat="45.84062" lon="4.78535">
        <ele>574.6</ele>
        <time>2011-11-20T09:52:05Z</time>
      </trkpt>
      <trkpt lat="45.84061" lon="4.78541">
        <ele>574.6</ele>
        <time>2011-11-20T09:52:07Z</time>
      </trkpt>
      <trkpt lat="45.84058" lon="4.78552">
        <ele>574.6</ele>
        <time>2011-11-20T09:52:11Z</time>
      </trkpt>
      <trkpt lat="45.84059" lon="4.78555">
        <ele>574.6</ele>
        <time>2011-11-20T09:52:12Z</time>
      </trkpt>
      <trkpt lat="45.8406" lon="4.78573">
        <ele>575</ele>
        <time>2011-11-20T09:52:17Z</time>
      </trkpt>
      <trkpt lat="45.8406" lon="4.78579">
        <ele>575</ele>
        <time>2011-11-20T09:52:19Z</time>
      </trkpt>
      <trkpt lat="45.8406" lon="4.78585">
        <ele>575</ele>
        <time>2011-11-20T09:52:21Z</time>
      </trkpt>
      <trkpt lat="45.84061" lon="4.78602">
        <ele>575.4</ele>
        <time>2011-11-20T09:52:26Z</time>
      </trkpt>
      <trkpt lat="45.84061" lon="4.78606">
        <ele>575.6</ele>
        <time>2011-11-20T09:52:27Z</time>
      </trkpt>
      <trkpt lat="45.84062" lon="4.78609">
        <ele>575.6</ele>
        <time>2011-11-20T09:52:28Z</time>
      </trkpt>
      <trkpt lat="45.84062" lon="4.78616">
        <ele>575.8</ele>
        <time>2011-11-20T09:52:30Z</time>
      </trkpt>
      <trkpt lat="45.84065" lon="4.78634">
        <ele>576.4</ele>
        <time>2011-11-20T09:52:35Z</time>
      </trkpt>
      <trkpt lat="45.84067" lon="4.78649">
        <ele>577</ele>
        <time>2011-11-20T09:52:40Z</time>
      </trkpt>
      <trkpt lat="45.84069" lon="4.78656">
        <ele>577.4</ele>
        <time>2011-11-20T09:52:44Z</time>
      </trkpt>
      <trkpt lat="45.8407" lon="4.78657">
        <ele>577.4</ele>
        <time>2011-11-20T09:52:45Z</time>
      </trkpt>
      <trkpt lat="45.8407" lon="4.78658">
        <ele>577.4</ele>
        <time>2011-11-20T09:52:47Z</time>
      </trkpt>
      <trkpt lat="45.8407" lon="4.78661">
        <ele>577.6</ele>
        <time>2011-11-20T09:52:49Z</time>
      </trkpt>
      <trkpt lat="45.84072" lon="4.7867">
        <ele>577.8</ele>
        <time>2011-11-20T09:52:56Z</time>
      </trkpt>
      <trkpt lat="45.84073" lon="4.78682">
        <ele>578.2</ele>
        <time>2011-11-20T09:53:03Z</time>
      </trkpt>
      <trkpt lat="45.84073" lon="4.78684">
        <ele>578.2</ele>
        <time>2011-11-20T09:53:04Z</time>
      </trkpt>
      <trkpt lat="45.84076" lon="4.78691">
        <ele>578.4</ele>
        <time>2011-11-20T09:53:09Z</time>
      </trkpt>
      <trkpt lat="45.84082" lon="4.78701">
        <ele>578.8</ele>
        <time>2011-11-20T09:53:16Z</time>
      </trkpt>
      <trkpt lat="45.84085" lon="4.78705">
        <ele>578.6</ele>
        <time>2011-11-20T09:53:20Z</time>
      </trkpt>
      <trkpt lat="45.84086" lon="4.78706">
        <ele>578.6</ele>
        <time>2011-11-20T09:53:21Z</time>
      </trkpt>
      <trkpt lat="45.84089" lon="4.78708">
        <ele>578.6</ele>
        <time>2011-11-20T09:53:23Z</time>
      </trkpt>
      <trkpt lat="45.84103" lon="4.78719">
        <ele>578.4</ele>
        <time>2011-11-20T09:53:29Z</time>
      </trkpt>
      <trkpt lat="45.84112" lon="4.78735">
        <ele>578.2</ele>
        <time>2011-11-20T09:53:34Z</time>
      </trkpt>
      <trkpt lat="45.84114" lon="4.78739">
        <ele>578.2</ele>
        <time>2011-11-20T09:53:35Z</time>
      </trkpt>
      <trkpt lat="45.84119" lon="4.78749">
        <ele>578</ele>
        <time>2011-11-20T09:53:38Z</time>
      </trkpt>
      <trkpt lat="45.84126" lon="4.78761">
        <ele>577.8</ele>
        <time>2011-11-20T09:53:43Z</time>
      </trkpt>
      <trkpt lat="45.84132" lon="4.78773">
        <ele>577.6</ele>
        <time>2011-11-20T09:53:48Z</time>
      </trkpt>
      <trkpt lat="45.84132" lon="4.78787">
        <ele>577.2</ele>
        <time>2011-11-20T09:53:52Z</time>
      </trkpt>
      <trkpt lat="45.84133" lon="4.78792">
        <ele>577</ele>
        <time>2011-11-20T09:53:54Z</time>
      </trkpt>
      <trkpt lat="45.84142" lon="4.78799">
        <ele>576.6</ele>
        <time>2011-11-20T09:53:59Z</time>
      </trkpt>
      <trkpt lat="45.84149" lon="4.78803">
        <ele>576.4</ele>
        <time>2011-11-20T09:54:01Z</time>
      </trkpt>
      <trkpt lat="45.84152" lon="4.78805">
        <ele>576.2</ele>
        <time>2011-11-20T09:54:02Z</time>
      </trkpt>
      <trkpt lat="45.84157" lon="4.7881">
        <ele>576</ele>
        <time>2011-11-20T09:54:04Z</time>
      </trkpt>
      <trkpt lat="45.84165" lon="4.78822">
        <ele>575.6</ele>
        <time>2011-11-20T09:54:08Z</time>
      </trkpt>
      <trkpt lat="45.84172" lon="4.78821">
        <ele>575.4</ele>
        <time>2011-11-20T09:54:11Z</time>
      </trkpt>
      <trkpt lat="45.84174" lon="4.78819">
        <ele>575.2</ele>
        <time>2011-11-20T09:54:12Z</time>
      </trkpt>
      <trkpt lat="45.84182" lon="4.78815">
        <ele>574.8</ele>
        <time>2011-11-20T09:54:15Z</time>
      </trkpt>
      <trkpt lat="45.84186" lon="4.78815">
        <ele>574.6</ele>
        <time>2011-11-20T09:54:17Z</time>
      </trkpt>
      <trkpt lat="45.8419" lon="4.78825">
        <ele>574</ele>
        <time>2011-11-20T09:54:21Z</time>
      </trkpt>
      <trkpt lat="45.84193" lon="4.78835">
        <ele>573.8</ele>
        <time>2011-11-20T09:54:24Z</time>
      </trkpt>
      <trkpt lat="45.84195" lon="4.7884">
        <ele>573.4</ele>
        <time>2011-11-20T09:54:26Z</time>
      </trkpt>
      <trkpt lat="45.84196" lon="4.78843">
        <ele>573.4</ele>
        <time>2011-11-20T09:54:27Z</time>
      </trkpt>
      <trkpt lat="45.84201" lon="4.78854">
        <ele>572.8</ele>
        <time>2011-11-20T09:54:30Z</time>
      </trkpt>
      <trkpt lat="45.84203" lon="4.78857">
        <ele>572.8</ele>
        <time>2011-11-20T09:54:31Z</time>
      </trkpt>
      <trkpt lat="45.84205" lon="4.7886">
        <ele>572.6</ele>
        <time>2011-11-20T09:54:32Z</time>
      </trkpt>
      <trkpt lat="45.84209" lon="4.78865">
        <ele>572.2</ele>
        <time>2011-11-20T09:54:34Z</time>
      </trkpt>
      <trkpt lat="45.84214" lon="4.78879">
        <ele>571.8</ele>
        <time>2011-11-20T09:54:38Z</time>
      </trkpt>
      <trkpt lat="45.84217" lon="4.78901">
        <ele>571</ele>
        <time>2011-11-20T09:54:44Z</time>
      </trkpt>
      <trkpt lat="45.84216" lon="4.78908">
        <ele>570.6</ele>
        <time>2011-11-20T09:54:46Z</time>
      </trkpt>
      <trkpt lat="45.84215" lon="4.78924">
        <ele>570</ele>
        <time>2011-11-20T09:54:50Z</time>
      </trkpt>
      <trkpt lat="45.84212" lon="4.78935">
        <ele>569.8</ele>
        <time>2011-11-20T09:54:53Z</time>
      </trkpt>
      <trkpt lat="45.8421" lon="4.78942">
        <ele>569.4</ele>
        <time>2011-11-20T09:54:55Z</time>
      </trkpt>
      <trkpt lat="45.84198" lon="4.78955">
        <ele>568.6</ele>
        <time>2011-11-20T09:55:01Z</time>
      </trkpt>
      <trkpt lat="45.8419" lon="4.78973">
        <ele>567.8</ele>
        <time>2011-11-20T09:55:07Z</time>
      </trkpt>
      <trkpt lat="45.84189" lon="4.78979">
        <ele>567.6</ele>
        <time>2011-11-20T09:55:09Z</time>
      </trkpt>
      <trkpt lat="45.84186" lon="4.78989">
        <ele>567</ele>
        <time>2011-11-20T09:55:12Z</time>
      </trkpt>
      <trkpt lat="45.84184" lon="4.79005">
        <ele>566.2</ele>
        <time>2011-11-20T09:55:17Z</time>
      </trkpt>
      <trkpt lat="45.84184" lon="4.79012">
        <ele>565.8</ele>
        <time>2011-11-20T09:55:19Z</time>
      </trkpt>
      <trkpt lat="45.84181" lon="4.7903">
        <ele>565</ele>
        <time>2011-11-20T09:55:24Z</time>
      </trkpt>
      <trkpt lat="45.84181" lon="4.79034">
        <ele>564.8</ele>
        <time>2011-11-20T09:55:25Z</time>
      </trkpt>
      <trkpt lat="45.84178" lon="4.79058">
        <ele>563.8</ele>
        <time>2011-11-20T09:55:31Z</time>
      </trkpt>
      <trkpt lat="45.84177" lon="4.79062">
        <ele>563.6</ele>
        <time>2011-11-20T09:55:32Z</time>
      </trkpt>
      <trkpt lat="45.84176" lon="4.79078">
        <ele>562.8</ele>
        <time>2011-11-20T09:55:36Z</time>
      </trkpt>
      <trkpt lat="45.84175" lon="4.7909">
        <ele>562.2</ele>
        <time>2011-11-20T09:55:39Z</time>
      </trkpt>
      <trkpt lat="45.84174" lon="4.79099">
        <ele>561.8</ele>
        <time>2011-11-20T09:55:41Z</time>
      </trkpt>
      <trkpt lat="45.84172" lon="4.79117">
        <ele>560.6</ele>
        <time>2011-11-20T09:55:46Z</time>
      </trkpt>
      <trkpt lat="45.84171" lon="4.79133">
        <ele>559.8</ele>
        <time>2011-11-20T09:55:50Z</time>
      </trkpt>
      <trkpt lat="45.84171" lon="4.79145">
        <ele>559</ele>
        <time>2011-11-20T09:55:53Z</time>
      </trkpt>
      <trkpt lat="45.84174" lon="4.7915">
        <ele>558.4</ele>
        <time>2011-11-20T09:55:55Z</time>
      </trkpt>
      <trkpt lat="45.84175" lon="4.79151">
        <ele>558.2</ele>
        <time>2011-11-20T09:55:56Z</time>
      </trkpt>
      <trkpt lat="45.84177" lon="4.79158">
        <ele>557.6</ele>
        <time>2011-11-20T09:55:59Z</time>
      </trkpt>
      <trkpt lat="45.84179" lon="4.79163">
        <ele>557</ele>
        <time>2011-11-20T09:56:01Z</time>
      </trkpt>
      <trkpt lat="45.84181" lon="4.79167">
        <ele>556.6</ele>
        <time>2011-11-20T09:56:03Z</time>
      </trkpt>
      <trkpt lat="45.84191" lon="4.79184">
        <ele>555.2</ele>
        <time>2011-11-20T09:56:09Z</time>
      </trkpt>
      <trkpt lat="45.84194" lon="4.7919">
        <ele>554.8</ele>
        <time>2011-11-20T09:56:11Z</time>
      </trkpt>
      <trkpt lat="45.84204" lon="4.79203">
        <ele>553.6</ele>
        <time>2011-11-20T09:56:16Z</time>
      </trkpt>
      <trkpt lat="45.84207" lon="4.79209">
        <ele>553.2</ele>
        <time>2011-11-20T09:56:18Z</time>
      </trkpt>
      <trkpt lat="45.84215" lon="4.7922">
        <ele>552.4</ele>
        <time>2011-11-20T09:56:22Z</time>
      </trkpt>
      <trkpt lat="45.84221" lon="4.79228">
        <ele>551.8</ele>
        <time>2011-11-20T09:56:25Z</time>
      </trkpt>
      <trkpt lat="45.84225" lon="4.79233">
        <ele>551.4</ele>
        <time>2011-11-20T09:56:27Z</time>
      </trkpt>
      <trkpt lat="45.84234" lon="4.79246">
        <ele>550.6</ele>
        <time>2011-11-20T09:56:32Z</time>
      </trkpt>
      <trkpt lat="45.8424" lon="4.79263">
        <ele>549.6</ele>
        <time>2011-11-20T09:56:37Z</time>
      </trkpt>
      <trkpt lat="45.84243" lon="4.79272">
        <ele>549</ele>
        <time>2011-11-20T09:56:40Z</time>
      </trkpt>
      <trkpt lat="45.84244" lon="4.79282">
        <ele>548.4</ele>
        <time>2011-11-20T09:56:43Z</time>
      </trkpt>
      <trkpt lat="45.84242" lon="4.79299">
        <ele>547.4</ele>
        <time>2011-11-20T09:56:48Z</time>
      </trkpt>
      <trkpt lat="45.84241" lon="4.79306">
        <ele>547</ele>
        <time>2011-11-20T09:56:50Z</time>
      </trkpt>
      <trkpt lat="45.84236" lon="4.79323">
        <ele>545.8</ele>
        <time>2011-11-20T09:56:56Z</time>
      </trkpt>
      <trkpt lat="45.84235" lon="4.79326">
        <ele>545.8</ele>
        <time>2011-11-20T09:56:57Z</time>
      </trkpt>
      <trkpt lat="45.84236" lon="4.79341">
        <ele>544.8</ele>
        <time>2011-11-20T09:57:02Z</time>
      </trkpt>
      <trkpt lat="45.84237" lon="4.79347">
        <ele>544.2</ele>
        <time>2011-11-20T09:57:06Z</time>
      </trkpt>
      <trkpt lat="45.84238" lon="4.79348">
        <ele>544</ele>
        <time>2011-11-20T09:57:07Z</time>
      </trkpt>
      <trkpt lat="45.84239" lon="4.79348">
        <ele>543.8</ele>
        <time>2011-11-20T09:57:08Z</time>
      </trkpt>
      <trkpt lat="45.8425" lon="4.79349">
        <ele>543</ele>
        <time>2011-11-20T09:57:12Z</time>
      </trkpt>
      <trkpt lat="45.84257" lon="4.7935">
        <ele>542.4</ele>
        <time>2011-11-20T09:57:15Z</time>
      </trkpt>
      <trkpt lat="45.8426" lon="4.79349">
        <ele>542.2</ele>
        <time>2011-11-20T09:57:16Z</time>
      </trkpt>
      <trkpt lat="45.84273" lon="4.79349">
        <ele>541.2</ele>
        <time>2011-11-20T09:57:21Z</time>
      </trkpt>
      <trkpt lat="45.84276" lon="4.79349">
        <ele>540.8</ele>
        <time>2011-11-20T09:57:23Z</time>
      </trkpt>
      <trkpt lat="45.84276" lon="4.7935">
        <ele>540.6</ele>
        <time>2011-11-20T09:57:24Z</time>
      </trkpt>
      <trkpt lat="45.84276" lon="4.79353">
        <ele>540.4</ele>
        <time>2011-11-20T09:57:25Z</time>
      </trkpt>
      <trkpt lat="45.84273" lon="4.79361">
        <ele>539.8</ele>
        <time>2011-11-20T09:57:29Z</time>
      </trkpt>
      <trkpt lat="45.84265" lon="4.79367">
        <ele>539.2</ele>
        <time>2011-11-20T09:57:33Z</time>
      </trkpt>
      <trkpt lat="45.84263" lon="4.79368">
        <ele>539</ele>
        <time>2011-11-20T09:57:34Z</time>
      </trkpt>
      <trkpt lat="45.84252" lon="4.79376">
        <ele>538.2</ele>
        <time>2011-11-20T09:57:40Z</time>
      </trkpt>
      <trkpt lat="45.84247" lon="4.79381">
        <ele>537.8</ele>
        <time>2011-11-20T09:57:43Z</time>
      </trkpt>
      <trkpt lat="45.84242" lon="4.79385">
        <ele>537.6</ele>
        <time>2011-11-20T09:57:46Z</time>
      </trkpt>
      <trkpt lat="45.84235" lon="4.79396">
        <ele>536.8</ele>
        <time>2011-11-20T09:57:52Z</time>
      </trkpt>
      <trkpt lat="45.84234" lon="4.79399">
        <ele>536.8</ele>
        <time>2011-11-20T09:57:54Z</time>
      </trkpt>
      <trkpt lat="45.84232" lon="4.7941">
        <ele>536.4</ele>
        <time>2011-11-20T09:58:00Z</time>
      </trkpt>
      <trkpt lat="45.8423" lon="4.79426">
        <ele>536.2</ele>
        <time>2011-11-20T09:58:10Z</time>
      </trkpt>
      <trkpt lat="45.84227" lon="4.7944">
        <ele>536.6</ele>
        <time>2011-11-20T09:58:20Z</time>
      </trkpt>
      <trkpt lat="45.84227" lon="4.79446">
        <ele>536.8</ele>
        <time>2011-11-20T09:58:25Z</time>
      </trkpt>
      <trkpt lat="45.84226" lon="4.7945">
        <ele>537.2</ele>
        <time>2011-11-20T09:58:28Z</time>
      </trkpt>
      <trkpt lat="45.84226" lon="4.79451">
        <ele>537.2</ele>
        <time>2011-11-20T09:58:29Z</time>
      </trkpt>
      <trkpt lat="45.84227" lon="4.79455">
        <ele>537.8</ele>
        <time>2011-11-20T09:58:33Z</time>
      </trkpt>
      <trkpt lat="45.84226" lon="4.79459">
        <ele>538.2</ele>
        <time>2011-11-20T09:58:36Z</time>
      </trkpt>
      <trkpt lat="45.84224" lon="4.79466">
        <ele>539.2</ele>
        <time>2011-11-20T09:58:43Z</time>
      </trkpt>
      <trkpt lat="45.84223" lon="4.79473">
        <ele>540.2</ele>
        <time>2011-11-20T09:58:49Z</time>
      </trkpt>
      <trkpt lat="45.84223" lon="4.79476">
        <ele>540.6</ele>
        <time>2011-11-20T09:58:51Z</time>
      </trkpt>
      <trkpt lat="45.84223" lon="4.79477">
        <ele>541</ele>
        <time>2011-11-20T09:58:52Z</time>
      </trkpt>
      <trkpt lat="45.84223" lon="4.79484">
        <ele>542</ele>
        <time>2011-11-20T09:58:58Z</time>
      </trkpt>
      <trkpt lat="45.84223" lon="4.79487">
        <ele>542.2</ele>
        <time>2011-11-20T09:59:00Z</time>
      </trkpt>
      <trkpt lat="45.84222" lon="4.79491">
        <ele>542.8</ele>
        <time>2011-11-20T09:59:04Z</time>
      </trkpt>
      <trkpt lat="45.84222" lon="4.79492">
        <ele>542.8</ele>
        <time>2011-11-20T09:59:05Z</time>
      </trkpt>
      <trkpt lat="45.8422" lon="4.79502">
        <ele>544.6</ele>
        <time>2011-11-20T09:59:15Z</time>
      </trkpt>
      <trkpt lat="45.84219" lon="4.79503">
        <ele>544.8</ele>
        <time>2011-11-20T09:59:16Z</time>
      </trkpt>
      <trkpt lat="45.84219" lon="4.79505">
        <ele>545.8</ele>
        <time>2011-11-20T09:59:21Z</time>
      </trkpt>
      <trkpt lat="45.84216" lon="4.79512">
        <ele>547.2</ele>
        <time>2011-11-20T09:59:28Z</time>
      </trkpt>
      <trkpt lat="45.84215" lon="4.79519">
        <ele>549</ele>
        <time>2011-11-20T09:59:35Z</time>
      </trkpt>
      <trkpt lat="45.84213" lon="4.79523">
        <ele>550.4</ele>
        <time>2011-11-20T09:59:40Z</time>
      </trkpt>
      <trkpt lat="45.84212" lon="4.79523">
        <ele>550.8</ele>
        <time>2011-11-20T09:59:41Z</time>
      </trkpt>
      <trkpt lat="45.84211" lon="4.79524">
        <ele>551</ele>
        <time>2011-11-20T09:59:42Z</time>
      </trkpt>
      <trkpt lat="45.84211" lon="4.79526">
        <ele>551.2</ele>
        <time>2011-11-20T09:59:44Z</time>
      </trkpt>
      <trkpt lat="45.84209" lon="4.79526">
        <ele>552</ele>
        <time>2011-11-20T09:59:47Z</time>
      </trkpt>
      <trkpt lat="45.84204" lon="4.79524">
        <ele>553.8</ele>
        <time>2011-11-20T09:59:55Z</time>
      </trkpt>
      <trkpt lat="45.84201" lon="4.79523">
        <ele>554.8</ele>
        <time>2011-11-20T10:00:01Z</time>
      </trkpt>
      <trkpt lat="45.84202" lon="4.79523">
        <ele>555.6</ele>
        <time>2011-11-20T10:00:08Z</time>
      </trkpt>
      <trkpt lat="45.84209" lon="4.79523">
        <ele>556</ele>
        <time>2011-11-20T10:00:29Z</time>
      </trkpt>
      <trkpt lat="45.84208" lon="4.79525">
        <ele>556.2</ele>
        <time>2011-11-20T10:00:35Z</time>
      </trkpt>
      <trkpt lat="45.84209" lon="4.79526">
        <ele>556.6</ele>
        <time>2011-11-20T10:00:42Z</time>
      </trkpt>
      <trkpt lat="45.84209" lon="4.79526">
        <ele>557</ele>
        <time>2011-11-20T10:01:04Z</time>
      </trkpt>
      <trkpt lat="45.84209" lon="4.79525">
        <ele>557.4</ele>
        <time>2011-11-20T10:01:14Z</time>
      </trkpt>
      <trkpt lat="45.84211" lon="4.79526">
        <ele>557.4</ele>
        <time>2011-11-20T10:01:18Z</time>
      </trkpt>
      <trkpt lat="45.84216" lon="4.79528">
        <ele>557.4</ele>
        <time>2011-11-20T10:01:22Z</time>
      </trkpt>
      <trkpt lat="45.84217" lon="4.79529">
        <ele>557.2</ele>
        <time>2011-11-20T10:01:23Z</time>
      </trkpt>
      <trkpt lat="45.84218" lon="4.7953">
        <ele>557.2</ele>
        <time>2011-11-20T10:01:25Z</time>
      </trkpt>
      <trkpt lat="45.84222" lon="4.79531">
        <ele>556.8</ele>
        <time>2011-11-20T10:01:29Z</time>
      </trkpt>
      <trkpt lat="45.84227" lon="4.79534">
        <ele>556.6</ele>
        <time>2011-11-20T10:01:34Z</time>
      </trkpt>
      <trkpt lat="45.84228" lon="4.79534">
        <ele>556.4</ele>
        <time>2011-11-20T10:01:35Z</time>
      </trkpt>
      <trkpt lat="45.84228" lon="4.79537">
        <ele>556</ele>
        <time>2011-11-20T10:01:43Z</time>
      </trkpt>
      <trkpt lat="45.84226" lon="4.79537">
        <ele>555.8</ele>
        <time>2011-11-20T10:01:45Z</time>
      </trkpt>
      <trkpt lat="45.84224" lon="4.79541">
        <ele>555.6</ele>
        <time>2011-11-20T10:01:49Z</time>
      </trkpt>
      <trkpt lat="45.84224" lon="4.79549">
        <ele>555.4</ele>
        <time>2011-11-20T10:01:54Z</time>
      </trkpt>
      <trkpt lat="45.84223" lon="4.7955">
        <ele>555.4</ele>
        <time>2011-11-20T10:01:56Z</time>
      </trkpt>
      <trkpt lat="45.84223" lon="4.79552">
        <ele>555.4</ele>
        <time>2011-11-20T10:01:57Z</time>
      </trkpt>
      <trkpt lat="45.84222" lon="4.79557">
        <ele>555.4</ele>
        <time>2011-11-20T10:02:02Z</time>
      </trkpt>
      <trkpt lat="45.8422" lon="4.79565">
        <ele>556</ele>
        <time>2011-11-20T10:02:09Z</time>
      </trkpt>
      <trkpt lat="45.8422" lon="4.79569">
        <ele>556.4</ele>
        <time>2011-11-20T10:02:15Z</time>
      </trkpt>
      <trkpt lat="45.84219" lon="4.79569">
        <ele>556.4</ele>
        <time>2011-11-20T10:02:16Z</time>
      </trkpt>
      <trkpt lat="45.84218" lon="4.79571">
        <ele>556.8</ele>
        <time>2011-11-20T10:02:18Z</time>
      </trkpt>
      <trkpt lat="45.84218" lon="4.79575">
        <ele>557.8</ele>
        <time>2011-11-20T10:02:21Z</time>
      </trkpt>
      <trkpt lat="45.84219" lon="4.79577">
        <ele>557.8</ele>
        <time>2011-11-20T10:02:22Z</time>
      </trkpt>
      <trkpt lat="45.8422" lon="4.79578">
        <ele>558</ele>
        <time>2011-11-20T10:02:23Z</time>
      </trkpt>
      <trkpt lat="45.84221" lon="4.79586">
        <ele>558.6</ele>
        <time>2011-11-20T10:02:27Z</time>
      </trkpt>
      <trkpt lat="45.84221" lon="4.79588">
        <ele>558.8</ele>
        <time>2011-11-20T10:02:28Z</time>
      </trkpt>
      <trkpt lat="45.84222" lon="4.79596">
        <ele>559.6</ele>
        <time>2011-11-20T10:02:34Z</time>
      </trkpt>
      <trkpt lat="45.84221" lon="4.79597">
        <ele>559.8</ele>
        <time>2011-11-20T10:02:36Z</time>
      </trkpt>
      <trkpt lat="45.84219" lon="4.79598">
        <ele>560.2</ele>
        <time>2011-11-20T10:02:39Z</time>
      </trkpt>
      <trkpt lat="45.84216" lon="4.79598">
        <ele>560.6</ele>
        <time>2011-11-20T10:02:41Z</time>
      </trkpt>
      <trkpt lat="45.84213" lon="4.796">
        <ele>561.6</ele>
        <time>2011-11-20T10:02:47Z</time>
      </trkpt>
      <trkpt lat="45.84211" lon="4.79603">
        <ele>562.8</ele>
        <time>2011-11-20T10:02:52Z</time>
      </trkpt>
      <trkpt lat="45.84213" lon="4.79604">
        <ele>564.2</ele>
        <time>2011-11-20T10:03:01Z</time>
      </trkpt>
      <trkpt lat="45.84216" lon="4.796">
        <ele>564</ele>
        <time>2011-11-20T10:03:06Z</time>
      </trkpt>
      <trkpt lat="45.84217" lon="4.79601">
        <ele>564</ele>
        <time>2011-11-20T10:03:07Z</time>
      </trkpt>
      <trkpt lat="45.84222" lon="4.79606">
        <ele>564</ele>
        <time>2011-11-20T10:03:11Z</time>
      </trkpt>
      <trkpt lat="45.84223" lon="4.79606">
        <ele>564</ele>
        <time>2011-11-20T10:03:12Z</time>
      </trkpt>
      <trkpt lat="45.84223" lon="4.79607">
        <ele>564</ele>
        <time>2011-11-20T10:03:13Z</time>
      </trkpt>
      <trkpt lat="45.84228" lon="4.79612">
        <ele>563.6</ele>
        <time>2011-11-20T10:03:17Z</time>
      </trkpt>
      <trkpt lat="45.8423" lon="4.79615">
        <ele>563.6</ele>
        <time>2011-11-20T10:03:19Z</time>
      </trkpt>
      <trkpt lat="45.8423" lon="4.79621">
        <ele>563.2</ele>
        <time>2011-11-20T10:03:23Z</time>
      </trkpt>
      <trkpt lat="45.8423" lon="4.79622">
        <ele>563.2</ele>
        <time>2011-11-20T10:03:24Z</time>
      </trkpt>
      <trkpt lat="45.84227" lon="4.7963">
        <ele>562.8</ele>
        <time>2011-11-20T10:03:30Z</time>
      </trkpt>
      <trkpt lat="45.84227" lon="4.79631">
        <ele>562.6</ele>
        <time>2011-11-20T10:03:31Z</time>
      </trkpt>
      <trkpt lat="45.84227" lon="4.79634">
        <ele>562.6</ele>
        <time>2011-11-20T10:03:33Z</time>
      </trkpt>
      <trkpt lat="45.84227" lon="4.79637">
        <ele>562.4</ele>
        <time>2011-11-20T10:03:35Z</time>
      </trkpt>
      <trkpt lat="45.84226" lon="4.79638">
        <ele>562.2</ele>
        <time>2011-11-20T10:03:37Z</time>
      </trkpt>
      <trkpt lat="45.84224" lon="4.79639">
        <ele>562.2</ele>
        <time>2011-11-20T10:03:39Z</time>
      </trkpt>
      <trkpt lat="45.84223" lon="4.7964">
        <ele>562.2</ele>
        <time>2011-11-20T10:03:41Z</time>
      </trkpt>
      <trkpt lat="45.84223" lon="4.79641">
        <ele>562.2</ele>
        <time>2011-11-20T10:03:42Z</time>
      </trkpt>
      <trkpt lat="45.84222" lon="4.79644">
        <ele>562.2</ele>
        <time>2011-11-20T10:03:44Z</time>
      </trkpt>
      <trkpt lat="45.84222" lon="4.79647">
        <ele>562.4</ele>
        <time>2011-11-20T10:03:47Z</time>
      </trkpt>
      <trkpt lat="45.84221" lon="4.79651">
        <ele>563.2</ele>
        <time>2011-11-20T10:03:50Z</time>
      </trkpt>
      <trkpt lat="45.84221" lon="4.79656">
        <ele>564.2</ele>
        <time>2011-11-20T10:03:54Z</time>
      </trkpt>
      <trkpt lat="45.8422" lon="4.79659">
        <ele>565.6</ele>
        <time>2011-11-20T10:03:59Z</time>
      </trkpt>
      <trkpt lat="45.84218" lon="4.79661">
        <ele>567</ele>
        <time>2011-11-20T10:04:02Z</time>
      </trkpt>
      <trkpt lat="45.84219" lon="4.79667">
        <ele>569</ele>
        <time>2011-11-20T10:04:08Z</time>
      </trkpt>
      <trkpt lat="45.84219" lon="4.79671">
        <ele>570.4</ele>
        <time>2011-11-20T10:04:13Z</time>
      </trkpt>
      <trkpt lat="45.84217" lon="4.79679">
        <ele>573.4</ele>
        <time>2011-11-20T10:04:26Z</time>
      </trkpt>
      <trkpt lat="45.84212" lon="4.79683">
        <ele>576</ele>
        <time>2011-11-20T10:04:37Z</time>
      </trkpt>
      <trkpt lat="45.8421" lon="4.79682">
        <ele>577.2</ele>
        <time>2011-11-20T10:04:42Z</time>
      </trkpt>
      <trkpt lat="45.84208" lon="4.79683">
        <ele>578.4</ele>
        <time>2011-11-20T10:04:49Z</time>
      </trkpt>
      <trkpt lat="45.84207" lon="4.79687">
        <ele>579.6</ele>
        <time>2011-11-20T10:04:54Z</time>
      </trkpt>
      <trkpt lat="45.84204" lon="4.79695">
        <ele>583.6</ele>
        <time>2011-11-20T10:05:10Z</time>
      </trkpt>
      <trkpt lat="45.84203" lon="4.79698">
        <ele>585.2</ele>
        <time>2011-11-20T10:05:17Z</time>
      </trkpt>
      <trkpt lat="45.84202" lon="4.79701">
        <ele>587.2</ele>
        <time>2011-11-20T10:05:30Z</time>
      </trkpt>
      <trkpt lat="45.84202" lon="4.79703">
        <ele>587.4</ele>
        <time>2011-11-20T10:05:31Z</time>
      </trkpt>
      <trkpt lat="45.84202" lon="4.7971">
        <ele>588.2</ele>
        <time>2011-11-20T10:05:37Z</time>
      </trkpt>
      <trkpt lat="45.84202" lon="4.79707">
        <ele>588.2</ele>
        <time>2011-11-20T10:05:56Z</time>
      </trkpt>
      <trkpt lat="45.842" lon="4.79713">
        <ele>588</ele>
        <time>2011-11-20T10:06:12Z</time>
      </trkpt>
      <trkpt lat="45.84201" lon="4.79714">
        <ele>588</ele>
        <time>2011-11-20T10:06:13Z</time>
      </trkpt>
      <trkpt lat="45.842" lon="4.7972">
        <ele>588.2</ele>
        <time>2011-11-20T10:06:18Z</time>
      </trkpt>
      <trkpt lat="45.842" lon="4.79722">
        <ele>588.2</ele>
        <time>2011-11-20T10:06:19Z</time>
      </trkpt>
      <trkpt lat="45.84195" lon="4.79732">
        <ele>588.6</ele>
        <time>2011-11-20T10:06:25Z</time>
      </trkpt>
      <trkpt lat="45.84194" lon="4.79733">
        <ele>588.6</ele>
        <time>2011-11-20T10:06:26Z</time>
      </trkpt>
      <trkpt lat="45.84189" lon="4.79742">
        <ele>588.8</ele>
        <time>2011-11-20T10:06:32Z</time>
      </trkpt>
      <trkpt lat="45.84186" lon="4.79747">
        <ele>589</ele>
        <time>2011-11-20T10:06:35Z</time>
      </trkpt>
      <trkpt lat="45.84184" lon="4.7975">
        <ele>589</ele>
        <time>2011-11-20T10:06:37Z</time>
      </trkpt>
      <trkpt lat="45.84182" lon="4.79751">
        <ele>589</ele>
        <time>2011-11-20T10:06:39Z</time>
      </trkpt>
      <trkpt lat="45.8418" lon="4.79754">
        <ele>589.2</ele>
        <time>2011-11-20T10:06:41Z</time>
      </trkpt>
      <trkpt lat="45.84176" lon="4.79761">
        <ele>589.2</ele>
        <time>2011-11-20T10:06:46Z</time>
      </trkpt>
      <trkpt lat="45.84176" lon="4.79763">
        <ele>589.2</ele>
        <time>2011-11-20T10:06:47Z</time>
      </trkpt>
      <trkpt lat="45.84171" lon="4.79774">
        <ele>589.2</ele>
        <time>2011-11-20T10:06:55Z</time>
      </trkpt>
      <trkpt lat="45.84172" lon="4.79775">
        <ele>589.2</ele>
        <time>2011-11-20T10:06:56Z</time>
      </trkpt>
      <trkpt lat="45.84175" lon="4.79784">
        <ele>589</ele>
        <time>2011-11-20T10:07:01Z</time>
      </trkpt>
      <trkpt lat="45.84176" lon="4.79788">
        <ele>589</ele>
        <time>2011-11-20T10:07:03Z</time>
      </trkpt>
      <trkpt lat="45.84177" lon="4.79791">
        <ele>589</ele>
        <time>2011-11-20T10:07:05Z</time>
      </trkpt>
      <trkpt lat="45.84178" lon="4.79794">
        <ele>589</ele>
        <time>2011-11-20T10:07:07Z</time>
      </trkpt>
      <trkpt lat="45.84181" lon="4.79798">
        <ele>589</ele>
        <time>2011-11-20T10:07:10Z</time>
      </trkpt>
      <trkpt lat="45.84185" lon="4.79802">
        <ele>588.8</ele>
        <time>2011-11-20T10:07:13Z</time>
      </trkpt>
      <trkpt lat="45.84187" lon="4.79805">
        <ele>588.8</ele>
        <time>2011-11-20T10:07:15Z</time>
      </trkpt>
      <trkpt lat="45.84191" lon="4.79809">
        <ele>588.8</ele>
        <time>2011-11-20T10:07:18Z</time>
      </trkpt>
      <trkpt lat="45.84197" lon="4.79818">
        <ele>588.8</ele>
        <time>2011-11-20T10:07:23Z</time>
      </trkpt>
      <trkpt lat="45.84201" lon="4.79822">
        <ele>588.8</ele>
        <time>2011-11-20T10:07:25Z</time>
      </trkpt>
      <trkpt lat="45.84205" lon="4.79826">
        <ele>588.8</ele>
        <time>2011-11-20T10:07:28Z</time>
      </trkpt>
      <trkpt lat="45.84217" lon="4.79839">
        <ele>588.8</ele>
        <time>2011-11-20T10:07:33Z</time>
      </trkpt>
      <trkpt lat="45.84229" lon="4.79852">
        <ele>588.6</ele>
        <time>2011-11-20T10:07:38Z</time>
      </trkpt>
      <trkpt lat="45.84232" lon="4.79857">
        <ele>588.4</ele>
        <time>2011-11-20T10:07:40Z</time>
      </trkpt>
      <trkpt lat="45.84234" lon="4.79864">
        <ele>588.4</ele>
        <time>2011-11-20T10:07:42Z</time>
      </trkpt>
      <trkpt lat="45.8424" lon="4.79881">
        <ele>588.2</ele>
        <time>2011-11-20T10:07:47Z</time>
      </trkpt>
      <trkpt lat="45.84241" lon="4.79884">
        <ele>588.2</ele>
        <time>2011-11-20T10:07:48Z</time>
      </trkpt>
      <trkpt lat="45.84247" lon="4.79906">
        <ele>587.8</ele>
        <time>2011-11-20T10:07:54Z</time>
      </trkpt>
      <trkpt lat="45.84253" lon="4.79929">
        <ele>587.4</ele>
        <time>2011-11-20T10:08:00Z</time>
      </trkpt>
      <trkpt lat="45.84253" lon="4.79933">
        <ele>587.4</ele>
        <time>2011-11-20T10:08:01Z</time>
      </trkpt>
      <trkpt lat="45.84252" lon="4.79949">
        <ele>587</ele>
        <time>2011-11-20T10:08:05Z</time>
      </trkpt>
      <trkpt lat="45.84252" lon="4.7996">
        <ele>586.8</ele>
        <time>2011-11-20T10:08:08Z</time>
      </trkpt>
      <trkpt lat="45.84252" lon="4.79976">
        <ele>586.4</ele>
        <time>2011-11-20T10:08:12Z</time>
      </trkpt>
      <trkpt lat="45.8425" lon="4.79987">
        <ele>586</ele>
        <time>2011-11-20T10:08:15Z</time>
      </trkpt>
      <trkpt lat="45.84246" lon="4.80002">
        <ele>585.4</ele>
        <time>2011-11-20T10:08:19Z</time>
      </trkpt>
      <trkpt lat="45.84243" lon="4.80013">
        <ele>585</ele>
        <time>2011-11-20T10:08:22Z</time>
      </trkpt>
      <trkpt lat="45.84237" lon="4.80027">
        <ele>584.2</ele>
        <time>2011-11-20T10:08:26Z</time>
      </trkpt>
      <trkpt lat="45.84232" lon="4.80037">
        <ele>583.6</ele>
        <time>2011-11-20T10:08:29Z</time>
      </trkpt>
      <trkpt lat="45.84228" lon="4.80043">
        <ele>583.2</ele>
        <time>2011-11-20T10:08:31Z</time>
      </trkpt>
      <trkpt lat="45.8422" lon="4.8006">
        <ele>582.2</ele>
        <time>2011-11-20T10:08:36Z</time>
      </trkpt>
      <trkpt lat="45.84219" lon="4.80063">
        <ele>582</ele>
        <time>2011-11-20T10:08:37Z</time>
      </trkpt>
      <trkpt lat="45.84217" lon="4.80075">
        <ele>580.8</ele>
        <time>2011-11-20T10:08:42Z</time>
      </trkpt>
      <trkpt lat="45.84217" lon="4.80088">
        <ele>580</ele>
        <time>2011-11-20T10:08:46Z</time>
      </trkpt>
      <trkpt lat="45.84217" lon="4.80092">
        <ele>579.8</ele>
        <time>2011-11-20T10:08:47Z</time>
      </trkpt>
      <trkpt lat="45.84221" lon="4.80117">
        <ele>578</ele>
        <time>2011-11-20T10:08:54Z</time>
      </trkpt>
      <trkpt lat="45.84222" lon="4.80121">
        <ele>577.8</ele>
        <time>2011-11-20T10:08:55Z</time>
      </trkpt>
      <trkpt lat="45.84228" lon="4.80134">
        <ele>576.8</ele>
        <time>2011-11-20T10:08:59Z</time>
      </trkpt>
      <trkpt lat="45.84233" lon="4.8014">
        <ele>576.2</ele>
        <time>2011-11-20T10:09:01Z</time>
      </trkpt>
      <trkpt lat="45.8424" lon="4.80144">
        <ele>575.2</ele>
        <time>2011-11-20T10:09:04Z</time>
      </trkpt>
      <trkpt lat="45.84251" lon="4.80147">
        <ele>574.2</ele>
        <time>2011-11-20T10:09:08Z</time>
      </trkpt>
      <trkpt lat="45.84257" lon="4.80148">
        <ele>573.6</ele>
        <time>2011-11-20T10:09:10Z</time>
      </trkpt>
      <trkpt lat="45.84269" lon="4.80152">
        <ele>572.2</ele>
        <time>2011-11-20T10:09:15Z</time>
      </trkpt>
      <trkpt lat="45.84282" lon="4.80156">
        <ele>571</ele>
        <time>2011-11-20T10:09:20Z</time>
      </trkpt>
      <trkpt lat="45.84288" lon="4.80158">
        <ele>570.4</ele>
        <time>2011-11-20T10:09:22Z</time>
      </trkpt>
      <trkpt lat="45.84293" lon="4.80159">
        <ele>570</ele>
        <time>2011-11-20T10:09:24Z</time>
      </trkpt>
      <trkpt lat="45.84307" lon="4.80163">
        <ele>568.8</ele>
        <time>2011-11-20T10:09:30Z</time>
      </trkpt>
      <trkpt lat="45.8432" lon="4.80169">
        <ele>567.8</ele>
        <time>2011-11-20T10:09:34Z</time>
      </trkpt>
      <trkpt lat="45.84326" lon="4.80173">
        <ele>567.2</ele>
        <time>2011-11-20T10:09:37Z</time>
      </trkpt>
      <trkpt lat="45.84327" lon="4.80176">
        <ele>566.8</ele>
        <time>2011-11-20T10:09:38Z</time>
      </trkpt>
      <trkpt lat="45.84327" lon="4.80189">
        <ele>566.2</ele>
        <time>2011-11-20T10:09:42Z</time>
      </trkpt>
      <trkpt lat="45.84328" lon="4.80191">
        <ele>565.8</ele>
        <time>2011-11-20T10:09:43Z</time>
      </trkpt>
      <trkpt lat="45.84327" lon="4.802">
        <ele>565.4</ele>
        <time>2011-11-20T10:09:46Z</time>
      </trkpt>
      <trkpt lat="45.84331" lon="4.80215">
        <ele>564.2</ele>
        <time>2011-11-20T10:09:51Z</time>
      </trkpt>
      <trkpt lat="45.84338" lon="4.80213">
        <ele>563.2</ele>
        <time>2011-11-20T10:09:55Z</time>
      </trkpt>
      <trkpt lat="45.84344" lon="4.80214">
        <ele>562.4</ele>
        <time>2011-11-20T10:09:58Z</time>
      </trkpt>
      <trkpt lat="45.84345" lon="4.80215">
        <ele>562</ele>
        <time>2011-11-20T10:09:59Z</time>
      </trkpt>
      <trkpt lat="45.84347" lon="4.80216">
        <ele>561.8</ele>
        <time>2011-11-20T10:10:00Z</time>
      </trkpt>
      <trkpt lat="45.84352" lon="4.80223">
        <ele>560.6</ele>
        <time>2011-11-20T10:10:04Z</time>
      </trkpt>
      <trkpt lat="45.84355" lon="4.80226">
        <ele>560.2</ele>
        <time>2011-11-20T10:10:05Z</time>
      </trkpt>
      <trkpt lat="45.84356" lon="4.80228">
        <ele>559.8</ele>
        <time>2011-11-20T10:10:06Z</time>
      </trkpt>
      <trkpt lat="45.84364" lon="4.80234">
        <ele>558.8</ele>
        <time>2011-11-20T10:10:10Z</time>
      </trkpt>
      <trkpt lat="45.84366" lon="4.80235">
        <ele>558.4</ele>
        <time>2011-11-20T10:10:11Z</time>
      </trkpt>
      <trkpt lat="45.8437" lon="4.80239">
        <ele>557.8</ele>
        <time>2011-11-20T10:10:13Z</time>
      </trkpt>
      <trkpt lat="45.84372" lon="4.8024">
        <ele>557.6</ele>
        <time>2011-11-20T10:10:14Z</time>
      </trkpt>
      <trkpt lat="45.84374" lon="4.80241">
        <ele>557.2</ele>
        <time>2011-11-20T10:10:15Z</time>
      </trkpt>
      <trkpt lat="45.84379" lon="4.80246">
        <ele>556.4</ele>
        <time>2011-11-20T10:10:17Z</time>
      </trkpt>
      <trkpt lat="45.84386" lon="4.80252">
        <ele>555.6</ele>
        <time>2011-11-20T10:10:20Z</time>
      </trkpt>
      <trkpt lat="45.84389" lon="4.80257">
        <ele>555.2</ele>
        <time>2011-11-20T10:10:22Z</time>
      </trkpt>
      <trkpt lat="45.84391" lon="4.80263">
        <ele>554.6</ele>
        <time>2011-11-20T10:10:24Z</time>
      </trkpt>
      <trkpt lat="45.84392" lon="4.80266">
        <ele>554.2</ele>
        <time>2011-11-20T10:10:25Z</time>
      </trkpt>
      <trkpt lat="45.84396" lon="4.80279">
        <ele>553</ele>
        <time>2011-11-20T10:10:29Z</time>
      </trkpt>
      <trkpt lat="45.84396" lon="4.80282">
        <ele>552.6</ele>
        <time>2011-11-20T10:10:30Z</time>
      </trkpt>
      <trkpt lat="45.84395" lon="4.80298">
        <ele>551.6</ele>
        <time>2011-11-20T10:10:34Z</time>
      </trkpt>
      <trkpt lat="45.84394" lon="4.8031">
        <ele>550.6</ele>
        <time>2011-11-20T10:10:37Z</time>
      </trkpt>
      <trkpt lat="45.84393" lon="4.8032">
        <ele>550</ele>
        <time>2011-11-20T10:10:39Z</time>
      </trkpt>
      <trkpt lat="45.84392" lon="4.80337">
        <ele>549.2</ele>
        <time>2011-11-20T10:10:42Z</time>
      </trkpt>
      <trkpt lat="45.84392" lon="4.80342">
        <ele>548.8</ele>
        <time>2011-11-20T10:10:43Z</time>
      </trkpt>
      <trkpt lat="45.84395" lon="4.80363">
        <ele>547.6</ele>
        <time>2011-11-20T10:10:47Z</time>
      </trkpt>
      <trkpt lat="45.84395" lon="4.80367">
        <ele>547.2</ele>
        <time>2011-11-20T10:10:48Z</time>
      </trkpt>
      <trkpt lat="45.84391" lon="4.80389">
        <ele>546</ele>
        <time>2011-11-20T10:10:52Z</time>
      </trkpt>
      <trkpt lat="45.84391" lon="4.80411">
        <ele>544.8</ele>
        <time>2011-11-20T10:10:56Z</time>
      </trkpt>
      <trkpt lat="45.8439" lon="4.80416">
        <ele>544.6</ele>
        <time>2011-11-20T10:10:57Z</time>
      </trkpt>
      <trkpt lat="45.84389" lon="4.8043">
        <ele>543.6</ele>
        <time>2011-11-20T10:11:00Z</time>
      </trkpt>
      <trkpt lat="45.84388" lon="4.80434">
        <ele>543.2</ele>
        <time>2011-11-20T10:11:01Z</time>
      </trkpt>
      <trkpt lat="45.84387" lon="4.80443">
        <ele>542.2</ele>
        <time>2011-11-20T10:11:04Z</time>
      </trkpt>
      <trkpt lat="45.84379" lon="4.80445">
        <ele>541.4</ele>
        <time>2011-11-20T10:11:07Z</time>
      </trkpt>
      <trkpt lat="45.84374" lon="4.80445">
        <ele>540.4</ele>
        <time>2011-11-20T10:11:10Z</time>
      </trkpt>
      <trkpt lat="45.84374" lon="4.80446">
        <ele>540.2</ele>
        <time>2011-11-20T10:11:11Z</time>
      </trkpt>
      <trkpt lat="45.84375" lon="4.80446">
        <ele>539.8</ele>
        <time>2011-11-20T10:11:12Z</time>
      </trkpt>
      <trkpt lat="45.84376" lon="4.80448">
        <ele>539.4</ele>
        <time>2011-11-20T10:11:14Z</time>
      </trkpt>
      <trkpt lat="45.84378" lon="4.80449">
        <ele>538.8</ele>
        <time>2011-11-20T10:11:16Z</time>
      </trkpt>
      <trkpt lat="45.84378" lon="4.80452">
        <ele>536.4</ele>
        <time>2011-11-20T10:11:26Z</time>
      </trkpt>
      <trkpt lat="45.84372" lon="4.80451">
        <ele>535.4</ele>
        <time>2011-11-20T10:11:30Z</time>
      </trkpt>
      <trkpt lat="45.84366" lon="4.80455">
        <ele>534.2</ele>
        <time>2011-11-20T10:11:34Z</time>
      </trkpt>
      <trkpt lat="45.84365" lon="4.80458">
        <ele>534</ele>
        <time>2011-11-20T10:11:35Z</time>
      </trkpt>
      <trkpt lat="45.84365" lon="4.80461">
        <ele>533.8</ele>
        <time>2011-11-20T10:11:36Z</time>
      </trkpt>
      <trkpt lat="45.84366" lon="4.80477">
        <ele>532.8</ele>
        <time>2011-11-20T10:11:40Z</time>
      </trkpt>
      <trkpt lat="45.84367" lon="4.8048">
        <ele>532.4</ele>
        <time>2011-11-20T10:11:41Z</time>
      </trkpt>
      <trkpt lat="45.84367" lon="4.80491">
        <ele>531.6</ele>
        <time>2011-11-20T10:11:44Z</time>
      </trkpt>
      <trkpt lat="45.84367" lon="4.80495">
        <ele>531.4</ele>
        <time>2011-11-20T10:11:45Z</time>
      </trkpt>
      <trkpt lat="45.84367" lon="4.80498">
        <ele>531.2</ele>
        <time>2011-11-20T10:11:46Z</time>
      </trkpt>
      <trkpt lat="45.84365" lon="4.80514">
        <ele>530.2</ele>
        <time>2011-11-20T10:11:50Z</time>
      </trkpt>
      <trkpt lat="45.84365" lon="4.80518">
        <ele>530</ele>
        <time>2011-11-20T10:11:51Z</time>
      </trkpt>
      <trkpt lat="45.84361" lon="4.80534">
        <ele>528.8</ele>
        <time>2011-11-20T10:11:55Z</time>
      </trkpt>
      <trkpt lat="45.84359" lon="4.80545">
        <ele>528</ele>
        <time>2011-11-20T10:11:58Z</time>
      </trkpt>
      <trkpt lat="45.84358" lon="4.80548">
        <ele>527.6</ele>
        <time>2011-11-20T10:11:59Z</time>
      </trkpt>
      <trkpt lat="45.84358" lon="4.8055">
        <ele>527.4</ele>
        <time>2011-11-20T10:12:00Z</time>
      </trkpt>
      <trkpt lat="45.84361" lon="4.80555">
        <ele>526</ele>
        <time>2011-11-20T10:12:05Z</time>
      </trkpt>
      <trkpt lat="45.84364" lon="4.80558">
        <ele>522</ele>
        <time>2011-11-20T10:12:20Z</time>
      </trkpt>
      <trkpt lat="45.8437" lon="4.80562">
        <ele>521</ele>
        <time>2011-11-20T10:12:25Z</time>
      </trkpt>
      <trkpt lat="45.84371" lon="4.80562">
        <ele>520.6</ele>
        <time>2011-11-20T10:12:26Z</time>
      </trkpt>
      <trkpt lat="45.8438" lon="4.80566">
        <ele>519.4</ele>
        <time>2011-11-20T10:12:31Z</time>
      </trkpt>
      <trkpt lat="45.84388" lon="4.80569">
        <ele>518.6</ele>
        <time>2011-11-20T10:12:35Z</time>
      </trkpt>
      <trkpt lat="45.84391" lon="4.80571">
        <ele>518.4</ele>
        <time>2011-11-20T10:12:36Z</time>
      </trkpt>
      <trkpt lat="45.844" lon="4.80575">
        <ele>517.4</ele>
        <time>2011-11-20T10:12:40Z</time>
      </trkpt>
      <trkpt lat="45.84406" lon="4.80577">
        <ele>516.8</ele>
        <time>2011-11-20T10:12:43Z</time>
      </trkpt>
      <trkpt lat="45.84409" lon="4.80579">
        <ele>516.4</ele>
        <time>2011-11-20T10:12:45Z</time>
      </trkpt>
      <trkpt lat="45.8442" lon="4.80585">
        <ele>515.4</ele>
        <time>2011-11-20T10:12:49Z</time>
      </trkpt>
      <trkpt lat="45.84424" lon="4.80588">
        <ele>514.8</ele>
        <time>2011-11-20T10:12:51Z</time>
      </trkpt>
      <trkpt lat="45.84427" lon="4.80589">
        <ele>514.4</ele>
        <time>2011-11-20T10:12:53Z</time>
      </trkpt>
      <trkpt lat="45.84437" lon="4.80592">
        <ele>513.2</ele>
        <time>2011-11-20T10:12:57Z</time>
      </trkpt>
      <trkpt lat="45.84442" lon="4.80593">
        <ele>512.6</ele>
        <time>2011-11-20T10:12:59Z</time>
      </trkpt>
      <trkpt lat="45.84447" lon="4.80595">
        <ele>512</ele>
        <time>2011-11-20T10:13:01Z</time>
      </trkpt>
      <trkpt lat="45.84458" lon="4.80597">
        <ele>510.4</ele>
        <time>2011-11-20T10:13:06Z</time>
      </trkpt>
      <trkpt lat="45.8446" lon="4.80597">
        <ele>510</ele>
        <time>2011-11-20T10:13:07Z</time>
      </trkpt>
      <trkpt lat="45.84469" lon="4.80597">
        <ele>509</ele>
        <time>2011-11-20T10:13:10Z</time>
      </trkpt>
      <trkpt lat="45.84472" lon="4.80597">
        <ele>508.6</ele>
        <time>2011-11-20T10:13:11Z</time>
      </trkpt>
      <trkpt lat="45.8448" lon="4.80595">
        <ele>507.6</ele>
        <time>2011-11-20T10:13:14Z</time>
      </trkpt>
      <trkpt lat="45.84493" lon="4.80593">
        <ele>505.8</ele>
        <time>2011-11-20T10:13:18Z</time>
      </trkpt>
      <trkpt lat="45.84501" lon="4.80592">
        <ele>504.6</ele>
        <time>2011-11-20T10:13:21Z</time>
      </trkpt>
      <trkpt lat="45.84503" lon="4.80591">
        <ele>504.2</ele>
        <time>2011-11-20T10:13:22Z</time>
      </trkpt>
      <trkpt lat="45.8451" lon="4.80588">
        <ele>503.2</ele>
        <time>2011-11-20T10:13:24Z</time>
      </trkpt>
      <trkpt lat="45.84519" lon="4.80585">
        <ele>501.8</ele>
        <time>2011-11-20T10:13:27Z</time>
      </trkpt>
      <trkpt lat="45.84532" lon="4.80577">
        <ele>499.4</ele>
        <time>2011-11-20T10:13:32Z</time>
      </trkpt>
      <trkpt lat="45.84538" lon="4.80574">
        <ele>498.4</ele>
        <time>2011-11-20T10:13:34Z</time>
      </trkpt>
      <trkpt lat="45.84543" lon="4.80569">
        <ele>496.8</ele>
        <time>2011-11-20T10:13:37Z</time>
      </trkpt>
      <trkpt lat="45.84551" lon="4.80567">
        <ele>495</ele>
        <time>2011-11-20T10:13:41Z</time>
      </trkpt>
      <trkpt lat="45.84552" lon="4.80567">
        <ele>494.6</ele>
        <time>2011-11-20T10:13:42Z</time>
      </trkpt>
      <trkpt lat="45.84551" lon="4.80571">
        <ele>493.6</ele>
        <time>2011-11-20T10:13:46Z</time>
      </trkpt>
      <trkpt lat="45.84551" lon="4.80578">
        <ele>492.8</ele>
        <time>2011-11-20T10:13:49Z</time>
      </trkpt>
      <trkpt lat="45.8455" lon="4.80588">
        <ele>492.2</ele>
        <time>2011-11-20T10:13:52Z</time>
      </trkpt>
      <trkpt lat="45.84549" lon="4.80598">
        <ele>491.4</ele>
        <time>2011-11-20T10:13:55Z</time>
      </trkpt>
      <trkpt lat="45.84549" lon="4.80605">
        <ele>491</ele>
        <time>2011-11-20T10:13:57Z</time>
      </trkpt>
      <trkpt lat="45.8455" lon="4.8061">
        <ele>490.6</ele>
        <time>2011-11-20T10:13:59Z</time>
      </trkpt>
      <trkpt lat="45.84548" lon="4.80618">
        <ele>490</ele>
        <time>2011-11-20T10:14:02Z</time>
      </trkpt>
      <trkpt lat="45.84546" lon="4.80622">
        <ele>489.6</ele>
        <time>2011-11-20T10:14:04Z</time>
      </trkpt>
      <trkpt lat="45.84543" lon="4.8063">
        <ele>489.2</ele>
        <time>2011-11-20T10:14:07Z</time>
      </trkpt>
      <trkpt lat="45.84542" lon="4.80637">
        <ele>488.8</ele>
        <time>2011-11-20T10:14:10Z</time>
      </trkpt>
      <trkpt lat="45.84542" lon="4.80638">
        <ele>488.8</ele>
        <time>2011-11-20T10:14:11Z</time>
      </trkpt>
      <trkpt lat="45.84542" lon="4.8064">
        <ele>488.6</ele>
        <time>2011-11-20T10:14:12Z</time>
      </trkpt>
      <trkpt lat="45.84541" lon="4.80649">
        <ele>488.2</ele>
        <time>2011-11-20T10:14:16Z</time>
      </trkpt>
      <trkpt lat="45.84539" lon="4.80651">
        <ele>488.2</ele>
        <time>2011-11-20T10:14:17Z</time>
      </trkpt>
      <trkpt lat="45.84536" lon="4.80658">
        <ele>488</ele>
        <time>2011-11-20T10:14:21Z</time>
      </trkpt>
      <trkpt lat="45.84532" lon="4.80667">
        <ele>487.8</ele>
        <time>2011-11-20T10:14:26Z</time>
      </trkpt>
      <trkpt lat="45.84532" lon="4.80672">
        <ele>487.6</ele>
        <time>2011-11-20T10:14:30Z</time>
      </trkpt>
      <trkpt lat="45.84532" lon="4.80675">
        <ele>487.4</ele>
        <time>2011-11-20T10:14:31Z</time>
      </trkpt>
      <trkpt lat="45.84534" lon="4.80685">
        <ele>487</ele>
        <time>2011-11-20T10:14:36Z</time>
      </trkpt>
      <trkpt lat="45.84538" lon="4.80692">
        <ele>486.4</ele>
        <time>2011-11-20T10:14:42Z</time>
      </trkpt>
      <trkpt lat="45.84539" lon="4.80696">
        <ele>486.2</ele>
        <time>2011-11-20T10:14:45Z</time>
      </trkpt>
      <trkpt lat="45.8454" lon="4.80704">
        <ele>485.8</ele>
        <time>2011-11-20T10:14:48Z</time>
      </trkpt>
      <trkpt lat="45.84538" lon="4.80719">
        <ele>485.4</ele>
        <time>2011-11-20T10:14:54Z</time>
      </trkpt>
      <trkpt lat="45.84538" lon="4.80722">
        <ele>485.4</ele>
        <time>2011-11-20T10:14:55Z</time>
      </trkpt>
      <trkpt lat="45.84534" lon="4.80732">
        <ele>485.2</ele>
        <time>2011-11-20T10:14:59Z</time>
      </trkpt>
      <trkpt lat="45.84531" lon="4.80744">
        <ele>484.8</ele>
        <time>2011-11-20T10:15:04Z</time>
      </trkpt>
      <trkpt lat="45.84532" lon="4.80747">
        <ele>484.6</ele>
        <time>2011-11-20T10:15:05Z</time>
      </trkpt>
      <trkpt lat="45.8453" lon="4.80758">
        <ele>484</ele>
        <time>2011-11-20T10:15:10Z</time>
      </trkpt>
      <trkpt lat="45.8453" lon="4.80762">
        <ele>483.8</ele>
        <time>2011-11-20T10:15:12Z</time>
      </trkpt>
      <trkpt lat="45.84529" lon="4.80767">
        <ele>483.4</ele>
        <time>2011-11-20T10:15:14Z</time>
      </trkpt>
      <trkpt lat="45.84527" lon="4.80774">
        <ele>482.6</ele>
        <time>2011-11-20T10:15:17Z</time>
      </trkpt>
      <trkpt lat="45.84526" lon="4.80777">
        <ele>482.4</ele>
        <time>2011-11-20T10:15:18Z</time>
      </trkpt>
      <trkpt lat="45.84522" lon="4.80788">
        <ele>481.8</ele>
        <time>2011-11-20T10:15:22Z</time>
      </trkpt>
      <trkpt lat="45.84522" lon="4.80791">
        <ele>481.4</ele>
        <time>2011-11-20T10:15:24Z</time>
      </trkpt>
      <trkpt lat="45.84523" lon="4.80798">
        <ele>480.8</ele>
        <time>2011-11-20T10:15:28Z</time>
      </trkpt>
      <trkpt lat="45.84524" lon="4.808">
        <ele>480.6</ele>
        <time>2011-11-20T10:15:29Z</time>
      </trkpt>
      <trkpt lat="45.84527" lon="4.8081">
        <ele>479.4</ele>
        <time>2011-11-20T10:15:35Z</time>
      </trkpt>
      <trkpt lat="45.84534" lon="4.80818">
        <ele>475.8</ele>
        <time>2011-11-20T10:15:56Z</time>
      </trkpt>
      <trkpt lat="45.84538" lon="4.80818">
        <ele>475.4</ele>
        <time>2011-11-20T10:15:59Z</time>
      </trkpt>
      <trkpt lat="45.84538" lon="4.80818">
        <ele>475.2</ele>
        <time>2011-11-20T10:16:00Z</time>
      </trkpt>
      <trkpt lat="45.8454" lon="4.80817">
        <ele>474.8</ele>
        <time>2011-11-20T10:16:03Z</time>
      </trkpt>
      <trkpt lat="45.84543" lon="4.80814">
        <ele>473.8</ele>
        <time>2011-11-20T10:16:09Z</time>
      </trkpt>
      <trkpt lat="45.84544" lon="4.80813">
        <ele>473.6</ele>
        <time>2011-11-20T10:16:10Z</time>
      </trkpt>
      <trkpt lat="45.84547" lon="4.80811">
        <ele>473</ele>
        <time>2011-11-20T10:16:14Z</time>
      </trkpt>
      <trkpt lat="45.84548" lon="4.8081">
        <ele>472.8</ele>
        <time>2011-11-20T10:16:16Z</time>
      </trkpt>
      <trkpt lat="45.84551" lon="4.8081">
        <ele>472</ele>
        <time>2011-11-20T10:16:21Z</time>
      </trkpt>
      <trkpt lat="45.84556" lon="4.80814">
        <ele>471.2</ele>
        <time>2011-11-20T10:16:27Z</time>
      </trkpt>
      <trkpt lat="45.8456" lon="4.80826">
        <ele>470.6</ele>
        <time>2011-11-20T10:16:32Z</time>
      </trkpt>
      <trkpt lat="45.84568" lon="4.80834">
        <ele>470</ele>
        <time>2011-11-20T10:16:37Z</time>
      </trkpt>
      <trkpt lat="45.84569" lon="4.80835">
        <ele>470</ele>
        <time>2011-11-20T10:16:38Z</time>
      </trkpt>
      <trkpt lat="45.84571" lon="4.80837">
        <ele>469.8</ele>
        <time>2011-11-20T10:16:39Z</time>
      </trkpt>
      <trkpt lat="45.84575" lon="4.8084">
        <ele>469.4</ele>
        <time>2011-11-20T10:16:42Z</time>
      </trkpt>
      <trkpt lat="45.84577" lon="4.8084">
        <ele>469.4</ele>
        <time>2011-11-20T10:16:43Z</time>
      </trkpt>
      <trkpt lat="45.84586" lon="4.80843">
        <ele>468.8</ele>
        <time>2011-11-20T10:16:48Z</time>
      </trkpt>
      <trkpt lat="45.84599" lon="4.80846">
        <ele>468</ele>
        <time>2011-11-20T10:16:54Z</time>
      </trkpt>
      <trkpt lat="45.84604" lon="4.80849">
        <ele>467.6</ele>
        <time>2011-11-20T10:16:57Z</time>
      </trkpt>
      <trkpt lat="45.84606" lon="4.80852">
        <ele>467.4</ele>
        <time>2011-11-20T10:16:59Z</time>
      </trkpt>
      <trkpt lat="45.84605" lon="4.8086">
        <ele>467.2</ele>
        <time>2011-11-20T10:17:03Z</time>
      </trkpt>
      <trkpt lat="45.84599" lon="4.80867">
        <ele>467</ele>
        <time>2011-11-20T10:17:07Z</time>
      </trkpt>
      <trkpt lat="45.84598" lon="4.80868">
        <ele>467</ele>
        <time>2011-11-20T10:17:08Z</time>
      </trkpt>
      <trkpt lat="45.84596" lon="4.8087">
        <ele>466.8</ele>
        <time>2011-11-20T10:17:09Z</time>
      </trkpt>
      <trkpt lat="45.84591" lon="4.80878">
        <ele>466.6</ele>
        <time>2011-11-20T10:17:13Z</time>
      </trkpt>
      <trkpt lat="45.8459" lon="4.8088">
        <ele>466.6</ele>
        <time>2011-11-20T10:17:14Z</time>
      </trkpt>
      <trkpt lat="45.84583" lon="4.80888">
        <ele>466.4</ele>
        <time>2011-11-20T10:17:18Z</time>
      </trkpt>
      <trkpt lat="45.84583" lon="4.8089">
        <ele>466.4</ele>
        <time>2011-11-20T10:17:19Z</time>
      </trkpt>
      <trkpt lat="45.84587" lon="4.80893">
        <ele>466.2</ele>
        <time>2011-11-20T10:17:23Z</time>
      </trkpt>
      <trkpt lat="45.84588" lon="4.80894">
        <ele>466.2</ele>
        <time>2011-11-20T10:17:24Z</time>
      </trkpt>
      <trkpt lat="45.84593" lon="4.80894">
        <ele>466</ele>
        <time>2011-11-20T10:17:26Z</time>
      </trkpt>
      <trkpt lat="45.84594" lon="4.80894">
        <ele>466</ele>
        <time>2011-11-20T10:17:27Z</time>
      </trkpt>
      <trkpt lat="45.84596" lon="4.80895">
        <ele>466</ele>
        <time>2011-11-20T10:17:28Z</time>
      </trkpt>
      <trkpt lat="45.84597" lon="4.80896">
        <ele>465.8</ele>
        <time>2011-11-20T10:17:29Z</time>
      </trkpt>
      <trkpt lat="45.84605" lon="4.80903">
        <ele>465.6</ele>
        <time>2011-11-20T10:17:33Z</time>
      </trkpt>
      <trkpt lat="45.84607" lon="4.80905">
        <ele>465.6</ele>
        <time>2011-11-20T10:17:35Z</time>
      </trkpt>
      <trkpt lat="45.8461" lon="4.80908">
        <ele>465.4</ele>
        <time>2011-11-20T10:17:37Z</time>
      </trkpt>
      <trkpt lat="45.84615" lon="4.80911">
        <ele>465.2</ele>
        <time>2011-11-20T10:17:39Z</time>
      </trkpt>
      <trkpt lat="45.84623" lon="4.80917">
        <ele>464.8</ele>
        <time>2011-11-20T10:17:43Z</time>
      </trkpt>
      <trkpt lat="45.84625" lon="4.80921">
        <ele>464.8</ele>
        <time>2011-11-20T10:17:45Z</time>
      </trkpt>
      <trkpt lat="45.84625" lon="4.80931">
        <ele>464.4</ele>
        <time>2011-11-20T10:17:49Z</time>
      </trkpt>
      <trkpt lat="45.84618" lon="4.80938">
        <ele>463.8</ele>
        <time>2011-11-20T10:17:54Z</time>
      </trkpt>
      <trkpt lat="45.84615" lon="4.80946">
        <ele>463.4</ele>
        <time>2011-11-20T10:17:58Z</time>
      </trkpt>
      <trkpt lat="45.84612" lon="4.80951">
        <ele>463.2</ele>
        <time>2011-11-20T10:18:00Z</time>
      </trkpt>
      <trkpt lat="45.8461" lon="4.80955">
        <ele>463</ele>
        <time>2011-11-20T10:18:02Z</time>
      </trkpt>
      <trkpt lat="45.84606" lon="4.80963">
        <ele>462.8</ele>
        <time>2011-11-20T10:18:05Z</time>
      </trkpt>
      <trkpt lat="45.84601" lon="4.80972">
        <ele>462.2</ele>
        <time>2011-11-20T10:18:09Z</time>
      </trkpt>
      <trkpt lat="45.84599" lon="4.80977">
        <ele>462</ele>
        <time>2011-11-20T10:18:11Z</time>
      </trkpt>
      <trkpt lat="45.84593" lon="4.80994">
        <ele>461.4</ele>
        <time>2011-11-20T10:18:17Z</time>
      </trkpt>
      <trkpt lat="45.84592" lon="4.80997">
        <ele>461.2</ele>
        <time>2011-11-20T10:18:18Z</time>
      </trkpt>
      <trkpt lat="45.84586" lon="4.81015">
        <ele>460.4</ele>
        <time>2011-11-20T10:18:24Z</time>
      </trkpt>
      <trkpt lat="45.84585" lon="4.81021">
        <ele>460</ele>
        <time>2011-11-20T10:18:26Z</time>
      </trkpt>
      <trkpt lat="45.84582" lon="4.81033">
        <ele>459.4</ele>
        <time>2011-11-20T10:18:30Z</time>
      </trkpt>
      <trkpt lat="45.84578" lon="4.81045">
        <ele>458.8</ele>
        <time>2011-11-20T10:18:34Z</time>
      </trkpt>
      <trkpt lat="45.84576" lon="4.81051">
        <ele>458.4</ele>
        <time>2011-11-20T10:18:36Z</time>
      </trkpt>
      <trkpt lat="45.84565" lon="4.81064">
        <ele>457.4</ele>
        <time>2011-11-20T10:18:42Z</time>
      </trkpt>
      <trkpt lat="45.84553" lon="4.81068">
        <ele>456</ele>
        <time>2011-11-20T10:18:49Z</time>
      </trkpt>
      <trkpt lat="45.84552" lon="4.81069">
        <ele>455.8</ele>
        <time>2011-11-20T10:18:50Z</time>
      </trkpt>
      <trkpt lat="45.84551" lon="4.81076">
        <ele>455.4</ele>
        <time>2011-11-20T10:18:52Z</time>
      </trkpt>
      <trkpt lat="45.84551" lon="4.81079">
        <ele>455.2</ele>
        <time>2011-11-20T10:18:53Z</time>
      </trkpt>
      <trkpt lat="45.84551" lon="4.8109">
        <ele>454.8</ele>
        <time>2011-11-20T10:18:56Z</time>
      </trkpt>
      <trkpt lat="45.8455" lon="4.811">
        <ele>454.2</ele>
        <time>2011-11-20T10:18:59Z</time>
      </trkpt>
      <trkpt lat="45.8455" lon="4.81104">
        <ele>454</ele>
        <time>2011-11-20T10:19:00Z</time>
      </trkpt>
      <trkpt lat="45.84547" lon="4.81125">
        <ele>453</ele>
        <time>2011-11-20T10:19:06Z</time>
      </trkpt>
      <trkpt lat="45.84545" lon="4.81131">
        <ele>452.4</ele>
        <time>2011-11-20T10:19:08Z</time>
      </trkpt>
      <trkpt lat="45.84546" lon="4.81141">
        <ele>451.8</ele>
        <time>2011-11-20T10:19:11Z</time>
      </trkpt>
      <trkpt lat="45.84549" lon="4.81155">
        <ele>450.8</ele>
        <time>2011-11-20T10:19:16Z</time>
      </trkpt>
      <trkpt lat="45.8455" lon="4.81157">
        <ele>450.6</ele>
        <time>2011-11-20T10:19:17Z</time>
      </trkpt>
      <trkpt lat="45.84558" lon="4.81169">
        <ele>449.4</ele>
        <time>2011-11-20T10:19:22Z</time>
      </trkpt>
      <trkpt lat="45.84559" lon="4.81173">
        <ele>449.2</ele>
        <time>2011-11-20T10:19:23Z</time>
      </trkpt>
      <trkpt lat="45.84557" lon="4.81178">
        <ele>448.8</ele>
        <time>2011-11-20T10:19:25Z</time>
      </trkpt>
      <trkpt lat="45.84548" lon="4.81181">
        <ele>447.8</ele>
        <time>2011-11-20T10:19:30Z</time>
      </trkpt>
      <trkpt lat="45.84544" lon="4.81189">
        <ele>447</ele>
        <time>2011-11-20T10:19:34Z</time>
      </trkpt>
      <trkpt lat="45.84545" lon="4.81194">
        <ele>446.4</ele>
        <time>2011-11-20T10:19:36Z</time>
      </trkpt>
      <trkpt lat="45.84546" lon="4.81196">
        <ele>446.2</ele>
        <time>2011-11-20T10:19:37Z</time>
      </trkpt>
      <trkpt lat="45.84548" lon="4.81199">
        <ele>446</ele>
        <time>2011-11-20T10:19:38Z</time>
      </trkpt>
      <trkpt lat="45.84557" lon="4.81214">
        <ele>444.4</ele>
        <time>2011-11-20T10:19:44Z</time>
      </trkpt>
      <trkpt lat="45.84559" lon="4.81217">
        <ele>444</ele>
        <time>2011-11-20T10:19:45Z</time>
      </trkpt>
      <trkpt lat="45.84563" lon="4.81225">
        <ele>443.2</ele>
        <time>2011-11-20T10:19:48Z</time>
      </trkpt>
      <trkpt lat="45.84563" lon="4.81228">
        <ele>443</ele>
        <time>2011-11-20T10:19:49Z</time>
      </trkpt>
      <trkpt lat="45.84557" lon="4.81234">
        <ele>441.8</ele>
        <time>2011-11-20T10:19:53Z</time>
      </trkpt>
      <trkpt lat="45.84556" lon="4.81234">
        <ele>441.4</ele>
        <time>2011-11-20T10:19:54Z</time>
      </trkpt>
      <trkpt lat="45.84555" lon="4.81242">
        <ele>440.2</ele>
        <time>2011-11-20T10:19:58Z</time>
      </trkpt>
      <trkpt lat="45.84553" lon="4.81247">
        <ele>439.2</ele>
        <time>2011-11-20T10:20:01Z</time>
      </trkpt>
      <trkpt lat="45.84553" lon="4.81247">
        <ele>439</ele>
        <time>2011-11-20T10:20:02Z</time>
      </trkpt>
      <trkpt lat="45.84554" lon="4.81258">
        <ele>436.8</ele>
        <time>2011-11-20T10:20:10Z</time>
      </trkpt>
      <trkpt lat="45.84554" lon="4.8126">
        <ele>436.6</ele>
        <time>2011-11-20T10:20:11Z</time>
      </trkpt>
      <trkpt lat="45.84559" lon="4.81267">
        <ele>435.8</ele>
        <time>2011-11-20T10:20:14Z</time>
      </trkpt>
      <trkpt lat="45.84561" lon="4.81268">
        <ele>435.6</ele>
        <time>2011-11-20T10:20:15Z</time>
      </trkpt>
      <trkpt lat="45.84564" lon="4.81272">
        <ele>434.8</ele>
        <time>2011-11-20T10:20:17Z</time>
      </trkpt>
      <trkpt lat="45.84564" lon="4.81278">
        <ele>434</ele>
        <time>2011-11-20T10:20:20Z</time>
      </trkpt>
      <trkpt lat="45.84563" lon="4.8128">
        <ele>433.2</ele>
        <time>2011-11-20T10:20:23Z</time>
      </trkpt>
      <trkpt lat="45.84563" lon="4.81285">
        <ele>430.6</ele>
        <time>2011-11-20T10:20:34Z</time>
      </trkpt>
      <trkpt lat="45.84566" lon="4.8129">
        <ele>428.4</ele>
        <time>2011-11-20T10:20:43Z</time>
      </trkpt>
      <trkpt lat="45.84567" lon="4.81303">
        <ele>427</ele>
        <time>2011-11-20T10:20:49Z</time>
      </trkpt>
      <trkpt lat="45.8457" lon="4.81308">
        <ele>425.4</ele>
        <time>2011-11-20T10:20:56Z</time>
      </trkpt>
      <trkpt lat="45.84574" lon="4.8131">
        <ele>424.8</ele>
        <time>2011-11-20T10:20:59Z</time>
      </trkpt>
      <trkpt lat="45.84574" lon="4.81314">
        <ele>424.4</ele>
        <time>2011-11-20T10:21:01Z</time>
      </trkpt>
      <trkpt lat="45.84576" lon="4.81317">
        <ele>423.6</ele>
        <time>2011-11-20T10:21:05Z</time>
      </trkpt>
      <trkpt lat="45.84579" lon="4.81317">
        <ele>422.6</ele>
        <time>2011-11-20T10:21:09Z</time>
      </trkpt>
      <trkpt lat="45.8458" lon="4.81317">
        <ele>422.4</ele>
        <time>2011-11-20T10:21:10Z</time>
      </trkpt>
      <trkpt lat="45.84582" lon="4.81316">
        <ele>422</ele>
        <time>2011-11-20T10:21:11Z</time>
      </trkpt>
      <trkpt lat="45.84585" lon="4.81316">
        <ele>421.6</ele>
        <time>2011-11-20T10:21:13Z</time>
      </trkpt>
      <trkpt lat="45.84589" lon="4.81317">
        <ele>421</ele>
        <time>2011-11-20T10:21:15Z</time>
      </trkpt>
      <trkpt lat="45.84598" lon="4.8132">
        <ele>420</ele>
        <time>2011-11-20T10:21:19Z</time>
      </trkpt>
      <trkpt lat="45.846" lon="4.81319">
        <ele>419.8</ele>
        <time>2011-11-20T10:21:20Z</time>
      </trkpt>
      <trkpt lat="45.84607" lon="4.81317">
        <ele>418.4</ele>
        <time>2011-11-20T10:21:25Z</time>
      </trkpt>
      <trkpt lat="45.84608" lon="4.81321">
        <ele>417</ele>
        <time>2011-11-20T10:21:30Z</time>
      </trkpt>
      <trkpt lat="45.84608" lon="4.81323">
        <ele>416.6</ele>
        <time>2011-11-20T10:21:32Z</time>
      </trkpt>
      <trkpt lat="45.84608" lon="4.81332">
        <ele>415.4</ele>
        <time>2011-11-20T10:21:36Z</time>
      </trkpt>
      <trkpt lat="45.84608" lon="4.81334">
        <ele>415.2</ele>
        <time>2011-11-20T10:21:37Z</time>
      </trkpt>
      <trkpt lat="45.84609" lon="4.81336">
        <ele>414.6</ele>
        <time>2011-11-20T10:21:39Z</time>
      </trkpt>
      <trkpt lat="45.84612" lon="4.81339">
        <ele>413.8</ele>
        <time>2011-11-20T10:21:42Z</time>
      </trkpt>
      <trkpt lat="45.84617" lon="4.81346">
        <ele>412</ele>
        <time>2011-11-20T10:21:48Z</time>
      </trkpt>
      <trkpt lat="45.84623" lon="4.81348">
        <ele>410.8</ele>
        <time>2011-11-20T10:21:52Z</time>
      </trkpt>
      <trkpt lat="45.84625" lon="4.81348">
        <ele>409.8</ele>
        <time>2011-11-20T10:21:55Z</time>
      </trkpt>
      <trkpt lat="45.84632" lon="4.8135">
        <ele>407.2</ele>
        <time>2011-11-20T10:22:05Z</time>
      </trkpt>
      <trkpt lat="45.84634" lon="4.81349">
        <ele>406.8</ele>
        <time>2011-11-20T10:22:07Z</time>
      </trkpt>
      <trkpt lat="45.84638" lon="4.81347">
        <ele>405.8</ele>
        <time>2011-11-20T10:22:10Z</time>
      </trkpt>
      <trkpt lat="45.84639" lon="4.81346">
        <ele>405.2</ele>
        <time>2011-11-20T10:22:12Z</time>
      </trkpt>
      <trkpt lat="45.84641" lon="4.81346">
        <ele>404.8</ele>
        <time>2011-11-20T10:22:14Z</time>
      </trkpt>
      <trkpt lat="45.84641" lon="4.81345">
        <ele>404.4</ele>
        <time>2011-11-20T10:22:15Z</time>
      </trkpt>
      <trkpt lat="45.84644" lon="4.81347">
        <ele>402.2</ele>
        <time>2011-11-20T10:22:24Z</time>
      </trkpt>
      <trkpt lat="45.84645" lon="4.81347">
        <ele>398</ele>
        <time>2011-11-20T10:22:40Z</time>
      </trkpt>
      <trkpt lat="45.84644" lon="4.81351">
        <ele>397.4</ele>
        <time>2011-11-20T10:22:43Z</time>
      </trkpt>
      <trkpt lat="45.84644" lon="4.81351">
        <ele>397</ele>
        <time>2011-11-20T10:22:45Z</time>
      </trkpt>
      <trkpt lat="45.8464" lon="4.81361">
        <ele>393.8</ele>
        <time>2011-11-20T10:23:03Z</time>
      </trkpt>
      <trkpt lat="45.8464" lon="4.81363">
        <ele>393.4</ele>
        <time>2011-11-20T10:23:05Z</time>
      </trkpt>
      <trkpt lat="45.84636" lon="4.81369">
        <ele>392.4</ele>
        <time>2011-11-20T10:23:12Z</time>
      </trkpt>
      <trkpt lat="45.84636" lon="4.8137">
        <ele>392.2</ele>
        <time>2011-11-20T10:23:13Z</time>
      </trkpt>
      <trkpt lat="45.84634" lon="4.8137">
        <ele>391.4</ele>
        <time>2011-11-20T10:23:19Z</time>
      </trkpt>
      <trkpt lat="45.84634" lon="4.81372">
        <ele>388.4</ele>
        <time>2011-11-20T10:23:42Z</time>
      </trkpt>
      <trkpt lat="45.84635" lon="4.8137">
        <ele>386.6</ele>
        <time>2011-11-20T10:23:58Z</time>
      </trkpt>
      <trkpt lat="45.84637" lon="4.81373">
        <ele>385.2</ele>
        <time>2011-11-20T10:24:24Z</time>
      </trkpt>
      <trkpt lat="45.84639" lon="4.81374">
        <ele>384.4</ele>
        <time>2011-11-20T10:24:29Z</time>
      </trkpt>
      <trkpt lat="45.84642" lon="4.81375">
        <ele>383.8</ele>
        <time>2011-11-20T10:24:32Z</time>
      </trkpt>
      <trkpt lat="45.84643" lon="4.81376">
        <ele>383.6</ele>
        <time>2011-11-20T10:24:33Z</time>
      </trkpt>
      <trkpt lat="45.84647" lon="4.81377">
        <ele>382.4</ele>
        <time>2011-11-20T10:24:40Z</time>
      </trkpt>
      <trkpt lat="45.84647" lon="4.8138">
        <ele>382</ele>
        <time>2011-11-20T10:24:42Z</time>
      </trkpt>
      <trkpt lat="45.84647" lon="4.81384">
        <ele>381.6</ele>
        <time>2011-11-20T10:24:45Z</time>
      </trkpt>
      <trkpt lat="45.84647" lon="4.8139">
        <ele>379.8</ele>
        <time>2011-11-20T10:24:55Z</time>
      </trkpt>
      <trkpt lat="45.84646" lon="4.81393">
        <ele>379.6</ele>
        <time>2011-11-20T10:24:56Z</time>
      </trkpt>
      <trkpt lat="45.84647" lon="4.81396">
        <ele>379.2</ele>
        <time>2011-11-20T10:24:59Z</time>
      </trkpt>
      <trkpt lat="45.84648" lon="4.81398">
        <ele>379</ele>
        <time>2011-11-20T10:25:00Z</time>
      </trkpt>
      <trkpt lat="45.84652" lon="4.81402">
        <ele>378.6</ele>
        <time>2011-11-20T10:25:03Z</time>
      </trkpt>
      <trkpt lat="45.84654" lon="4.81403">
        <ele>378.4</ele>
        <time>2011-11-20T10:25:04Z</time>
      </trkpt>
      <trkpt lat="45.84655" lon="4.81404">
        <ele>377.4</ele>
        <time>2011-11-20T10:25:10Z</time>
      </trkpt>
      <trkpt lat="45.84656" lon="4.81413">
        <ele>377</ele>
        <time>2011-11-20T10:25:14Z</time>
      </trkpt>
      <trkpt lat="45.84652" lon="4.81423">
        <ele>376.6</ele>
        <time>2011-11-20T10:25:24Z</time>
      </trkpt>
      <trkpt lat="45.84653" lon="4.81424">
        <ele>376.2</ele>
        <time>2011-11-20T10:25:27Z</time>
      </trkpt>
      <trkpt lat="45.84656" lon="4.81425">
        <ele>376</ele>
        <time>2011-11-20T10:25:29Z</time>
      </trkpt>
      <trkpt lat="45.84659" lon="4.81427">
        <ele>374.8</ele>
        <time>2011-11-20T10:25:38Z</time>
      </trkpt>
      <trkpt lat="45.84659" lon="4.81428">
        <ele>374.8</ele>
        <time>2011-11-20T10:25:39Z</time>
      </trkpt>
      <trkpt lat="45.84663" lon="4.81433">
        <ele>374.2</ele>
        <time>2011-11-20T10:25:43Z</time>
      </trkpt>
      <trkpt lat="45.84665" lon="4.81434">
        <ele>374</ele>
        <time>2011-11-20T10:25:45Z</time>
      </trkpt>
      <trkpt lat="45.84667" lon="4.81435">
        <ele>373.8</ele>
        <time>2011-11-20T10:25:46Z</time>
      </trkpt>
      <trkpt lat="45.84664" lon="4.81428">
        <ele>371.8</ele>
        <time>2011-11-20T10:25:59Z</time>
      </trkpt>
      <trkpt lat="45.84661" lon="4.81425">
        <ele>371.4</ele>
        <time>2011-11-20T10:26:02Z</time>
      </trkpt>
      <trkpt lat="45.84658" lon="4.81419">
        <ele>370.8</ele>
        <time>2011-11-20T10:26:05Z</time>
      </trkpt>
      <trkpt lat="45.84658" lon="4.81417">
        <ele>370.8</ele>
        <time>2011-11-20T10:26:06Z</time>
      </trkpt>
      <trkpt lat="45.84658" lon="4.81418">
        <ele>370.6</ele>
        <time>2011-11-20T10:26:07Z</time>
      </trkpt>
      <trkpt lat="45.84658" lon="4.81419">
        <ele>370.6</ele>
        <time>2011-11-20T10:26:08Z</time>
      </trkpt>
      <trkpt lat="45.84657" lon="4.8142">
        <ele>370.6</ele>
        <time>2011-11-20T10:26:09Z</time>
      </trkpt>
      <trkpt lat="45.84648" lon="4.81419">
        <ele>370.2</ele>
        <time>2011-11-20T10:26:13Z</time>
      </trkpt>
      <trkpt lat="45.84647" lon="4.8142">
        <ele>370.2</ele>
        <time>2011-11-20T10:26:14Z</time>
      </trkpt>
      <trkpt lat="45.84649" lon="4.81421">
        <ele>370.2</ele>
        <time>2011-11-20T10:26:19Z</time>
      </trkpt>
      <trkpt lat="45.84658" lon="4.81424">
        <ele>368.4</ele>
        <time>2011-11-20T10:26:32Z</time>
      </trkpt>
      <trkpt lat="45.8466" lon="4.81424">
        <ele>368</ele>
        <time>2011-11-20T10:26:33Z</time>
      </trkpt>
      <trkpt lat="45.84658" lon="4.81421">
        <ele>367.8</ele>
        <time>2011-11-20T10:26:34Z</time>
      </trkpt>
      <trkpt lat="45.84654" lon="4.81424">
        <ele>367.6</ele>
        <time>2011-11-20T10:26:35Z</time>
      </trkpt>
      <trkpt lat="45.84648" lon="4.81426">
        <ele>367</ele>
        <time>2011-11-20T10:26:38Z</time>
      </trkpt>
      <trkpt lat="45.8464" lon="4.81432">
        <ele>365.8</ele>
        <time>2011-11-20T10:26:43Z</time>
      </trkpt>
      <trkpt lat="45.84639" lon="4.81433">
        <ele>365.6</ele>
        <time>2011-11-20T10:26:44Z</time>
      </trkpt>
      <trkpt lat="45.8463" lon="4.8144">
        <ele>364</ele>
        <time>2011-11-20T10:26:51Z</time>
      </trkpt>
      <trkpt lat="45.84623" lon="4.81444">
        <ele>362.6</ele>
        <time>2011-11-20T10:26:56Z</time>
      </trkpt>
      <trkpt lat="45.84622" lon="4.81445">
        <ele>362.4</ele>
        <time>2011-11-20T10:26:57Z</time>
      </trkpt>
      <trkpt lat="45.84615" lon="4.8145">
        <ele>360.6</ele>
        <time>2011-11-20T10:27:03Z</time>
      </trkpt>
      <trkpt lat="45.84609" lon="4.81452">
        <ele>359</ele>
        <time>2011-11-20T10:27:09Z</time>
      </trkpt>
      <trkpt lat="45.84607" lon="4.81454">
        <ele>358.4</ele>
        <time>2011-11-20T10:27:11Z</time>
      </trkpt>
      <trkpt lat="45.84606" lon="4.81456">
        <ele>358</ele>
        <time>2011-11-20T10:27:13Z</time>
      </trkpt>
      <trkpt lat="45.84603" lon="4.81458">
        <ele>357.2</ele>
        <time>2011-11-20T10:27:16Z</time>
      </trkpt>
      <trkpt lat="45.84602" lon="4.81459">
        <ele>356.6</ele>
        <time>2011-11-20T10:27:18Z</time>
      </trkpt>
      <trkpt lat="45.84601" lon="4.8146">
        <ele>356.2</ele>
        <time>2011-11-20T10:27:20Z</time>
      </trkpt>
      <trkpt lat="45.84598" lon="4.81461">
        <ele>355.4</ele>
        <time>2011-11-20T10:27:23Z</time>
      </trkpt>
      <trkpt lat="45.84593" lon="4.81461">
        <ele>354.6</ele>
        <time>2011-11-20T10:27:26Z</time>
      </trkpt>
      <trkpt lat="45.8459" lon="4.81462">
        <ele>354.2</ele>
        <time>2011-11-20T10:27:28Z</time>
      </trkpt>
      <trkpt lat="45.84587" lon="4.81463">
        <ele>353.6</ele>
        <time>2011-11-20T10:27:30Z</time>
      </trkpt>
      <trkpt lat="45.84582" lon="4.81467">
        <ele>353</ele>
        <time>2011-11-20T10:27:33Z</time>
      </trkpt>
      <trkpt lat="45.84575" lon="4.81471">
        <ele>351.8</ele>
        <time>2011-11-20T10:27:38Z</time>
      </trkpt>
      <trkpt lat="45.84573" lon="4.81473">
        <ele>351</ele>
        <time>2011-11-20T10:27:41Z</time>
      </trkpt>
      <trkpt lat="45.84573" lon="4.81475">
        <ele>350.6</ele>
        <time>2011-11-20T10:27:43Z</time>
      </trkpt>
      <trkpt lat="45.84573" lon="4.81476">
        <ele>350.4</ele>
        <time>2011-11-20T10:27:44Z</time>
      </trkpt>
      <trkpt lat="45.84576" lon="4.81479">
        <ele>349.4</ele>
        <time>2011-11-20T10:27:49Z</time>
      </trkpt>
      <trkpt lat="45.84578" lon="4.81482">
        <ele>347.8</ele>
        <time>2011-11-20T10:27:56Z</time>
      </trkpt>
      <trkpt lat="45.84577" lon="4.81485">
        <ele>346.8</ele>
        <time>2011-11-20T10:28:01Z</time>
      </trkpt>
      <trkpt lat="45.84576" lon="4.81487">
        <ele>346.4</ele>
        <time>2011-11-20T10:28:03Z</time>
      </trkpt>
      <trkpt lat="45.84575" lon="4.81493">
        <ele>346</ele>
        <time>2011-11-20T10:28:05Z</time>
      </trkpt>
      <trkpt lat="45.84574" lon="4.81495">
        <ele>345.8</ele>
        <time>2011-11-20T10:28:06Z</time>
      </trkpt>
      <trkpt lat="45.84572" lon="4.81507">
        <ele>345</ele>
        <time>2011-11-20T10:28:11Z</time>
      </trkpt>
      <trkpt lat="45.8457" lon="4.81516">
        <ele>344.2</ele>
        <time>2011-11-20T10:28:15Z</time>
      </trkpt>
      <trkpt lat="45.8457" lon="4.81517">
        <ele>344</ele>
        <time>2011-11-20T10:28:16Z</time>
      </trkpt>
      <trkpt lat="45.8457" lon="4.81519">
        <ele>343.8</ele>
        <time>2011-11-20T10:28:17Z</time>
      </trkpt>
      <trkpt lat="45.84569" lon="4.81526">
        <ele>343</ele>
        <time>2011-11-20T10:28:20Z</time>
      </trkpt>
      <trkpt lat="45.84569" lon="4.8153">
        <ele>342.6</ele>
        <time>2011-11-20T10:28:22Z</time>
      </trkpt>
      <trkpt lat="45.84569" lon="4.81536">
        <ele>341.8</ele>
        <time>2011-11-20T10:28:25Z</time>
      </trkpt>
      <trkpt lat="45.84569" lon="4.81542">
        <ele>341.2</ele>
        <time>2011-11-20T10:28:28Z</time>
      </trkpt>
      <trkpt lat="45.84569" lon="4.81546">
        <ele>340.6</ele>
        <time>2011-11-20T10:28:30Z</time>
      </trkpt>
      <trkpt lat="45.8457" lon="4.81548">
        <ele>340.4</ele>
        <time>2011-11-20T10:28:31Z</time>
      </trkpt>
      <trkpt lat="45.84571" lon="4.81557">
        <ele>339.4</ele>
        <time>2011-11-20T10:28:36Z</time>
      </trkpt>
      <trkpt lat="45.84574" lon="4.81562">
        <ele>338.6</ele>
        <time>2011-11-20T10:28:40Z</time>
      </trkpt>
      <trkpt lat="45.84578" lon="4.81568">
        <ele>338</ele>
        <time>2011-11-20T10:28:44Z</time>
      </trkpt>
      <trkpt lat="45.84578" lon="4.8157">
        <ele>337.8</ele>
        <time>2011-11-20T10:28:45Z</time>
      </trkpt>
      <trkpt lat="45.84586" lon="4.81579">
        <ele>337.4</ele>
        <time>2011-11-20T10:28:50Z</time>
      </trkpt>
      <trkpt lat="45.84587" lon="4.81584">
        <ele>337.2</ele>
        <time>2011-11-20T10:28:52Z</time>
      </trkpt>
      <trkpt lat="45.84588" lon="4.81589">
        <ele>337</ele>
        <time>2011-11-20T10:28:54Z</time>
      </trkpt>
      <trkpt lat="45.84589" lon="4.8159">
        <ele>336.8</ele>
        <time>2011-11-20T10:28:55Z</time>
      </trkpt>
      <trkpt lat="45.84591" lon="4.81594">
        <ele>336.4</ele>
        <time>2011-11-20T10:29:00Z</time>
      </trkpt>
      <trkpt lat="45.8459" lon="4.81599">
        <ele>335.4</ele>
        <time>2011-11-20T10:29:07Z</time>
      </trkpt>
      <trkpt lat="45.84587" lon="4.81602">
        <ele>334.8</ele>
        <time>2011-11-20T10:29:12Z</time>
      </trkpt>
      <trkpt lat="45.84586" lon="4.81605">
        <ele>334.2</ele>
        <time>2011-11-20T10:29:16Z</time>
      </trkpt>
      <trkpt lat="45.84585" lon="4.8161">
        <ele>334</ele>
        <time>2011-11-20T10:29:18Z</time>
      </trkpt>
      <trkpt lat="45.84585" lon="4.81612">
        <ele>333.8</ele>
        <time>2011-11-20T10:29:19Z</time>
      </trkpt>
      <trkpt lat="45.84588" lon="4.81627">
        <ele>333.2</ele>
        <time>2011-11-20T10:29:26Z</time>
      </trkpt>
      <trkpt lat="45.84588" lon="4.8163">
        <ele>332.6</ele>
        <time>2011-11-20T10:29:29Z</time>
      </trkpt>
      <trkpt lat="45.84588" lon="4.81633">
        <ele>332.2</ele>
        <time>2011-11-20T10:29:31Z</time>
      </trkpt>
      <trkpt lat="45.84587" lon="4.81637">
        <ele>331.4</ele>
        <time>2011-11-20T10:29:35Z</time>
      </trkpt>
      <trkpt lat="45.84586" lon="4.81639">
        <ele>331.2</ele>
        <time>2011-11-20T10:29:36Z</time>
      </trkpt>
      <trkpt lat="45.84583" lon="4.81649">
        <ele>330.8</ele>
        <time>2011-11-20T10:29:39Z</time>
      </trkpt>
      <trkpt lat="45.84583" lon="4.81659">
        <ele>330.4</ele>
        <time>2011-11-20T10:29:42Z</time>
      </trkpt>
      <trkpt lat="45.84584" lon="4.81661">
        <ele>330.2</ele>
        <time>2011-11-20T10:29:43Z</time>
      </trkpt>
      <trkpt lat="45.84585" lon="4.81665">
        <ele>330</ele>
        <time>2011-11-20T10:29:44Z</time>
      </trkpt>
      <trkpt lat="45.84589" lon="4.81681">
        <ele>329</ele>
        <time>2011-11-20T10:29:50Z</time>
      </trkpt>
      <trkpt lat="45.8459" lon="4.81687">
        <ele>328.8</ele>
        <time>2011-11-20T10:29:52Z</time>
      </trkpt>
      <trkpt lat="45.8459" lon="4.8169">
        <ele>328.6</ele>
        <time>2011-11-20T10:29:53Z</time>
      </trkpt>
      <trkpt lat="45.8459" lon="4.81696">
        <ele>328.2</ele>
        <time>2011-11-20T10:29:56Z</time>
      </trkpt>
      <trkpt lat="45.84591" lon="4.81698">
        <ele>328.2</ele>
        <time>2011-11-20T10:29:57Z</time>
      </trkpt>
      <trkpt lat="45.84591" lon="4.81705">
        <ele>327.6</ele>
        <time>2011-11-20T10:30:01Z</time>
      </trkpt>
      <trkpt lat="45.84592" lon="4.81707">
        <ele>327.4</ele>
        <time>2011-11-20T10:30:02Z</time>
      </trkpt>
      <trkpt lat="45.84594" lon="4.81711">
        <ele>327.2</ele>
        <time>2011-11-20T10:30:04Z</time>
      </trkpt>
      <trkpt lat="45.84594" lon="4.81713">
        <ele>327</ele>
        <time>2011-11-20T10:30:06Z</time>
      </trkpt>
      <trkpt lat="45.84594" lon="4.81714">
        <ele>327</ele>
        <time>2011-11-20T10:30:07Z</time>
      </trkpt>
      <trkpt lat="45.84595" lon="4.81715">
        <ele>326.8</ele>
        <time>2011-11-20T10:30:08Z</time>
      </trkpt>
      <trkpt lat="45.84595" lon="4.81715">
        <ele>326.8</ele>
        <time>2011-11-20T10:30:09Z</time>
      </trkpt>
      <trkpt lat="45.84596" lon="4.81715">
        <ele>326.6</ele>
        <time>2011-11-20T10:30:11Z</time>
      </trkpt>
      <trkpt lat="45.84597" lon="4.81719">
        <ele>326.2</ele>
        <time>2011-11-20T10:30:15Z</time>
      </trkpt>
      <trkpt lat="45.84602" lon="4.81721">
        <ele>325.8</ele>
        <time>2011-11-20T10:30:20Z</time>
      </trkpt>
      <trkpt lat="45.84604" lon="4.81724">
        <ele>325.6</ele>
        <time>2011-11-20T10:30:23Z</time>
      </trkpt>
      <trkpt lat="45.84605" lon="4.81728">
        <ele>325.4</ele>
        <time>2011-11-20T10:30:26Z</time>
      </trkpt>
      <trkpt lat="45.84608" lon="4.81731">
        <ele>325.4</ele>
        <time>2011-11-20T10:30:28Z</time>
      </trkpt>
      <trkpt lat="45.84608" lon="4.81732">
        <ele>325.4</ele>
        <time>2011-11-20T10:30:29Z</time>
      </trkpt>
      <trkpt lat="45.84609" lon="4.81737">
        <ele>325.2</ele>
        <time>2011-11-20T10:30:32Z</time>
      </trkpt>
      <trkpt lat="45.8461" lon="4.81742">
        <ele>325.2</ele>
        <time>2011-11-20T10:30:34Z</time>
      </trkpt>
      <trkpt lat="45.84611" lon="4.8175">
        <ele>325</ele>
        <time>2011-11-20T10:30:37Z</time>
      </trkpt>
      <trkpt lat="45.84614" lon="4.81756">
        <ele>325</ele>
        <time>2011-11-20T10:30:40Z</time>
      </trkpt>
      <trkpt lat="45.84616" lon="4.8176">
        <ele>325</ele>
        <time>2011-11-20T10:30:42Z</time>
      </trkpt>
      <trkpt lat="45.84618" lon="4.81764">
        <ele>325</ele>
        <time>2011-11-20T10:30:46Z</time>
      </trkpt>
      <trkpt lat="45.8462" lon="4.81766">
        <ele>325</ele>
        <time>2011-11-20T10:30:49Z</time>
      </trkpt>
      <trkpt lat="45.84622" lon="4.81768">
        <ele>325</ele>
        <time>2011-11-20T10:30:51Z</time>
      </trkpt>
      <trkpt lat="45.84622" lon="4.81768">
        <ele>325</ele>
        <time>2011-11-20T10:30:52Z</time>
      </trkpt>
      <trkpt lat="45.84626" lon="4.81766">
        <ele>325.8</ele>
        <time>2011-11-20T10:30:59Z</time>
      </trkpt>
      <trkpt lat="45.84627" lon="4.81767">
        <ele>326</ele>
        <time>2011-11-20T10:31:01Z</time>
      </trkpt>
      <trkpt lat="45.84628" lon="4.81768">
        <ele>326</ele>
        <time>2011-11-20T10:31:03Z</time>
      </trkpt>
      <trkpt lat="45.8463" lon="4.81771">
        <ele>326.2</ele>
        <time>2011-11-20T10:31:06Z</time>
      </trkpt>
      <trkpt lat="45.84631" lon="4.81772">
        <ele>326.4</ele>
        <time>2011-11-20T10:31:08Z</time>
      </trkpt>
      <trkpt lat="45.84634" lon="4.81776">
        <ele>326.4</ele>
        <time>2011-11-20T10:31:11Z</time>
      </trkpt>
      <trkpt lat="45.84634" lon="4.81778">
        <ele>326.6</ele>
        <time>2011-11-20T10:31:13Z</time>
      </trkpt>
      <trkpt lat="45.84634" lon="4.8178">
        <ele>326.8</ele>
        <time>2011-11-20T10:31:15Z</time>
      </trkpt>
      <trkpt lat="45.84636" lon="4.81783">
        <ele>327.8</ele>
        <time>2011-11-20T10:31:19Z</time>
      </trkpt>
      <trkpt lat="45.84637" lon="4.81788">
        <ele>328.8</ele>
        <time>2011-11-20T10:31:27Z</time>
      </trkpt>
      <trkpt lat="45.8464" lon="4.81792">
        <ele>329.4</ele>
        <time>2011-11-20T10:31:32Z</time>
      </trkpt>
      <trkpt lat="45.8464" lon="4.81793">
        <ele>329.4</ele>
        <time>2011-11-20T10:31:33Z</time>
      </trkpt>
      <trkpt lat="45.84642" lon="4.81801">
        <ele>330.2</ele>
        <time>2011-11-20T10:31:39Z</time>
      </trkpt>
      <trkpt lat="45.84642" lon="4.81801">
        <ele>330.2</ele>
        <time>2011-11-20T10:31:40Z</time>
      </trkpt>
      <trkpt lat="45.84644" lon="4.81802">
        <ele>330.6</ele>
        <time>2011-11-20T10:31:42Z</time>
      </trkpt>
      <trkpt lat="45.84645" lon="4.81805">
        <ele>331</ele>
        <time>2011-11-20T10:31:45Z</time>
      </trkpt>
      <trkpt lat="45.84646" lon="4.81806">
        <ele>331.2</ele>
        <time>2011-11-20T10:31:47Z</time>
      </trkpt>
      <trkpt lat="45.84646" lon="4.81808">
        <ele>331.4</ele>
        <time>2011-11-20T10:31:48Z</time>
      </trkpt>
      <trkpt lat="45.84647" lon="4.81809">
        <ele>331.6</ele>
        <time>2011-11-20T10:31:49Z</time>
      </trkpt>
      <trkpt lat="45.84647" lon="4.81814">
        <ele>332.2</ele>
        <time>2011-11-20T10:31:52Z</time>
      </trkpt>
      <trkpt lat="45.84647" lon="4.81815">
        <ele>332.4</ele>
        <time>2011-11-20T10:31:53Z</time>
      </trkpt>
      <trkpt lat="45.84649" lon="4.81821">
        <ele>332.6</ele>
        <time>2011-11-20T10:31:56Z</time>
      </trkpt>
      <trkpt lat="45.8465" lon="4.81823">
        <ele>332.8</ele>
        <time>2011-11-20T10:31:57Z</time>
      </trkpt>
      <trkpt lat="45.84652" lon="4.81827">
        <ele>333.2</ele>
        <time>2011-11-20T10:32:00Z</time>
      </trkpt>
      <trkpt lat="45.84653" lon="4.81829">
        <ele>333.6</ele>
        <time>2011-11-20T10:32:02Z</time>
      </trkpt>
      <trkpt lat="45.84654" lon="4.81833">
        <ele>334.2</ele>
        <time>2011-11-20T10:32:06Z</time>
      </trkpt>
      <trkpt lat="45.84654" lon="4.81835">
        <ele>334.2</ele>
        <time>2011-11-20T10:32:09Z</time>
      </trkpt>
      <trkpt lat="45.84655" lon="4.81836">
        <ele>334.4</ele>
        <time>2011-11-20T10:32:13Z</time>
      </trkpt>
      <trkpt lat="45.84658" lon="4.81837">
        <ele>334.2</ele>
        <time>2011-11-20T10:32:18Z</time>
      </trkpt>
      <trkpt lat="45.84658" lon="4.81837">
        <ele>334.2</ele>
        <time>2011-11-20T10:32:19Z</time>
      </trkpt>
      <trkpt lat="45.84659" lon="4.81839">
        <ele>334.2</ele>
        <time>2011-11-20T10:32:23Z</time>
      </trkpt>
      <trkpt lat="45.84659" lon="4.81843">
        <ele>334</ele>
        <time>2011-11-20T10:32:26Z</time>
      </trkpt>
      <trkpt lat="45.84659" lon="4.81845">
        <ele>334</ele>
        <time>2011-11-20T10:32:27Z</time>
      </trkpt>
      <trkpt lat="45.84661" lon="4.81854">
        <ele>333.8</ele>
        <time>2011-11-20T10:32:32Z</time>
      </trkpt>
      <trkpt lat="45.84662" lon="4.81857">
        <ele>333.6</ele>
        <time>2011-11-20T10:32:35Z</time>
      </trkpt>
      <trkpt lat="45.84663" lon="4.81858">
        <ele>333.6</ele>
        <time>2011-11-20T10:32:36Z</time>
      </trkpt>
      <trkpt lat="45.84663" lon="4.81859">
        <ele>333.6</ele>
        <time>2011-11-20T10:32:37Z</time>
      </trkpt>
      <trkpt lat="45.84667" lon="4.81873">
        <ele>333.4</ele>
        <time>2011-11-20T10:32:42Z</time>
      </trkpt>
      <trkpt lat="45.84667" lon="4.81875">
        <ele>333.4</ele>
        <time>2011-11-20T10:32:43Z</time>
      </trkpt>
      <trkpt lat="45.84668" lon="4.81881">
        <ele>333.2</ele>
        <time>2011-11-20T10:32:46Z</time>
      </trkpt>
      <trkpt lat="45.84669" lon="4.81881">
        <ele>333.2</ele>
        <time>2011-11-20T10:32:47Z</time>
      </trkpt>
      <trkpt lat="45.84671" lon="4.81882">
        <ele>333</ele>
        <time>2011-11-20T10:32:51Z</time>
      </trkpt>
      <trkpt lat="45.84671" lon="4.81883">
        <ele>333</ele>
        <time>2011-11-20T10:32:52Z</time>
      </trkpt>
      <trkpt lat="45.84674" lon="4.81883">
        <ele>332.8</ele>
        <time>2011-11-20T10:32:53Z</time>
      </trkpt>
      <trkpt lat="45.84678" lon="4.81883">
        <ele>332.6</ele>
        <time>2011-11-20T10:32:57Z</time>
      </trkpt>
      <trkpt lat="45.8468" lon="4.81879">
        <ele>332.2</ele>
        <time>2011-11-20T10:33:05Z</time>
      </trkpt>
      <trkpt lat="45.84681" lon="4.81878">
        <ele>332.2</ele>
        <time>2011-11-20T10:33:06Z</time>
      </trkpt>
      <trkpt lat="45.84681" lon="4.81876">
        <ele>332.2</ele>
        <time>2011-11-20T10:33:09Z</time>
      </trkpt>
      <trkpt lat="45.84682" lon="4.81872">
        <ele>332.2</ele>
        <time>2011-11-20T10:33:14Z</time>
      </trkpt>
      <trkpt lat="45.84684" lon="4.81872">
        <ele>332</ele>
        <time>2011-11-20T10:33:17Z</time>
      </trkpt>
      <trkpt lat="45.84687" lon="4.81872">
        <ele>332.2</ele>
        <time>2011-11-20T10:33:20Z</time>
      </trkpt>
      <trkpt lat="45.84689" lon="4.81868">
        <ele>332.6</ele>
        <time>2011-11-20T10:33:28Z</time>
      </trkpt>
      <trkpt lat="45.84692" lon="4.81868">
        <ele>333</ele>
        <time>2011-11-20T10:33:33Z</time>
      </trkpt>
      <trkpt lat="45.84693" lon="4.81871">
        <ele>333.6</ele>
        <time>2011-11-20T10:33:38Z</time>
      </trkpt>
      <trkpt lat="45.84695" lon="4.81871">
        <ele>334</ele>
        <time>2011-11-20T10:33:43Z</time>
      </trkpt>
      <trkpt lat="45.84698" lon="4.81873">
        <ele>335</ele>
        <time>2011-11-20T10:33:51Z</time>
      </trkpt>
      <trkpt lat="45.84699" lon="4.81874">
        <ele>335.2</ele>
        <time>2011-11-20T10:33:52Z</time>
      </trkpt>
      <trkpt lat="45.84701" lon="4.8188">
        <ele>336</ele>
        <time>2011-11-20T10:33:57Z</time>
      </trkpt>
      <trkpt lat="45.84706" lon="4.81884">
        <ele>336.6</ele>
        <time>2011-11-20T10:34:01Z</time>
      </trkpt>
      <trkpt lat="45.84707" lon="4.81885">
        <ele>336.6</ele>
        <time>2011-11-20T10:34:02Z</time>
      </trkpt>
      <trkpt lat="45.84712" lon="4.81883">
        <ele>337</ele>
        <time>2011-11-20T10:34:09Z</time>
      </trkpt>
      <trkpt lat="45.84715" lon="4.81882">
        <ele>336.8</ele>
        <time>2011-11-20T10:34:11Z</time>
      </trkpt>
      <trkpt lat="45.84721" lon="4.81878">
        <ele>336.6</ele>
        <time>2011-11-20T10:34:16Z</time>
      </trkpt>
      <trkpt lat="45.84724" lon="4.81877">
        <ele>336.4</ele>
        <time>2011-11-20T10:34:18Z</time>
      </trkpt>
      <trkpt lat="45.84729" lon="4.81874">
        <ele>336</ele>
        <time>2011-11-20T10:34:21Z</time>
      </trkpt>
      <trkpt lat="45.84732" lon="4.81872">
        <ele>335.8</ele>
        <time>2011-11-20T10:34:23Z</time>
      </trkpt>
      <trkpt lat="45.84733" lon="4.81871">
        <ele>335.8</ele>
        <time>2011-11-20T10:34:24Z</time>
      </trkpt>
      <trkpt lat="45.84735" lon="4.81867">
        <ele>335.6</ele>
        <time>2011-11-20T10:34:26Z</time>
      </trkpt>
      <trkpt lat="45.84737" lon="4.81866">
        <ele>335.4</ele>
        <time>2011-11-20T10:34:28Z</time>
      </trkpt>
      <trkpt lat="45.84743" lon="4.81862">
        <ele>335</ele>
        <time>2011-11-20T10:34:32Z</time>
      </trkpt>
      <trkpt lat="45.84745" lon="4.81861">
        <ele>334.8</ele>
        <time>2011-11-20T10:34:34Z</time>
      </trkpt>
      <trkpt lat="45.84748" lon="4.81862">
        <ele>334.6</ele>
        <time>2011-11-20T10:34:36Z</time>
      </trkpt>
      <trkpt lat="45.8475" lon="4.81864">
        <ele>334.6</ele>
        <time>2011-11-20T10:34:37Z</time>
      </trkpt>
      <trkpt lat="45.84757" lon="4.81864">
        <ele>334.2</ele>
        <time>2011-11-20T10:34:42Z</time>
      </trkpt>
      <trkpt lat="45.84761" lon="4.81862">
        <ele>333.8</ele>
        <time>2011-11-20T10:34:44Z</time>
      </trkpt>
      <trkpt lat="45.84764" lon="4.81861">
        <ele>333.6</ele>
        <time>2011-11-20T10:34:46Z</time>
      </trkpt>
      <trkpt lat="45.84767" lon="4.81862">
        <ele>333.6</ele>
        <time>2011-11-20T10:34:47Z</time>
      </trkpt>
      <trkpt lat="45.8477" lon="4.81863">
        <ele>333.6</ele>
        <time>2011-11-20T10:34:50Z</time>
      </trkpt>
      <trkpt lat="45.84774" lon="4.81861">
        <ele>333.4</ele>
        <time>2011-11-20T10:34:53Z</time>
      </trkpt>
      <trkpt lat="45.84782" lon="4.81862">
        <ele>333.2</ele>
        <time>2011-11-20T10:34:57Z</time>
      </trkpt>
      <trkpt lat="45.84783" lon="4.81862">
        <ele>333.2</ele>
        <time>2011-11-20T10:34:58Z</time>
      </trkpt>
      <trkpt lat="45.84785" lon="4.81861">
        <ele>333.2</ele>
        <time>2011-11-20T10:35:00Z</time>
      </trkpt>
      <trkpt lat="45.84787" lon="4.81858">
        <ele>333</ele>
        <time>2011-11-20T10:35:03Z</time>
      </trkpt>
      <trkpt lat="45.84789" lon="4.81852">
        <ele>333</ele>
        <time>2011-11-20T10:35:08Z</time>
      </trkpt>
      <trkpt lat="45.84784" lon="4.81841">
        <ele>332.8</ele>
        <time>2011-11-20T10:35:15Z</time>
      </trkpt>
      <trkpt lat="45.84782" lon="4.81839">
        <ele>332.8</ele>
        <time>2011-11-20T10:35:18Z</time>
      </trkpt>
      <trkpt lat="45.8478" lon="4.81838">
        <ele>332.8</ele>
        <time>2011-11-20T10:35:20Z</time>
      </trkpt>
      <trkpt lat="45.8478" lon="4.81833">
        <ele>332.6</ele>
        <time>2011-11-20T10:35:25Z</time>
      </trkpt>
      <trkpt lat="45.84781" lon="4.81831">
        <ele>332.6</ele>
        <time>2011-11-20T10:35:27Z</time>
      </trkpt>
      <trkpt lat="45.8478" lon="4.81828">
        <ele>333</ele>
        <time>2011-11-20T10:35:31Z</time>
      </trkpt>
      <trkpt lat="45.84776" lon="4.81832">
        <ele>341.2</ele>
        <time>2011-11-20T10:36:12Z</time>
      </trkpt>
      <trkpt lat="45.84778" lon="4.81829">
        <ele>341.6</ele>
        <time>2011-11-20T10:36:16Z</time>
      </trkpt>
      <trkpt lat="45.8478" lon="4.81839">
        <ele>343</ele>
        <time>2011-11-20T10:36:24Z</time>
      </trkpt>
      <trkpt lat="45.84772" lon="4.8183">
        <ele>345</ele>
        <time>2011-11-20T10:36:48Z</time>
      </trkpt>
      <trkpt lat="45.84778" lon="4.81832">
        <ele>345.8</ele>
        <time>2011-11-20T10:37:16Z</time>
      </trkpt>
      <trkpt lat="45.84775" lon="4.81834">
        <ele>347.6</ele>
        <time>2011-11-20T10:37:27Z</time>
      </trkpt>
      <trkpt lat="45.84775" lon="4.81829">
        <ele>347.8</ele>
        <time>2011-11-20T10:37:30Z</time>
      </trkpt>
      <trkpt lat="45.84775" lon="4.81825">
        <ele>347.8</ele>
        <time>2011-11-20T10:37:32Z</time>
      </trkpt>
      <trkpt lat="45.84775" lon="4.81825">
        <ele>348</ele>
        <time>2011-11-20T10:37:33Z</time>
      </trkpt>
      <trkpt lat="45.84775" lon="4.81824">
        <ele>348</ele>
        <time>2011-11-20T10:37:34Z</time>
      </trkpt>
      <trkpt lat="45.84775" lon="4.81822">
        <ele>347.8</ele>
        <time>2011-11-20T10:37:36Z</time>
      </trkpt>
      <trkpt lat="45.84775" lon="4.81817">
        <ele>347.8</ele>
        <time>2011-11-20T10:37:39Z</time>
      </trkpt>
      <trkpt lat="45.84775" lon="4.81815">
        <ele>347.8</ele>
        <time>2011-11-20T10:37:41Z</time>
      </trkpt>
      <trkpt lat="45.84774" lon="4.8181">
        <ele>347.8</ele>
        <time>2011-11-20T10:37:44Z</time>
      </trkpt>
      <trkpt lat="45.84774" lon="4.81808">
        <ele>347.6</ele>
        <time>2011-11-20T10:37:45Z</time>
      </trkpt>
      <trkpt lat="45.84775" lon="4.81804">
        <ele>347.6</ele>
        <time>2011-11-20T10:37:49Z</time>
      </trkpt>
      <trkpt lat="45.84776" lon="4.81802">
        <ele>347.6</ele>
        <time>2011-11-20T10:37:50Z</time>
      </trkpt>
      <trkpt lat="45.84779" lon="4.81801">
        <ele>347.8</ele>
        <time>2011-11-20T10:37:53Z</time>
      </trkpt>
      <trkpt lat="45.8478" lon="4.81802">
        <ele>348.4</ele>
        <time>2011-11-20T10:37:55Z</time>
      </trkpt>
      <trkpt lat="45.84783" lon="4.81797">
        <ele>349.4</ele>
        <time>2011-11-20T10:38:01Z</time>
      </trkpt>
      <trkpt lat="45.84784" lon="4.81796">
        <ele>349.4</ele>
        <time>2011-11-20T10:38:02Z</time>
      </trkpt>
      <trkpt lat="45.84787" lon="4.81795">
        <ele>350.2</ele>
        <time>2011-11-20T10:38:08Z</time>
      </trkpt>
      <trkpt lat="45.84788" lon="4.81794">
        <ele>350.4</ele>
        <time>2011-11-20T10:38:09Z</time>
      </trkpt>
      <trkpt lat="45.84791" lon="4.81792">
        <ele>350.6</ele>
        <time>2011-11-20T10:38:11Z</time>
      </trkpt>
      <trkpt lat="45.84792" lon="4.81792">
        <ele>350.8</ele>
        <time>2011-11-20T10:38:12Z</time>
      </trkpt>
      <trkpt lat="45.84793" lon="4.81797">
        <ele>352</ele>
        <time>2011-11-20T10:38:16Z</time>
      </trkpt>
      <trkpt lat="45.84794" lon="4.818">
        <ele>353</ele>
        <time>2011-11-20T10:38:18Z</time>
      </trkpt>
      <trkpt lat="45.84795" lon="4.81803">
        <ele>354.6</ele>
        <time>2011-11-20T10:38:23Z</time>
      </trkpt>
      <trkpt lat="45.84794" lon="4.81804">
        <ele>355.2</ele>
        <time>2011-11-20T10:38:25Z</time>
      </trkpt>
      <trkpt lat="45.84792" lon="4.81805">
        <ele>356</ele>
        <time>2011-11-20T10:38:27Z</time>
      </trkpt>
      <trkpt lat="45.84792" lon="4.81806">
        <ele>357.4</ele>
        <time>2011-11-20T10:38:32Z</time>
      </trkpt>
      <trkpt lat="45.84795" lon="4.81802">
        <ele>361.2</ele>
        <time>2011-11-20T10:39:21Z</time>
      </trkpt>
      <trkpt lat="45.84795" lon="4.81811">
        <ele>361</ele>
        <time>2011-11-20T10:39:28Z</time>
      </trkpt>
      <trkpt lat="45.84797" lon="4.81816">
        <ele>361</ele>
        <time>2011-11-20T10:39:31Z</time>
      </trkpt>
      <trkpt lat="45.84799" lon="4.81809">
        <ele>360.8</ele>
        <time>2011-11-20T10:39:41Z</time>
      </trkpt>
      <trkpt lat="45.84798" lon="4.81803">
        <ele>360.4</ele>
        <time>2011-11-20T10:39:45Z</time>
      </trkpt>
      <trkpt lat="45.84797" lon="4.81799">
        <ele>360.2</ele>
        <time>2011-11-20T10:39:49Z</time>
      </trkpt>
      <trkpt lat="45.84796" lon="4.81796">
        <ele>359.8</ele>
        <time>2011-11-20T10:39:53Z</time>
      </trkpt>
      <trkpt lat="45.8479" lon="4.81797">
        <ele>358.6</ele>
        <time>2011-11-20T10:40:05Z</time>
      </trkpt>
      <trkpt lat="45.84789" lon="4.81797">
        <ele>358.6</ele>
        <time>2011-11-20T10:40:06Z</time>
      </trkpt>
      <trkpt lat="45.84787" lon="4.81798">
        <ele>358.4</ele>
        <time>2011-11-20T10:40:08Z</time>
      </trkpt>
      <trkpt lat="45.84782" lon="4.818">
        <ele>357.6</ele>
        <time>2011-11-20T10:40:18Z</time>
      </trkpt>
      <trkpt lat="45.84779" lon="4.81799">
        <ele>357</ele>
        <time>2011-11-20T10:40:24Z</time>
      </trkpt>
      <trkpt lat="45.84776" lon="4.81801">
        <ele>356.2</ele>
        <time>2011-11-20T10:40:30Z</time>
      </trkpt>
      <trkpt lat="45.84776" lon="4.81805">
        <ele>355.4</ele>
        <time>2011-11-20T10:40:35Z</time>
      </trkpt>
      <trkpt lat="45.84775" lon="4.81809">
        <ele>354.6</ele>
        <time>2011-11-20T10:40:40Z</time>
      </trkpt>
      <trkpt lat="45.84774" lon="4.81809">
        <ele>354.4</ele>
        <time>2011-11-20T10:40:41Z</time>
      </trkpt>
      <trkpt lat="45.84774" lon="4.81815">
        <ele>353.6</ele>
        <time>2011-11-20T10:40:47Z</time>
      </trkpt>
      <trkpt lat="45.84774" lon="4.8182">
        <ele>353</ele>
        <time>2011-11-20T10:40:51Z</time>
      </trkpt>
      <trkpt lat="45.84776" lon="4.81825">
        <ele>352.4</ele>
        <time>2011-11-20T10:40:55Z</time>
      </trkpt>
      <trkpt lat="45.84777" lon="4.81825">
        <ele>352.2</ele>
        <time>2011-11-20T10:40:57Z</time>
      </trkpt>
      <trkpt lat="45.84778" lon="4.81827">
        <ele>351.8</ele>
        <time>2011-11-20T10:40:59Z</time>
      </trkpt>
      <trkpt lat="45.84803" lon="4.81844">
        <ele>348.6</ele>
        <time>2011-11-20T10:41:29Z</time>
      </trkpt>
      <trkpt lat="45.84803" lon="4.81845">
        <ele>348.6</ele>
        <time>2011-11-20T10:41:32Z</time>
      </trkpt>
      <trkpt lat="45.84804" lon="4.81846">
        <ele>348.6</ele>
        <time>2011-11-20T10:41:33Z</time>
      </trkpt>
      <trkpt lat="45.84807" lon="4.81851">
        <ele>348.6</ele>
        <time>2011-11-20T10:41:36Z</time>
      </trkpt>
      <trkpt lat="45.84807" lon="4.81853">
        <ele>348.8</ele>
        <time>2011-11-20T10:41:37Z</time>
      </trkpt>
      <trkpt lat="45.84805" lon="4.81857">
        <ele>349.2</ele>
        <time>2011-11-20T10:41:39Z</time>
      </trkpt>
      <trkpt lat="45.84807" lon="4.81861">
        <ele>349.2</ele>
        <time>2011-11-20T10:41:42Z</time>
      </trkpt>
      <trkpt lat="45.84806" lon="4.81864">
        <ele>349.4</ele>
        <time>2011-11-20T10:41:44Z</time>
      </trkpt>
      <trkpt lat="45.84807" lon="4.8187">
        <ele>349.4</ele>
        <time>2011-11-20T10:41:48Z</time>
      </trkpt>
      <trkpt lat="45.84809" lon="4.81873">
        <ele>349</ele>
        <time>2011-11-20T10:41:50Z</time>
      </trkpt>
      <trkpt lat="45.84808" lon="4.81879">
        <ele>348.6</ele>
        <time>2011-11-20T10:41:54Z</time>
      </trkpt>
      <trkpt lat="45.84808" lon="4.8188">
        <ele>348.6</ele>
        <time>2011-11-20T10:41:55Z</time>
      </trkpt>
      <trkpt lat="45.84808" lon="4.81882">
        <ele>348.4</ele>
        <time>2011-11-20T10:41:56Z</time>
      </trkpt>
      <trkpt lat="45.8481" lon="4.81886">
        <ele>347.6</ele>
        <time>2011-11-20T10:42:01Z</time>
      </trkpt>
      <trkpt lat="45.8481" lon="4.81888">
        <ele>347.4</ele>
        <time>2011-11-20T10:42:02Z</time>
      </trkpt>
      <trkpt lat="45.84811" lon="4.81899">
        <ele>346.2</ele>
        <time>2011-11-20T10:42:08Z</time>
      </trkpt>
      <trkpt lat="45.84811" lon="4.81902">
        <ele>343.8</ele>
        <time>2011-11-20T10:42:18Z</time>
      </trkpt>
      <trkpt lat="45.84811" lon="4.81902">
        <ele>343.6</ele>
        <time>2011-11-20T10:42:19Z</time>
      </trkpt>
      <trkpt lat="45.8481" lon="4.81902">
        <ele>343</ele>
        <time>2011-11-20T10:42:21Z</time>
      </trkpt>
      <trkpt lat="45.84807" lon="4.81901">
        <ele>342.2</ele>
        <time>2011-11-20T10:42:24Z</time>
      </trkpt>
      <trkpt lat="45.84806" lon="4.81903">
        <ele>340.2</ele>
        <time>2011-11-20T10:42:33Z</time>
      </trkpt>
      <trkpt lat="45.84802" lon="4.81904">
        <ele>339.4</ele>
        <time>2011-11-20T10:42:38Z</time>
      </trkpt>
      <trkpt lat="45.84801" lon="4.81905">
        <ele>339.2</ele>
        <time>2011-11-20T10:42:39Z</time>
      </trkpt>
      <trkpt lat="45.848" lon="4.81905">
        <ele>338.8</ele>
        <time>2011-11-20T10:42:40Z</time>
      </trkpt>
      <trkpt lat="45.84796" lon="4.81907">
        <ele>338.2</ele>
        <time>2011-11-20T10:42:43Z</time>
      </trkpt>
      <trkpt lat="45.84793" lon="4.81909">
        <ele>337.6</ele>
        <time>2011-11-20T10:42:46Z</time>
      </trkpt>
      <trkpt lat="45.84791" lon="4.8191">
        <ele>337.4</ele>
        <time>2011-11-20T10:42:47Z</time>
      </trkpt>
      <trkpt lat="45.84789" lon="4.81912">
        <ele>337</ele>
        <time>2011-11-20T10:42:49Z</time>
      </trkpt>
      <trkpt lat="45.8478" lon="4.8192">
        <ele>335.8</ele>
        <time>2011-11-20T10:42:55Z</time>
      </trkpt>
      <trkpt lat="45.84777" lon="4.81925">
        <ele>335.4</ele>
        <time>2011-11-20T10:42:57Z</time>
      </trkpt>
      <trkpt lat="45.84772" lon="4.81932">
        <ele>334.6</ele>
        <time>2011-11-20T10:43:01Z</time>
      </trkpt>
      <trkpt lat="45.84764" lon="4.81945">
        <ele>333.4</ele>
        <time>2011-11-20T10:43:08Z</time>
      </trkpt>
      <trkpt lat="45.84759" lon="4.81957">
        <ele>331.8</ele>
        <time>2011-11-20T10:43:15Z</time>
      </trkpt>
      <trkpt lat="45.84758" lon="4.8196">
        <ele>331.4</ele>
        <time>2011-11-20T10:43:17Z</time>
      </trkpt>
      <trkpt lat="45.84757" lon="4.81967">
        <ele>330.8</ele>
        <time>2011-11-20T10:43:20Z</time>
      </trkpt>
      <trkpt lat="45.84756" lon="4.81969">
        <ele>330.6</ele>
        <time>2011-11-20T10:43:21Z</time>
      </trkpt>
      <trkpt lat="45.84754" lon="4.81973">
        <ele>330.2</ele>
        <time>2011-11-20T10:43:23Z</time>
      </trkpt>
      <trkpt lat="45.84753" lon="4.81974">
        <ele>329.8</ele>
        <time>2011-11-20T10:43:24Z</time>
      </trkpt>
      <trkpt lat="45.84747" lon="4.81989">
        <ele>328</ele>
        <time>2011-11-20T10:43:32Z</time>
      </trkpt>
      <trkpt lat="45.84746" lon="4.81993">
        <ele>327.6</ele>
        <time>2011-11-20T10:43:34Z</time>
      </trkpt>
      <trkpt lat="45.84745" lon="4.81996">
        <ele>326.8</ele>
        <time>2011-11-20T10:43:37Z</time>
      </trkpt>
      <trkpt lat="45.84744" lon="4.81999">
        <ele>325.6</ele>
        <time>2011-11-20T10:43:41Z</time>
      </trkpt>
      <trkpt lat="45.84742" lon="4.82002">
        <ele>325.4</ele>
        <time>2011-11-20T10:43:42Z</time>
      </trkpt>
      <trkpt lat="45.84737" lon="4.82016">
        <ele>323.8</ele>
        <time>2011-11-20T10:43:47Z</time>
      </trkpt>
      <trkpt lat="45.84736" lon="4.82019">
        <ele>323.6</ele>
        <time>2011-11-20T10:43:48Z</time>
      </trkpt>
      <trkpt lat="45.8473" lon="4.82031">
        <ele>322.2</ele>
        <time>2011-11-20T10:43:53Z</time>
      </trkpt>
      <trkpt lat="45.84728" lon="4.82041">
        <ele>321.4</ele>
        <time>2011-11-20T10:43:56Z</time>
      </trkpt>
      <trkpt lat="45.84726" lon="4.82046">
        <ele>320.8</ele>
        <time>2011-11-20T10:43:58Z</time>
      </trkpt>
      <trkpt lat="45.84726" lon="4.82049">
        <ele>320.4</ele>
        <time>2011-11-20T10:43:59Z</time>
      </trkpt>
      <trkpt lat="45.84723" lon="4.82054">
        <ele>319.6</ele>
        <time>2011-11-20T10:44:02Z</time>
      </trkpt>
      <trkpt lat="45.84718" lon="4.82064">
        <ele>318.6</ele>
        <time>2011-11-20T10:44:06Z</time>
      </trkpt>
      <trkpt lat="45.84717" lon="4.82069">
        <ele>318</ele>
        <time>2011-11-20T10:44:08Z</time>
      </trkpt>
      <trkpt lat="45.84711" lon="4.8209">
        <ele>316.2</ele>
        <time>2011-11-20T10:44:15Z</time>
      </trkpt>
      <trkpt lat="45.84705" lon="4.82106">
        <ele>314.8</ele>
        <time>2011-11-20T10:44:20Z</time>
      </trkpt>
      <trkpt lat="45.847" lon="4.82113">
        <ele>314</ele>
        <time>2011-11-20T10:44:23Z</time>
      </trkpt>
      <trkpt lat="45.84698" lon="4.82115">
        <ele>313.6</ele>
        <time>2011-11-20T10:44:24Z</time>
      </trkpt>
      <trkpt lat="45.84683" lon="4.82121">
        <ele>312</ele>
        <time>2011-11-20T10:44:30Z</time>
      </trkpt>
      <trkpt lat="45.84681" lon="4.82121">
        <ele>311.8</ele>
        <time>2011-11-20T10:44:31Z</time>
      </trkpt>
      <trkpt lat="45.8468" lon="4.82122">
        <ele>311.4</ele>
        <time>2011-11-20T10:44:32Z</time>
      </trkpt>
      <trkpt lat="45.84682" lon="4.82124">
        <ele>311</ele>
        <time>2011-11-20T10:44:34Z</time>
      </trkpt>
      <trkpt lat="45.84692" lon="4.82127">
        <ele>309.8</ele>
        <time>2011-11-20T10:44:38Z</time>
      </trkpt>
      <trkpt lat="45.84693" lon="4.82133">
        <ele>309.2</ele>
        <time>2011-11-20T10:44:40Z</time>
      </trkpt>
      <trkpt lat="45.84692" lon="4.8214">
        <ele>308.8</ele>
        <time>2011-11-20T10:44:42Z</time>
      </trkpt>
      <trkpt lat="45.84689" lon="4.82153">
        <ele>307.6</ele>
        <time>2011-11-20T10:44:46Z</time>
      </trkpt>
      <trkpt lat="45.84686" lon="4.82158">
        <ele>307</ele>
        <time>2011-11-20T10:44:48Z</time>
      </trkpt>
      <trkpt lat="45.84681" lon="4.82162">
        <ele>306.2</ele>
        <time>2011-11-20T10:44:51Z</time>
      </trkpt>
      <trkpt lat="45.8467" lon="4.82173">
        <ele>304.6</ele>
        <time>2011-11-20T10:44:57Z</time>
      </trkpt>
      <trkpt lat="45.84668" lon="4.82176">
        <ele>304.2</ele>
        <time>2011-11-20T10:44:58Z</time>
      </trkpt>
      <trkpt lat="45.84656" lon="4.82192">
        <ele>302.2</ele>
        <time>2011-11-20T10:45:05Z</time>
      </trkpt>
      <trkpt lat="45.84654" lon="4.82194">
        <ele>302</ele>
        <time>2011-11-20T10:45:06Z</time>
      </trkpt>
      <trkpt lat="45.84643" lon="4.82211">
        <ele>299.8</ele>
        <time>2011-11-20T10:45:13Z</time>
      </trkpt>
      <trkpt lat="45.84633" lon="4.82228">
        <ele>298</ele>
        <time>2011-11-20T10:45:19Z</time>
      </trkpt>
      <trkpt lat="45.84631" lon="4.82231">
        <ele>297.6</ele>
        <time>2011-11-20T10:45:20Z</time>
      </trkpt>
      <trkpt lat="45.84628" lon="4.82241">
        <ele>296.6</ele>
        <time>2011-11-20T10:45:23Z</time>
      </trkpt>
      <trkpt lat="45.84624" lon="4.82257">
        <ele>295</ele>
        <time>2011-11-20T10:45:28Z</time>
      </trkpt>
      <trkpt lat="45.84619" lon="4.82276">
        <ele>293.2</ele>
        <time>2011-11-20T10:45:34Z</time>
      </trkpt>
      <trkpt lat="45.84615" lon="4.82282">
        <ele>292.4</ele>
        <time>2011-11-20T10:45:36Z</time>
      </trkpt>
      <trkpt lat="45.84607" lon="4.82292">
        <ele>291</ele>
        <time>2011-11-20T10:45:40Z</time>
      </trkpt>
      <trkpt lat="45.84604" lon="4.82303">
        <ele>289.8</ele>
        <time>2011-11-20T10:45:43Z</time>
      </trkpt>
      <trkpt lat="45.84603" lon="4.82308">
        <ele>289.4</ele>
        <time>2011-11-20T10:45:44Z</time>
      </trkpt>
      <trkpt lat="45.84601" lon="4.82325">
        <ele>288</ele>
        <time>2011-11-20T10:45:48Z</time>
      </trkpt>
      <trkpt lat="45.84601" lon="4.82329">
        <ele>287.6</ele>
        <time>2011-11-20T10:45:49Z</time>
      </trkpt>
      <trkpt lat="45.84599" lon="4.82343">
        <ele>286.2</ele>
        <time>2011-11-20T10:45:53Z</time>
      </trkpt>
      <trkpt lat="45.84594" lon="4.82357">
        <ele>284.4</ele>
        <time>2011-11-20T10:45:58Z</time>
      </trkpt>
      <trkpt lat="45.84589" lon="4.82373">
        <ele>282.4</ele>
        <time>2011-11-20T10:46:03Z</time>
      </trkpt>
      <trkpt lat="45.84586" lon="4.82381">
        <ele>281.2</ele>
        <time>2011-11-20T10:46:06Z</time>
      </trkpt>
      <trkpt lat="45.84582" lon="4.82389">
        <ele>280.2</ele>
        <time>2011-11-20T10:46:09Z</time>
      </trkpt>
      <trkpt lat="45.84574" lon="4.82401">
        <ele>277.8</ele>
        <time>2011-11-20T10:46:14Z</time>
      </trkpt>
      <trkpt lat="45.84568" lon="4.8241">
        <ele>276</ele>
        <time>2011-11-20T10:46:18Z</time>
      </trkpt>
      <trkpt lat="45.84561" lon="4.82416">
        <ele>274.4</ele>
        <time>2011-11-20T10:46:22Z</time>
      </trkpt>
      <trkpt lat="45.8456" lon="4.82417">
        <ele>273.8</ele>
        <time>2011-11-20T10:46:23Z</time>
      </trkpt>
      <trkpt lat="45.84553" lon="4.82427">
        <ele>271.4</ele>
        <time>2011-11-20T10:46:28Z</time>
      </trkpt>
      <trkpt lat="45.8455" lon="4.82431">
        <ele>270.4</ele>
        <time>2011-11-20T10:46:30Z</time>
      </trkpt>
      <trkpt lat="45.84546" lon="4.82437">
        <ele>269</ele>
        <time>2011-11-20T10:46:33Z</time>
      </trkpt>
      <trkpt lat="45.84537" lon="4.82456">
        <ele>265.8</ele>
        <time>2011-11-20T10:46:40Z</time>
      </trkpt>
      <trkpt lat="45.84536" lon="4.82459">
        <ele>265.4</ele>
        <time>2011-11-20T10:46:41Z</time>
      </trkpt>
      <trkpt lat="45.84531" lon="4.8247">
        <ele>263.6</ele>
        <time>2011-11-20T10:46:45Z</time>
      </trkpt>
      <trkpt lat="45.84526" lon="4.82482">
        <ele>261.8</ele>
        <time>2011-11-20T10:46:49Z</time>
      </trkpt>
      <trkpt lat="45.84525" lon="4.82484">
        <ele>261.2</ele>
        <time>2011-11-20T10:46:50Z</time>
      </trkpt>
      <trkpt lat="45.84522" lon="4.82491">
        <ele>260.4</ele>
        <time>2011-11-20T10:46:52Z</time>
      </trkpt>
      <trkpt lat="45.84519" lon="4.82503">
        <ele>259.2</ele>
        <time>2011-11-20T10:46:55Z</time>
      </trkpt>
      <trkpt lat="45.84518" lon="4.82506">
        <ele>258.6</ele>
        <time>2011-11-20T10:46:56Z</time>
      </trkpt>
      <trkpt lat="45.84517" lon="4.82512">
        <ele>257.6</ele>
        <time>2011-11-20T10:46:58Z</time>
      </trkpt>
      <trkpt lat="45.84518" lon="4.82534">
        <ele>255.2</ele>
        <time>2011-11-20T10:47:04Z</time>
      </trkpt>
      <trkpt lat="45.84517" lon="4.82551">
        <ele>253.6</ele>
        <time>2011-11-20T10:47:08Z</time>
      </trkpt>
      <trkpt lat="45.84515" lon="4.82563">
        <ele>252</ele>
        <time>2011-11-20T10:47:12Z</time>
      </trkpt>
      <trkpt lat="45.84513" lon="4.82566">
        <ele>251.2</ele>
        <time>2011-11-20T10:47:14Z</time>
      </trkpt>
      <trkpt lat="45.84508" lon="4.82567">
        <ele>245.8</ele>
        <time>2011-11-20T10:47:28Z</time>
      </trkpt>
      <trkpt lat="45.84509" lon="4.82571">
        <ele>245</ele>
        <time>2011-11-20T10:47:30Z</time>
      </trkpt>
      <trkpt lat="45.84509" lon="4.8258">
        <ele>243.8</ele>
        <time>2011-11-20T10:47:33Z</time>
      </trkpt>
      <trkpt lat="45.84509" lon="4.82583">
        <ele>243.4</ele>
        <time>2011-11-20T10:47:34Z</time>
      </trkpt>
      <trkpt lat="45.84498" lon="4.82583">
        <ele>241.2</ele>
        <time>2011-11-20T10:47:39Z</time>
      </trkpt>
      <trkpt lat="45.84496" lon="4.82577">
        <ele>240</ele>
        <time>2011-11-20T10:47:42Z</time>
      </trkpt>
      <trkpt lat="45.84497" lon="4.8257">
        <ele>238.6</ele>
        <time>2011-11-20T10:47:46Z</time>
      </trkpt>
      <trkpt lat="45.84495" lon="4.8257">
        <ele>238.4</ele>
        <time>2011-11-20T10:47:47Z</time>
      </trkpt>
      <trkpt lat="45.84491" lon="4.82571">
        <ele>236.8</ele>
        <time>2011-11-20T10:47:51Z</time>
      </trkpt>
      <trkpt lat="45.8449" lon="4.82572">
        <ele>236.6</ele>
        <time>2011-11-20T10:47:52Z</time>
      </trkpt>
      <trkpt lat="45.84486" lon="4.82572">
        <ele>235.8</ele>
        <time>2011-11-20T10:47:54Z</time>
      </trkpt>
      <trkpt lat="45.84481" lon="4.82573">
        <ele>234.6</ele>
        <time>2011-11-20T10:47:57Z</time>
      </trkpt>
      <trkpt lat="45.8448" lon="4.82573">
        <ele>234.2</ele>
        <time>2011-11-20T10:47:58Z</time>
      </trkpt>
      <trkpt lat="45.84472" lon="4.82577">
        <ele>232.4</ele>
        <time>2011-11-20T10:48:03Z</time>
      </trkpt>
      <trkpt lat="45.84469" lon="4.82579">
        <ele>231</ele>
        <time>2011-11-20T10:48:07Z</time>
      </trkpt>
      <trkpt lat="45.84468" lon="4.82579">
        <ele>230.6</ele>
        <time>2011-11-20T10:48:08Z</time>
      </trkpt>
      <trkpt lat="45.84466" lon="4.82579">
        <ele>229.8</ele>
        <time>2011-11-20T10:48:10Z</time>
      </trkpt>
      <trkpt lat="45.84465" lon="4.82579">
        <ele>229.2</ele>
        <time>2011-11-20T10:48:13Z</time>
      </trkpt>
      <trkpt lat="45.84462" lon="4.82591">
        <ele>222.8</ele>
        <time>2011-11-20T10:48:40Z</time>
      </trkpt>
      <trkpt lat="45.84457" lon="4.82604">
        <ele>221.8</ele>
        <time>2011-11-20T10:48:44Z</time>
      </trkpt>
      <trkpt lat="45.84455" lon="4.82607">
        <ele>221.6</ele>
        <time>2011-11-20T10:48:45Z</time>
      </trkpt>
      <trkpt lat="45.84441" lon="4.82612">
        <ele>220.4</ele>
        <time>2011-11-20T10:48:50Z</time>
      </trkpt>
      <trkpt lat="45.84438" lon="4.82613">
        <ele>220</ele>
        <time>2011-11-20T10:48:51Z</time>
      </trkpt>
      <trkpt lat="45.84431" lon="4.82617">
        <ele>219.2</ele>
        <time>2011-11-20T10:48:54Z</time>
      </trkpt>
      <trkpt lat="45.84421" lon="4.82626">
        <ele>218</ele>
        <time>2011-11-20T10:48:59Z</time>
      </trkpt>
      <trkpt lat="45.84412" lon="4.82641">
        <ele>216.6</ele>
        <time>2011-11-20T10:49:05Z</time>
      </trkpt>
      <trkpt lat="45.84407" lon="4.82645">
        <ele>216.2</ele>
        <time>2011-11-20T10:49:07Z</time>
      </trkpt>
      <trkpt lat="45.84398" lon="4.8265">
        <ele>215.4</ele>
        <time>2011-11-20T10:49:11Z</time>
      </trkpt>
      <trkpt lat="45.8439" lon="4.82655">
        <ele>214.8</ele>
        <time>2011-11-20T10:49:14Z</time>
      </trkpt>
      <trkpt lat="45.84385" lon="4.82662">
        <ele>214.2</ele>
        <time>2011-11-20T10:49:17Z</time>
      </trkpt>
      <trkpt lat="45.84385" lon="4.82666">
        <ele>214</ele>
        <time>2011-11-20T10:49:18Z</time>
      </trkpt>
      <trkpt lat="45.84386" lon="4.82679">
        <ele>213.6</ele>
        <time>2011-11-20T10:49:21Z</time>
      </trkpt>
      <trkpt lat="45.84389" lon="4.82696">
        <ele>212.8</ele>
        <time>2011-11-20T10:49:26Z</time>
      </trkpt>
      <trkpt lat="45.84392" lon="4.82703">
        <ele>212.6</ele>
        <time>2011-11-20T10:49:28Z</time>
      </trkpt>
      <trkpt lat="45.84396" lon="4.82712">
        <ele>211.8</ele>
        <time>2011-11-20T10:49:31Z</time>
      </trkpt>
      <trkpt lat="45.84407" lon="4.82723">
        <ele>211.2</ele>
        <time>2011-11-20T10:49:35Z</time>
      </trkpt>
      <trkpt lat="45.84413" lon="4.82738">
        <ele>210.4</ele>
        <time>2011-11-20T10:49:39Z</time>
      </trkpt>
      <trkpt lat="45.84414" lon="4.82743">
        <ele>210.2</ele>
        <time>2011-11-20T10:49:40Z</time>
      </trkpt>
      <trkpt lat="45.84415" lon="4.82747">
        <ele>210</ele>
        <time>2011-11-20T10:49:41Z</time>
      </trkpt>
      <trkpt lat="45.8442" lon="4.82766">
        <ele>209</ele>
        <time>2011-11-20T10:49:46Z</time>
      </trkpt>
      <trkpt lat="45.84422" lon="4.82773">
        <ele>208.6</ele>
        <time>2011-11-20T10:49:48Z</time>
      </trkpt>
      <trkpt lat="45.84426" lon="4.82788">
        <ele>207.8</ele>
        <time>2011-11-20T10:49:52Z</time>
      </trkpt>
      <trkpt lat="45.84429" lon="4.82798">
        <ele>207.2</ele>
        <time>2011-11-20T10:49:55Z</time>
      </trkpt>
      <trkpt lat="45.84431" lon="4.82804">
        <ele>206.8</ele>
        <time>2011-11-20T10:49:57Z</time>
      </trkpt>
      <trkpt lat="45.84431" lon="4.82805">
        <ele>206.6</ele>
        <time>2011-11-20T10:49:58Z</time>
      </trkpt>
      <trkpt lat="45.84429" lon="4.82807">
        <ele>206</ele>
        <time>2011-11-20T10:50:01Z</time>
      </trkpt>
      <trkpt lat="45.8442" lon="4.82803">
        <ele>205</ele>
        <time>2011-11-20T10:50:07Z</time>
      </trkpt>
      <trkpt lat="45.84418" lon="4.82803">
        <ele>204.8</ele>
        <time>2011-11-20T10:50:08Z</time>
      </trkpt>
      <trkpt lat="45.84406" lon="4.82801">
        <ele>204</ele>
        <time>2011-11-20T10:50:14Z</time>
      </trkpt>
      <trkpt lat="45.844" lon="4.82802">
        <ele>203.8</ele>
        <time>2011-11-20T10:50:16Z</time>
      </trkpt>
      <trkpt lat="45.84388" lon="4.82796">
        <ele>203.2</ele>
        <time>2011-11-20T10:50:21Z</time>
      </trkpt>
      <trkpt lat="45.84383" lon="4.82793">
        <ele>203</ele>
        <time>2011-11-20T10:50:23Z</time>
      </trkpt>
      <trkpt lat="45.84373" lon="4.82788">
        <ele>202.6</ele>
        <time>2011-11-20T10:50:27Z</time>
      </trkpt>
      <trkpt lat="45.84365" lon="4.82788">
        <ele>202.2</ele>
        <time>2011-11-20T10:50:30Z</time>
      </trkpt>
      <trkpt lat="45.84356" lon="4.82786">
        <ele>201.8</ele>
        <time>2011-11-20T10:50:33Z</time>
      </trkpt>
      <trkpt lat="45.84345" lon="4.82783">
        <ele>201.4</ele>
        <time>2011-11-20T10:50:37Z</time>
      </trkpt>
      <trkpt lat="45.8433" lon="4.82781">
        <ele>200.6</ele>
        <time>2011-11-20T10:50:43Z</time>
      </trkpt>
      <trkpt lat="45.84327" lon="4.82781">
        <ele>200.6</ele>
        <time>2011-11-20T10:50:44Z</time>
      </trkpt>
      <trkpt lat="45.84317" lon="4.82781">
        <ele>200</ele>
        <time>2011-11-20T10:50:48Z</time>
      </trkpt>
      <trkpt lat="45.84309" lon="4.82781">
        <ele>199.4</ele>
        <time>2011-11-20T10:50:51Z</time>
      </trkpt>
      <trkpt lat="45.84295" lon="4.82782">
        <ele>198.4</ele>
        <time>2011-11-20T10:50:56Z</time>
      </trkpt>
      <trkpt lat="45.8429" lon="4.82783">
        <ele>198</ele>
        <time>2011-11-20T10:50:58Z</time>
      </trkpt>
      <trkpt lat="45.84279" lon="4.82782">
        <ele>197.4</ele>
        <time>2011-11-20T10:51:02Z</time>
      </trkpt>
      <trkpt lat="45.8427" lon="4.82782">
        <ele>196.8</ele>
        <time>2011-11-20T10:51:05Z</time>
      </trkpt>
      <trkpt lat="45.84262" lon="4.82782">
        <ele>196.2</ele>
        <time>2011-11-20T10:51:08Z</time>
      </trkpt>
      <trkpt lat="45.84251" lon="4.82782">
        <ele>195.4</ele>
        <time>2011-11-20T10:51:12Z</time>
      </trkpt>
      <trkpt lat="45.84246" lon="4.82782">
        <ele>195</ele>
        <time>2011-11-20T10:51:14Z</time>
      </trkpt>
      <trkpt lat="45.84233" lon="4.82782">
        <ele>193.8</ele>
        <time>2011-11-20T10:51:19Z</time>
      </trkpt>
      <trkpt lat="45.84217" lon="4.8278">
        <ele>192.6</ele>
        <time>2011-11-20T10:51:25Z</time>
      </trkpt>
      <trkpt lat="45.84214" lon="4.82779">
        <ele>192.4</ele>
        <time>2011-11-20T10:51:26Z</time>
      </trkpt>
      <trkpt lat="45.84203" lon="4.8278">
        <ele>191.2</ele>
        <time>2011-11-20T10:51:31Z</time>
      </trkpt>
      <trkpt lat="45.84196" lon="4.82779">
        <ele>190.4</ele>
        <time>2011-11-20T10:51:34Z</time>
      </trkpt>
      <trkpt lat="45.84186" lon="4.82781">
        <ele>189</ele>
        <time>2011-11-20T10:51:38Z</time>
      </trkpt>
      <trkpt lat="45.84177" lon="4.8278">
        <ele>187.6</ele>
        <time>2011-11-20T10:51:42Z</time>
      </trkpt>
      <trkpt lat="45.84172" lon="4.8278">
        <ele>186.8</ele>
        <time>2011-11-20T10:51:44Z</time>
      </trkpt>
      <trkpt lat="45.84156" lon="4.82787">
        <ele>185.8</ele>
        <time>2011-11-20T10:51:49Z</time>
      </trkpt>
      <trkpt lat="45.84139" lon="4.82794">
        <ele>184.6</ele>
        <time>2011-11-20T10:51:55Z</time>
      </trkpt>
      <trkpt lat="45.84136" lon="4.82794">
        <ele>184.4</ele>
        <time>2011-11-20T10:51:56Z</time>
      </trkpt>
      <trkpt lat="45.84126" lon="4.82795">
        <ele>183.6</ele>
        <time>2011-11-20T10:52:00Z</time>
      </trkpt>
      <trkpt lat="45.84116" lon="4.82797">
        <ele>182.6</ele>
        <time>2011-11-20T10:52:04Z</time>
      </trkpt>
      <trkpt lat="45.84113" lon="4.82796">
        <ele>182.4</ele>
        <time>2011-11-20T10:52:05Z</time>
      </trkpt>
      <trkpt lat="45.84102" lon="4.82797">
        <ele>181.4</ele>
        <time>2011-11-20T10:52:09Z</time>
      </trkpt>
      <trkpt lat="45.84098" lon="4.82799">
        <ele>181</ele>
        <time>2011-11-20T10:52:11Z</time>
      </trkpt>
      <trkpt lat="45.84093" lon="4.82801">
        <ele>180.4</ele>
        <time>2011-11-20T10:52:13Z</time>
      </trkpt>
      <trkpt lat="45.8409" lon="4.82802">
        <ele>180.2</ele>
        <time>2011-11-20T10:52:14Z</time>
      </trkpt>
      <trkpt lat="45.84078" lon="4.82808">
        <ele>179.2</ele>
        <time>2011-11-20T10:52:19Z</time>
      </trkpt>
      <trkpt lat="45.84072" lon="4.82819">
        <ele>179.4</ele>
        <time>2011-11-20T10:52:25Z</time>
      </trkpt>
      <trkpt lat="45.84072" lon="4.82819">
        <ele>179.4</ele>
        <time>2011-11-20T10:52:26Z</time>
      </trkpt>
      <trkpt lat="45.8407" lon="4.8282">
        <ele>179.4</ele>
        <time>2011-11-20T10:52:29Z</time>
      </trkpt>
      <trkpt lat="45.84065" lon="4.82822">
        <ele>179.4</ele>
        <time>2011-11-20T10:52:32Z</time>
      </trkpt>
      <trkpt lat="45.84061" lon="4.82823">
        <ele>179.2</ele>
        <time>2011-11-20T10:52:34Z</time>
      </trkpt>
      <trkpt lat="45.84059" lon="4.82823">
        <ele>179</ele>
        <time>2011-11-20T10:52:35Z</time>
      </trkpt>
      <trkpt lat="45.84053" lon="4.82822">
        <ele>178.8</ele>
        <time>2011-11-20T10:52:38Z</time>
      </trkpt>
      <trkpt lat="45.84048" lon="4.82823">
        <ele>178.6</ele>
        <time>2011-11-20T10:52:40Z</time>
      </trkpt>
      <trkpt lat="45.84041" lon="4.82826">
        <ele>178.4</ele>
        <time>2011-11-20T10:52:44Z</time>
      </trkpt>
      <trkpt lat="45.8404" lon="4.82827">
        <ele>178.4</ele>
        <time>2011-11-20T10:52:45Z</time>
      </trkpt>
      <trkpt lat="45.84036" lon="4.8283">
        <ele>177.8</ele>
        <time>2011-11-20T10:52:49Z</time>
      </trkpt>
      <trkpt lat="45.84032" lon="4.8283">
        <ele>177.4</ele>
        <time>2011-11-20T10:52:52Z</time>
      </trkpt>
      <trkpt lat="45.84028" lon="4.82832">
        <ele>176.6</ele>
        <time>2011-11-20T10:52:58Z</time>
      </trkpt>
      <trkpt lat="45.84023" lon="4.82834">
        <ele>176.2</ele>
        <time>2011-11-20T10:53:06Z</time>
      </trkpt>
      <trkpt lat="45.84021" lon="4.82835">
        <ele>176</ele>
        <time>2011-11-20T10:53:07Z</time>
      </trkpt>
      <trkpt lat="45.84004" lon="4.82839">
        <ele>175.8</ele>
        <time>2011-11-20T10:53:13Z</time>
      </trkpt>
      <trkpt lat="45.83994" lon="4.82844">
        <ele>175.4</ele>
        <time>2011-11-20T10:53:18Z</time>
      </trkpt>
      <trkpt lat="45.83987" lon="4.82851">
        <ele>175.2</ele>
        <time>2011-11-20T10:53:22Z</time>
      </trkpt>
      <trkpt lat="45.83985" lon="4.82851">
        <ele>175.2</ele>
        <time>2011-11-20T10:53:23Z</time>
      </trkpt>
      <trkpt lat="45.83979" lon="4.82842">
        <ele>175</ele>
        <time>2011-11-20T10:53:27Z</time>
      </trkpt>
      <trkpt lat="45.83977" lon="4.82838">
        <ele>174.8</ele>
        <time>2011-11-20T10:53:29Z</time>
      </trkpt>
      <trkpt lat="45.83973" lon="4.82832">
        <ele>174.8</ele>
        <time>2011-11-20T10:53:32Z</time>
      </trkpt>
      <trkpt lat="45.83971" lon="4.8283">
        <ele>174.8</ele>
        <time>2011-11-20T10:53:33Z</time>
      </trkpt>
      <trkpt lat="45.83964" lon="4.82818">
        <ele>174.8</ele>
        <time>2011-11-20T10:53:38Z</time>
      </trkpt>
      <trkpt lat="45.83958" lon="4.82812">
        <ele>175</ele>
        <time>2011-11-20T10:53:41Z</time>
      </trkpt>
      <trkpt lat="45.83952" lon="4.82806">
        <ele>175</ele>
        <time>2011-11-20T10:53:44Z</time>
      </trkpt>
      <trkpt lat="45.83944" lon="4.82795">
        <ele>175.6</ele>
        <time>2011-11-20T10:53:49Z</time>
      </trkpt>
      <trkpt lat="45.83943" lon="4.82793">
        <ele>175.8</ele>
        <time>2011-11-20T10:53:50Z</time>
      </trkpt>
      <trkpt lat="45.83936" lon="4.82786">
        <ele>176.2</ele>
        <time>2011-11-20T10:53:54Z</time>
      </trkpt>
      <trkpt lat="45.83929" lon="4.82777">
        <ele>176.8</ele>
        <time>2011-11-20T10:53:58Z</time>
      </trkpt>
      <trkpt lat="45.83928" lon="4.82776">
        <ele>176.8</ele>
        <time>2011-11-20T10:53:59Z</time>
      </trkpt>
      <trkpt lat="45.83918" lon="4.82765">
        <ele>177.2</ele>
        <time>2011-11-20T10:54:05Z</time>
      </trkpt>
      <trkpt lat="45.83914" lon="4.82761">
        <ele>177.4</ele>
        <time>2011-11-20T10:54:07Z</time>
      </trkpt>
      <trkpt lat="45.83906" lon="4.82753">
        <ele>177.4</ele>
        <time>2011-11-20T10:54:12Z</time>
      </trkpt>
      <trkpt lat="45.83899" lon="4.82747">
        <ele>177.6</ele>
        <time>2011-11-20T10:54:16Z</time>
      </trkpt>
      <trkpt lat="45.83895" lon="4.82744">
        <ele>177.8</ele>
        <time>2011-11-20T10:54:18Z</time>
      </trkpt>
      <trkpt lat="45.83884" lon="4.82736">
        <ele>178.4</ele>
        <time>2011-11-20T10:54:24Z</time>
      </trkpt>
      <trkpt lat="45.83882" lon="4.82734">
        <ele>178.4</ele>
        <time>2011-11-20T10:54:25Z</time>
      </trkpt>
      <trkpt lat="45.83873" lon="4.82725">
        <ele>178.4</ele>
        <time>2011-11-20T10:54:30Z</time>
      </trkpt>
      <trkpt lat="45.83866" lon="4.82721">
        <ele>178.6</ele>
        <time>2011-11-20T10:54:35Z</time>
      </trkpt>
      <trkpt lat="45.8386" lon="4.82704">
        <ele>180</ele>
        <time>2011-11-20T10:54:40Z</time>
      </trkpt>
      <trkpt lat="45.83858" lon="4.82697">
        <ele>180</ele>
        <time>2011-11-20T10:54:41Z</time>
      </trkpt>
      <trkpt lat="45.83855" lon="4.82694">
        <ele>180.2</ele>
        <time>2011-11-20T10:54:43Z</time>
      </trkpt>
      <trkpt lat="45.83854" lon="4.8268">
        <ele>181.4</ele>
        <time>2011-11-20T10:54:48Z</time>
      </trkpt>
      <trkpt lat="45.83852" lon="4.82671">
        <ele>182.2</ele>
        <time>2011-11-20T10:54:52Z</time>
      </trkpt>
      <trkpt lat="45.8385" lon="4.82666">
        <ele>182.4</ele>
        <time>2011-11-20T10:54:54Z</time>
      </trkpt>
      <trkpt lat="45.83843" lon="4.82651">
        <ele>183</ele>
        <time>2011-11-20T10:54:59Z</time>
      </trkpt>
      <trkpt lat="45.83842" lon="4.82648">
        <ele>183</ele>
        <time>2011-11-20T10:55:00Z</time>
      </trkpt>
      <trkpt lat="45.83838" lon="4.82636">
        <ele>183.6</ele>
        <time>2011-11-20T10:55:04Z</time>
      </trkpt>
      <trkpt lat="45.83835" lon="4.82621">
        <ele>184.2</ele>
        <time>2011-11-20T10:55:09Z</time>
      </trkpt>
      <trkpt lat="45.83833" lon="4.82615">
        <ele>184.6</ele>
        <time>2011-11-20T10:55:11Z</time>
      </trkpt>
      <trkpt lat="45.8383" lon="4.82598">
        <ele>185.6</ele>
        <time>2011-11-20T10:55:17Z</time>
      </trkpt>
      <trkpt lat="45.83829" lon="4.82595">
        <ele>185.8</ele>
        <time>2011-11-20T10:55:18Z</time>
      </trkpt>
      <trkpt lat="45.83828" lon="4.82586">
        <ele>186</ele>
        <time>2011-11-20T10:55:21Z</time>
      </trkpt>
      <trkpt lat="45.83825" lon="4.82568">
        <ele>186.6</ele>
        <time>2011-11-20T10:55:27Z</time>
      </trkpt>
      <trkpt lat="45.83821" lon="4.8255">
        <ele>187.2</ele>
        <time>2011-11-20T10:55:32Z</time>
      </trkpt>
      <trkpt lat="45.83819" lon="4.82541">
        <ele>187.6</ele>
        <time>2011-11-20T10:55:35Z</time>
      </trkpt>
      <trkpt lat="45.83817" lon="4.82531">
        <ele>188</ele>
        <time>2011-11-20T10:55:38Z</time>
      </trkpt>
      <trkpt lat="45.83817" lon="4.82515">
        <ele>189</ele>
        <time>2011-11-20T10:55:43Z</time>
      </trkpt>
      <trkpt lat="45.83815" lon="4.8251">
        <ele>189.4</ele>
        <time>2011-11-20T10:55:45Z</time>
      </trkpt>
      <trkpt lat="45.83812" lon="4.82509">
        <ele>189.8</ele>
        <time>2011-11-20T10:55:47Z</time>
      </trkpt>
      <trkpt lat="45.838" lon="4.82505">
        <ele>190.6</ele>
        <time>2011-11-20T10:55:52Z</time>
      </trkpt>
      <trkpt lat="45.83798" lon="4.82505">
        <ele>190.8</ele>
        <time>2011-11-20T10:55:53Z</time>
      </trkpt>
    </trkseg>
  </trk>
</gpx>